<?xml version="1.0" encoding="UTF-8" standalone="no" ?>
<gpx xmlns="http://www.topografix.com/GPX/1/1" xmlns:xsi="http://www.w3.org/2001/XMLSchema-instance" xsi:schemaLocation="http://www.topografix.com/GPX/1/1 http://www.topografix.com/GPX/1/1/gpx.xsd" version="1.1" creator="VisuGPX - https://www.visugpx.com">
  <metadata>
    <name>Saint-Donan : Circuit de Sainte-Catherine</name>
    <desc><![CDATA[Une balade d\'environ 11 km répertoriée par la commune ]]></desc>
  </metadata>
  <trk>
    <name><![CDATA[La Godasse]]></name>
    <trkseg>
      <trkpt lat="48.46257" lon="-2.90547">
        <ele>270</ele>
        <time>2014-02-16T13:11:26.1Z</time>
      </trkpt>
      <trkpt lat="48.46256" lon="-2.90547">
        <ele>270</ele>
        <time>2014-02-16T13:11:28.1Z</time>
      </trkpt>
      <trkpt lat="48.46256" lon="-2.90546">
        <ele>270</ele>
        <time>2014-02-16T13:11:30.1Z</time>
      </trkpt>
      <trkpt lat="48.46255" lon="-2.90545">
        <ele>270</ele>
        <time>2014-02-16T13:11:33.1Z</time>
      </trkpt>
      <trkpt lat="48.46252" lon="-2.90544">
        <ele>270</ele>
        <time>2014-02-16T13:11:36.1Z</time>
      </trkpt>
      <trkpt lat="48.46249" lon="-2.90544">
        <ele>270</ele>
        <time>2014-02-16T13:11:39.1Z</time>
      </trkpt>
      <trkpt lat="48.46246" lon="-2.90544">
        <ele>270</ele>
        <time>2014-02-16T13:11:42.1Z</time>
      </trkpt>
      <trkpt lat="48.46244" lon="-2.90544">
        <ele>270</ele>
        <time>2014-02-16T13:11:44.1Z</time>
      </trkpt>
      <trkpt lat="48.46241" lon="-2.90544">
        <ele>270</ele>
        <time>2014-02-16T13:11:47.1Z</time>
      </trkpt>
      <trkpt lat="48.46239" lon="-2.90545">
        <ele>270</ele>
        <time>2014-02-16T13:11:49.1Z</time>
      </trkpt>
      <trkpt lat="48.46237" lon="-2.90545">
        <ele>270</ele>
        <time>2014-02-16T13:11:51.1Z</time>
      </trkpt>
      <trkpt lat="48.46233" lon="-2.90544">
        <ele>269</ele>
        <time>2014-02-16T13:11:54.1Z</time>
      </trkpt>
      <trkpt lat="48.4623" lon="-2.90544">
        <ele>269</ele>
        <time>2014-02-16T13:11:57.1Z</time>
      </trkpt>
      <trkpt lat="48.46228" lon="-2.90545">
        <ele>269</ele>
        <time>2014-02-16T13:11:59.1Z</time>
      </trkpt>
      <trkpt lat="48.46227" lon="-2.90544">
        <ele>269</ele>
        <time>2014-02-16T13:12:02.1Z</time>
      </trkpt>
      <trkpt lat="48.46225" lon="-2.90544">
        <ele>269</ele>
        <time>2014-02-16T13:12:05.1Z</time>
      </trkpt>
      <trkpt lat="48.46223" lon="-2.90543">
        <ele>269</ele>
        <time>2014-02-16T13:12:08.1Z</time>
      </trkpt>
      <trkpt lat="48.4622" lon="-2.90543">
        <ele>270</ele>
        <time>2014-02-16T13:12:11.1Z</time>
      </trkpt>
      <trkpt lat="48.46218" lon="-2.90543">
        <ele>269</ele>
        <time>2014-02-16T13:12:13.1Z</time>
      </trkpt>
      <trkpt lat="48.46215" lon="-2.90543">
        <ele>269</ele>
        <time>2014-02-16T13:12:16.1Z</time>
      </trkpt>
      <trkpt lat="48.46212" lon="-2.90543">
        <ele>269</ele>
        <time>2014-02-16T13:12:19.1Z</time>
      </trkpt>
      <trkpt lat="48.4621" lon="-2.90543">
        <ele>269</ele>
        <time>2014-02-16T13:12:21.1Z</time>
      </trkpt>
      <trkpt lat="48.46208" lon="-2.90544">
        <ele>269</ele>
        <time>2014-02-16T13:12:23.1Z</time>
      </trkpt>
      <trkpt lat="48.46204" lon="-2.90544">
        <ele>268</ele>
        <time>2014-02-16T13:12:26.1Z</time>
      </trkpt>
      <trkpt lat="48.46201" lon="-2.90545">
        <ele>268</ele>
        <time>2014-02-16T13:12:29.1Z</time>
      </trkpt>
      <trkpt lat="48.46199" lon="-2.90545">
        <ele>268</ele>
        <time>2014-02-16T13:12:31.1Z</time>
      </trkpt>
      <trkpt lat="48.46196" lon="-2.90546">
        <ele>268</ele>
        <time>2014-02-16T13:12:34.1Z</time>
      </trkpt>
      <trkpt lat="48.46193" lon="-2.90547">
        <ele>268</ele>
        <time>2014-02-16T13:12:37.1Z</time>
      </trkpt>
      <trkpt lat="48.46189" lon="-2.90548">
        <ele>269</ele>
        <time>2014-02-16T13:12:40.1Z</time>
      </trkpt>
      <trkpt lat="48.46186" lon="-2.90549">
        <ele>268</ele>
        <time>2014-02-16T13:12:43.1Z</time>
      </trkpt>
      <trkpt lat="48.46184" lon="-2.9055">
        <ele>268</ele>
        <time>2014-02-16T13:12:45.1Z</time>
      </trkpt>
      <trkpt lat="48.46182" lon="-2.90551">
        <ele>268</ele>
        <time>2014-02-16T13:12:47.1Z</time>
      </trkpt>
      <trkpt lat="48.4618" lon="-2.90552">
        <ele>268</ele>
        <time>2014-02-16T13:12:50.1Z</time>
      </trkpt>
      <trkpt lat="48.46178" lon="-2.90551">
        <ele>268</ele>
        <time>2014-02-16T13:12:53.1Z</time>
      </trkpt>
      <trkpt lat="48.46177" lon="-2.90551">
        <ele>268</ele>
        <time>2014-02-16T13:12:55.1Z</time>
      </trkpt>
      <trkpt lat="48.46176" lon="-2.90551">
        <ele>268</ele>
        <time>2014-02-16T13:12:58.1Z</time>
      </trkpt>
      <trkpt lat="48.46175" lon="-2.90548">
        <ele>268</ele>
        <time>2014-02-16T13:13:01.1Z</time>
      </trkpt>
      <trkpt lat="48.46174" lon="-2.90549">
        <ele>268</ele>
        <time>2014-02-16T13:13:03.1Z</time>
      </trkpt>
      <trkpt lat="48.46173" lon="-2.90549">
        <ele>268</ele>
        <time>2014-02-16T13:13:06.1Z</time>
      </trkpt>
      <trkpt lat="48.46172" lon="-2.9055">
        <ele>268</ele>
        <time>2014-02-16T13:13:08.1Z</time>
      </trkpt>
      <trkpt lat="48.46168" lon="-2.90552">
        <ele>268</ele>
        <time>2014-02-16T13:13:11.1Z</time>
      </trkpt>
      <trkpt lat="48.46164" lon="-2.90551">
        <ele>268</ele>
        <time>2014-02-16T13:13:14.1Z</time>
      </trkpt>
      <trkpt lat="48.46162" lon="-2.90549">
        <ele>268</ele>
        <time>2014-02-16T13:13:16.1Z</time>
      </trkpt>
      <trkpt lat="48.46159" lon="-2.90546">
        <ele>268</ele>
        <time>2014-02-16T13:13:19.1Z</time>
      </trkpt>
      <trkpt lat="48.46156" lon="-2.90545">
        <ele>267</ele>
        <time>2014-02-16T13:13:21.1Z</time>
      </trkpt>
      <trkpt lat="48.46153" lon="-2.90542">
        <ele>267</ele>
        <time>2014-02-16T13:13:24.1Z</time>
      </trkpt>
      <trkpt lat="48.4615" lon="-2.90539">
        <ele>267</ele>
        <time>2014-02-16T13:13:27.1Z</time>
      </trkpt>
      <trkpt lat="48.46147" lon="-2.90535">
        <ele>267</ele>
        <time>2014-02-16T13:13:30.1Z</time>
      </trkpt>
      <trkpt lat="48.46144" lon="-2.90533">
        <ele>267</ele>
        <time>2014-02-16T13:13:32.1Z</time>
      </trkpt>
      <trkpt lat="48.46142" lon="-2.90531">
        <ele>267</ele>
        <time>2014-02-16T13:13:34.1Z</time>
      </trkpt>
      <trkpt lat="48.46139" lon="-2.90528">
        <ele>267</ele>
        <time>2014-02-16T13:13:37.1Z</time>
      </trkpt>
      <trkpt lat="48.46136" lon="-2.90526">
        <ele>267</ele>
        <time>2014-02-16T13:13:39.1Z</time>
      </trkpt>
      <trkpt lat="48.46133" lon="-2.90523">
        <ele>267</ele>
        <time>2014-02-16T13:13:42.1Z</time>
      </trkpt>
      <trkpt lat="48.46131" lon="-2.90521">
        <ele>267</ele>
        <time>2014-02-16T13:13:44.1Z</time>
      </trkpt>
      <trkpt lat="48.46128" lon="-2.90517">
        <ele>267</ele>
        <time>2014-02-16T13:13:47.1Z</time>
      </trkpt>
      <trkpt lat="48.46125" lon="-2.90515">
        <ele>267</ele>
        <time>2014-02-16T13:13:50.1Z</time>
      </trkpt>
      <trkpt lat="48.46123" lon="-2.90513">
        <ele>266</ele>
        <time>2014-02-16T13:13:52.1Z</time>
      </trkpt>
      <trkpt lat="48.4612" lon="-2.90511">
        <ele>266</ele>
        <time>2014-02-16T13:13:55.1Z</time>
      </trkpt>
      <trkpt lat="48.46118" lon="-2.9051">
        <ele>266</ele>
        <time>2014-02-16T13:13:57.1Z</time>
      </trkpt>
      <trkpt lat="48.46115" lon="-2.90508">
        <ele>266</ele>
        <time>2014-02-16T13:14:00.1Z</time>
      </trkpt>
      <trkpt lat="48.46112" lon="-2.90506">
        <ele>266</ele>
        <time>2014-02-16T13:14:03.1Z</time>
      </trkpt>
      <trkpt lat="48.4611" lon="-2.90505">
        <ele>266</ele>
        <time>2014-02-16T13:14:05.1Z</time>
      </trkpt>
      <trkpt lat="48.46106" lon="-2.90503">
        <ele>266</ele>
        <time>2014-02-16T13:14:08.1Z</time>
      </trkpt>
      <trkpt lat="48.46104" lon="-2.90502">
        <ele>266</ele>
        <time>2014-02-16T13:14:10.1Z</time>
      </trkpt>
      <trkpt lat="48.46101" lon="-2.905">
        <ele>266</ele>
        <time>2014-02-16T13:14:13.1Z</time>
      </trkpt>
      <trkpt lat="48.46098" lon="-2.90498">
        <ele>266</ele>
        <time>2014-02-16T13:14:16.1Z</time>
      </trkpt>
      <trkpt lat="48.46096" lon="-2.90498">
        <ele>266</ele>
        <time>2014-02-16T13:14:18.1Z</time>
      </trkpt>
      <trkpt lat="48.46092" lon="-2.90497">
        <ele>266</ele>
        <time>2014-02-16T13:14:21.1Z</time>
      </trkpt>
      <trkpt lat="48.4609" lon="-2.90496">
        <ele>266</ele>
        <time>2014-02-16T13:14:23.1Z</time>
      </trkpt>
      <trkpt lat="48.46087" lon="-2.90497">
        <ele>266</ele>
        <time>2014-02-16T13:14:26.1Z</time>
      </trkpt>
      <trkpt lat="48.46084" lon="-2.90496">
        <ele>266</ele>
        <time>2014-02-16T13:14:29.1Z</time>
      </trkpt>
      <trkpt lat="48.46082" lon="-2.90496">
        <ele>266</ele>
        <time>2014-02-16T13:14:31.1Z</time>
      </trkpt>
      <trkpt lat="48.46079" lon="-2.90496">
        <ele>265</ele>
        <time>2014-02-16T13:14:34.1Z</time>
      </trkpt>
      <trkpt lat="48.46077" lon="-2.90496">
        <ele>265</ele>
        <time>2014-02-16T13:14:36.1Z</time>
      </trkpt>
      <trkpt lat="48.46073" lon="-2.90496">
        <ele>266</ele>
        <time>2014-02-16T13:14:39.1Z</time>
      </trkpt>
      <trkpt lat="48.4607" lon="-2.90494">
        <ele>266</ele>
        <time>2014-02-16T13:14:42.1Z</time>
      </trkpt>
      <trkpt lat="48.46069" lon="-2.90494">
        <ele>267</ele>
        <time>2014-02-16T13:14:44.1Z</time>
      </trkpt>
      <trkpt lat="48.46066" lon="-2.90494">
        <ele>266</ele>
        <time>2014-02-16T13:14:47.1Z</time>
      </trkpt>
      <trkpt lat="48.46064" lon="-2.90494">
        <ele>266</ele>
        <time>2014-02-16T13:14:49.1Z</time>
      </trkpt>
      <trkpt lat="48.46061" lon="-2.90494">
        <ele>266</ele>
        <time>2014-02-16T13:14:52.1Z</time>
      </trkpt>
      <trkpt lat="48.46058" lon="-2.90493">
        <ele>266</ele>
        <time>2014-02-16T13:14:55.1Z</time>
      </trkpt>
      <trkpt lat="48.46054" lon="-2.90492">
        <ele>266</ele>
        <time>2014-02-16T13:14:58.1Z</time>
      </trkpt>
      <trkpt lat="48.46051" lon="-2.90492">
        <ele>266</ele>
        <time>2014-02-16T13:15:01.1Z</time>
      </trkpt>
      <trkpt lat="48.46048" lon="-2.90492">
        <ele>266</ele>
        <time>2014-02-16T13:15:03.1Z</time>
      </trkpt>
      <trkpt lat="48.46046" lon="-2.90492">
        <ele>266</ele>
        <time>2014-02-16T13:15:05.1Z</time>
      </trkpt>
      <trkpt lat="48.46043" lon="-2.90492">
        <ele>266</ele>
        <time>2014-02-16T13:15:08.1Z</time>
      </trkpt>
      <trkpt lat="48.46039" lon="-2.90491">
        <ele>266</ele>
        <time>2014-02-16T13:15:11.1Z</time>
      </trkpt>
      <trkpt lat="48.46037" lon="-2.9049">
        <ele>266</ele>
        <time>2014-02-16T13:15:13.1Z</time>
      </trkpt>
      <trkpt lat="48.46033" lon="-2.90489">
        <ele>266</ele>
        <time>2014-02-16T13:15:16.1Z</time>
      </trkpt>
      <trkpt lat="48.4603" lon="-2.90488">
        <ele>266</ele>
        <time>2014-02-16T13:15:18.1Z</time>
      </trkpt>
      <trkpt lat="48.46027" lon="-2.90486">
        <ele>266</ele>
        <time>2014-02-16T13:15:21.1Z</time>
      </trkpt>
      <trkpt lat="48.46025" lon="-2.90485">
        <ele>266</ele>
        <time>2014-02-16T13:15:23.1Z</time>
      </trkpt>
      <trkpt lat="48.46022" lon="-2.90483">
        <ele>265</ele>
        <time>2014-02-16T13:15:26.1Z</time>
      </trkpt>
      <trkpt lat="48.46019" lon="-2.90482">
        <ele>265</ele>
        <time>2014-02-16T13:15:28.1Z</time>
      </trkpt>
      <trkpt lat="48.46017" lon="-2.90481">
        <ele>264</ele>
        <time>2014-02-16T13:15:30.1Z</time>
      </trkpt>
      <trkpt lat="48.46014" lon="-2.9048">
        <ele>264</ele>
        <time>2014-02-16T13:15:33.1Z</time>
      </trkpt>
      <trkpt lat="48.46011" lon="-2.90478">
        <ele>264</ele>
        <time>2014-02-16T13:15:36.1Z</time>
      </trkpt>
      <trkpt lat="48.46008" lon="-2.90476">
        <ele>264</ele>
        <time>2014-02-16T13:15:39.1Z</time>
      </trkpt>
      <trkpt lat="48.46006" lon="-2.90475">
        <ele>264</ele>
        <time>2014-02-16T13:15:41.1Z</time>
      </trkpt>
      <trkpt lat="48.46004" lon="-2.90473">
        <ele>263</ele>
        <time>2014-02-16T13:15:43.1Z</time>
      </trkpt>
      <trkpt lat="48.46001" lon="-2.90471">
        <ele>263</ele>
        <time>2014-02-16T13:15:46.1Z</time>
      </trkpt>
      <trkpt lat="48.45998" lon="-2.90469">
        <ele>263</ele>
        <time>2014-02-16T13:15:49.1Z</time>
      </trkpt>
      <trkpt lat="48.45995" lon="-2.90468">
        <ele>263</ele>
        <time>2014-02-16T13:15:51.1Z</time>
      </trkpt>
      <trkpt lat="48.45992" lon="-2.90466">
        <ele>262</ele>
        <time>2014-02-16T13:15:54.1Z</time>
      </trkpt>
      <trkpt lat="48.4599" lon="-2.90464">
        <ele>262</ele>
        <time>2014-02-16T13:15:56.1Z</time>
      </trkpt>
      <trkpt lat="48.45987" lon="-2.90462">
        <ele>262</ele>
        <time>2014-02-16T13:15:59.1Z</time>
      </trkpt>
      <trkpt lat="48.45984" lon="-2.9046">
        <ele>262</ele>
        <time>2014-02-16T13:16:02.1Z</time>
      </trkpt>
      <trkpt lat="48.45982" lon="-2.90459">
        <ele>262</ele>
        <time>2014-02-16T13:16:04.1Z</time>
      </trkpt>
      <trkpt lat="48.45979" lon="-2.90457">
        <ele>262</ele>
        <time>2014-02-16T13:16:07.1Z</time>
      </trkpt>
      <trkpt lat="48.45977" lon="-2.90456">
        <ele>262</ele>
        <time>2014-02-16T13:16:09.1Z</time>
      </trkpt>
      <trkpt lat="48.45974" lon="-2.90454">
        <ele>262</ele>
        <time>2014-02-16T13:16:12.1Z</time>
      </trkpt>
      <trkpt lat="48.4597" lon="-2.90452">
        <ele>262</ele>
        <time>2014-02-16T13:16:15.1Z</time>
      </trkpt>
      <trkpt lat="48.45968" lon="-2.90451">
        <ele>261</ele>
        <time>2014-02-16T13:16:17.1Z</time>
      </trkpt>
      <trkpt lat="48.45965" lon="-2.90449">
        <ele>261</ele>
        <time>2014-02-16T13:16:20.1Z</time>
      </trkpt>
      <trkpt lat="48.45962" lon="-2.90447">
        <ele>260</ele>
        <time>2014-02-16T13:16:22.1Z</time>
      </trkpt>
      <trkpt lat="48.45958" lon="-2.90444">
        <ele>260</ele>
        <time>2014-02-16T13:16:25.1Z</time>
      </trkpt>
      <trkpt lat="48.45956" lon="-2.90443">
        <ele>260</ele>
        <time>2014-02-16T13:16:27.1Z</time>
      </trkpt>
      <trkpt lat="48.45953" lon="-2.90441">
        <ele>260</ele>
        <time>2014-02-16T13:16:30.1Z</time>
      </trkpt>
      <trkpt lat="48.4595" lon="-2.90439">
        <ele>260</ele>
        <time>2014-02-16T13:16:32.1Z</time>
      </trkpt>
      <trkpt lat="48.45947" lon="-2.90438">
        <ele>260</ele>
        <time>2014-02-16T13:16:35.1Z</time>
      </trkpt>
      <trkpt lat="48.45944" lon="-2.90436">
        <ele>259</ele>
        <time>2014-02-16T13:16:38.1Z</time>
      </trkpt>
      <trkpt lat="48.45942" lon="-2.90434">
        <ele>259</ele>
        <time>2014-02-16T13:16:40.1Z</time>
      </trkpt>
      <trkpt lat="48.45939" lon="-2.90432">
        <ele>259</ele>
        <time>2014-02-16T13:16:43.1Z</time>
      </trkpt>
      <trkpt lat="48.45937" lon="-2.90431">
        <ele>259</ele>
        <time>2014-02-16T13:16:45.1Z</time>
      </trkpt>
      <trkpt lat="48.45933" lon="-2.90428">
        <ele>258</ele>
        <time>2014-02-16T13:16:48.1Z</time>
      </trkpt>
      <trkpt lat="48.45932" lon="-2.90427">
        <ele>258</ele>
        <time>2014-02-16T13:16:50.1Z</time>
      </trkpt>
      <trkpt lat="48.45928" lon="-2.90425">
        <ele>258</ele>
        <time>2014-02-16T13:16:53.1Z</time>
      </trkpt>
      <trkpt lat="48.45926" lon="-2.90423">
        <ele>259</ele>
        <time>2014-02-16T13:16:55.1Z</time>
      </trkpt>
      <trkpt lat="48.45923" lon="-2.90422">
        <ele>258</ele>
        <time>2014-02-16T13:16:58.1Z</time>
      </trkpt>
      <trkpt lat="48.45921" lon="-2.9042">
        <ele>258</ele>
        <time>2014-02-16T13:17:01.1Z</time>
      </trkpt>
      <trkpt lat="48.45918" lon="-2.90418">
        <ele>258</ele>
        <time>2014-02-16T13:17:03.1Z</time>
      </trkpt>
      <trkpt lat="48.45916" lon="-2.90417">
        <ele>258</ele>
        <time>2014-02-16T13:17:06.1Z</time>
      </trkpt>
      <trkpt lat="48.45913" lon="-2.90415">
        <ele>257</ele>
        <time>2014-02-16T13:17:08.1Z</time>
      </trkpt>
      <trkpt lat="48.4591" lon="-2.90412">
        <ele>257</ele>
        <time>2014-02-16T13:17:11.1Z</time>
      </trkpt>
      <trkpt lat="48.45907" lon="-2.9041">
        <ele>257</ele>
        <time>2014-02-16T13:17:14.1Z</time>
      </trkpt>
      <trkpt lat="48.45904" lon="-2.90407">
        <ele>257</ele>
        <time>2014-02-16T13:17:17.1Z</time>
      </trkpt>
      <trkpt lat="48.45901" lon="-2.90405">
        <ele>257</ele>
        <time>2014-02-16T13:17:20.1Z</time>
      </trkpt>
      <trkpt lat="48.45899" lon="-2.90403">
        <ele>257</ele>
        <time>2014-02-16T13:17:22.1Z</time>
      </trkpt>
      <trkpt lat="48.45895" lon="-2.90401">
        <ele>257</ele>
        <time>2014-02-16T13:17:25.1Z</time>
      </trkpt>
      <trkpt lat="48.45892" lon="-2.90398">
        <ele>257</ele>
        <time>2014-02-16T13:17:28.1Z</time>
      </trkpt>
      <trkpt lat="48.45889" lon="-2.90395">
        <ele>256</ele>
        <time>2014-02-16T13:17:31.1Z</time>
      </trkpt>
      <trkpt lat="48.45885" lon="-2.90393">
        <ele>256</ele>
        <time>2014-02-16T13:17:34.1Z</time>
      </trkpt>
      <trkpt lat="48.45883" lon="-2.90391">
        <ele>256</ele>
        <time>2014-02-16T13:17:36.1Z</time>
      </trkpt>
      <trkpt lat="48.45879" lon="-2.90388">
        <ele>255</ele>
        <time>2014-02-16T13:17:39.1Z</time>
      </trkpt>
      <trkpt lat="48.45877" lon="-2.90386">
        <ele>255</ele>
        <time>2014-02-16T13:17:41.1Z</time>
      </trkpt>
      <trkpt lat="48.45874" lon="-2.90383">
        <ele>255</ele>
        <time>2014-02-16T13:17:44.1Z</time>
      </trkpt>
      <trkpt lat="48.45872" lon="-2.90382">
        <ele>255</ele>
        <time>2014-02-16T13:17:46.1Z</time>
      </trkpt>
      <trkpt lat="48.45869" lon="-2.90379">
        <ele>255</ele>
        <time>2014-02-16T13:17:49.1Z</time>
      </trkpt>
      <trkpt lat="48.45867" lon="-2.90378">
        <ele>254</ele>
        <time>2014-02-16T13:17:51.1Z</time>
      </trkpt>
      <trkpt lat="48.45864" lon="-2.90376">
        <ele>254</ele>
        <time>2014-02-16T13:17:54.1Z</time>
      </trkpt>
      <trkpt lat="48.45861" lon="-2.90373">
        <ele>253</ele>
        <time>2014-02-16T13:17:57.1Z</time>
      </trkpt>
      <trkpt lat="48.45858" lon="-2.90371">
        <ele>253</ele>
        <time>2014-02-16T13:18:00.1Z</time>
      </trkpt>
      <trkpt lat="48.45854" lon="-2.90368">
        <ele>253</ele>
        <time>2014-02-16T13:18:03.1Z</time>
      </trkpt>
      <trkpt lat="48.45852" lon="-2.90367">
        <ele>253</ele>
        <time>2014-02-16T13:18:05.1Z</time>
      </trkpt>
      <trkpt lat="48.4585" lon="-2.90365">
        <ele>253</ele>
        <time>2014-02-16T13:18:07.1Z</time>
      </trkpt>
      <trkpt lat="48.45847" lon="-2.90362">
        <ele>253</ele>
        <time>2014-02-16T13:18:10.1Z</time>
      </trkpt>
      <trkpt lat="48.45843" lon="-2.9036">
        <ele>253</ele>
        <time>2014-02-16T13:18:13.1Z</time>
      </trkpt>
      <trkpt lat="48.4584" lon="-2.90357">
        <ele>252</ele>
        <time>2014-02-16T13:18:16.1Z</time>
      </trkpt>
      <trkpt lat="48.45838" lon="-2.90356">
        <ele>252</ele>
        <time>2014-02-16T13:18:18.1Z</time>
      </trkpt>
      <trkpt lat="48.45836" lon="-2.90355">
        <ele>252</ele>
        <time>2014-02-16T13:18:20.1Z</time>
      </trkpt>
      <trkpt lat="48.45834" lon="-2.90353">
        <ele>252</ele>
        <time>2014-02-16T13:18:23.1Z</time>
      </trkpt>
      <trkpt lat="48.45831" lon="-2.90351">
        <ele>252</ele>
        <time>2014-02-16T13:18:26.1Z</time>
      </trkpt>
      <trkpt lat="48.4583" lon="-2.9035">
        <ele>252</ele>
        <time>2014-02-16T13:18:28.1Z</time>
      </trkpt>
      <trkpt lat="48.45828" lon="-2.90349">
        <ele>252</ele>
        <time>2014-02-16T13:18:30.1Z</time>
      </trkpt>
      <trkpt lat="48.45824" lon="-2.90346">
        <ele>251</ele>
        <time>2014-02-16T13:18:33.1Z</time>
      </trkpt>
      <trkpt lat="48.45822" lon="-2.90345">
        <ele>251</ele>
        <time>2014-02-16T13:18:36.1Z</time>
      </trkpt>
      <trkpt lat="48.4582" lon="-2.90344">
        <ele>251</ele>
        <time>2014-02-16T13:18:38.1Z</time>
      </trkpt>
      <trkpt lat="48.45818" lon="-2.90343">
        <ele>251</ele>
        <time>2014-02-16T13:18:41.1Z</time>
      </trkpt>
      <trkpt lat="48.45816" lon="-2.90342">
        <ele>251</ele>
        <time>2014-02-16T13:18:43.1Z</time>
      </trkpt>
      <trkpt lat="48.45813" lon="-2.90339">
        <ele>251</ele>
        <time>2014-02-16T13:18:46.1Z</time>
      </trkpt>
      <trkpt lat="48.45811" lon="-2.90337">
        <ele>251</ele>
        <time>2014-02-16T13:18:48.1Z</time>
      </trkpt>
      <trkpt lat="48.45808" lon="-2.90335">
        <ele>251</ele>
        <time>2014-02-16T13:18:51.1Z</time>
      </trkpt>
      <trkpt lat="48.45805" lon="-2.90332">
        <ele>251</ele>
        <time>2014-02-16T13:18:53.1Z</time>
      </trkpt>
      <trkpt lat="48.45802" lon="-2.9033">
        <ele>251</ele>
        <time>2014-02-16T13:18:56.1Z</time>
      </trkpt>
      <trkpt lat="48.45798" lon="-2.90327">
        <ele>250</ele>
        <time>2014-02-16T13:18:59.1Z</time>
      </trkpt>
      <trkpt lat="48.45796" lon="-2.90324">
        <ele>250</ele>
        <time>2014-02-16T13:19:02.1Z</time>
      </trkpt>
      <trkpt lat="48.45795" lon="-2.90324">
        <ele>250</ele>
        <time>2014-02-16T13:19:05.1Z</time>
      </trkpt>
      <trkpt lat="48.45795" lon="-2.90324">
        <ele>250</ele>
        <time>2014-02-16T13:19:08.1Z</time>
      </trkpt>
      <trkpt lat="48.45793" lon="-2.90321">
        <ele>250</ele>
        <time>2014-02-16T13:19:11.1Z</time>
      </trkpt>
      <trkpt lat="48.4579" lon="-2.9032">
        <ele>250</ele>
        <time>2014-02-16T13:19:14.1Z</time>
      </trkpt>
      <trkpt lat="48.45787" lon="-2.90318">
        <ele>250</ele>
        <time>2014-02-16T13:19:17.1Z</time>
      </trkpt>
      <trkpt lat="48.45784" lon="-2.90317">
        <ele>250</ele>
        <time>2014-02-16T13:19:20.1Z</time>
      </trkpt>
      <trkpt lat="48.45782" lon="-2.90315">
        <ele>249</ele>
        <time>2014-02-16T13:19:22.1Z</time>
      </trkpt>
      <trkpt lat="48.45781" lon="-2.90314">
        <ele>250</ele>
        <time>2014-02-16T13:19:24.1Z</time>
      </trkpt>
      <trkpt lat="48.45778" lon="-2.90311">
        <ele>249</ele>
        <time>2014-02-16T13:19:27.1Z</time>
      </trkpt>
      <trkpt lat="48.45776" lon="-2.90309">
        <ele>249</ele>
        <time>2014-02-16T13:19:30.1Z</time>
      </trkpt>
      <trkpt lat="48.45776" lon="-2.90307">
        <ele>249</ele>
        <time>2014-02-16T13:19:32.1Z</time>
      </trkpt>
      <trkpt lat="48.45774" lon="-2.90307">
        <ele>249</ele>
        <time>2014-02-16T13:19:35.1Z</time>
      </trkpt>
      <trkpt lat="48.45774" lon="-2.90306">
        <ele>249</ele>
        <time>2014-02-16T13:19:37.1Z</time>
      </trkpt>
      <trkpt lat="48.45772" lon="-2.90306">
        <ele>249</ele>
        <time>2014-02-16T13:19:40.1Z</time>
      </trkpt>
      <trkpt lat="48.45771" lon="-2.90304">
        <ele>249</ele>
        <time>2014-02-16T13:19:42.1Z</time>
      </trkpt>
      <trkpt lat="48.4577" lon="-2.90303">
        <ele>249</ele>
        <time>2014-02-16T13:19:44.1Z</time>
      </trkpt>
      <trkpt lat="48.45768" lon="-2.90302">
        <ele>249</ele>
        <time>2014-02-16T13:19:47.1Z</time>
      </trkpt>
      <trkpt lat="48.45767" lon="-2.903">
        <ele>249</ele>
        <time>2014-02-16T13:19:49.1Z</time>
      </trkpt>
      <trkpt lat="48.45766" lon="-2.90297">
        <ele>249</ele>
        <time>2014-02-16T13:19:52.1Z</time>
      </trkpt>
      <trkpt lat="48.45765" lon="-2.90296">
        <ele>249</ele>
        <time>2014-02-16T13:19:54.1Z</time>
      </trkpt>
      <trkpt lat="48.45765" lon="-2.90296">
        <ele>249</ele>
        <time>2014-02-16T13:19:57.1Z</time>
      </trkpt>
      <trkpt lat="48.45765" lon="-2.90294">
        <ele>249</ele>
        <time>2014-02-16T13:19:59.1Z</time>
      </trkpt>
      <trkpt lat="48.45764" lon="-2.90293">
        <ele>250</ele>
        <time>2014-02-16T13:20:02.1Z</time>
      </trkpt>
      <trkpt lat="48.45763" lon="-2.90291">
        <ele>249</ele>
        <time>2014-02-16T13:20:05.1Z</time>
      </trkpt>
      <trkpt lat="48.45762" lon="-2.9029">
        <ele>249</ele>
        <time>2014-02-16T13:20:07.1Z</time>
      </trkpt>
      <trkpt lat="48.45761" lon="-2.90289">
        <ele>249</ele>
        <time>2014-02-16T13:20:10.1Z</time>
      </trkpt>
      <trkpt lat="48.45761" lon="-2.90289">
        <ele>249</ele>
        <time>2014-02-16T13:20:12.1Z</time>
      </trkpt>
      <trkpt lat="48.4576" lon="-2.90288">
        <ele>249</ele>
        <time>2014-02-16T13:20:14.1Z</time>
      </trkpt>
      <trkpt lat="48.45758" lon="-2.90287">
        <ele>249</ele>
        <time>2014-02-16T13:20:16.1Z</time>
      </trkpt>
      <trkpt lat="48.45757" lon="-2.90286">
        <ele>249</ele>
        <time>2014-02-16T13:20:19.1Z</time>
      </trkpt>
      <trkpt lat="48.45755" lon="-2.90284">
        <ele>249</ele>
        <time>2014-02-16T13:20:22.1Z</time>
      </trkpt>
      <trkpt lat="48.45752" lon="-2.90282">
        <ele>249</ele>
        <time>2014-02-16T13:20:25.1Z</time>
      </trkpt>
      <trkpt lat="48.45751" lon="-2.90281">
        <ele>249</ele>
        <time>2014-02-16T13:20:27.1Z</time>
      </trkpt>
      <trkpt lat="48.45749" lon="-2.9028">
        <ele>250</ele>
        <time>2014-02-16T13:20:30.1Z</time>
      </trkpt>
      <trkpt lat="48.45747" lon="-2.90279">
        <ele>250</ele>
        <time>2014-02-16T13:20:33.1Z</time>
      </trkpt>
      <trkpt lat="48.45744" lon="-2.90277">
        <ele>250</ele>
        <time>2014-02-16T13:20:36.1Z</time>
      </trkpt>
      <trkpt lat="48.45741" lon="-2.90274">
        <ele>250</ele>
        <time>2014-02-16T13:20:39.1Z</time>
      </trkpt>
      <trkpt lat="48.45739" lon="-2.90272">
        <ele>250</ele>
        <time>2014-02-16T13:20:41.1Z</time>
      </trkpt>
      <trkpt lat="48.45736" lon="-2.9027">
        <ele>251</ele>
        <time>2014-02-16T13:20:44.1Z</time>
      </trkpt>
      <trkpt lat="48.45734" lon="-2.90269">
        <ele>251</ele>
        <time>2014-02-16T13:20:47.1Z</time>
      </trkpt>
      <trkpt lat="48.45732" lon="-2.90268">
        <ele>251</ele>
        <time>2014-02-16T13:20:50.1Z</time>
      </trkpt>
      <trkpt lat="48.45732" lon="-2.90267">
        <ele>251</ele>
        <time>2014-02-16T13:20:52.1Z</time>
      </trkpt>
      <trkpt lat="48.4573" lon="-2.90265">
        <ele>251</ele>
        <time>2014-02-16T13:20:55.1Z</time>
      </trkpt>
      <trkpt lat="48.45729" lon="-2.90265">
        <ele>251</ele>
        <time>2014-02-16T13:20:57.1Z</time>
      </trkpt>
      <trkpt lat="48.45728" lon="-2.90264">
        <ele>251</ele>
        <time>2014-02-16T13:21:00.1Z</time>
      </trkpt>
      <trkpt lat="48.45727" lon="-2.90264">
        <ele>251</ele>
        <time>2014-02-16T13:21:03.1Z</time>
      </trkpt>
      <trkpt lat="48.45726" lon="-2.90264">
        <ele>251</ele>
        <time>2014-02-16T13:21:06.1Z</time>
      </trkpt>
      <trkpt lat="48.45725" lon="-2.90263">
        <ele>251</ele>
        <time>2014-02-16T13:21:08.1Z</time>
      </trkpt>
      <trkpt lat="48.45725" lon="-2.90263">
        <ele>251</ele>
        <time>2014-02-16T13:21:10.1Z</time>
      </trkpt>
      <trkpt lat="48.45724" lon="-2.90262">
        <ele>251</ele>
        <time>2014-02-16T13:21:13.1Z</time>
      </trkpt>
      <trkpt lat="48.45723" lon="-2.90262">
        <ele>251</ele>
        <time>2014-02-16T13:21:16.1Z</time>
      </trkpt>
      <trkpt lat="48.45723" lon="-2.90262">
        <ele>251</ele>
        <time>2014-02-16T13:21:18.1Z</time>
      </trkpt>
      <trkpt lat="48.45722" lon="-2.90259">
        <ele>251</ele>
        <time>2014-02-16T13:21:21.1Z</time>
      </trkpt>
      <trkpt lat="48.45722" lon="-2.90259">
        <ele>251</ele>
        <time>2014-02-16T13:21:23.1Z</time>
      </trkpt>
      <trkpt lat="48.45722" lon="-2.90258">
        <ele>251</ele>
        <time>2014-02-16T13:21:26.1Z</time>
      </trkpt>
      <trkpt lat="48.45721" lon="-2.90258">
        <ele>251</ele>
        <time>2014-02-16T13:21:28.1Z</time>
      </trkpt>
      <trkpt lat="48.4572" lon="-2.90257">
        <ele>251</ele>
        <time>2014-02-16T13:21:31.1Z</time>
      </trkpt>
      <trkpt lat="48.45719" lon="-2.90256">
        <ele>251</ele>
        <time>2014-02-16T13:21:33.1Z</time>
      </trkpt>
      <trkpt lat="48.45716" lon="-2.90254">
        <ele>251</ele>
        <time>2014-02-16T13:21:36.1Z</time>
      </trkpt>
      <trkpt lat="48.45715" lon="-2.90251">
        <ele>251</ele>
        <time>2014-02-16T13:21:39.1Z</time>
      </trkpt>
      <trkpt lat="48.45713" lon="-2.9025">
        <ele>251</ele>
        <time>2014-02-16T13:21:41.1Z</time>
      </trkpt>
      <trkpt lat="48.45711" lon="-2.90248">
        <ele>251</ele>
        <time>2014-02-16T13:21:44.1Z</time>
      </trkpt>
      <trkpt lat="48.4571" lon="-2.90246">
        <ele>251</ele>
        <time>2014-02-16T13:21:47.1Z</time>
      </trkpt>
      <trkpt lat="48.45709" lon="-2.90246">
        <ele>252</ele>
        <time>2014-02-16T13:21:49.1Z</time>
      </trkpt>
      <trkpt lat="48.45708" lon="-2.90245">
        <ele>252</ele>
        <time>2014-02-16T13:21:51.1Z</time>
      </trkpt>
      <trkpt lat="48.45706" lon="-2.90244">
        <ele>252</ele>
        <time>2014-02-16T13:21:54.1Z</time>
      </trkpt>
      <trkpt lat="48.45705" lon="-2.90243">
        <ele>252</ele>
        <time>2014-02-16T13:21:57.1Z</time>
      </trkpt>
      <trkpt lat="48.45703" lon="-2.90242">
        <ele>252</ele>
        <time>2014-02-16T13:21:59.1Z</time>
      </trkpt>
      <trkpt lat="48.45702" lon="-2.90241">
        <ele>252</ele>
        <time>2014-02-16T13:22:02.1Z</time>
      </trkpt>
      <trkpt lat="48.457" lon="-2.90241">
        <ele>252</ele>
        <time>2014-02-16T13:22:04.1Z</time>
      </trkpt>
      <trkpt lat="48.45699" lon="-2.9024">
        <ele>252</ele>
        <time>2014-02-16T13:22:07.1Z</time>
      </trkpt>
      <trkpt lat="48.45697" lon="-2.90239">
        <ele>251</ele>
        <time>2014-02-16T13:22:10.1Z</time>
      </trkpt>
      <trkpt lat="48.45697" lon="-2.90238">
        <ele>252</ele>
        <time>2014-02-16T13:22:12.1Z</time>
      </trkpt>
      <trkpt lat="48.45695" lon="-2.90237">
        <ele>252</ele>
        <time>2014-02-16T13:22:15.1Z</time>
      </trkpt>
      <trkpt lat="48.45694" lon="-2.90237">
        <ele>252</ele>
        <time>2014-02-16T13:22:17.1Z</time>
      </trkpt>
      <trkpt lat="48.45692" lon="-2.90237">
        <ele>252</ele>
        <time>2014-02-16T13:22:20.1Z</time>
      </trkpt>
      <trkpt lat="48.45692" lon="-2.90237">
        <ele>252</ele>
        <time>2014-02-16T13:22:22.1Z</time>
      </trkpt>
      <trkpt lat="48.45691" lon="-2.90237">
        <ele>252</ele>
        <time>2014-02-16T13:22:24.1Z</time>
      </trkpt>
      <trkpt lat="48.4569" lon="-2.90236">
        <ele>252</ele>
        <time>2014-02-16T13:22:27.1Z</time>
      </trkpt>
      <trkpt lat="48.45689" lon="-2.90236">
        <ele>252</ele>
        <time>2014-02-16T13:22:31.1Z</time>
      </trkpt>
      <trkpt lat="48.45689" lon="-2.90236">
        <ele>252</ele>
        <time>2014-02-16T13:22:34.1Z</time>
      </trkpt>
      <trkpt lat="48.45688" lon="-2.90235">
        <ele>252</ele>
        <time>2014-02-16T13:22:36.1Z</time>
      </trkpt>
      <trkpt lat="48.45687" lon="-2.90234">
        <ele>252</ele>
        <time>2014-02-16T13:22:38.1Z</time>
      </trkpt>
      <trkpt lat="48.45686" lon="-2.90233">
        <ele>252</ele>
        <time>2014-02-16T13:22:41.1Z</time>
      </trkpt>
      <trkpt lat="48.45685" lon="-2.90233">
        <ele>252</ele>
        <time>2014-02-16T13:22:44.1Z</time>
      </trkpt>
      <trkpt lat="48.45684" lon="-2.90232">
        <ele>252</ele>
        <time>2014-02-16T13:22:46.1Z</time>
      </trkpt>
      <trkpt lat="48.45682" lon="-2.90232">
        <ele>252</ele>
        <time>2014-02-16T13:22:49.1Z</time>
      </trkpt>
      <trkpt lat="48.45681" lon="-2.90232">
        <ele>252</ele>
        <time>2014-02-16T13:22:51.1Z</time>
      </trkpt>
      <trkpt lat="48.45681" lon="-2.9023">
        <ele>252</ele>
        <time>2014-02-16T13:22:54.1Z</time>
      </trkpt>
      <trkpt lat="48.45679" lon="-2.90229">
        <ele>252</ele>
        <time>2014-02-16T13:22:57.1Z</time>
      </trkpt>
      <trkpt lat="48.45678" lon="-2.90228">
        <ele>252</ele>
        <time>2014-02-16T13:22:59.1Z</time>
      </trkpt>
      <trkpt lat="48.45677" lon="-2.90228">
        <ele>252</ele>
        <time>2014-02-16T13:23:01.1Z</time>
      </trkpt>
      <trkpt lat="48.45677" lon="-2.90228">
        <ele>252</ele>
        <time>2014-02-16T13:23:04.1Z</time>
      </trkpt>
      <trkpt lat="48.45676" lon="-2.90227">
        <ele>253</ele>
        <time>2014-02-16T13:23:06.1Z</time>
      </trkpt>
      <trkpt lat="48.45675" lon="-2.90227">
        <ele>253</ele>
        <time>2014-02-16T13:23:09.1Z</time>
      </trkpt>
      <trkpt lat="48.45675" lon="-2.90227">
        <ele>253</ele>
        <time>2014-02-16T13:23:12.1Z</time>
      </trkpt>
      <trkpt lat="48.45674" lon="-2.90227">
        <ele>252</ele>
        <time>2014-02-16T13:23:14.1Z</time>
      </trkpt>
      <trkpt lat="48.45673" lon="-2.90227">
        <ele>252</ele>
        <time>2014-02-16T13:23:17.1Z</time>
      </trkpt>
      <trkpt lat="48.45672" lon="-2.90227">
        <ele>253</ele>
        <time>2014-02-16T13:23:19.1Z</time>
      </trkpt>
      <trkpt lat="48.45671" lon="-2.90227">
        <ele>253</ele>
        <time>2014-02-16T13:23:22.1Z</time>
      </trkpt>
      <trkpt lat="48.4567" lon="-2.90227">
        <ele>253</ele>
        <time>2014-02-16T13:23:25.1Z</time>
      </trkpt>
      <trkpt lat="48.4567" lon="-2.90226">
        <ele>252</ele>
        <time>2014-02-16T13:23:27.1Z</time>
      </trkpt>
      <trkpt lat="48.45669" lon="-2.90226">
        <ele>252</ele>
        <time>2014-02-16T13:23:30.1Z</time>
      </trkpt>
      <trkpt lat="48.45668" lon="-2.90226">
        <ele>253</ele>
        <time>2014-02-16T13:23:32.1Z</time>
      </trkpt>
      <trkpt lat="48.45668" lon="-2.90225">
        <ele>253</ele>
        <time>2014-02-16T13:23:35.1Z</time>
      </trkpt>
      <trkpt lat="48.45668" lon="-2.90225">
        <ele>253</ele>
        <time>2014-02-16T13:23:37.1Z</time>
      </trkpt>
      <trkpt lat="48.45667" lon="-2.90224">
        <ele>253</ele>
        <time>2014-02-16T13:23:40.1Z</time>
      </trkpt>
      <trkpt lat="48.45666" lon="-2.90224">
        <ele>253</ele>
        <time>2014-02-16T13:23:42.1Z</time>
      </trkpt>
      <trkpt lat="48.45665" lon="-2.90223">
        <ele>253</ele>
        <time>2014-02-16T13:23:45.1Z</time>
      </trkpt>
      <trkpt lat="48.45665" lon="-2.90223">
        <ele>253</ele>
        <time>2014-02-16T13:23:48.1Z</time>
      </trkpt>
      <trkpt lat="48.45665" lon="-2.90223">
        <ele>252</ele>
        <time>2014-02-16T13:23:50.1Z</time>
      </trkpt>
      <trkpt lat="48.45664" lon="-2.90222">
        <ele>252</ele>
        <time>2014-02-16T13:23:53.1Z</time>
      </trkpt>
      <trkpt lat="48.45664" lon="-2.90222">
        <ele>253</ele>
        <time>2014-02-16T13:23:55.1Z</time>
      </trkpt>
      <trkpt lat="48.45662" lon="-2.90222">
        <ele>252</ele>
        <time>2014-02-16T13:23:58.1Z</time>
      </trkpt>
      <trkpt lat="48.45662" lon="-2.90221">
        <ele>253</ele>
        <time>2014-02-16T13:24:01.1Z</time>
      </trkpt>
      <trkpt lat="48.4566" lon="-2.90219">
        <ele>253</ele>
        <time>2014-02-16T13:24:04.1Z</time>
      </trkpt>
      <trkpt lat="48.45657" lon="-2.90218">
        <ele>253</ele>
        <time>2014-02-16T13:24:07.1Z</time>
      </trkpt>
      <trkpt lat="48.45657" lon="-2.90217">
        <ele>253</ele>
        <time>2014-02-16T13:24:10.1Z</time>
      </trkpt>
      <trkpt lat="48.45655" lon="-2.90217">
        <ele>254</ele>
        <time>2014-02-16T13:24:13.1Z</time>
      </trkpt>
      <trkpt lat="48.45653" lon="-2.90215">
        <ele>254</ele>
        <time>2014-02-16T13:24:16.1Z</time>
      </trkpt>
      <trkpt lat="48.45651" lon="-2.90212">
        <ele>253</ele>
        <time>2014-02-16T13:24:19.1Z</time>
      </trkpt>
      <trkpt lat="48.4565" lon="-2.9021">
        <ele>254</ele>
        <time>2014-02-16T13:24:21.1Z</time>
      </trkpt>
      <trkpt lat="48.45647" lon="-2.90207">
        <ele>254</ele>
        <time>2014-02-16T13:24:24.1Z</time>
      </trkpt>
      <trkpt lat="48.45644" lon="-2.90205">
        <ele>254</ele>
        <time>2014-02-16T13:24:27.1Z</time>
      </trkpt>
      <trkpt lat="48.45642" lon="-2.90202">
        <ele>255</ele>
        <time>2014-02-16T13:24:30.1Z</time>
      </trkpt>
      <trkpt lat="48.45641" lon="-2.902">
        <ele>255</ele>
        <time>2014-02-16T13:24:32.1Z</time>
      </trkpt>
      <trkpt lat="48.45639" lon="-2.90199">
        <ele>255</ele>
        <time>2014-02-16T13:24:34.1Z</time>
      </trkpt>
      <trkpt lat="48.45638" lon="-2.90197">
        <ele>255</ele>
        <time>2014-02-16T13:24:36.1Z</time>
      </trkpt>
      <trkpt lat="48.45634" lon="-2.90195">
        <ele>255</ele>
        <time>2014-02-16T13:24:39.1Z</time>
      </trkpt>
      <trkpt lat="48.45632" lon="-2.90192">
        <ele>255</ele>
        <time>2014-02-16T13:24:42.1Z</time>
      </trkpt>
      <trkpt lat="48.45631" lon="-2.9019">
        <ele>256</ele>
        <time>2014-02-16T13:24:44.1Z</time>
      </trkpt>
      <trkpt lat="48.45628" lon="-2.90188">
        <ele>256</ele>
        <time>2014-02-16T13:24:47.1Z</time>
      </trkpt>
      <trkpt lat="48.45626" lon="-2.90185">
        <ele>257</ele>
        <time>2014-02-16T13:24:50.1Z</time>
      </trkpt>
      <trkpt lat="48.45624" lon="-2.90184">
        <ele>257</ele>
        <time>2014-02-16T13:24:52.1Z</time>
      </trkpt>
      <trkpt lat="48.45622" lon="-2.90182">
        <ele>257</ele>
        <time>2014-02-16T13:24:54.1Z</time>
      </trkpt>
      <trkpt lat="48.45619" lon="-2.9018">
        <ele>257</ele>
        <time>2014-02-16T13:24:57.1Z</time>
      </trkpt>
      <trkpt lat="48.45618" lon="-2.9018">
        <ele>258</ele>
        <time>2014-02-16T13:25:00.1Z</time>
      </trkpt>
      <trkpt lat="48.45616" lon="-2.90179">
        <ele>259</ele>
        <time>2014-02-16T13:25:03.1Z</time>
      </trkpt>
      <trkpt lat="48.45614" lon="-2.90177">
        <ele>259</ele>
        <time>2014-02-16T13:25:06.1Z</time>
      </trkpt>
      <trkpt lat="48.45613" lon="-2.90176">
        <ele>260</ele>
        <time>2014-02-16T13:25:08.1Z</time>
      </trkpt>
      <trkpt lat="48.4561" lon="-2.90174">
        <ele>260</ele>
        <time>2014-02-16T13:25:11.1Z</time>
      </trkpt>
      <trkpt lat="48.45608" lon="-2.90173">
        <ele>260</ele>
        <time>2014-02-16T13:25:13.1Z</time>
      </trkpt>
      <trkpt lat="48.45605" lon="-2.90171">
        <ele>260</ele>
        <time>2014-02-16T13:25:16.1Z</time>
      </trkpt>
      <trkpt lat="48.45602" lon="-2.9017">
        <ele>259</ele>
        <time>2014-02-16T13:25:19.1Z</time>
      </trkpt>
      <trkpt lat="48.45601" lon="-2.9017">
        <ele>259</ele>
        <time>2014-02-16T13:25:21.1Z</time>
      </trkpt>
      <trkpt lat="48.45598" lon="-2.90169">
        <ele>260</ele>
        <time>2014-02-16T13:25:24.1Z</time>
      </trkpt>
      <trkpt lat="48.45596" lon="-2.90166">
        <ele>261</ele>
        <time>2014-02-16T13:25:27.1Z</time>
      </trkpt>
      <trkpt lat="48.45594" lon="-2.90166">
        <ele>261</ele>
        <time>2014-02-16T13:25:29.1Z</time>
      </trkpt>
      <trkpt lat="48.45592" lon="-2.90165">
        <ele>262</ele>
        <time>2014-02-16T13:25:32.1Z</time>
      </trkpt>
      <trkpt lat="48.4559" lon="-2.90164">
        <ele>262</ele>
        <time>2014-02-16T13:25:35.1Z</time>
      </trkpt>
      <trkpt lat="48.45588" lon="-2.90163">
        <ele>262</ele>
        <time>2014-02-16T13:25:38.1Z</time>
      </trkpt>
      <trkpt lat="48.45586" lon="-2.90162">
        <ele>261</ele>
        <time>2014-02-16T13:25:40.1Z</time>
      </trkpt>
      <trkpt lat="48.45584" lon="-2.90161">
        <ele>261</ele>
        <time>2014-02-16T13:25:43.1Z</time>
      </trkpt>
      <trkpt lat="48.45582" lon="-2.9016">
        <ele>261</ele>
        <time>2014-02-16T13:25:46.1Z</time>
      </trkpt>
      <trkpt lat="48.45581" lon="-2.9016">
        <ele>261</ele>
        <time>2014-02-16T13:25:48.1Z</time>
      </trkpt>
      <trkpt lat="48.4558" lon="-2.9016">
        <ele>261</ele>
        <time>2014-02-16T13:25:51.1Z</time>
      </trkpt>
      <trkpt lat="48.45578" lon="-2.90159">
        <ele>261</ele>
        <time>2014-02-16T13:25:54.1Z</time>
      </trkpt>
      <trkpt lat="48.45578" lon="-2.90159">
        <ele>261</ele>
        <time>2014-02-16T13:25:56.1Z</time>
      </trkpt>
      <trkpt lat="48.45576" lon="-2.90157">
        <ele>262</ele>
        <time>2014-02-16T13:25:59.1Z</time>
      </trkpt>
      <trkpt lat="48.45576" lon="-2.90157">
        <ele>262</ele>
        <time>2014-02-16T13:26:01.1Z</time>
      </trkpt>
      <trkpt lat="48.45575" lon="-2.90156">
        <ele>262</ele>
        <time>2014-02-16T13:26:03.1Z</time>
      </trkpt>
      <trkpt lat="48.45575" lon="-2.90155">
        <ele>262</ele>
        <time>2014-02-16T13:26:06.1Z</time>
      </trkpt>
      <trkpt lat="48.45573" lon="-2.90155">
        <ele>261</ele>
        <time>2014-02-16T13:26:09.1Z</time>
      </trkpt>
      <trkpt lat="48.45572" lon="-2.90154">
        <ele>262</ele>
        <time>2014-02-16T13:26:11.1Z</time>
      </trkpt>
      <trkpt lat="48.45571" lon="-2.90154">
        <ele>262</ele>
        <time>2014-02-16T13:26:13.1Z</time>
      </trkpt>
      <trkpt lat="48.45569" lon="-2.90154">
        <ele>262</ele>
        <time>2014-02-16T13:26:16.1Z</time>
      </trkpt>
      <trkpt lat="48.45567" lon="-2.90153">
        <ele>262</ele>
        <time>2014-02-16T13:26:19.1Z</time>
      </trkpt>
      <trkpt lat="48.45567" lon="-2.90152">
        <ele>262</ele>
        <time>2014-02-16T13:26:21.1Z</time>
      </trkpt>
      <trkpt lat="48.45565" lon="-2.90151">
        <ele>262</ele>
        <time>2014-02-16T13:26:23.1Z</time>
      </trkpt>
      <trkpt lat="48.45564" lon="-2.9015">
        <ele>263</ele>
        <time>2014-02-16T13:26:26.1Z</time>
      </trkpt>
      <trkpt lat="48.45564" lon="-2.90149">
        <ele>263</ele>
        <time>2014-02-16T13:26:28.1Z</time>
      </trkpt>
      <trkpt lat="48.45562" lon="-2.90148">
        <ele>263</ele>
        <time>2014-02-16T13:26:30.1Z</time>
      </trkpt>
      <trkpt lat="48.45561" lon="-2.90146">
        <ele>263</ele>
        <time>2014-02-16T13:26:33.1Z</time>
      </trkpt>
      <trkpt lat="48.4556" lon="-2.90145">
        <ele>262</ele>
        <time>2014-02-16T13:26:35.1Z</time>
      </trkpt>
      <trkpt lat="48.45559" lon="-2.90143">
        <ele>262</ele>
        <time>2014-02-16T13:26:38.1Z</time>
      </trkpt>
      <trkpt lat="48.45558" lon="-2.90142">
        <ele>263</ele>
        <time>2014-02-16T13:26:41.1Z</time>
      </trkpt>
      <trkpt lat="48.45558" lon="-2.90141">
        <ele>263</ele>
        <time>2014-02-16T13:26:43.1Z</time>
      </trkpt>
      <trkpt lat="48.45557" lon="-2.90139">
        <ele>263</ele>
        <time>2014-02-16T13:26:45.1Z</time>
      </trkpt>
      <trkpt lat="48.45555" lon="-2.90138">
        <ele>263</ele>
        <time>2014-02-16T13:26:48.1Z</time>
      </trkpt>
      <trkpt lat="48.45555" lon="-2.90138">
        <ele>263</ele>
        <time>2014-02-16T13:26:51.1Z</time>
      </trkpt>
      <trkpt lat="48.45554" lon="-2.90138">
        <ele>264</ele>
        <time>2014-02-16T13:26:54.1Z</time>
      </trkpt>
      <trkpt lat="48.45554" lon="-2.90138">
        <ele>264</ele>
        <time>2014-02-16T13:26:57.1Z</time>
      </trkpt>
      <trkpt lat="48.45554" lon="-2.90138">
        <ele>263</ele>
        <time>2014-02-16T13:26:59.1Z</time>
      </trkpt>
      <trkpt lat="48.45553" lon="-2.90138">
        <ele>264</ele>
        <time>2014-02-16T13:27:02.1Z</time>
      </trkpt>
      <trkpt lat="48.45552" lon="-2.90138">
        <ele>264</ele>
        <time>2014-02-16T13:27:05.1Z</time>
      </trkpt>
      <trkpt lat="48.45552" lon="-2.90137">
        <ele>264</ele>
        <time>2014-02-16T13:27:08.1Z</time>
      </trkpt>
      <trkpt lat="48.45551" lon="-2.90136">
        <ele>263</ele>
        <time>2014-02-16T13:27:11.1Z</time>
      </trkpt>
      <trkpt lat="48.4555" lon="-2.90135">
        <ele>263</ele>
        <time>2014-02-16T13:27:13.1Z</time>
      </trkpt>
      <trkpt lat="48.45549" lon="-2.90134">
        <ele>264</ele>
        <time>2014-02-16T13:27:16.1Z</time>
      </trkpt>
      <trkpt lat="48.45549" lon="-2.90134">
        <ele>264</ele>
        <time>2014-02-16T13:27:18.1Z</time>
      </trkpt>
      <trkpt lat="48.45548" lon="-2.90133">
        <ele>264</ele>
        <time>2014-02-16T13:27:21.1Z</time>
      </trkpt>
      <trkpt lat="48.45548" lon="-2.90133">
        <ele>263</ele>
        <time>2014-02-16T13:27:24.1Z</time>
      </trkpt>
      <trkpt lat="48.45547" lon="-2.90133">
        <ele>264</ele>
        <time>2014-02-16T13:27:26.1Z</time>
      </trkpt>
      <trkpt lat="48.45546" lon="-2.90132">
        <ele>264</ele>
        <time>2014-02-16T13:27:29.1Z</time>
      </trkpt>
      <trkpt lat="48.45544" lon="-2.90131">
        <ele>264</ele>
        <time>2014-02-16T13:27:31.1Z</time>
      </trkpt>
      <trkpt lat="48.45542" lon="-2.90131">
        <ele>263</ele>
        <time>2014-02-16T13:27:33.1Z</time>
      </trkpt>
      <trkpt lat="48.45541" lon="-2.90131">
        <ele>263</ele>
        <time>2014-02-16T13:27:36.1Z</time>
      </trkpt>
      <trkpt lat="48.45541" lon="-2.90129">
        <ele>264</ele>
        <time>2014-02-16T13:27:39.1Z</time>
      </trkpt>
      <trkpt lat="48.4554" lon="-2.90127">
        <ele>264</ele>
        <time>2014-02-16T13:27:41.1Z</time>
      </trkpt>
      <trkpt lat="48.45538" lon="-2.90126">
        <ele>263</ele>
        <time>2014-02-16T13:27:44.1Z</time>
      </trkpt>
      <trkpt lat="48.45536" lon="-2.90125">
        <ele>263</ele>
        <time>2014-02-16T13:27:46.1Z</time>
      </trkpt>
      <trkpt lat="48.45534" lon="-2.90123">
        <ele>264</ele>
        <time>2014-02-16T13:27:49.1Z</time>
      </trkpt>
      <trkpt lat="48.45532" lon="-2.9012">
        <ele>264</ele>
        <time>2014-02-16T13:27:52.1Z</time>
      </trkpt>
      <trkpt lat="48.4553" lon="-2.90118">
        <ele>264</ele>
        <time>2014-02-16T13:27:54.1Z</time>
      </trkpt>
      <trkpt lat="48.45526" lon="-2.90118">
        <ele>264</ele>
        <time>2014-02-16T13:27:57.1Z</time>
      </trkpt>
      <trkpt lat="48.45522" lon="-2.90118">
        <ele>263</ele>
        <time>2014-02-16T13:28:00.1Z</time>
      </trkpt>
      <trkpt lat="48.4552" lon="-2.90117">
        <ele>263</ele>
        <time>2014-02-16T13:28:02.1Z</time>
      </trkpt>
      <trkpt lat="48.45516" lon="-2.90116">
        <ele>263</ele>
        <time>2014-02-16T13:28:05.1Z</time>
      </trkpt>
      <trkpt lat="48.45513" lon="-2.90113">
        <ele>263</ele>
        <time>2014-02-16T13:28:08.1Z</time>
      </trkpt>
      <trkpt lat="48.45509" lon="-2.90111">
        <ele>263</ele>
        <time>2014-02-16T13:28:11.1Z</time>
      </trkpt>
      <trkpt lat="48.45506" lon="-2.90109">
        <ele>263</ele>
        <time>2014-02-16T13:28:14.1Z</time>
      </trkpt>
      <trkpt lat="48.45503" lon="-2.90107">
        <ele>262</ele>
        <time>2014-02-16T13:28:16.1Z</time>
      </trkpt>
      <trkpt lat="48.45499" lon="-2.90105">
        <ele>262</ele>
        <time>2014-02-16T13:28:19.1Z</time>
      </trkpt>
      <trkpt lat="48.45496" lon="-2.90102">
        <ele>262</ele>
        <time>2014-02-16T13:28:22.1Z</time>
      </trkpt>
      <trkpt lat="48.45492" lon="-2.90099">
        <ele>262</ele>
        <time>2014-02-16T13:28:25.1Z</time>
      </trkpt>
      <trkpt lat="48.45489" lon="-2.90096">
        <ele>262</ele>
        <time>2014-02-16T13:28:28.1Z</time>
      </trkpt>
      <trkpt lat="48.45485" lon="-2.90094">
        <ele>262</ele>
        <time>2014-02-16T13:28:31.1Z</time>
      </trkpt>
      <trkpt lat="48.45483" lon="-2.90092">
        <ele>262</ele>
        <time>2014-02-16T13:28:33.1Z</time>
      </trkpt>
      <trkpt lat="48.45481" lon="-2.90092">
        <ele>262</ele>
        <time>2014-02-16T13:28:35.1Z</time>
      </trkpt>
      <trkpt lat="48.45478" lon="-2.9009">
        <ele>262</ele>
        <time>2014-02-16T13:28:38.1Z</time>
      </trkpt>
      <trkpt lat="48.45476" lon="-2.90089">
        <ele>262</ele>
        <time>2014-02-16T13:28:40.1Z</time>
      </trkpt>
      <trkpt lat="48.45474" lon="-2.90089">
        <ele>262</ele>
        <time>2014-02-16T13:28:43.1Z</time>
      </trkpt>
      <trkpt lat="48.45473" lon="-2.9009">
        <ele>262</ele>
        <time>2014-02-16T13:28:45.1Z</time>
      </trkpt>
      <trkpt lat="48.45473" lon="-2.90089">
        <ele>262</ele>
        <time>2014-02-16T13:28:49.1Z</time>
      </trkpt>
      <trkpt lat="48.45472" lon="-2.90088">
        <ele>262</ele>
        <time>2014-02-16T13:28:52.1Z</time>
      </trkpt>
      <trkpt lat="48.4547" lon="-2.90087">
        <ele>262</ele>
        <time>2014-02-16T13:28:55.1Z</time>
      </trkpt>
      <trkpt lat="48.45469" lon="-2.90085">
        <ele>262</ele>
        <time>2014-02-16T13:28:57.1Z</time>
      </trkpt>
      <trkpt lat="48.45467" lon="-2.90083">
        <ele>262</ele>
        <time>2014-02-16T13:29:00.1Z</time>
      </trkpt>
      <trkpt lat="48.45465" lon="-2.90082">
        <ele>262</ele>
        <time>2014-02-16T13:29:02.1Z</time>
      </trkpt>
      <trkpt lat="48.45463" lon="-2.9008">
        <ele>262</ele>
        <time>2014-02-16T13:29:05.1Z</time>
      </trkpt>
      <trkpt lat="48.4546" lon="-2.90078">
        <ele>262</ele>
        <time>2014-02-16T13:29:08.1Z</time>
      </trkpt>
      <trkpt lat="48.45459" lon="-2.90077">
        <ele>261</ele>
        <time>2014-02-16T13:29:10.1Z</time>
      </trkpt>
      <trkpt lat="48.45457" lon="-2.90076">
        <ele>261</ele>
        <time>2014-02-16T13:29:13.1Z</time>
      </trkpt>
      <trkpt lat="48.45455" lon="-2.90076">
        <ele>261</ele>
        <time>2014-02-16T13:29:15.1Z</time>
      </trkpt>
      <trkpt lat="48.45452" lon="-2.90075">
        <ele>261</ele>
        <time>2014-02-16T13:29:18.1Z</time>
      </trkpt>
      <trkpt lat="48.4545" lon="-2.90073">
        <ele>260</ele>
        <time>2014-02-16T13:29:21.1Z</time>
      </trkpt>
      <trkpt lat="48.45449" lon="-2.90072">
        <ele>260</ele>
        <time>2014-02-16T13:29:23.1Z</time>
      </trkpt>
      <trkpt lat="48.45446" lon="-2.90071">
        <ele>260</ele>
        <time>2014-02-16T13:29:26.1Z</time>
      </trkpt>
      <trkpt lat="48.45444" lon="-2.9007">
        <ele>260</ele>
        <time>2014-02-16T13:29:28.1Z</time>
      </trkpt>
      <trkpt lat="48.45442" lon="-2.90069">
        <ele>260</ele>
        <time>2014-02-16T13:29:31.1Z</time>
      </trkpt>
      <trkpt lat="48.4544" lon="-2.90068">
        <ele>260</ele>
        <time>2014-02-16T13:29:33.1Z</time>
      </trkpt>
      <trkpt lat="48.45437" lon="-2.90066">
        <ele>260</ele>
        <time>2014-02-16T13:29:36.1Z</time>
      </trkpt>
      <trkpt lat="48.45435" lon="-2.90065">
        <ele>259</ele>
        <time>2014-02-16T13:29:38.1Z</time>
      </trkpt>
      <trkpt lat="48.45433" lon="-2.90063">
        <ele>259</ele>
        <time>2014-02-16T13:29:40.1Z</time>
      </trkpt>
      <trkpt lat="48.45432" lon="-2.90062">
        <ele>259</ele>
        <time>2014-02-16T13:29:42.1Z</time>
      </trkpt>
      <trkpt lat="48.45429" lon="-2.90061">
        <ele>259</ele>
        <time>2014-02-16T13:29:45.1Z</time>
      </trkpt>
      <trkpt lat="48.45428" lon="-2.90059">
        <ele>259</ele>
        <time>2014-02-16T13:29:47.1Z</time>
      </trkpt>
      <trkpt lat="48.45426" lon="-2.90058">
        <ele>259</ele>
        <time>2014-02-16T13:29:50.1Z</time>
      </trkpt>
      <trkpt lat="48.45424" lon="-2.90057">
        <ele>259</ele>
        <time>2014-02-16T13:29:52.1Z</time>
      </trkpt>
      <trkpt lat="48.45423" lon="-2.90055">
        <ele>258</ele>
        <time>2014-02-16T13:29:54.1Z</time>
      </trkpt>
      <trkpt lat="48.45421" lon="-2.90054">
        <ele>258</ele>
        <time>2014-02-16T13:29:56.1Z</time>
      </trkpt>
      <trkpt lat="48.45418" lon="-2.90052">
        <ele>258</ele>
        <time>2014-02-16T13:29:59.1Z</time>
      </trkpt>
      <trkpt lat="48.45417" lon="-2.9005">
        <ele>258</ele>
        <time>2014-02-16T13:30:01.1Z</time>
      </trkpt>
      <trkpt lat="48.45415" lon="-2.90048">
        <ele>258</ele>
        <time>2014-02-16T13:30:04.1Z</time>
      </trkpt>
      <trkpt lat="48.45412" lon="-2.90047">
        <ele>257</ele>
        <time>2014-02-16T13:30:07.1Z</time>
      </trkpt>
      <trkpt lat="48.4541" lon="-2.90045">
        <ele>257</ele>
        <time>2014-02-16T13:30:09.1Z</time>
      </trkpt>
      <trkpt lat="48.45407" lon="-2.90042">
        <ele>257</ele>
        <time>2014-02-16T13:30:12.1Z</time>
      </trkpt>
      <trkpt lat="48.45404" lon="-2.9004">
        <ele>257</ele>
        <time>2014-02-16T13:30:15.1Z</time>
      </trkpt>
      <trkpt lat="48.45401" lon="-2.90039">
        <ele>256</ele>
        <time>2014-02-16T13:30:17.1Z</time>
      </trkpt>
      <trkpt lat="48.45399" lon="-2.90037">
        <ele>257</ele>
        <time>2014-02-16T13:30:19.1Z</time>
      </trkpt>
      <trkpt lat="48.45396" lon="-2.90035">
        <ele>257</ele>
        <time>2014-02-16T13:30:22.1Z</time>
      </trkpt>
      <trkpt lat="48.45394" lon="-2.90034">
        <ele>256</ele>
        <time>2014-02-16T13:30:24.1Z</time>
      </trkpt>
      <trkpt lat="48.45391" lon="-2.90031">
        <ele>256</ele>
        <time>2014-02-16T13:30:27.1Z</time>
      </trkpt>
      <trkpt lat="48.45389" lon="-2.9003">
        <ele>256</ele>
        <time>2014-02-16T13:30:29.1Z</time>
      </trkpt>
      <trkpt lat="48.45385" lon="-2.90027">
        <ele>256</ele>
        <time>2014-02-16T13:30:32.1Z</time>
      </trkpt>
      <trkpt lat="48.45383" lon="-2.90025">
        <ele>256</ele>
        <time>2014-02-16T13:30:35.1Z</time>
      </trkpt>
      <trkpt lat="48.45381" lon="-2.90024">
        <ele>255</ele>
        <time>2014-02-16T13:30:37.1Z</time>
      </trkpt>
      <trkpt lat="48.45378" lon="-2.90022">
        <ele>255</ele>
        <time>2014-02-16T13:30:40.1Z</time>
      </trkpt>
      <trkpt lat="48.45377" lon="-2.90021">
        <ele>255</ele>
        <time>2014-02-16T13:30:42.1Z</time>
      </trkpt>
      <trkpt lat="48.45373" lon="-2.90018">
        <ele>255</ele>
        <time>2014-02-16T13:30:45.1Z</time>
      </trkpt>
      <trkpt lat="48.45371" lon="-2.90017">
        <ele>255</ele>
        <time>2014-02-16T13:30:47.1Z</time>
      </trkpt>
      <trkpt lat="48.45369" lon="-2.90015">
        <ele>255</ele>
        <time>2014-02-16T13:30:49.1Z</time>
      </trkpt>
      <trkpt lat="48.45367" lon="-2.90014">
        <ele>255</ele>
        <time>2014-02-16T13:30:51.1Z</time>
      </trkpt>
      <trkpt lat="48.45364" lon="-2.90011">
        <ele>254</ele>
        <time>2014-02-16T13:30:54.1Z</time>
      </trkpt>
      <trkpt lat="48.45362" lon="-2.90009">
        <ele>254</ele>
        <time>2014-02-16T13:30:56.1Z</time>
      </trkpt>
      <trkpt lat="48.45359" lon="-2.90007">
        <ele>254</ele>
        <time>2014-02-16T13:30:59.1Z</time>
      </trkpt>
      <trkpt lat="48.45356" lon="-2.90005">
        <ele>254</ele>
        <time>2014-02-16T13:31:02.1Z</time>
      </trkpt>
      <trkpt lat="48.45353" lon="-2.90003">
        <ele>254</ele>
        <time>2014-02-16T13:31:05.1Z</time>
      </trkpt>
      <trkpt lat="48.4535" lon="-2.9">
        <ele>254</ele>
        <time>2014-02-16T13:31:08.1Z</time>
      </trkpt>
      <trkpt lat="48.45347" lon="-2.89998">
        <ele>253</ele>
        <time>2014-02-16T13:31:11.1Z</time>
      </trkpt>
      <trkpt lat="48.45345" lon="-2.89996">
        <ele>253</ele>
        <time>2014-02-16T13:31:13.1Z</time>
      </trkpt>
      <trkpt lat="48.45343" lon="-2.89994">
        <ele>253</ele>
        <time>2014-02-16T13:31:15.1Z</time>
      </trkpt>
      <trkpt lat="48.45341" lon="-2.89992">
        <ele>253</ele>
        <time>2014-02-16T13:31:18.1Z</time>
      </trkpt>
      <trkpt lat="48.45339" lon="-2.89991">
        <ele>253</ele>
        <time>2014-02-16T13:31:20.1Z</time>
      </trkpt>
      <trkpt lat="48.45335" lon="-2.89988">
        <ele>253</ele>
        <time>2014-02-16T13:31:23.1Z</time>
      </trkpt>
      <trkpt lat="48.45332" lon="-2.89987">
        <ele>253</ele>
        <time>2014-02-16T13:31:26.1Z</time>
      </trkpt>
      <trkpt lat="48.4533" lon="-2.89986">
        <ele>253</ele>
        <time>2014-02-16T13:31:29.1Z</time>
      </trkpt>
      <trkpt lat="48.45327" lon="-2.89984">
        <ele>252</ele>
        <time>2014-02-16T13:31:32.1Z</time>
      </trkpt>
      <trkpt lat="48.45325" lon="-2.89982">
        <ele>252</ele>
        <time>2014-02-16T13:31:34.1Z</time>
      </trkpt>
      <trkpt lat="48.45322" lon="-2.89981">
        <ele>252</ele>
        <time>2014-02-16T13:31:37.1Z</time>
      </trkpt>
      <trkpt lat="48.45319" lon="-2.89979">
        <ele>251</ele>
        <time>2014-02-16T13:31:40.1Z</time>
      </trkpt>
      <trkpt lat="48.45316" lon="-2.89978">
        <ele>251</ele>
        <time>2014-02-16T13:31:42.1Z</time>
      </trkpt>
      <trkpt lat="48.45314" lon="-2.89977">
        <ele>251</ele>
        <time>2014-02-16T13:31:44.1Z</time>
      </trkpt>
      <trkpt lat="48.45312" lon="-2.89976">
        <ele>251</ele>
        <time>2014-02-16T13:31:47.1Z</time>
      </trkpt>
      <trkpt lat="48.45308" lon="-2.89973">
        <ele>251</ele>
        <time>2014-02-16T13:31:50.1Z</time>
      </trkpt>
      <trkpt lat="48.45306" lon="-2.89972">
        <ele>251</ele>
        <time>2014-02-16T13:31:52.1Z</time>
      </trkpt>
      <trkpt lat="48.45303" lon="-2.8997">
        <ele>251</ele>
        <time>2014-02-16T13:31:55.1Z</time>
      </trkpt>
      <trkpt lat="48.45299" lon="-2.89967">
        <ele>251</ele>
        <time>2014-02-16T13:31:58.1Z</time>
      </trkpt>
      <trkpt lat="48.45296" lon="-2.89965">
        <ele>251</ele>
        <time>2014-02-16T13:32:01.1Z</time>
      </trkpt>
      <trkpt lat="48.45292" lon="-2.89962">
        <ele>251</ele>
        <time>2014-02-16T13:32:04.1Z</time>
      </trkpt>
      <trkpt lat="48.4529" lon="-2.8996">
        <ele>251</ele>
        <time>2014-02-16T13:32:06.1Z</time>
      </trkpt>
      <trkpt lat="48.45286" lon="-2.89958">
        <ele>251</ele>
        <time>2014-02-16T13:32:09.1Z</time>
      </trkpt>
      <trkpt lat="48.45284" lon="-2.89957">
        <ele>250</ele>
        <time>2014-02-16T13:32:11.1Z</time>
      </trkpt>
      <trkpt lat="48.45282" lon="-2.89956">
        <ele>250</ele>
        <time>2014-02-16T13:32:13.1Z</time>
      </trkpt>
      <trkpt lat="48.4528" lon="-2.89955">
        <ele>250</ele>
        <time>2014-02-16T13:32:15.1Z</time>
      </trkpt>
      <trkpt lat="48.45277" lon="-2.89953">
        <ele>250</ele>
        <time>2014-02-16T13:32:18.1Z</time>
      </trkpt>
      <trkpt lat="48.45274" lon="-2.89951">
        <ele>250</ele>
        <time>2014-02-16T13:32:21.1Z</time>
      </trkpt>
      <trkpt lat="48.4527" lon="-2.89949">
        <ele>250</ele>
        <time>2014-02-16T13:32:24.1Z</time>
      </trkpt>
      <trkpt lat="48.45268" lon="-2.89948">
        <ele>250</ele>
        <time>2014-02-16T13:32:26.1Z</time>
      </trkpt>
      <trkpt lat="48.45266" lon="-2.89946">
        <ele>249</ele>
        <time>2014-02-16T13:32:28.1Z</time>
      </trkpt>
      <trkpt lat="48.45263" lon="-2.89943">
        <ele>249</ele>
        <time>2014-02-16T13:32:31.1Z</time>
      </trkpt>
      <trkpt lat="48.4526" lon="-2.89941">
        <ele>249</ele>
        <time>2014-02-16T13:32:33.1Z</time>
      </trkpt>
      <trkpt lat="48.45258" lon="-2.89939">
        <ele>249</ele>
        <time>2014-02-16T13:32:35.1Z</time>
      </trkpt>
      <trkpt lat="48.45255" lon="-2.89937">
        <ele>248</ele>
        <time>2014-02-16T13:32:38.1Z</time>
      </trkpt>
      <trkpt lat="48.45251" lon="-2.89935">
        <ele>248</ele>
        <time>2014-02-16T13:32:41.1Z</time>
      </trkpt>
      <trkpt lat="48.45249" lon="-2.89933">
        <ele>248</ele>
        <time>2014-02-16T13:32:43.1Z</time>
      </trkpt>
      <trkpt lat="48.45246" lon="-2.89931">
        <ele>248</ele>
        <time>2014-02-16T13:32:46.1Z</time>
      </trkpt>
      <trkpt lat="48.45244" lon="-2.89929">
        <ele>248</ele>
        <time>2014-02-16T13:32:48.1Z</time>
      </trkpt>
      <trkpt lat="48.45241" lon="-2.89925">
        <ele>248</ele>
        <time>2014-02-16T13:32:51.1Z</time>
      </trkpt>
      <trkpt lat="48.45239" lon="-2.89923">
        <ele>248</ele>
        <time>2014-02-16T13:32:53.1Z</time>
      </trkpt>
      <trkpt lat="48.45237" lon="-2.8992">
        <ele>248</ele>
        <time>2014-02-16T13:32:55.1Z</time>
      </trkpt>
      <trkpt lat="48.45235" lon="-2.89918">
        <ele>248</ele>
        <time>2014-02-16T13:32:57.1Z</time>
      </trkpt>
      <trkpt lat="48.45232" lon="-2.89914">
        <ele>249</ele>
        <time>2014-02-16T13:33:00.1Z</time>
      </trkpt>
      <trkpt lat="48.45229" lon="-2.89911">
        <ele>248</ele>
        <time>2014-02-16T13:33:03.1Z</time>
      </trkpt>
      <trkpt lat="48.45227" lon="-2.89907">
        <ele>248</ele>
        <time>2014-02-16T13:33:06.1Z</time>
      </trkpt>
      <trkpt lat="48.45225" lon="-2.89905">
        <ele>247</ele>
        <time>2014-02-16T13:33:08.1Z</time>
      </trkpt>
      <trkpt lat="48.45223" lon="-2.89902">
        <ele>247</ele>
        <time>2014-02-16T13:33:10.1Z</time>
      </trkpt>
      <trkpt lat="48.4522" lon="-2.89899">
        <ele>248</ele>
        <time>2014-02-16T13:33:13.1Z</time>
      </trkpt>
      <trkpt lat="48.45218" lon="-2.89896">
        <ele>248</ele>
        <time>2014-02-16T13:33:15.1Z</time>
      </trkpt>
      <trkpt lat="48.45215" lon="-2.89892">
        <ele>247</ele>
        <time>2014-02-16T13:33:18.1Z</time>
      </trkpt>
      <trkpt lat="48.45213" lon="-2.8989">
        <ele>247</ele>
        <time>2014-02-16T13:33:20.1Z</time>
      </trkpt>
      <trkpt lat="48.4521" lon="-2.89887">
        <ele>247</ele>
        <time>2014-02-16T13:33:23.1Z</time>
      </trkpt>
      <trkpt lat="48.45207" lon="-2.89884">
        <ele>246</ele>
        <time>2014-02-16T13:33:26.1Z</time>
      </trkpt>
      <trkpt lat="48.45205" lon="-2.89881">
        <ele>247</ele>
        <time>2014-02-16T13:33:28.1Z</time>
      </trkpt>
      <trkpt lat="48.45203" lon="-2.89877">
        <ele>247</ele>
        <time>2014-02-16T13:33:31.1Z</time>
      </trkpt>
      <trkpt lat="48.452" lon="-2.89873">
        <ele>247</ele>
        <time>2014-02-16T13:33:34.1Z</time>
      </trkpt>
      <trkpt lat="48.45198" lon="-2.89869">
        <ele>247</ele>
        <time>2014-02-16T13:33:36.1Z</time>
      </trkpt>
      <trkpt lat="48.45195" lon="-2.89865">
        <ele>246</ele>
        <time>2014-02-16T13:33:39.1Z</time>
      </trkpt>
      <trkpt lat="48.45192" lon="-2.89861">
        <ele>246</ele>
        <time>2014-02-16T13:33:42.1Z</time>
      </trkpt>
      <trkpt lat="48.4519" lon="-2.89857">
        <ele>246</ele>
        <time>2014-02-16T13:33:45.1Z</time>
      </trkpt>
      <trkpt lat="48.45188" lon="-2.89854">
        <ele>246</ele>
        <time>2014-02-16T13:33:47.1Z</time>
      </trkpt>
      <trkpt lat="48.45185" lon="-2.89851">
        <ele>246</ele>
        <time>2014-02-16T13:33:50.1Z</time>
      </trkpt>
      <trkpt lat="48.45183" lon="-2.89846">
        <ele>246</ele>
        <time>2014-02-16T13:33:53.1Z</time>
      </trkpt>
      <trkpt lat="48.45181" lon="-2.89844">
        <ele>246</ele>
        <time>2014-02-16T13:33:55.1Z</time>
      </trkpt>
      <trkpt lat="48.45178" lon="-2.8984">
        <ele>246</ele>
        <time>2014-02-16T13:33:58.1Z</time>
      </trkpt>
      <trkpt lat="48.45175" lon="-2.89835">
        <ele>246</ele>
        <time>2014-02-16T13:34:01.1Z</time>
      </trkpt>
      <trkpt lat="48.45173" lon="-2.89833">
        <ele>246</ele>
        <time>2014-02-16T13:34:03.1Z</time>
      </trkpt>
      <trkpt lat="48.4517" lon="-2.8983">
        <ele>245</ele>
        <time>2014-02-16T13:34:06.1Z</time>
      </trkpt>
      <trkpt lat="48.45168" lon="-2.89826">
        <ele>246</ele>
        <time>2014-02-16T13:34:09.1Z</time>
      </trkpt>
      <trkpt lat="48.45166" lon="-2.89824">
        <ele>245</ele>
        <time>2014-02-16T13:34:11.1Z</time>
      </trkpt>
      <trkpt lat="48.45163" lon="-2.8982">
        <ele>245</ele>
        <time>2014-02-16T13:34:14.1Z</time>
      </trkpt>
      <trkpt lat="48.45161" lon="-2.89818">
        <ele>245</ele>
        <time>2014-02-16T13:34:16.1Z</time>
      </trkpt>
      <trkpt lat="48.45158" lon="-2.89814">
        <ele>245</ele>
        <time>2014-02-16T13:34:19.1Z</time>
      </trkpt>
      <trkpt lat="48.45155" lon="-2.89811">
        <ele>245</ele>
        <time>2014-02-16T13:34:22.1Z</time>
      </trkpt>
      <trkpt lat="48.45153" lon="-2.89808">
        <ele>245</ele>
        <time>2014-02-16T13:34:24.1Z</time>
      </trkpt>
      <trkpt lat="48.4515" lon="-2.89805">
        <ele>245</ele>
        <time>2014-02-16T13:34:27.1Z</time>
      </trkpt>
      <trkpt lat="48.45148" lon="-2.89802">
        <ele>244</ele>
        <time>2014-02-16T13:34:29.1Z</time>
      </trkpt>
      <trkpt lat="48.45145" lon="-2.89799">
        <ele>244</ele>
        <time>2014-02-16T13:34:32.1Z</time>
      </trkpt>
      <trkpt lat="48.45142" lon="-2.89796">
        <ele>244</ele>
        <time>2014-02-16T13:34:35.1Z</time>
      </trkpt>
      <trkpt lat="48.4514" lon="-2.89794">
        <ele>244</ele>
        <time>2014-02-16T13:34:37.1Z</time>
      </trkpt>
      <trkpt lat="48.45138" lon="-2.89791">
        <ele>245</ele>
        <time>2014-02-16T13:34:40.1Z</time>
      </trkpt>
      <trkpt lat="48.45136" lon="-2.89789">
        <ele>244</ele>
        <time>2014-02-16T13:34:42.1Z</time>
      </trkpt>
      <trkpt lat="48.45134" lon="-2.89786">
        <ele>244</ele>
        <time>2014-02-16T13:34:45.1Z</time>
      </trkpt>
      <trkpt lat="48.45132" lon="-2.89784">
        <ele>244</ele>
        <time>2014-02-16T13:34:47.1Z</time>
      </trkpt>
      <trkpt lat="48.45131" lon="-2.89783">
        <ele>244</ele>
        <time>2014-02-16T13:34:50.1Z</time>
      </trkpt>
      <trkpt lat="48.45128" lon="-2.89781">
        <ele>244</ele>
        <time>2014-02-16T13:34:52.1Z</time>
      </trkpt>
      <trkpt lat="48.45124" lon="-2.89779">
        <ele>244</ele>
        <time>2014-02-16T13:34:55.1Z</time>
      </trkpt>
      <trkpt lat="48.45121" lon="-2.89777">
        <ele>244</ele>
        <time>2014-02-16T13:34:58.1Z</time>
      </trkpt>
      <trkpt lat="48.45118" lon="-2.89775">
        <ele>244</ele>
        <time>2014-02-16T13:35:00.1Z</time>
      </trkpt>
      <trkpt lat="48.45115" lon="-2.89774">
        <ele>244</ele>
        <time>2014-02-16T13:35:03.1Z</time>
      </trkpt>
      <trkpt lat="48.45111" lon="-2.89772">
        <ele>244</ele>
        <time>2014-02-16T13:35:06.1Z</time>
      </trkpt>
      <trkpt lat="48.45108" lon="-2.8977">
        <ele>244</ele>
        <time>2014-02-16T13:35:09.1Z</time>
      </trkpt>
      <trkpt lat="48.45105" lon="-2.89769">
        <ele>245</ele>
        <time>2014-02-16T13:35:12.1Z</time>
      </trkpt>
      <trkpt lat="48.45104" lon="-2.89768">
        <ele>245</ele>
        <time>2014-02-16T13:35:14.1Z</time>
      </trkpt>
      <trkpt lat="48.45101" lon="-2.89767">
        <ele>245</ele>
        <time>2014-02-16T13:35:17.1Z</time>
      </trkpt>
      <trkpt lat="48.451" lon="-2.89765">
        <ele>245</ele>
        <time>2014-02-16T13:35:19.1Z</time>
      </trkpt>
      <trkpt lat="48.45097" lon="-2.89763">
        <ele>245</ele>
        <time>2014-02-16T13:35:22.1Z</time>
      </trkpt>
      <trkpt lat="48.45095" lon="-2.89762">
        <ele>245</ele>
        <time>2014-02-16T13:35:24.1Z</time>
      </trkpt>
      <trkpt lat="48.45092" lon="-2.89759">
        <ele>244</ele>
        <time>2014-02-16T13:35:27.1Z</time>
      </trkpt>
      <trkpt lat="48.45091" lon="-2.89758">
        <ele>244</ele>
        <time>2014-02-16T13:35:29.1Z</time>
      </trkpt>
      <trkpt lat="48.45088" lon="-2.89756">
        <ele>244</ele>
        <time>2014-02-16T13:35:32.1Z</time>
      </trkpt>
      <trkpt lat="48.45086" lon="-2.89754">
        <ele>243</ele>
        <time>2014-02-16T13:35:35.1Z</time>
      </trkpt>
      <trkpt lat="48.45084" lon="-2.89754">
        <ele>243</ele>
        <time>2014-02-16T13:35:37.1Z</time>
      </trkpt>
      <trkpt lat="48.45081" lon="-2.89753">
        <ele>243</ele>
        <time>2014-02-16T13:35:40.1Z</time>
      </trkpt>
      <trkpt lat="48.45078" lon="-2.8975">
        <ele>243</ele>
        <time>2014-02-16T13:35:43.1Z</time>
      </trkpt>
      <trkpt lat="48.45076" lon="-2.89747">
        <ele>242</ele>
        <time>2014-02-16T13:35:46.1Z</time>
      </trkpt>
      <trkpt lat="48.45072" lon="-2.89745">
        <ele>241</ele>
        <time>2014-02-16T13:35:49.1Z</time>
      </trkpt>
      <trkpt lat="48.45071" lon="-2.89743">
        <ele>241</ele>
        <time>2014-02-16T13:35:51.1Z</time>
      </trkpt>
      <trkpt lat="48.45068" lon="-2.8974">
        <ele>240</ele>
        <time>2014-02-16T13:35:54.1Z</time>
      </trkpt>
      <trkpt lat="48.45067" lon="-2.89738">
        <ele>240</ele>
        <time>2014-02-16T13:35:56.1Z</time>
      </trkpt>
      <trkpt lat="48.45065" lon="-2.89737">
        <ele>240</ele>
        <time>2014-02-16T13:35:58.1Z</time>
      </trkpt>
      <trkpt lat="48.45063" lon="-2.89734">
        <ele>240</ele>
        <time>2014-02-16T13:36:00.1Z</time>
      </trkpt>
      <trkpt lat="48.45061" lon="-2.89731">
        <ele>239</ele>
        <time>2014-02-16T13:36:03.1Z</time>
      </trkpt>
      <trkpt lat="48.45058" lon="-2.89727">
        <ele>238</ele>
        <time>2014-02-16T13:36:06.1Z</time>
      </trkpt>
      <trkpt lat="48.45056" lon="-2.89725">
        <ele>238</ele>
        <time>2014-02-16T13:36:08.1Z</time>
      </trkpt>
      <trkpt lat="48.45053" lon="-2.89722">
        <ele>238</ele>
        <time>2014-02-16T13:36:11.1Z</time>
      </trkpt>
      <trkpt lat="48.45051" lon="-2.89721">
        <ele>237</ele>
        <time>2014-02-16T13:36:13.1Z</time>
      </trkpt>
      <trkpt lat="48.45048" lon="-2.89719">
        <ele>237</ele>
        <time>2014-02-16T13:36:16.1Z</time>
      </trkpt>
      <trkpt lat="48.45045" lon="-2.89717">
        <ele>236</ele>
        <time>2014-02-16T13:36:19.1Z</time>
      </trkpt>
      <trkpt lat="48.45042" lon="-2.89716">
        <ele>236</ele>
        <time>2014-02-16T13:36:22.1Z</time>
      </trkpt>
      <trkpt lat="48.4504" lon="-2.89715">
        <ele>236</ele>
        <time>2014-02-16T13:36:24.1Z</time>
      </trkpt>
      <trkpt lat="48.45037" lon="-2.89715">
        <ele>236</ele>
        <time>2014-02-16T13:36:26.1Z</time>
      </trkpt>
      <trkpt lat="48.45034" lon="-2.89714">
        <ele>235</ele>
        <time>2014-02-16T13:36:29.1Z</time>
      </trkpt>
      <trkpt lat="48.45031" lon="-2.89714">
        <ele>235</ele>
        <time>2014-02-16T13:36:31.1Z</time>
      </trkpt>
      <trkpt lat="48.45028" lon="-2.89715">
        <ele>235</ele>
        <time>2014-02-16T13:36:34.1Z</time>
      </trkpt>
      <trkpt lat="48.45025" lon="-2.89717">
        <ele>235</ele>
        <time>2014-02-16T13:36:36.1Z</time>
      </trkpt>
      <trkpt lat="48.45023" lon="-2.89718">
        <ele>235</ele>
        <time>2014-02-16T13:36:38.1Z</time>
      </trkpt>
      <trkpt lat="48.45019" lon="-2.89721">
        <ele>234</ele>
        <time>2014-02-16T13:36:41.1Z</time>
      </trkpt>
      <trkpt lat="48.45016" lon="-2.89723">
        <ele>235</ele>
        <time>2014-02-16T13:36:43.1Z</time>
      </trkpt>
      <trkpt lat="48.45013" lon="-2.89727">
        <ele>235</ele>
        <time>2014-02-16T13:36:46.1Z</time>
      </trkpt>
      <trkpt lat="48.4501" lon="-2.89733">
        <ele>235</ele>
        <time>2014-02-16T13:36:49.1Z</time>
      </trkpt>
      <trkpt lat="48.45009" lon="-2.89736">
        <ele>235</ele>
        <time>2014-02-16T13:36:51.1Z</time>
      </trkpt>
      <trkpt lat="48.45008" lon="-2.8974">
        <ele>235</ele>
        <time>2014-02-16T13:36:54.1Z</time>
      </trkpt>
      <trkpt lat="48.45007" lon="-2.89743">
        <ele>235</ele>
        <time>2014-02-16T13:36:56.1Z</time>
      </trkpt>
      <trkpt lat="48.45006" lon="-2.89749">
        <ele>235</ele>
        <time>2014-02-16T13:36:59.1Z</time>
      </trkpt>
      <trkpt lat="48.45005" lon="-2.89753">
        <ele>235</ele>
        <time>2014-02-16T13:37:01.1Z</time>
      </trkpt>
      <trkpt lat="48.45004" lon="-2.89758">
        <ele>236</ele>
        <time>2014-02-16T13:37:04.1Z</time>
      </trkpt>
      <trkpt lat="48.45004" lon="-2.89763">
        <ele>235</ele>
        <time>2014-02-16T13:37:07.1Z</time>
      </trkpt>
      <trkpt lat="48.45003" lon="-2.89767">
        <ele>236</ele>
        <time>2014-02-16T13:37:09.1Z</time>
      </trkpt>
      <trkpt lat="48.45002" lon="-2.89772">
        <ele>236</ele>
        <time>2014-02-16T13:37:12.1Z</time>
      </trkpt>
      <trkpt lat="48.45001" lon="-2.89775">
        <ele>236</ele>
        <time>2014-02-16T13:37:14.1Z</time>
      </trkpt>
      <trkpt lat="48.44999" lon="-2.89779">
        <ele>237</ele>
        <time>2014-02-16T13:37:17.1Z</time>
      </trkpt>
      <trkpt lat="48.44997" lon="-2.89783">
        <ele>237</ele>
        <time>2014-02-16T13:37:20.1Z</time>
      </trkpt>
      <trkpt lat="48.44994" lon="-2.89785">
        <ele>237</ele>
        <time>2014-02-16T13:37:22.1Z</time>
      </trkpt>
      <trkpt lat="48.44991" lon="-2.89787">
        <ele>238</ele>
        <time>2014-02-16T13:37:25.1Z</time>
      </trkpt>
      <trkpt lat="48.44989" lon="-2.89788">
        <ele>238</ele>
        <time>2014-02-16T13:37:27.1Z</time>
      </trkpt>
      <trkpt lat="48.44986" lon="-2.89788">
        <ele>239</ele>
        <time>2014-02-16T13:37:30.1Z</time>
      </trkpt>
      <trkpt lat="48.44983" lon="-2.89788">
        <ele>239</ele>
        <time>2014-02-16T13:37:33.1Z</time>
      </trkpt>
      <trkpt lat="48.4498" lon="-2.89789">
        <ele>239</ele>
        <time>2014-02-16T13:37:36.1Z</time>
      </trkpt>
      <trkpt lat="48.44978" lon="-2.8979">
        <ele>240</ele>
        <time>2014-02-16T13:37:38.1Z</time>
      </trkpt>
      <trkpt lat="48.44976" lon="-2.89791">
        <ele>240</ele>
        <time>2014-02-16T13:37:41.1Z</time>
      </trkpt>
      <trkpt lat="48.44973" lon="-2.89793">
        <ele>240</ele>
        <time>2014-02-16T13:37:44.1Z</time>
      </trkpt>
      <trkpt lat="48.44971" lon="-2.89793">
        <ele>241</ele>
        <time>2014-02-16T13:37:46.1Z</time>
      </trkpt>
      <trkpt lat="48.44969" lon="-2.89795">
        <ele>241</ele>
        <time>2014-02-16T13:37:49.1Z</time>
      </trkpt>
      <trkpt lat="48.44967" lon="-2.89797">
        <ele>242</ele>
        <time>2014-02-16T13:37:51.1Z</time>
      </trkpt>
      <trkpt lat="48.44963" lon="-2.89799">
        <ele>242</ele>
        <time>2014-02-16T13:37:53.1Z</time>
      </trkpt>
      <trkpt lat="48.44962" lon="-2.898">
        <ele>242</ele>
        <time>2014-02-16T13:37:56.1Z</time>
      </trkpt>
      <trkpt lat="48.44959" lon="-2.89802">
        <ele>243</ele>
        <time>2014-02-16T13:37:59.1Z</time>
      </trkpt>
      <trkpt lat="48.44956" lon="-2.89804">
        <ele>243</ele>
        <time>2014-02-16T13:38:02.1Z</time>
      </trkpt>
      <trkpt lat="48.44954" lon="-2.89806">
        <ele>243</ele>
        <time>2014-02-16T13:38:04.1Z</time>
      </trkpt>
      <trkpt lat="48.44952" lon="-2.89808">
        <ele>243</ele>
        <time>2014-02-16T13:38:06.1Z</time>
      </trkpt>
      <trkpt lat="48.4495" lon="-2.89811">
        <ele>244</ele>
        <time>2014-02-16T13:38:09.1Z</time>
      </trkpt>
      <trkpt lat="48.44947" lon="-2.89814">
        <ele>244</ele>
        <time>2014-02-16T13:38:12.1Z</time>
      </trkpt>
      <trkpt lat="48.44946" lon="-2.89816">
        <ele>244</ele>
        <time>2014-02-16T13:38:14.1Z</time>
      </trkpt>
      <trkpt lat="48.44943" lon="-2.8982">
        <ele>245</ele>
        <time>2014-02-16T13:38:17.1Z</time>
      </trkpt>
      <trkpt lat="48.44941" lon="-2.89823">
        <ele>245</ele>
        <time>2014-02-16T13:38:20.1Z</time>
      </trkpt>
      <trkpt lat="48.44939" lon="-2.89826">
        <ele>245</ele>
        <time>2014-02-16T13:38:23.1Z</time>
      </trkpt>
      <trkpt lat="48.44937" lon="-2.8983">
        <ele>245</ele>
        <time>2014-02-16T13:38:26.1Z</time>
      </trkpt>
      <trkpt lat="48.44934" lon="-2.89834">
        <ele>245</ele>
        <time>2014-02-16T13:38:29.1Z</time>
      </trkpt>
      <trkpt lat="48.44933" lon="-2.89837">
        <ele>245</ele>
        <time>2014-02-16T13:38:31.1Z</time>
      </trkpt>
      <trkpt lat="48.44932" lon="-2.8984">
        <ele>246</ele>
        <time>2014-02-16T13:38:33.1Z</time>
      </trkpt>
      <trkpt lat="48.44929" lon="-2.89843">
        <ele>246</ele>
        <time>2014-02-16T13:38:36.1Z</time>
      </trkpt>
      <trkpt lat="48.44927" lon="-2.89844">
        <ele>246</ele>
        <time>2014-02-16T13:38:38.1Z</time>
      </trkpt>
      <trkpt lat="48.44924" lon="-2.89846">
        <ele>246</ele>
        <time>2014-02-16T13:38:41.1Z</time>
      </trkpt>
      <trkpt lat="48.44922" lon="-2.89847">
        <ele>246</ele>
        <time>2014-02-16T13:38:44.1Z</time>
      </trkpt>
      <trkpt lat="48.4492" lon="-2.89847">
        <ele>246</ele>
        <time>2014-02-16T13:38:46.1Z</time>
      </trkpt>
      <trkpt lat="48.44917" lon="-2.89846">
        <ele>246</ele>
        <time>2014-02-16T13:38:49.1Z</time>
      </trkpt>
      <trkpt lat="48.44914" lon="-2.89845">
        <ele>245</ele>
        <time>2014-02-16T13:38:51.1Z</time>
      </trkpt>
      <trkpt lat="48.44911" lon="-2.89843">
        <ele>245</ele>
        <time>2014-02-16T13:38:54.1Z</time>
      </trkpt>
      <trkpt lat="48.4491" lon="-2.89841">
        <ele>246</ele>
        <time>2014-02-16T13:38:56.1Z</time>
      </trkpt>
      <trkpt lat="48.44908" lon="-2.8984">
        <ele>245</ele>
        <time>2014-02-16T13:38:58.1Z</time>
      </trkpt>
      <trkpt lat="48.44905" lon="-2.89837">
        <ele>245</ele>
        <time>2014-02-16T13:39:01.1Z</time>
      </trkpt>
      <trkpt lat="48.44903" lon="-2.89835">
        <ele>245</ele>
        <time>2014-02-16T13:39:04.1Z</time>
      </trkpt>
      <trkpt lat="48.44901" lon="-2.89833">
        <ele>245</ele>
        <time>2014-02-16T13:39:06.1Z</time>
      </trkpt>
      <trkpt lat="48.44897" lon="-2.8983">
        <ele>245</ele>
        <time>2014-02-16T13:39:09.1Z</time>
      </trkpt>
      <trkpt lat="48.44894" lon="-2.89829">
        <ele>245</ele>
        <time>2014-02-16T13:39:12.1Z</time>
      </trkpt>
      <trkpt lat="48.44891" lon="-2.89827">
        <ele>245</ele>
        <time>2014-02-16T13:39:15.1Z</time>
      </trkpt>
      <trkpt lat="48.44888" lon="-2.89826">
        <ele>245</ele>
        <time>2014-02-16T13:39:18.1Z</time>
      </trkpt>
      <trkpt lat="48.44886" lon="-2.89825">
        <ele>245</ele>
        <time>2014-02-16T13:39:20.1Z</time>
      </trkpt>
      <trkpt lat="48.44883" lon="-2.89823">
        <ele>245</ele>
        <time>2014-02-16T13:39:23.1Z</time>
      </trkpt>
      <trkpt lat="48.44881" lon="-2.89821">
        <ele>246</ele>
        <time>2014-02-16T13:39:25.1Z</time>
      </trkpt>
      <trkpt lat="48.44879" lon="-2.89818">
        <ele>246</ele>
        <time>2014-02-16T13:39:28.1Z</time>
      </trkpt>
      <trkpt lat="48.44878" lon="-2.89816">
        <ele>246</ele>
        <time>2014-02-16T13:39:30.1Z</time>
      </trkpt>
      <trkpt lat="48.44875" lon="-2.89813">
        <ele>246</ele>
        <time>2014-02-16T13:39:33.1Z</time>
      </trkpt>
      <trkpt lat="48.44874" lon="-2.8981">
        <ele>246</ele>
        <time>2014-02-16T13:39:35.1Z</time>
      </trkpt>
      <trkpt lat="48.44872" lon="-2.89808">
        <ele>245</ele>
        <time>2014-02-16T13:39:37.1Z</time>
      </trkpt>
      <trkpt lat="48.4487" lon="-2.89804">
        <ele>245</ele>
        <time>2014-02-16T13:39:40.1Z</time>
      </trkpt>
      <trkpt lat="48.44868" lon="-2.89802">
        <ele>245</ele>
        <time>2014-02-16T13:39:42.1Z</time>
      </trkpt>
      <trkpt lat="48.44865" lon="-2.89798">
        <ele>245</ele>
        <time>2014-02-16T13:39:45.1Z</time>
      </trkpt>
      <trkpt lat="48.44864" lon="-2.89795">
        <ele>245</ele>
        <time>2014-02-16T13:39:47.1Z</time>
      </trkpt>
      <trkpt lat="48.44862" lon="-2.89791">
        <ele>245</ele>
        <time>2014-02-16T13:39:50.1Z</time>
      </trkpt>
      <trkpt lat="48.4486" lon="-2.89788">
        <ele>245</ele>
        <time>2014-02-16T13:39:52.1Z</time>
      </trkpt>
      <trkpt lat="48.44858" lon="-2.89784">
        <ele>245</ele>
        <time>2014-02-16T13:39:55.1Z</time>
      </trkpt>
      <trkpt lat="48.44855" lon="-2.89781">
        <ele>245</ele>
        <time>2014-02-16T13:39:58.1Z</time>
      </trkpt>
      <trkpt lat="48.44854" lon="-2.89778">
        <ele>245</ele>
        <time>2014-02-16T13:40:00.1Z</time>
      </trkpt>
      <trkpt lat="48.4485" lon="-2.89775">
        <ele>245</ele>
        <time>2014-02-16T13:40:03.1Z</time>
      </trkpt>
      <trkpt lat="48.44849" lon="-2.89772">
        <ele>245</ele>
        <time>2014-02-16T13:40:05.1Z</time>
      </trkpt>
      <trkpt lat="48.44846" lon="-2.89769">
        <ele>245</ele>
        <time>2014-02-16T13:40:08.1Z</time>
      </trkpt>
      <trkpt lat="48.44844" lon="-2.89766">
        <ele>245</ele>
        <time>2014-02-16T13:40:10.1Z</time>
      </trkpt>
      <trkpt lat="48.44842" lon="-2.89764">
        <ele>245</ele>
        <time>2014-02-16T13:40:12.1Z</time>
      </trkpt>
      <trkpt lat="48.44839" lon="-2.8976">
        <ele>245</ele>
        <time>2014-02-16T13:40:15.1Z</time>
      </trkpt>
      <trkpt lat="48.44838" lon="-2.89758">
        <ele>245</ele>
        <time>2014-02-16T13:40:17.1Z</time>
      </trkpt>
      <trkpt lat="48.44835" lon="-2.89754">
        <ele>245</ele>
        <time>2014-02-16T13:40:20.1Z</time>
      </trkpt>
      <trkpt lat="48.44833" lon="-2.89751">
        <ele>244</ele>
        <time>2014-02-16T13:40:22.1Z</time>
      </trkpt>
      <trkpt lat="48.44831" lon="-2.89747">
        <ele>244</ele>
        <time>2014-02-16T13:40:25.1Z</time>
      </trkpt>
      <trkpt lat="48.4483" lon="-2.89744">
        <ele>244</ele>
        <time>2014-02-16T13:40:27.1Z</time>
      </trkpt>
      <trkpt lat="48.44827" lon="-2.89741">
        <ele>244</ele>
        <time>2014-02-16T13:40:30.1Z</time>
      </trkpt>
      <trkpt lat="48.44825" lon="-2.89736">
        <ele>244</ele>
        <time>2014-02-16T13:40:33.1Z</time>
      </trkpt>
      <trkpt lat="48.44823" lon="-2.89732">
        <ele>244</ele>
        <time>2014-02-16T13:40:36.1Z</time>
      </trkpt>
      <trkpt lat="48.44821" lon="-2.89729">
        <ele>244</ele>
        <time>2014-02-16T13:40:38.1Z</time>
      </trkpt>
      <trkpt lat="48.44819" lon="-2.89725">
        <ele>244</ele>
        <time>2014-02-16T13:40:41.1Z</time>
      </trkpt>
      <trkpt lat="48.44816" lon="-2.89721">
        <ele>244</ele>
        <time>2014-02-16T13:40:44.1Z</time>
      </trkpt>
      <trkpt lat="48.44814" lon="-2.89718">
        <ele>244</ele>
        <time>2014-02-16T13:40:47.1Z</time>
      </trkpt>
      <trkpt lat="48.44812" lon="-2.89714">
        <ele>244</ele>
        <time>2014-02-16T13:40:50.1Z</time>
      </trkpt>
      <trkpt lat="48.4481" lon="-2.89711">
        <ele>244</ele>
        <time>2014-02-16T13:40:52.1Z</time>
      </trkpt>
      <trkpt lat="48.44809" lon="-2.89707">
        <ele>244</ele>
        <time>2014-02-16T13:40:55.1Z</time>
      </trkpt>
      <trkpt lat="48.44806" lon="-2.89704">
        <ele>243</ele>
        <time>2014-02-16T13:40:58.1Z</time>
      </trkpt>
      <trkpt lat="48.44804" lon="-2.897">
        <ele>243</ele>
        <time>2014-02-16T13:41:01.1Z</time>
      </trkpt>
      <trkpt lat="48.44801" lon="-2.89697">
        <ele>243</ele>
        <time>2014-02-16T13:41:04.1Z</time>
      </trkpt>
      <trkpt lat="48.44799" lon="-2.89693">
        <ele>244</ele>
        <time>2014-02-16T13:41:07.1Z</time>
      </trkpt>
      <trkpt lat="48.44798" lon="-2.89691">
        <ele>243</ele>
        <time>2014-02-16T13:41:09.1Z</time>
      </trkpt>
      <trkpt lat="48.44795" lon="-2.89687">
        <ele>243</ele>
        <time>2014-02-16T13:41:12.1Z</time>
      </trkpt>
      <trkpt lat="48.44793" lon="-2.89684">
        <ele>243</ele>
        <time>2014-02-16T13:41:15.1Z</time>
      </trkpt>
      <trkpt lat="48.44791" lon="-2.89681">
        <ele>243</ele>
        <time>2014-02-16T13:41:17.1Z</time>
      </trkpt>
      <trkpt lat="48.44788" lon="-2.89676">
        <ele>243</ele>
        <time>2014-02-16T13:41:19.1Z</time>
      </trkpt>
      <trkpt lat="48.44786" lon="-2.89674">
        <ele>243</ele>
        <time>2014-02-16T13:41:22.1Z</time>
      </trkpt>
      <trkpt lat="48.44784" lon="-2.89672">
        <ele>243</ele>
        <time>2014-02-16T13:41:24.1Z</time>
      </trkpt>
      <trkpt lat="48.44781" lon="-2.89668">
        <ele>243</ele>
        <time>2014-02-16T13:41:27.1Z</time>
      </trkpt>
      <trkpt lat="48.44779" lon="-2.89664">
        <ele>243</ele>
        <time>2014-02-16T13:41:30.1Z</time>
      </trkpt>
      <trkpt lat="48.44776" lon="-2.8966">
        <ele>242</ele>
        <time>2014-02-16T13:41:33.1Z</time>
      </trkpt>
      <trkpt lat="48.44774" lon="-2.89658">
        <ele>242</ele>
        <time>2014-02-16T13:41:35.1Z</time>
      </trkpt>
      <trkpt lat="48.44772" lon="-2.89654">
        <ele>242</ele>
        <time>2014-02-16T13:41:38.1Z</time>
      </trkpt>
      <trkpt lat="48.4477" lon="-2.89652">
        <ele>242</ele>
        <time>2014-02-16T13:41:40.1Z</time>
      </trkpt>
      <trkpt lat="48.44768" lon="-2.8965">
        <ele>242</ele>
        <time>2014-02-16T13:41:42.1Z</time>
      </trkpt>
      <trkpt lat="48.44766" lon="-2.89647">
        <ele>242</ele>
        <time>2014-02-16T13:41:44.1Z</time>
      </trkpt>
      <trkpt lat="48.44764" lon="-2.89645">
        <ele>242</ele>
        <time>2014-02-16T13:41:47.1Z</time>
      </trkpt>
      <trkpt lat="48.44762" lon="-2.89643">
        <ele>242</ele>
        <time>2014-02-16T13:41:49.1Z</time>
      </trkpt>
      <trkpt lat="48.4476" lon="-2.89641">
        <ele>242</ele>
        <time>2014-02-16T13:41:51.1Z</time>
      </trkpt>
      <trkpt lat="48.44757" lon="-2.89637">
        <ele>242</ele>
        <time>2014-02-16T13:41:54.1Z</time>
      </trkpt>
      <trkpt lat="48.44755" lon="-2.89635">
        <ele>241</ele>
        <time>2014-02-16T13:41:56.1Z</time>
      </trkpt>
      <trkpt lat="48.44752" lon="-2.89632">
        <ele>241</ele>
        <time>2014-02-16T13:41:59.1Z</time>
      </trkpt>
      <trkpt lat="48.44751" lon="-2.8963">
        <ele>241</ele>
        <time>2014-02-16T13:42:01.1Z</time>
      </trkpt>
      <trkpt lat="48.44748" lon="-2.89626">
        <ele>242</ele>
        <time>2014-02-16T13:42:04.1Z</time>
      </trkpt>
      <trkpt lat="48.44746" lon="-2.89623">
        <ele>241</ele>
        <time>2014-02-16T13:42:06.1Z</time>
      </trkpt>
      <trkpt lat="48.44744" lon="-2.89621">
        <ele>241</ele>
        <time>2014-02-16T13:42:08.1Z</time>
      </trkpt>
      <trkpt lat="48.44741" lon="-2.89617">
        <ele>241</ele>
        <time>2014-02-16T13:42:11.1Z</time>
      </trkpt>
      <trkpt lat="48.44739" lon="-2.89615">
        <ele>241</ele>
        <time>2014-02-16T13:42:13.1Z</time>
      </trkpt>
      <trkpt lat="48.44736" lon="-2.89611">
        <ele>241</ele>
        <time>2014-02-16T13:42:16.1Z</time>
      </trkpt>
      <trkpt lat="48.44734" lon="-2.89608">
        <ele>241</ele>
        <time>2014-02-16T13:42:18.1Z</time>
      </trkpt>
      <trkpt lat="48.44732" lon="-2.89604">
        <ele>241</ele>
        <time>2014-02-16T13:42:21.1Z</time>
      </trkpt>
      <trkpt lat="48.4473" lon="-2.89602">
        <ele>241</ele>
        <time>2014-02-16T13:42:23.1Z</time>
      </trkpt>
      <trkpt lat="48.44727" lon="-2.89598">
        <ele>241</ele>
        <time>2014-02-16T13:42:26.1Z</time>
      </trkpt>
      <trkpt lat="48.44725" lon="-2.89596">
        <ele>240</ele>
        <time>2014-02-16T13:42:28.1Z</time>
      </trkpt>
      <trkpt lat="48.44723" lon="-2.89592">
        <ele>241</ele>
        <time>2014-02-16T13:42:31.1Z</time>
      </trkpt>
      <trkpt lat="48.44721" lon="-2.89588">
        <ele>241</ele>
        <time>2014-02-16T13:42:33.1Z</time>
      </trkpt>
      <trkpt lat="48.44719" lon="-2.89584">
        <ele>241</ele>
        <time>2014-02-16T13:42:36.1Z</time>
      </trkpt>
      <trkpt lat="48.44717" lon="-2.89582">
        <ele>241</ele>
        <time>2014-02-16T13:42:38.1Z</time>
      </trkpt>
      <trkpt lat="48.44714" lon="-2.89578">
        <ele>241</ele>
        <time>2014-02-16T13:42:41.1Z</time>
      </trkpt>
      <trkpt lat="48.44712" lon="-2.89575">
        <ele>240</ele>
        <time>2014-02-16T13:42:43.1Z</time>
      </trkpt>
      <trkpt lat="48.44709" lon="-2.8957">
        <ele>240</ele>
        <time>2014-02-16T13:42:46.1Z</time>
      </trkpt>
      <trkpt lat="48.44707" lon="-2.89566">
        <ele>241</ele>
        <time>2014-02-16T13:42:49.1Z</time>
      </trkpt>
      <trkpt lat="48.44704" lon="-2.89563">
        <ele>241</ele>
        <time>2014-02-16T13:42:51.1Z</time>
      </trkpt>
      <trkpt lat="48.44703" lon="-2.89561">
        <ele>241</ele>
        <time>2014-02-16T13:42:53.1Z</time>
      </trkpt>
      <trkpt lat="48.447" lon="-2.89557">
        <ele>241</ele>
        <time>2014-02-16T13:42:56.1Z</time>
      </trkpt>
      <trkpt lat="48.44697" lon="-2.89553">
        <ele>241</ele>
        <time>2014-02-16T13:42:59.1Z</time>
      </trkpt>
      <trkpt lat="48.44696" lon="-2.8955">
        <ele>240</ele>
        <time>2014-02-16T13:43:01.1Z</time>
      </trkpt>
      <trkpt lat="48.44693" lon="-2.89546">
        <ele>240</ele>
        <time>2014-02-16T13:43:04.1Z</time>
      </trkpt>
      <trkpt lat="48.44691" lon="-2.89544">
        <ele>240</ele>
        <time>2014-02-16T13:43:06.1Z</time>
      </trkpt>
      <trkpt lat="48.44689" lon="-2.8954">
        <ele>240</ele>
        <time>2014-02-16T13:43:09.1Z</time>
      </trkpt>
      <trkpt lat="48.44687" lon="-2.89536">
        <ele>240</ele>
        <time>2014-02-16T13:43:12.1Z</time>
      </trkpt>
      <trkpt lat="48.44684" lon="-2.89532">
        <ele>240</ele>
        <time>2014-02-16T13:43:15.1Z</time>
      </trkpt>
      <trkpt lat="48.44681" lon="-2.89527">
        <ele>240</ele>
        <time>2014-02-16T13:43:18.1Z</time>
      </trkpt>
      <trkpt lat="48.44678" lon="-2.89523">
        <ele>240</ele>
        <time>2014-02-16T13:43:21.1Z</time>
      </trkpt>
      <trkpt lat="48.44676" lon="-2.89519">
        <ele>240</ele>
        <time>2014-02-16T13:43:24.1Z</time>
      </trkpt>
      <trkpt lat="48.44674" lon="-2.89515">
        <ele>240</ele>
        <time>2014-02-16T13:43:27.1Z</time>
      </trkpt>
      <trkpt lat="48.44672" lon="-2.89512">
        <ele>240</ele>
        <time>2014-02-16T13:43:29.1Z</time>
      </trkpt>
      <trkpt lat="48.44668" lon="-2.89509">
        <ele>240</ele>
        <time>2014-02-16T13:43:31.1Z</time>
      </trkpt>
      <trkpt lat="48.44667" lon="-2.89506">
        <ele>240</ele>
        <time>2014-02-16T13:43:34.1Z</time>
      </trkpt>
      <trkpt lat="48.44666" lon="-2.89503">
        <ele>240</ele>
        <time>2014-02-16T13:43:36.1Z</time>
      </trkpt>
      <trkpt lat="48.44664" lon="-2.895">
        <ele>240</ele>
        <time>2014-02-16T13:43:38.1Z</time>
      </trkpt>
      <trkpt lat="48.44662" lon="-2.89497">
        <ele>240</ele>
        <time>2014-02-16T13:43:41.1Z</time>
      </trkpt>
      <trkpt lat="48.4466" lon="-2.89494">
        <ele>239</ele>
        <time>2014-02-16T13:43:44.1Z</time>
      </trkpt>
      <trkpt lat="48.44658" lon="-2.8949">
        <ele>239</ele>
        <time>2014-02-16T13:43:47.1Z</time>
      </trkpt>
      <trkpt lat="48.44657" lon="-2.89488">
        <ele>239</ele>
        <time>2014-02-16T13:43:49.1Z</time>
      </trkpt>
      <trkpt lat="48.44655" lon="-2.89486">
        <ele>239</ele>
        <time>2014-02-16T13:43:51.1Z</time>
      </trkpt>
      <trkpt lat="48.44653" lon="-2.89484">
        <ele>239</ele>
        <time>2014-02-16T13:43:53.1Z</time>
      </trkpt>
      <trkpt lat="48.44651" lon="-2.89479">
        <ele>239</ele>
        <time>2014-02-16T13:43:56.1Z</time>
      </trkpt>
      <trkpt lat="48.44649" lon="-2.89476">
        <ele>239</ele>
        <time>2014-02-16T13:43:58.1Z</time>
      </trkpt>
      <trkpt lat="48.44647" lon="-2.89474">
        <ele>239</ele>
        <time>2014-02-16T13:44:00.1Z</time>
      </trkpt>
      <trkpt lat="48.44644" lon="-2.8947">
        <ele>239</ele>
        <time>2014-02-16T13:44:03.1Z</time>
      </trkpt>
      <trkpt lat="48.44642" lon="-2.89466">
        <ele>239</ele>
        <time>2014-02-16T13:44:06.1Z</time>
      </trkpt>
      <trkpt lat="48.4464" lon="-2.89464">
        <ele>239</ele>
        <time>2014-02-16T13:44:08.1Z</time>
      </trkpt>
      <trkpt lat="48.44638" lon="-2.89461">
        <ele>239</ele>
        <time>2014-02-16T13:44:11.1Z</time>
      </trkpt>
      <trkpt lat="48.44635" lon="-2.89458">
        <ele>238</ele>
        <time>2014-02-16T13:44:14.1Z</time>
      </trkpt>
      <trkpt lat="48.44633" lon="-2.89456">
        <ele>238</ele>
        <time>2014-02-16T13:44:16.1Z</time>
      </trkpt>
      <trkpt lat="48.44631" lon="-2.89453">
        <ele>238</ele>
        <time>2014-02-16T13:44:18.1Z</time>
      </trkpt>
      <trkpt lat="48.4463" lon="-2.89451">
        <ele>238</ele>
        <time>2014-02-16T13:44:21.1Z</time>
      </trkpt>
      <trkpt lat="48.44627" lon="-2.89448">
        <ele>238</ele>
        <time>2014-02-16T13:44:24.1Z</time>
      </trkpt>
      <trkpt lat="48.44625" lon="-2.89445">
        <ele>239</ele>
        <time>2014-02-16T13:44:26.1Z</time>
      </trkpt>
      <trkpt lat="48.44623" lon="-2.89442">
        <ele>238</ele>
        <time>2014-02-16T13:44:28.1Z</time>
      </trkpt>
      <trkpt lat="48.44621" lon="-2.8944">
        <ele>238</ele>
        <time>2014-02-16T13:44:31.1Z</time>
      </trkpt>
      <trkpt lat="48.4462" lon="-2.89437">
        <ele>238</ele>
        <time>2014-02-16T13:44:33.1Z</time>
      </trkpt>
      <trkpt lat="48.44617" lon="-2.89434">
        <ele>238</ele>
        <time>2014-02-16T13:44:35.1Z</time>
      </trkpt>
      <trkpt lat="48.44615" lon="-2.89432">
        <ele>238</ele>
        <time>2014-02-16T13:44:37.1Z</time>
      </trkpt>
      <trkpt lat="48.44614" lon="-2.89429">
        <ele>238</ele>
        <time>2014-02-16T13:44:40.1Z</time>
      </trkpt>
      <trkpt lat="48.44611" lon="-2.89425">
        <ele>238</ele>
        <time>2014-02-16T13:44:43.1Z</time>
      </trkpt>
      <trkpt lat="48.44608" lon="-2.89422">
        <ele>238</ele>
        <time>2014-02-16T13:44:46.1Z</time>
      </trkpt>
      <trkpt lat="48.44605" lon="-2.89419">
        <ele>238</ele>
        <time>2014-02-16T13:44:49.1Z</time>
      </trkpt>
      <trkpt lat="48.44603" lon="-2.89416">
        <ele>238</ele>
        <time>2014-02-16T13:44:51.1Z</time>
      </trkpt>
      <trkpt lat="48.44601" lon="-2.89413">
        <ele>238</ele>
        <time>2014-02-16T13:44:53.1Z</time>
      </trkpt>
      <trkpt lat="48.44599" lon="-2.89411">
        <ele>237</ele>
        <time>2014-02-16T13:44:56.1Z</time>
      </trkpt>
      <trkpt lat="48.44596" lon="-2.89409">
        <ele>237</ele>
        <time>2014-02-16T13:44:59.1Z</time>
      </trkpt>
      <trkpt lat="48.44594" lon="-2.89407">
        <ele>237</ele>
        <time>2014-02-16T13:45:02.1Z</time>
      </trkpt>
      <trkpt lat="48.44592" lon="-2.89405">
        <ele>238</ele>
        <time>2014-02-16T13:45:04.1Z</time>
      </trkpt>
      <trkpt lat="48.4459" lon="-2.89403">
        <ele>238</ele>
        <time>2014-02-16T13:45:06.1Z</time>
      </trkpt>
      <trkpt lat="48.44589" lon="-2.89401">
        <ele>238</ele>
        <time>2014-02-16T13:45:09.1Z</time>
      </trkpt>
      <trkpt lat="48.44587" lon="-2.89398">
        <ele>238</ele>
        <time>2014-02-16T13:45:11.1Z</time>
      </trkpt>
      <trkpt lat="48.44586" lon="-2.89397">
        <ele>238</ele>
        <time>2014-02-16T13:45:13.1Z</time>
      </trkpt>
      <trkpt lat="48.44585" lon="-2.89397">
        <ele>238</ele>
        <time>2014-02-16T13:45:15.1Z</time>
      </trkpt>
      <trkpt lat="48.44585" lon="-2.89395">
        <ele>238</ele>
        <time>2014-02-16T13:45:18.1Z</time>
      </trkpt>
      <trkpt lat="48.44583" lon="-2.89394">
        <ele>238</ele>
        <time>2014-02-16T13:45:21.1Z</time>
      </trkpt>
      <trkpt lat="48.44582" lon="-2.89392">
        <ele>238</ele>
        <time>2014-02-16T13:45:23.1Z</time>
      </trkpt>
      <trkpt lat="48.4458" lon="-2.89391">
        <ele>238</ele>
        <time>2014-02-16T13:45:26.1Z</time>
      </trkpt>
      <trkpt lat="48.44578" lon="-2.89388">
        <ele>238</ele>
        <time>2014-02-16T13:45:29.1Z</time>
      </trkpt>
      <trkpt lat="48.44576" lon="-2.89386">
        <ele>237</ele>
        <time>2014-02-16T13:45:32.1Z</time>
      </trkpt>
      <trkpt lat="48.44574" lon="-2.89383">
        <ele>237</ele>
        <time>2014-02-16T13:45:34.1Z</time>
      </trkpt>
      <trkpt lat="48.44572" lon="-2.8938">
        <ele>238</ele>
        <time>2014-02-16T13:45:36.1Z</time>
      </trkpt>
      <trkpt lat="48.4457" lon="-2.89377">
        <ele>238</ele>
        <time>2014-02-16T13:45:40.1Z</time>
      </trkpt>
      <trkpt lat="48.44569" lon="-2.89374">
        <ele>238</ele>
        <time>2014-02-16T13:45:43.1Z</time>
      </trkpt>
      <trkpt lat="48.44567" lon="-2.89371">
        <ele>238</ele>
        <time>2014-02-16T13:45:45.1Z</time>
      </trkpt>
      <trkpt lat="48.44566" lon="-2.89368">
        <ele>238</ele>
        <time>2014-02-16T13:45:47.1Z</time>
      </trkpt>
      <trkpt lat="48.44565" lon="-2.89366">
        <ele>238</ele>
        <time>2014-02-16T13:45:50.1Z</time>
      </trkpt>
      <trkpt lat="48.44565" lon="-2.89364">
        <ele>237</ele>
        <time>2014-02-16T13:45:52.1Z</time>
      </trkpt>
      <trkpt lat="48.44564" lon="-2.89361">
        <ele>237</ele>
        <time>2014-02-16T13:45:54.1Z</time>
      </trkpt>
      <trkpt lat="48.44562" lon="-2.8936">
        <ele>238</ele>
        <time>2014-02-16T13:45:56.1Z</time>
      </trkpt>
      <trkpt lat="48.44561" lon="-2.89359">
        <ele>237</ele>
        <time>2014-02-16T13:45:58.1Z</time>
      </trkpt>
      <trkpt lat="48.44561" lon="-2.89358">
        <ele>237</ele>
        <time>2014-02-16T13:46:01.1Z</time>
      </trkpt>
      <trkpt lat="48.44561" lon="-2.89357">
        <ele>237</ele>
        <time>2014-02-16T13:46:03.1Z</time>
      </trkpt>
      <trkpt lat="48.44561" lon="-2.89355">
        <ele>237</ele>
        <time>2014-02-16T13:46:06.1Z</time>
      </trkpt>
      <trkpt lat="48.4456" lon="-2.89352">
        <ele>237</ele>
        <time>2014-02-16T13:46:08.1Z</time>
      </trkpt>
      <trkpt lat="48.4456" lon="-2.89351">
        <ele>237</ele>
        <time>2014-02-16T13:46:11.1Z</time>
      </trkpt>
      <trkpt lat="48.4456" lon="-2.89352">
        <ele>237</ele>
        <time>2014-02-16T13:46:13.1Z</time>
      </trkpt>
      <trkpt lat="48.4456" lon="-2.89351">
        <ele>238</ele>
        <time>2014-02-16T13:46:16.1Z</time>
      </trkpt>
      <trkpt lat="48.4456" lon="-2.8935">
        <ele>238</ele>
        <time>2014-02-16T13:46:19.1Z</time>
      </trkpt>
      <trkpt lat="48.4456" lon="-2.8935">
        <ele>238</ele>
        <time>2014-02-16T13:46:21.1Z</time>
      </trkpt>
      <trkpt lat="48.4456" lon="-2.8935">
        <ele>238</ele>
        <time>2014-02-16T13:46:24.1Z</time>
      </trkpt>
      <trkpt lat="48.4456" lon="-2.8935">
        <ele>238</ele>
        <time>2014-02-16T13:46:27.1Z</time>
      </trkpt>
      <trkpt lat="48.4456" lon="-2.8935">
        <ele>238</ele>
        <time>2014-02-16T13:46:29.1Z</time>
      </trkpt>
      <trkpt lat="48.44561" lon="-2.8935">
        <ele>237</ele>
        <time>2014-02-16T13:46:31.1Z</time>
      </trkpt>
      <trkpt lat="48.44561" lon="-2.89349">
        <ele>237</ele>
        <time>2014-02-16T13:46:34.1Z</time>
      </trkpt>
      <trkpt lat="48.44559" lon="-2.89346">
        <ele>238</ele>
        <time>2014-02-16T13:46:37.1Z</time>
      </trkpt>
      <trkpt lat="48.44557" lon="-2.89342">
        <ele>238</ele>
        <time>2014-02-16T13:46:39.1Z</time>
      </trkpt>
      <trkpt lat="48.44556" lon="-2.89341">
        <ele>238</ele>
        <time>2014-02-16T13:46:42.1Z</time>
      </trkpt>
      <trkpt lat="48.44554" lon="-2.89338">
        <ele>237</ele>
        <time>2014-02-16T13:46:44.1Z</time>
      </trkpt>
      <trkpt lat="48.44553" lon="-2.89336">
        <ele>238</ele>
        <time>2014-02-16T13:46:47.1Z</time>
      </trkpt>
      <trkpt lat="48.44551" lon="-2.89333">
        <ele>238</ele>
        <time>2014-02-16T13:46:50.1Z</time>
      </trkpt>
      <trkpt lat="48.4455" lon="-2.89329">
        <ele>238</ele>
        <time>2014-02-16T13:46:53.1Z</time>
      </trkpt>
      <trkpt lat="48.44547" lon="-2.89325">
        <ele>238</ele>
        <time>2014-02-16T13:46:55.1Z</time>
      </trkpt>
      <trkpt lat="48.44546" lon="-2.89323">
        <ele>237</ele>
        <time>2014-02-16T13:46:58.1Z</time>
      </trkpt>
      <trkpt lat="48.44543" lon="-2.8932">
        <ele>238</ele>
        <time>2014-02-16T13:47:01.1Z</time>
      </trkpt>
      <trkpt lat="48.44542" lon="-2.89317">
        <ele>238</ele>
        <time>2014-02-16T13:47:03.1Z</time>
      </trkpt>
      <trkpt lat="48.4454" lon="-2.89314">
        <ele>238</ele>
        <time>2014-02-16T13:47:05.1Z</time>
      </trkpt>
      <trkpt lat="48.44537" lon="-2.89312">
        <ele>238</ele>
        <time>2014-02-16T13:47:08.1Z</time>
      </trkpt>
      <trkpt lat="48.44535" lon="-2.89309">
        <ele>238</ele>
        <time>2014-02-16T13:47:11.1Z</time>
      </trkpt>
      <trkpt lat="48.44534" lon="-2.89307">
        <ele>238</ele>
        <time>2014-02-16T13:47:13.1Z</time>
      </trkpt>
      <trkpt lat="48.44532" lon="-2.89304">
        <ele>238</ele>
        <time>2014-02-16T13:47:15.1Z</time>
      </trkpt>
      <trkpt lat="48.4453" lon="-2.89301">
        <ele>238</ele>
        <time>2014-02-16T13:47:18.1Z</time>
      </trkpt>
      <trkpt lat="48.44529" lon="-2.89298">
        <ele>238</ele>
        <time>2014-02-16T13:47:20.1Z</time>
      </trkpt>
      <trkpt lat="48.44527" lon="-2.89296">
        <ele>238</ele>
        <time>2014-02-16T13:47:23.1Z</time>
      </trkpt>
      <trkpt lat="48.44524" lon="-2.89293">
        <ele>238</ele>
        <time>2014-02-16T13:47:26.1Z</time>
      </trkpt>
      <trkpt lat="48.44522" lon="-2.8929">
        <ele>238</ele>
        <time>2014-02-16T13:47:29.1Z</time>
      </trkpt>
      <trkpt lat="48.4452" lon="-2.89286">
        <ele>238</ele>
        <time>2014-02-16T13:47:31.1Z</time>
      </trkpt>
      <trkpt lat="48.44519" lon="-2.89284">
        <ele>238</ele>
        <time>2014-02-16T13:47:33.1Z</time>
      </trkpt>
      <trkpt lat="48.44518" lon="-2.89283">
        <ele>238</ele>
        <time>2014-02-16T13:47:35.1Z</time>
      </trkpt>
      <trkpt lat="48.44516" lon="-2.89281">
        <ele>238</ele>
        <time>2014-02-16T13:47:38.1Z</time>
      </trkpt>
      <trkpt lat="48.44514" lon="-2.89279">
        <ele>238</ele>
        <time>2014-02-16T13:47:40.1Z</time>
      </trkpt>
      <trkpt lat="48.44512" lon="-2.89277">
        <ele>239</ele>
        <time>2014-02-16T13:47:43.1Z</time>
      </trkpt>
      <trkpt lat="48.44512" lon="-2.89277">
        <ele>239</ele>
        <time>2014-02-16T13:47:46.1Z</time>
      </trkpt>
      <trkpt lat="48.44512" lon="-2.89277">
        <ele>238</ele>
        <time>2014-02-16T13:47:49.1Z</time>
      </trkpt>
      <trkpt lat="48.44511" lon="-2.89276">
        <ele>238</ele>
        <time>2014-02-16T13:47:51.1Z</time>
      </trkpt>
      <trkpt lat="48.44511" lon="-2.89277">
        <ele>239</ele>
        <time>2014-02-16T13:47:54.1Z</time>
      </trkpt>
      <trkpt lat="48.44512" lon="-2.89276">
        <ele>239</ele>
        <time>2014-02-16T13:47:56.1Z</time>
      </trkpt>
      <trkpt lat="48.44511" lon="-2.89275">
        <ele>238</ele>
        <time>2014-02-16T13:48:00.1Z</time>
      </trkpt>
      <trkpt lat="48.44511" lon="-2.89275">
        <ele>238</ele>
        <time>2014-02-16T13:48:03.1Z</time>
      </trkpt>
      <trkpt lat="48.4451" lon="-2.89275">
        <ele>238</ele>
        <time>2014-02-16T13:48:06.1Z</time>
      </trkpt>
      <trkpt lat="48.44509" lon="-2.89276">
        <ele>238</ele>
        <time>2014-02-16T13:48:08.1Z</time>
      </trkpt>
      <trkpt lat="48.44508" lon="-2.89276">
        <ele>238</ele>
        <time>2014-02-16T13:48:11.1Z</time>
      </trkpt>
      <trkpt lat="48.44508" lon="-2.89275">
        <ele>238</ele>
        <time>2014-02-16T13:48:14.1Z</time>
      </trkpt>
      <trkpt lat="48.44508" lon="-2.89275">
        <ele>238</ele>
        <time>2014-02-16T13:48:17.1Z</time>
      </trkpt>
      <trkpt lat="48.44508" lon="-2.89275">
        <ele>238</ele>
        <time>2014-02-16T13:48:19.1Z</time>
      </trkpt>
      <trkpt lat="48.44508" lon="-2.89275">
        <ele>239</ele>
        <time>2014-02-16T13:48:22.1Z</time>
      </trkpt>
      <trkpt lat="48.44508" lon="-2.89275">
        <ele>238</ele>
        <time>2014-02-16T13:48:25.1Z</time>
      </trkpt>
      <trkpt lat="48.44508" lon="-2.89274">
        <ele>238</ele>
        <time>2014-02-16T13:48:28.1Z</time>
      </trkpt>
      <trkpt lat="48.44508" lon="-2.89274">
        <ele>238</ele>
        <time>2014-02-16T13:48:30.1Z</time>
      </trkpt>
      <trkpt lat="48.44507" lon="-2.89274">
        <ele>238</ele>
        <time>2014-02-16T13:48:33.1Z</time>
      </trkpt>
      <trkpt lat="48.44506" lon="-2.89274">
        <ele>238</ele>
        <time>2014-02-16T13:48:35.1Z</time>
      </trkpt>
      <trkpt lat="48.44505" lon="-2.89275">
        <ele>238</ele>
        <time>2014-02-16T13:48:38.1Z</time>
      </trkpt>
      <trkpt lat="48.44505" lon="-2.89275">
        <ele>238</ele>
        <time>2014-02-16T13:48:41.1Z</time>
      </trkpt>
      <trkpt lat="48.44504" lon="-2.89275">
        <ele>239</ele>
        <time>2014-02-16T13:48:44.1Z</time>
      </trkpt>
      <trkpt lat="48.44503" lon="-2.89274">
        <ele>239</ele>
        <time>2014-02-16T13:48:46.1Z</time>
      </trkpt>
      <trkpt lat="48.44503" lon="-2.89273">
        <ele>239</ele>
        <time>2014-02-16T13:48:48.1Z</time>
      </trkpt>
      <trkpt lat="48.44502" lon="-2.89271">
        <ele>239</ele>
        <time>2014-02-16T13:48:51.1Z</time>
      </trkpt>
      <trkpt lat="48.44502" lon="-2.89271">
        <ele>239</ele>
        <time>2014-02-16T13:48:53.1Z</time>
      </trkpt>
      <trkpt lat="48.44503" lon="-2.89271">
        <ele>239</ele>
        <time>2014-02-16T13:48:55.1Z</time>
      </trkpt>
      <trkpt lat="48.44502" lon="-2.89269">
        <ele>239</ele>
        <time>2014-02-16T13:48:58.1Z</time>
      </trkpt>
      <trkpt lat="48.44502" lon="-2.89269">
        <ele>239</ele>
        <time>2014-02-16T13:49:02.1Z</time>
      </trkpt>
      <trkpt lat="48.44501" lon="-2.89268">
        <ele>239</ele>
        <time>2014-02-16T13:49:05.1Z</time>
      </trkpt>
      <trkpt lat="48.44501" lon="-2.89268">
        <ele>239</ele>
        <time>2014-02-16T13:49:08.1Z</time>
      </trkpt>
      <trkpt lat="48.445" lon="-2.89268">
        <ele>239</ele>
        <time>2014-02-16T13:49:10.1Z</time>
      </trkpt>
      <trkpt lat="48.445" lon="-2.89268">
        <ele>239</ele>
        <time>2014-02-16T13:49:13.1Z</time>
      </trkpt>
      <trkpt lat="48.44499" lon="-2.89268">
        <ele>239</ele>
        <time>2014-02-16T13:49:15.1Z</time>
      </trkpt>
      <trkpt lat="48.44499" lon="-2.89269">
        <ele>240</ele>
        <time>2014-02-16T13:49:17.1Z</time>
      </trkpt>
      <trkpt lat="48.44498" lon="-2.8927">
        <ele>240</ele>
        <time>2014-02-16T13:49:20.1Z</time>
      </trkpt>
      <trkpt lat="48.44498" lon="-2.89271">
        <ele>240</ele>
        <time>2014-02-16T13:49:23.1Z</time>
      </trkpt>
      <trkpt lat="48.44497" lon="-2.89272">
        <ele>240</ele>
        <time>2014-02-16T13:49:26.1Z</time>
      </trkpt>
      <trkpt lat="48.44497" lon="-2.89275">
        <ele>239</ele>
        <time>2014-02-16T13:49:28.1Z</time>
      </trkpt>
      <trkpt lat="48.44497" lon="-2.89277">
        <ele>239</ele>
        <time>2014-02-16T13:49:30.1Z</time>
      </trkpt>
      <trkpt lat="48.44497" lon="-2.89278">
        <ele>238</ele>
        <time>2014-02-16T13:49:32.1Z</time>
      </trkpt>
      <trkpt lat="48.44496" lon="-2.89279">
        <ele>238</ele>
        <time>2014-02-16T13:49:34.1Z</time>
      </trkpt>
      <trkpt lat="48.44496" lon="-2.89279">
        <ele>238</ele>
        <time>2014-02-16T13:49:38.1Z</time>
      </trkpt>
      <trkpt lat="48.44496" lon="-2.89279">
        <ele>239</ele>
        <time>2014-02-16T13:49:42.1Z</time>
      </trkpt>
      <trkpt lat="48.44496" lon="-2.89279">
        <ele>239</ele>
        <time>2014-02-16T13:49:44.1Z</time>
      </trkpt>
      <trkpt lat="48.44495" lon="-2.8928">
        <ele>238</ele>
        <time>2014-02-16T13:49:46.1Z</time>
      </trkpt>
      <trkpt lat="48.44495" lon="-2.8928">
        <ele>239</ele>
        <time>2014-02-16T13:49:49.1Z</time>
      </trkpt>
      <trkpt lat="48.44495" lon="-2.8928">
        <ele>239</ele>
        <time>2014-02-16T13:49:51.1Z</time>
      </trkpt>
      <trkpt lat="48.44495" lon="-2.8928">
        <ele>239</ele>
        <time>2014-02-16T13:49:53.1Z</time>
      </trkpt>
      <trkpt lat="48.44495" lon="-2.8928">
        <ele>239</ele>
        <time>2014-02-16T13:49:56.1Z</time>
      </trkpt>
      <trkpt lat="48.44496" lon="-2.8928">
        <ele>239</ele>
        <time>2014-02-16T13:49:59.1Z</time>
      </trkpt>
      <trkpt lat="48.44496" lon="-2.8928">
        <ele>238</ele>
        <time>2014-02-16T13:50:01.1Z</time>
      </trkpt>
      <trkpt lat="48.44496" lon="-2.8928">
        <ele>238</ele>
        <time>2014-02-16T13:50:04.1Z</time>
      </trkpt>
      <trkpt lat="48.44496" lon="-2.8928">
        <ele>238</ele>
        <time>2014-02-16T13:50:06.1Z</time>
      </trkpt>
      <trkpt lat="48.44496" lon="-2.8928">
        <ele>238</ele>
        <time>2014-02-16T13:50:09.1Z</time>
      </trkpt>
      <trkpt lat="48.44495" lon="-2.8928">
        <ele>238</ele>
        <time>2014-02-16T13:50:11.1Z</time>
      </trkpt>
      <trkpt lat="48.44495" lon="-2.8928">
        <ele>238</ele>
        <time>2014-02-16T13:50:16.1Z</time>
      </trkpt>
      <trkpt lat="48.44495" lon="-2.8928">
        <ele>239</ele>
        <time>2014-02-16T13:50:19.1Z</time>
      </trkpt>
      <trkpt lat="48.44495" lon="-2.8928">
        <ele>239</ele>
        <time>2014-02-16T13:50:22.1Z</time>
      </trkpt>
      <trkpt lat="48.44495" lon="-2.8928">
        <ele>239</ele>
        <time>2014-02-16T13:50:25.1Z</time>
      </trkpt>
      <trkpt lat="48.44495" lon="-2.8928">
        <ele>239</ele>
        <time>2014-02-16T13:50:28.1Z</time>
      </trkpt>
      <trkpt lat="48.44495" lon="-2.8928">
        <ele>239</ele>
        <time>2014-02-16T13:50:31.1Z</time>
      </trkpt>
      <trkpt lat="48.44495" lon="-2.89279">
        <ele>239</ele>
        <time>2014-02-16T13:50:34.1Z</time>
      </trkpt>
      <trkpt lat="48.44494" lon="-2.8928">
        <ele>239</ele>
        <time>2014-02-16T13:50:36.1Z</time>
      </trkpt>
      <trkpt lat="48.44494" lon="-2.8928">
        <ele>239</ele>
        <time>2014-02-16T13:50:38.1Z</time>
      </trkpt>
      <trkpt lat="48.44493" lon="-2.8928">
        <ele>239</ele>
        <time>2014-02-16T13:50:41.1Z</time>
      </trkpt>
      <trkpt lat="48.44493" lon="-2.8928">
        <ele>239</ele>
        <time>2014-02-16T13:50:44.1Z</time>
      </trkpt>
      <trkpt lat="48.44492" lon="-2.8928">
        <ele>239</ele>
        <time>2014-02-16T13:50:46.1Z</time>
      </trkpt>
      <trkpt lat="48.44492" lon="-2.8928">
        <ele>239</ele>
        <time>2014-02-16T13:50:53.1Z</time>
      </trkpt>
      <trkpt lat="48.44492" lon="-2.89281">
        <ele>239</ele>
        <time>2014-02-16T13:50:55.1Z</time>
      </trkpt>
      <trkpt lat="48.44491" lon="-2.89282">
        <ele>238</ele>
        <time>2014-02-16T13:50:57.1Z</time>
      </trkpt>
      <trkpt lat="48.4449" lon="-2.89283">
        <ele>238</ele>
        <time>2014-02-16T13:51:01.1Z</time>
      </trkpt>
      <trkpt lat="48.4449" lon="-2.89284">
        <ele>238</ele>
        <time>2014-02-16T13:51:04.1Z</time>
      </trkpt>
      <trkpt lat="48.4449" lon="-2.89284">
        <ele>238</ele>
        <time>2014-02-16T13:51:06.1Z</time>
      </trkpt>
      <trkpt lat="48.4449" lon="-2.89284">
        <ele>238</ele>
        <time>2014-02-16T13:51:09.1Z</time>
      </trkpt>
      <trkpt lat="48.4449" lon="-2.89284">
        <ele>238</ele>
        <time>2014-02-16T13:51:11.1Z</time>
      </trkpt>
      <trkpt lat="48.44488" lon="-2.89286">
        <ele>238</ele>
        <time>2014-02-16T13:51:14.1Z</time>
      </trkpt>
      <trkpt lat="48.44487" lon="-2.89288">
        <ele>238</ele>
        <time>2014-02-16T13:51:17.1Z</time>
      </trkpt>
      <trkpt lat="48.44484" lon="-2.8929">
        <ele>238</ele>
        <time>2014-02-16T13:51:19.1Z</time>
      </trkpt>
      <trkpt lat="48.44482" lon="-2.89292">
        <ele>238</ele>
        <time>2014-02-16T13:51:21.1Z</time>
      </trkpt>
      <trkpt lat="48.4448" lon="-2.89295">
        <ele>237</ele>
        <time>2014-02-16T13:51:24.1Z</time>
      </trkpt>
      <trkpt lat="48.44478" lon="-2.89296">
        <ele>238</ele>
        <time>2014-02-16T13:51:26.1Z</time>
      </trkpt>
      <trkpt lat="48.44476" lon="-2.89299">
        <ele>237</ele>
        <time>2014-02-16T13:51:29.1Z</time>
      </trkpt>
      <trkpt lat="48.44474" lon="-2.89302">
        <ele>238</ele>
        <time>2014-02-16T13:51:32.1Z</time>
      </trkpt>
      <trkpt lat="48.44471" lon="-2.89305">
        <ele>237</ele>
        <time>2014-02-16T13:51:35.1Z</time>
      </trkpt>
      <trkpt lat="48.44468" lon="-2.89307">
        <ele>237</ele>
        <time>2014-02-16T13:51:38.1Z</time>
      </trkpt>
      <trkpt lat="48.44466" lon="-2.89309">
        <ele>237</ele>
        <time>2014-02-16T13:51:40.1Z</time>
      </trkpt>
      <trkpt lat="48.44465" lon="-2.89311">
        <ele>237</ele>
        <time>2014-02-16T13:51:42.1Z</time>
      </trkpt>
      <trkpt lat="48.44463" lon="-2.89314">
        <ele>237</ele>
        <time>2014-02-16T13:51:45.1Z</time>
      </trkpt>
      <trkpt lat="48.44462" lon="-2.89317">
        <ele>236</ele>
        <time>2014-02-16T13:51:47.1Z</time>
      </trkpt>
      <trkpt lat="48.4446" lon="-2.89321">
        <ele>237</ele>
        <time>2014-02-16T13:51:50.1Z</time>
      </trkpt>
      <trkpt lat="48.44459" lon="-2.89326">
        <ele>237</ele>
        <time>2014-02-16T13:51:53.1Z</time>
      </trkpt>
      <trkpt lat="48.44458" lon="-2.89328">
        <ele>237</ele>
        <time>2014-02-16T13:51:55.1Z</time>
      </trkpt>
      <trkpt lat="48.44458" lon="-2.89332">
        <ele>237</ele>
        <time>2014-02-16T13:51:58.1Z</time>
      </trkpt>
      <trkpt lat="48.44458" lon="-2.89336">
        <ele>237</ele>
        <time>2014-02-16T13:52:00.1Z</time>
      </trkpt>
      <trkpt lat="48.44458" lon="-2.89339">
        <ele>237</ele>
        <time>2014-02-16T13:52:02.1Z</time>
      </trkpt>
      <trkpt lat="48.44457" lon="-2.89344">
        <ele>237</ele>
        <time>2014-02-16T13:52:05.1Z</time>
      </trkpt>
      <trkpt lat="48.44458" lon="-2.89347">
        <ele>238</ele>
        <time>2014-02-16T13:52:07.1Z</time>
      </trkpt>
      <trkpt lat="48.44458" lon="-2.89349">
        <ele>237</ele>
        <time>2014-02-16T13:52:09.1Z</time>
      </trkpt>
      <trkpt lat="48.44458" lon="-2.89352">
        <ele>237</ele>
        <time>2014-02-16T13:52:11.1Z</time>
      </trkpt>
      <trkpt lat="48.44458" lon="-2.89356">
        <ele>237</ele>
        <time>2014-02-16T13:52:14.1Z</time>
      </trkpt>
      <trkpt lat="48.44458" lon="-2.89362">
        <ele>237</ele>
        <time>2014-02-16T13:52:17.1Z</time>
      </trkpt>
      <trkpt lat="48.44459" lon="-2.89366">
        <ele>236</ele>
        <time>2014-02-16T13:52:19.1Z</time>
      </trkpt>
      <trkpt lat="48.4446" lon="-2.89371">
        <ele>237</ele>
        <time>2014-02-16T13:52:22.1Z</time>
      </trkpt>
      <trkpt lat="48.44461" lon="-2.89375">
        <ele>237</ele>
        <time>2014-02-16T13:52:25.1Z</time>
      </trkpt>
      <trkpt lat="48.44462" lon="-2.89379">
        <ele>237</ele>
        <time>2014-02-16T13:52:27.1Z</time>
      </trkpt>
      <trkpt lat="48.44463" lon="-2.89384">
        <ele>237</ele>
        <time>2014-02-16T13:52:30.1Z</time>
      </trkpt>
      <trkpt lat="48.44465" lon="-2.89388">
        <ele>237</ele>
        <time>2014-02-16T13:52:33.1Z</time>
      </trkpt>
      <trkpt lat="48.44467" lon="-2.89393">
        <ele>238</ele>
        <time>2014-02-16T13:52:36.1Z</time>
      </trkpt>
      <trkpt lat="48.44467" lon="-2.89396">
        <ele>238</ele>
        <time>2014-02-16T13:52:38.1Z</time>
      </trkpt>
      <trkpt lat="48.44467" lon="-2.89401">
        <ele>238</ele>
        <time>2014-02-16T13:52:41.1Z</time>
      </trkpt>
      <trkpt lat="48.44466" lon="-2.89404">
        <ele>238</ele>
        <time>2014-02-16T13:52:43.1Z</time>
      </trkpt>
      <trkpt lat="48.44466" lon="-2.89408">
        <ele>237</ele>
        <time>2014-02-16T13:52:46.1Z</time>
      </trkpt>
      <trkpt lat="48.44465" lon="-2.89412">
        <ele>237</ele>
        <time>2014-02-16T13:52:48.1Z</time>
      </trkpt>
      <trkpt lat="48.44465" lon="-2.89416">
        <ele>237</ele>
        <time>2014-02-16T13:52:51.1Z</time>
      </trkpt>
      <trkpt lat="48.44464" lon="-2.89421">
        <ele>237</ele>
        <time>2014-02-16T13:52:54.1Z</time>
      </trkpt>
      <trkpt lat="48.44464" lon="-2.89424">
        <ele>237</ele>
        <time>2014-02-16T13:52:56.1Z</time>
      </trkpt>
      <trkpt lat="48.44464" lon="-2.89427">
        <ele>236</ele>
        <time>2014-02-16T13:52:59.1Z</time>
      </trkpt>
      <trkpt lat="48.44464" lon="-2.89433">
        <ele>237</ele>
        <time>2014-02-16T13:53:01.1Z</time>
      </trkpt>
      <trkpt lat="48.44464" lon="-2.89436">
        <ele>236</ele>
        <time>2014-02-16T13:53:03.1Z</time>
      </trkpt>
      <trkpt lat="48.44464" lon="-2.8944">
        <ele>236</ele>
        <time>2014-02-16T13:53:06.1Z</time>
      </trkpt>
      <trkpt lat="48.44464" lon="-2.89444">
        <ele>236</ele>
        <time>2014-02-16T13:53:08.1Z</time>
      </trkpt>
      <trkpt lat="48.44465" lon="-2.89449">
        <ele>236</ele>
        <time>2014-02-16T13:53:12.1Z</time>
      </trkpt>
      <trkpt lat="48.44466" lon="-2.89454">
        <ele>237</ele>
        <time>2014-02-16T13:53:14.1Z</time>
      </trkpt>
      <trkpt lat="48.44467" lon="-2.89459">
        <ele>237</ele>
        <time>2014-02-16T13:53:17.1Z</time>
      </trkpt>
      <trkpt lat="48.44468" lon="-2.89462">
        <ele>237</ele>
        <time>2014-02-16T13:53:19.1Z</time>
      </trkpt>
      <trkpt lat="48.44468" lon="-2.89465">
        <ele>237</ele>
        <time>2014-02-16T13:53:21.1Z</time>
      </trkpt>
      <trkpt lat="48.44469" lon="-2.89469">
        <ele>237</ele>
        <time>2014-02-16T13:53:24.1Z</time>
      </trkpt>
      <trkpt lat="48.44469" lon="-2.89475">
        <ele>236</ele>
        <time>2014-02-16T13:53:27.1Z</time>
      </trkpt>
      <trkpt lat="48.4447" lon="-2.89478">
        <ele>236</ele>
        <time>2014-02-16T13:53:29.1Z</time>
      </trkpt>
      <trkpt lat="48.44471" lon="-2.89483">
        <ele>236</ele>
        <time>2014-02-16T13:53:32.1Z</time>
      </trkpt>
      <trkpt lat="48.44472" lon="-2.89488">
        <ele>237</ele>
        <time>2014-02-16T13:53:35.1Z</time>
      </trkpt>
      <trkpt lat="48.44472" lon="-2.89491">
        <ele>237</ele>
        <time>2014-02-16T13:53:37.1Z</time>
      </trkpt>
      <trkpt lat="48.44473" lon="-2.89496">
        <ele>237</ele>
        <time>2014-02-16T13:53:40.1Z</time>
      </trkpt>
      <trkpt lat="48.44474" lon="-2.89502">
        <ele>237</ele>
        <time>2014-02-16T13:53:43.1Z</time>
      </trkpt>
      <trkpt lat="48.44474" lon="-2.89505">
        <ele>237</ele>
        <time>2014-02-16T13:53:45.1Z</time>
      </trkpt>
      <trkpt lat="48.44475" lon="-2.8951">
        <ele>238</ele>
        <time>2014-02-16T13:53:48.1Z</time>
      </trkpt>
      <trkpt lat="48.44476" lon="-2.89514">
        <ele>238</ele>
        <time>2014-02-16T13:53:50.1Z</time>
      </trkpt>
      <trkpt lat="48.44476" lon="-2.89517">
        <ele>238</ele>
        <time>2014-02-16T13:53:52.1Z</time>
      </trkpt>
      <trkpt lat="48.44477" lon="-2.89523">
        <ele>238</ele>
        <time>2014-02-16T13:53:55.1Z</time>
      </trkpt>
      <trkpt lat="48.44477" lon="-2.89528">
        <ele>238</ele>
        <time>2014-02-16T13:53:58.1Z</time>
      </trkpt>
      <trkpt lat="48.44477" lon="-2.89533">
        <ele>238</ele>
        <time>2014-02-16T13:54:01.1Z</time>
      </trkpt>
      <trkpt lat="48.44476" lon="-2.89539">
        <ele>237</ele>
        <time>2014-02-16T13:54:04.1Z</time>
      </trkpt>
      <trkpt lat="48.44476" lon="-2.89542">
        <ele>237</ele>
        <time>2014-02-16T13:54:06.1Z</time>
      </trkpt>
      <trkpt lat="48.44476" lon="-2.89547">
        <ele>237</ele>
        <time>2014-02-16T13:54:09.1Z</time>
      </trkpt>
      <trkpt lat="48.44476" lon="-2.89551">
        <ele>236</ele>
        <time>2014-02-16T13:54:11.1Z</time>
      </trkpt>
      <trkpt lat="48.44475" lon="-2.89554">
        <ele>236</ele>
        <time>2014-02-16T13:54:13.1Z</time>
      </trkpt>
      <trkpt lat="48.44474" lon="-2.89558">
        <ele>237</ele>
        <time>2014-02-16T13:54:15.1Z</time>
      </trkpt>
      <trkpt lat="48.44474" lon="-2.89563">
        <ele>237</ele>
        <time>2014-02-16T13:54:18.1Z</time>
      </trkpt>
      <trkpt lat="48.44473" lon="-2.89567">
        <ele>238</ele>
        <time>2014-02-16T13:54:20.1Z</time>
      </trkpt>
      <trkpt lat="48.44473" lon="-2.89573">
        <ele>238</ele>
        <time>2014-02-16T13:54:23.1Z</time>
      </trkpt>
      <trkpt lat="48.44472" lon="-2.89578">
        <ele>238</ele>
        <time>2014-02-16T13:54:26.1Z</time>
      </trkpt>
      <trkpt lat="48.44471" lon="-2.89583">
        <ele>238</ele>
        <time>2014-02-16T13:54:29.1Z</time>
      </trkpt>
      <trkpt lat="48.44471" lon="-2.89587">
        <ele>237</ele>
        <time>2014-02-16T13:54:31.1Z</time>
      </trkpt>
      <trkpt lat="48.4447" lon="-2.8959">
        <ele>237</ele>
        <time>2014-02-16T13:54:33.1Z</time>
      </trkpt>
      <trkpt lat="48.44469" lon="-2.89595">
        <ele>237</ele>
        <time>2014-02-16T13:54:36.1Z</time>
      </trkpt>
      <trkpt lat="48.44469" lon="-2.89599">
        <ele>237</ele>
        <time>2014-02-16T13:54:38.1Z</time>
      </trkpt>
      <trkpt lat="48.44469" lon="-2.89602">
        <ele>237</ele>
        <time>2014-02-16T13:54:40.1Z</time>
      </trkpt>
      <trkpt lat="48.44468" lon="-2.89608">
        <ele>237</ele>
        <time>2014-02-16T13:54:43.1Z</time>
      </trkpt>
      <trkpt lat="48.44468" lon="-2.89613">
        <ele>237</ele>
        <time>2014-02-16T13:54:46.1Z</time>
      </trkpt>
      <trkpt lat="48.44467" lon="-2.89618">
        <ele>237</ele>
        <time>2014-02-16T13:54:49.1Z</time>
      </trkpt>
      <trkpt lat="48.44467" lon="-2.89621">
        <ele>236</ele>
        <time>2014-02-16T13:54:51.1Z</time>
      </trkpt>
      <trkpt lat="48.44467" lon="-2.89625">
        <ele>236</ele>
        <time>2014-02-16T13:54:54.1Z</time>
      </trkpt>
      <trkpt lat="48.44466" lon="-2.8963">
        <ele>236</ele>
        <time>2014-02-16T13:54:57.1Z</time>
      </trkpt>
      <trkpt lat="48.44466" lon="-2.89634">
        <ele>236</ele>
        <time>2014-02-16T13:55:00.1Z</time>
      </trkpt>
      <trkpt lat="48.44467" lon="-2.89638">
        <ele>236</ele>
        <time>2014-02-16T13:55:03.1Z</time>
      </trkpt>
      <trkpt lat="48.44468" lon="-2.8964">
        <ele>237</ele>
        <time>2014-02-16T13:55:05.1Z</time>
      </trkpt>
      <trkpt lat="48.44469" lon="-2.89645">
        <ele>237</ele>
        <time>2014-02-16T13:55:08.1Z</time>
      </trkpt>
      <trkpt lat="48.4447" lon="-2.89648">
        <ele>237</ele>
        <time>2014-02-16T13:55:10.1Z</time>
      </trkpt>
      <trkpt lat="48.44471" lon="-2.89652">
        <ele>237</ele>
        <time>2014-02-16T13:55:13.1Z</time>
      </trkpt>
      <trkpt lat="48.44472" lon="-2.89657">
        <ele>237</ele>
        <time>2014-02-16T13:55:16.1Z</time>
      </trkpt>
      <trkpt lat="48.44473" lon="-2.89661">
        <ele>237</ele>
        <time>2014-02-16T13:55:19.1Z</time>
      </trkpt>
      <trkpt lat="48.44474" lon="-2.89664">
        <ele>237</ele>
        <time>2014-02-16T13:55:21.1Z</time>
      </trkpt>
      <trkpt lat="48.44476" lon="-2.89666">
        <ele>237</ele>
        <time>2014-02-16T13:55:23.1Z</time>
      </trkpt>
      <trkpt lat="48.44477" lon="-2.89669">
        <ele>236</ele>
        <time>2014-02-16T13:55:26.1Z</time>
      </trkpt>
      <trkpt lat="48.44479" lon="-2.89671">
        <ele>236</ele>
        <time>2014-02-16T13:55:28.1Z</time>
      </trkpt>
      <trkpt lat="48.44481" lon="-2.89674">
        <ele>236</ele>
        <time>2014-02-16T13:55:31.1Z</time>
      </trkpt>
      <trkpt lat="48.44483" lon="-2.89677">
        <ele>237</ele>
        <time>2014-02-16T13:55:34.1Z</time>
      </trkpt>
      <trkpt lat="48.44485" lon="-2.89679">
        <ele>236</ele>
        <time>2014-02-16T13:55:37.1Z</time>
      </trkpt>
      <trkpt lat="48.44487" lon="-2.89681">
        <ele>237</ele>
        <time>2014-02-16T13:55:40.1Z</time>
      </trkpt>
      <trkpt lat="48.44489" lon="-2.89684">
        <ele>237</ele>
        <time>2014-02-16T13:55:43.1Z</time>
      </trkpt>
      <trkpt lat="48.4449" lon="-2.89688">
        <ele>237</ele>
        <time>2014-02-16T13:55:46.1Z</time>
      </trkpt>
      <trkpt lat="48.44493" lon="-2.8969">
        <ele>237</ele>
        <time>2014-02-16T13:55:49.1Z</time>
      </trkpt>
      <trkpt lat="48.44495" lon="-2.89692">
        <ele>237</ele>
        <time>2014-02-16T13:55:51.1Z</time>
      </trkpt>
      <trkpt lat="48.44497" lon="-2.89694">
        <ele>237</ele>
        <time>2014-02-16T13:55:54.1Z</time>
      </trkpt>
      <trkpt lat="48.44498" lon="-2.89696">
        <ele>237</ele>
        <time>2014-02-16T13:55:56.1Z</time>
      </trkpt>
      <trkpt lat="48.445" lon="-2.89699">
        <ele>237</ele>
        <time>2014-02-16T13:55:59.1Z</time>
      </trkpt>
      <trkpt lat="48.44501" lon="-2.89703">
        <ele>238</ele>
        <time>2014-02-16T13:56:01.1Z</time>
      </trkpt>
      <trkpt lat="48.44501" lon="-2.89707">
        <ele>238</ele>
        <time>2014-02-16T13:56:04.1Z</time>
      </trkpt>
      <trkpt lat="48.44501" lon="-2.89712">
        <ele>238</ele>
        <time>2014-02-16T13:56:07.1Z</time>
      </trkpt>
      <trkpt lat="48.445" lon="-2.89715">
        <ele>238</ele>
        <time>2014-02-16T13:56:09.1Z</time>
      </trkpt>
      <trkpt lat="48.445" lon="-2.89719">
        <ele>237</ele>
        <time>2014-02-16T13:56:11.1Z</time>
      </trkpt>
      <trkpt lat="48.44499" lon="-2.89723">
        <ele>237</ele>
        <time>2014-02-16T13:56:14.1Z</time>
      </trkpt>
      <trkpt lat="48.44498" lon="-2.89726">
        <ele>237</ele>
        <time>2014-02-16T13:56:16.1Z</time>
      </trkpt>
      <trkpt lat="48.44498" lon="-2.89729">
        <ele>237</ele>
        <time>2014-02-16T13:56:19.1Z</time>
      </trkpt>
      <trkpt lat="48.44496" lon="-2.89734">
        <ele>237</ele>
        <time>2014-02-16T13:56:22.1Z</time>
      </trkpt>
      <trkpt lat="48.44496" lon="-2.89737">
        <ele>236</ele>
        <time>2014-02-16T13:56:24.1Z</time>
      </trkpt>
      <trkpt lat="48.44494" lon="-2.89742">
        <ele>236</ele>
        <time>2014-02-16T13:56:27.1Z</time>
      </trkpt>
      <trkpt lat="48.44493" lon="-2.89745">
        <ele>236</ele>
        <time>2014-02-16T13:56:29.1Z</time>
      </trkpt>
      <trkpt lat="48.44493" lon="-2.89749">
        <ele>236</ele>
        <time>2014-02-16T13:56:31.1Z</time>
      </trkpt>
      <trkpt lat="48.44492" lon="-2.89753">
        <ele>236</ele>
        <time>2014-02-16T13:56:34.1Z</time>
      </trkpt>
      <trkpt lat="48.44492" lon="-2.89758">
        <ele>236</ele>
        <time>2014-02-16T13:56:37.1Z</time>
      </trkpt>
      <trkpt lat="48.44491" lon="-2.89761">
        <ele>236</ele>
        <time>2014-02-16T13:56:39.1Z</time>
      </trkpt>
      <trkpt lat="48.4449" lon="-2.89766">
        <ele>236</ele>
        <time>2014-02-16T13:56:42.1Z</time>
      </trkpt>
      <trkpt lat="48.44489" lon="-2.89769">
        <ele>236</ele>
        <time>2014-02-16T13:56:44.1Z</time>
      </trkpt>
      <trkpt lat="48.44487" lon="-2.89773">
        <ele>236</ele>
        <time>2014-02-16T13:56:47.1Z</time>
      </trkpt>
      <trkpt lat="48.44486" lon="-2.89776">
        <ele>235</ele>
        <time>2014-02-16T13:56:49.1Z</time>
      </trkpt>
      <trkpt lat="48.44484" lon="-2.89781">
        <ele>235</ele>
        <time>2014-02-16T13:56:52.1Z</time>
      </trkpt>
      <trkpt lat="48.44484" lon="-2.89784">
        <ele>234</ele>
        <time>2014-02-16T13:56:54.1Z</time>
      </trkpt>
      <trkpt lat="48.44483" lon="-2.89789">
        <ele>234</ele>
        <time>2014-02-16T13:56:57.1Z</time>
      </trkpt>
      <trkpt lat="48.44483" lon="-2.89792">
        <ele>234</ele>
        <time>2014-02-16T13:57:00.1Z</time>
      </trkpt>
      <trkpt lat="48.44483" lon="-2.89793">
        <ele>234</ele>
        <time>2014-02-16T13:57:03.1Z</time>
      </trkpt>
      <trkpt lat="48.44483" lon="-2.89793">
        <ele>233</ele>
        <time>2014-02-16T13:57:05.1Z</time>
      </trkpt>
      <trkpt lat="48.44483" lon="-2.89795">
        <ele>234</ele>
        <time>2014-02-16T13:57:08.1Z</time>
      </trkpt>
      <trkpt lat="48.44482" lon="-2.89797">
        <ele>234</ele>
        <time>2014-02-16T13:57:11.1Z</time>
      </trkpt>
      <trkpt lat="48.44483" lon="-2.89799">
        <ele>234</ele>
        <time>2014-02-16T13:57:14.1Z</time>
      </trkpt>
      <trkpt lat="48.44482" lon="-2.89799">
        <ele>234</ele>
        <time>2014-02-16T13:57:16.1Z</time>
      </trkpt>
      <trkpt lat="48.44483" lon="-2.89801">
        <ele>233</ele>
        <time>2014-02-16T13:57:18.1Z</time>
      </trkpt>
      <trkpt lat="48.44482" lon="-2.89804">
        <ele>234</ele>
        <time>2014-02-16T13:57:21.1Z</time>
      </trkpt>
      <trkpt lat="48.44482" lon="-2.89807">
        <ele>234</ele>
        <time>2014-02-16T13:57:24.1Z</time>
      </trkpt>
      <trkpt lat="48.44481" lon="-2.8981">
        <ele>234</ele>
        <time>2014-02-16T13:57:27.1Z</time>
      </trkpt>
      <trkpt lat="48.44482" lon="-2.89812">
        <ele>234</ele>
        <time>2014-02-16T13:57:30.1Z</time>
      </trkpt>
      <trkpt lat="48.44483" lon="-2.89812">
        <ele>234</ele>
        <time>2014-02-16T13:57:32.1Z</time>
      </trkpt>
      <trkpt lat="48.44485" lon="-2.89814">
        <ele>234</ele>
        <time>2014-02-16T13:57:35.1Z</time>
      </trkpt>
      <trkpt lat="48.44487" lon="-2.89816">
        <ele>234</ele>
        <time>2014-02-16T13:57:37.1Z</time>
      </trkpt>
      <trkpt lat="48.44489" lon="-2.89818">
        <ele>234</ele>
        <time>2014-02-16T13:57:39.1Z</time>
      </trkpt>
      <trkpt lat="48.44491" lon="-2.8982">
        <ele>234</ele>
        <time>2014-02-16T13:57:42.1Z</time>
      </trkpt>
      <trkpt lat="48.44493" lon="-2.89822">
        <ele>234</ele>
        <time>2014-02-16T13:57:44.1Z</time>
      </trkpt>
      <trkpt lat="48.44494" lon="-2.89824">
        <ele>234</ele>
        <time>2014-02-16T13:57:46.1Z</time>
      </trkpt>
      <trkpt lat="48.44497" lon="-2.89825">
        <ele>234</ele>
        <time>2014-02-16T13:57:49.1Z</time>
      </trkpt>
      <trkpt lat="48.44498" lon="-2.89825">
        <ele>234</ele>
        <time>2014-02-16T13:57:51.1Z</time>
      </trkpt>
      <trkpt lat="48.445" lon="-2.89826">
        <ele>234</ele>
        <time>2014-02-16T13:57:53.1Z</time>
      </trkpt>
      <trkpt lat="48.44502" lon="-2.89827">
        <ele>234</ele>
        <time>2014-02-16T13:57:56.1Z</time>
      </trkpt>
      <trkpt lat="48.44504" lon="-2.89828">
        <ele>234</ele>
        <time>2014-02-16T13:57:58.1Z</time>
      </trkpt>
      <trkpt lat="48.44506" lon="-2.8983">
        <ele>234</ele>
        <time>2014-02-16T13:58:00.1Z</time>
      </trkpt>
      <trkpt lat="48.44509" lon="-2.89831">
        <ele>234</ele>
        <time>2014-02-16T13:58:03.1Z</time>
      </trkpt>
      <trkpt lat="48.44512" lon="-2.89833">
        <ele>234</ele>
        <time>2014-02-16T13:58:06.1Z</time>
      </trkpt>
      <trkpt lat="48.44515" lon="-2.89834">
        <ele>234</ele>
        <time>2014-02-16T13:58:09.1Z</time>
      </trkpt>
      <trkpt lat="48.44519" lon="-2.89836">
        <ele>234</ele>
        <time>2014-02-16T13:58:12.1Z</time>
      </trkpt>
      <trkpt lat="48.44521" lon="-2.89838">
        <ele>234</ele>
        <time>2014-02-16T13:58:14.1Z</time>
      </trkpt>
      <trkpt lat="48.44522" lon="-2.8984">
        <ele>235</ele>
        <time>2014-02-16T13:58:16.1Z</time>
      </trkpt>
      <trkpt lat="48.44525" lon="-2.89842">
        <ele>236</ele>
        <time>2014-02-16T13:58:19.1Z</time>
      </trkpt>
      <trkpt lat="48.44526" lon="-2.89843">
        <ele>236</ele>
        <time>2014-02-16T13:58:21.1Z</time>
      </trkpt>
      <trkpt lat="48.44527" lon="-2.89846">
        <ele>236</ele>
        <time>2014-02-16T13:58:24.1Z</time>
      </trkpt>
      <trkpt lat="48.44529" lon="-2.89848">
        <ele>236</ele>
        <time>2014-02-16T13:58:26.1Z</time>
      </trkpt>
      <trkpt lat="48.44531" lon="-2.89852">
        <ele>235</ele>
        <time>2014-02-16T13:58:29.1Z</time>
      </trkpt>
      <trkpt lat="48.44532" lon="-2.89855">
        <ele>236</ele>
        <time>2014-02-16T13:58:31.1Z</time>
      </trkpt>
      <trkpt lat="48.44535" lon="-2.89858">
        <ele>235</ele>
        <time>2014-02-16T13:58:34.1Z</time>
      </trkpt>
      <trkpt lat="48.44535" lon="-2.8986">
        <ele>235</ele>
        <time>2014-02-16T13:58:36.1Z</time>
      </trkpt>
      <trkpt lat="48.44537" lon="-2.89863">
        <ele>235</ele>
        <time>2014-02-16T13:58:39.1Z</time>
      </trkpt>
      <trkpt lat="48.44537" lon="-2.89866">
        <ele>234</ele>
        <time>2014-02-16T13:58:41.1Z</time>
      </trkpt>
      <trkpt lat="48.44538" lon="-2.89871">
        <ele>234</ele>
        <time>2014-02-16T13:58:44.1Z</time>
      </trkpt>
      <trkpt lat="48.44538" lon="-2.89876">
        <ele>234</ele>
        <time>2014-02-16T13:58:47.1Z</time>
      </trkpt>
      <trkpt lat="48.44538" lon="-2.8988">
        <ele>234</ele>
        <time>2014-02-16T13:58:50.1Z</time>
      </trkpt>
      <trkpt lat="48.44538" lon="-2.89885">
        <ele>234</ele>
        <time>2014-02-16T13:58:53.1Z</time>
      </trkpt>
      <trkpt lat="48.44537" lon="-2.89888">
        <ele>234</ele>
        <time>2014-02-16T13:58:55.1Z</time>
      </trkpt>
      <trkpt lat="48.44536" lon="-2.89893">
        <ele>235</ele>
        <time>2014-02-16T13:58:58.1Z</time>
      </trkpt>
      <trkpt lat="48.44535" lon="-2.89897">
        <ele>235</ele>
        <time>2014-02-16T13:59:01.1Z</time>
      </trkpt>
      <trkpt lat="48.44534" lon="-2.89902">
        <ele>235</ele>
        <time>2014-02-16T13:59:04.1Z</time>
      </trkpt>
      <trkpt lat="48.44533" lon="-2.89906">
        <ele>235</ele>
        <time>2014-02-16T13:59:06.1Z</time>
      </trkpt>
      <trkpt lat="48.44532" lon="-2.89909">
        <ele>235</ele>
        <time>2014-02-16T13:59:08.1Z</time>
      </trkpt>
      <trkpt lat="48.4453" lon="-2.89913">
        <ele>236</ele>
        <time>2014-02-16T13:59:11.1Z</time>
      </trkpt>
      <trkpt lat="48.44529" lon="-2.89915">
        <ele>236</ele>
        <time>2014-02-16T13:59:13.1Z</time>
      </trkpt>
      <trkpt lat="48.44528" lon="-2.89918">
        <ele>236</ele>
        <time>2014-02-16T13:59:15.1Z</time>
      </trkpt>
      <trkpt lat="48.44527" lon="-2.89923">
        <ele>236</ele>
        <time>2014-02-16T13:59:18.1Z</time>
      </trkpt>
      <trkpt lat="48.44525" lon="-2.89928">
        <ele>236</ele>
        <time>2014-02-16T13:59:21.1Z</time>
      </trkpt>
      <trkpt lat="48.44523" lon="-2.89932">
        <ele>236</ele>
        <time>2014-02-16T13:59:24.1Z</time>
      </trkpt>
      <trkpt lat="48.44522" lon="-2.89935">
        <ele>236</ele>
        <time>2014-02-16T13:59:26.1Z</time>
      </trkpt>
      <trkpt lat="48.44521" lon="-2.89939">
        <ele>236</ele>
        <time>2014-02-16T13:59:29.1Z</time>
      </trkpt>
      <trkpt lat="48.4452" lon="-2.89944">
        <ele>236</ele>
        <time>2014-02-16T13:59:32.1Z</time>
      </trkpt>
      <trkpt lat="48.44519" lon="-2.89948">
        <ele>236</ele>
        <time>2014-02-16T13:59:34.1Z</time>
      </trkpt>
      <trkpt lat="48.44519" lon="-2.89951">
        <ele>236</ele>
        <time>2014-02-16T13:59:36.1Z</time>
      </trkpt>
      <trkpt lat="48.44519" lon="-2.89956">
        <ele>236</ele>
        <time>2014-02-16T13:59:39.1Z</time>
      </trkpt>
      <trkpt lat="48.44519" lon="-2.89959">
        <ele>236</ele>
        <time>2014-02-16T13:59:41.1Z</time>
      </trkpt>
      <trkpt lat="48.44519" lon="-2.89964">
        <ele>237</ele>
        <time>2014-02-16T13:59:44.1Z</time>
      </trkpt>
      <trkpt lat="48.44519" lon="-2.8997">
        <ele>237</ele>
        <time>2014-02-16T13:59:47.1Z</time>
      </trkpt>
      <trkpt lat="48.44519" lon="-2.89973">
        <ele>237</ele>
        <time>2014-02-16T13:59:49.1Z</time>
      </trkpt>
      <trkpt lat="48.44519" lon="-2.89976">
        <ele>237</ele>
        <time>2014-02-16T13:59:51.1Z</time>
      </trkpt>
      <trkpt lat="48.4452" lon="-2.89979">
        <ele>237</ele>
        <time>2014-02-16T13:59:53.1Z</time>
      </trkpt>
      <trkpt lat="48.44521" lon="-2.89982">
        <ele>238</ele>
        <time>2014-02-16T13:59:55.1Z</time>
      </trkpt>
      <trkpt lat="48.44522" lon="-2.89986">
        <ele>238</ele>
        <time>2014-02-16T13:59:58.1Z</time>
      </trkpt>
      <trkpt lat="48.44523" lon="-2.89989">
        <ele>239</ele>
        <time>2014-02-16T14:00:00.1Z</time>
      </trkpt>
      <trkpt lat="48.44525" lon="-2.89993">
        <ele>239</ele>
        <time>2014-02-16T14:00:03.1Z</time>
      </trkpt>
      <trkpt lat="48.44526" lon="-2.89996">
        <ele>239</ele>
        <time>2014-02-16T14:00:05.1Z</time>
      </trkpt>
      <trkpt lat="48.44528" lon="-2.89999">
        <ele>238</ele>
        <time>2014-02-16T14:00:08.1Z</time>
      </trkpt>
      <trkpt lat="48.44531" lon="-2.90002">
        <ele>238</ele>
        <time>2014-02-16T14:00:11.1Z</time>
      </trkpt>
      <trkpt lat="48.44533" lon="-2.90005">
        <ele>238</ele>
        <time>2014-02-16T14:00:14.1Z</time>
      </trkpt>
      <trkpt lat="48.44535" lon="-2.90008">
        <ele>239</ele>
        <time>2014-02-16T14:00:16.1Z</time>
      </trkpt>
      <trkpt lat="48.44537" lon="-2.90011">
        <ele>239</ele>
        <time>2014-02-16T14:00:19.1Z</time>
      </trkpt>
      <trkpt lat="48.44538" lon="-2.90013">
        <ele>239</ele>
        <time>2014-02-16T14:00:21.1Z</time>
      </trkpt>
      <trkpt lat="48.44539" lon="-2.90014">
        <ele>239</ele>
        <time>2014-02-16T14:00:24.1Z</time>
      </trkpt>
      <trkpt lat="48.44541" lon="-2.90017">
        <ele>240</ele>
        <time>2014-02-16T14:00:27.1Z</time>
      </trkpt>
      <trkpt lat="48.44543" lon="-2.90019">
        <ele>239</ele>
        <time>2014-02-16T14:00:29.1Z</time>
      </trkpt>
      <trkpt lat="48.44545" lon="-2.90021">
        <ele>240</ele>
        <time>2014-02-16T14:00:32.1Z</time>
      </trkpt>
      <trkpt lat="48.44546" lon="-2.90023">
        <ele>240</ele>
        <time>2014-02-16T14:00:34.1Z</time>
      </trkpt>
      <trkpt lat="48.44548" lon="-2.90024">
        <ele>240</ele>
        <time>2014-02-16T14:00:36.1Z</time>
      </trkpt>
      <trkpt lat="48.4455" lon="-2.90026">
        <ele>240</ele>
        <time>2014-02-16T14:00:38.1Z</time>
      </trkpt>
      <trkpt lat="48.44552" lon="-2.90029">
        <ele>240</ele>
        <time>2014-02-16T14:00:41.1Z</time>
      </trkpt>
      <trkpt lat="48.44555" lon="-2.90031">
        <ele>241</ele>
        <time>2014-02-16T14:00:44.1Z</time>
      </trkpt>
      <trkpt lat="48.44557" lon="-2.90033">
        <ele>241</ele>
        <time>2014-02-16T14:00:46.1Z</time>
      </trkpt>
      <trkpt lat="48.44558" lon="-2.90034">
        <ele>241</ele>
        <time>2014-02-16T14:00:48.1Z</time>
      </trkpt>
      <trkpt lat="48.44562" lon="-2.90037">
        <ele>241</ele>
        <time>2014-02-16T14:00:51.1Z</time>
      </trkpt>
      <trkpt lat="48.44564" lon="-2.9004">
        <ele>241</ele>
        <time>2014-02-16T14:00:54.1Z</time>
      </trkpt>
      <trkpt lat="48.44567" lon="-2.90042">
        <ele>241</ele>
        <time>2014-02-16T14:00:57.1Z</time>
      </trkpt>
      <trkpt lat="48.44567" lon="-2.90041">
        <ele>241</ele>
        <time>2014-02-16T14:01:01.1Z</time>
      </trkpt>
      <trkpt lat="48.44568" lon="-2.90044">
        <ele>241</ele>
        <time>2014-02-16T14:01:04.1Z</time>
      </trkpt>
      <trkpt lat="48.44571" lon="-2.90047">
        <ele>241</ele>
        <time>2014-02-16T14:01:07.1Z</time>
      </trkpt>
      <trkpt lat="48.44574" lon="-2.9005">
        <ele>241</ele>
        <time>2014-02-16T14:01:10.1Z</time>
      </trkpt>
      <trkpt lat="48.44576" lon="-2.90051">
        <ele>242</ele>
        <time>2014-02-16T14:01:12.1Z</time>
      </trkpt>
      <trkpt lat="48.44579" lon="-2.90054">
        <ele>242</ele>
        <time>2014-02-16T14:01:15.1Z</time>
      </trkpt>
      <trkpt lat="48.44582" lon="-2.90057">
        <ele>242</ele>
        <time>2014-02-16T14:01:18.1Z</time>
      </trkpt>
      <trkpt lat="48.44584" lon="-2.90059">
        <ele>242</ele>
        <time>2014-02-16T14:01:20.1Z</time>
      </trkpt>
      <trkpt lat="48.44586" lon="-2.90061">
        <ele>242</ele>
        <time>2014-02-16T14:01:22.1Z</time>
      </trkpt>
      <trkpt lat="48.44588" lon="-2.90065">
        <ele>242</ele>
        <time>2014-02-16T14:01:25.1Z</time>
      </trkpt>
      <trkpt lat="48.4459" lon="-2.90066">
        <ele>243</ele>
        <time>2014-02-16T14:01:27.1Z</time>
      </trkpt>
      <trkpt lat="48.44593" lon="-2.9007">
        <ele>243</ele>
        <time>2014-02-16T14:01:30.1Z</time>
      </trkpt>
      <trkpt lat="48.44595" lon="-2.90072">
        <ele>243</ele>
        <time>2014-02-16T14:01:33.1Z</time>
      </trkpt>
      <trkpt lat="48.44597" lon="-2.90074">
        <ele>243</ele>
        <time>2014-02-16T14:01:35.1Z</time>
      </trkpt>
      <trkpt lat="48.44598" lon="-2.90076">
        <ele>244</ele>
        <time>2014-02-16T14:01:37.1Z</time>
      </trkpt>
      <trkpt lat="48.44601" lon="-2.90079">
        <ele>244</ele>
        <time>2014-02-16T14:01:40.1Z</time>
      </trkpt>
      <trkpt lat="48.44604" lon="-2.90082">
        <ele>244</ele>
        <time>2014-02-16T14:01:43.1Z</time>
      </trkpt>
      <trkpt lat="48.44606" lon="-2.90084">
        <ele>244</ele>
        <time>2014-02-16T14:01:45.1Z</time>
      </trkpt>
      <trkpt lat="48.44608" lon="-2.90086">
        <ele>244</ele>
        <time>2014-02-16T14:01:48.1Z</time>
      </trkpt>
      <trkpt lat="48.44611" lon="-2.90089">
        <ele>244</ele>
        <time>2014-02-16T14:01:51.1Z</time>
      </trkpt>
      <trkpt lat="48.44613" lon="-2.90091">
        <ele>244</ele>
        <time>2014-02-16T14:01:53.1Z</time>
      </trkpt>
      <trkpt lat="48.44616" lon="-2.90093">
        <ele>244</ele>
        <time>2014-02-16T14:01:56.1Z</time>
      </trkpt>
      <trkpt lat="48.44618" lon="-2.90096">
        <ele>244</ele>
        <time>2014-02-16T14:01:59.1Z</time>
      </trkpt>
      <trkpt lat="48.44621" lon="-2.90098">
        <ele>245</ele>
        <time>2014-02-16T14:02:02.1Z</time>
      </trkpt>
      <trkpt lat="48.44624" lon="-2.90101">
        <ele>245</ele>
        <time>2014-02-16T14:02:05.1Z</time>
      </trkpt>
      <trkpt lat="48.44626" lon="-2.90103">
        <ele>245</ele>
        <time>2014-02-16T14:02:07.1Z</time>
      </trkpt>
      <trkpt lat="48.44627" lon="-2.90104">
        <ele>245</ele>
        <time>2014-02-16T14:02:09.1Z</time>
      </trkpt>
      <trkpt lat="48.4463" lon="-2.90107">
        <ele>245</ele>
        <time>2014-02-16T14:02:12.1Z</time>
      </trkpt>
      <trkpt lat="48.44633" lon="-2.90109">
        <ele>245</ele>
        <time>2014-02-16T14:02:15.1Z</time>
      </trkpt>
      <trkpt lat="48.44636" lon="-2.90111">
        <ele>246</ele>
        <time>2014-02-16T14:02:18.1Z</time>
      </trkpt>
      <trkpt lat="48.44638" lon="-2.90114">
        <ele>246</ele>
        <time>2014-02-16T14:02:21.1Z</time>
      </trkpt>
      <trkpt lat="48.4464" lon="-2.90115">
        <ele>246</ele>
        <time>2014-02-16T14:02:23.1Z</time>
      </trkpt>
      <trkpt lat="48.44643" lon="-2.90118">
        <ele>246</ele>
        <time>2014-02-16T14:02:26.1Z</time>
      </trkpt>
      <trkpt lat="48.44645" lon="-2.9012">
        <ele>246</ele>
        <time>2014-02-16T14:02:28.1Z</time>
      </trkpt>
      <trkpt lat="48.44648" lon="-2.90123">
        <ele>246</ele>
        <time>2014-02-16T14:02:31.1Z</time>
      </trkpt>
      <trkpt lat="48.44651" lon="-2.90126">
        <ele>247</ele>
        <time>2014-02-16T14:02:34.1Z</time>
      </trkpt>
      <trkpt lat="48.44652" lon="-2.90128">
        <ele>247</ele>
        <time>2014-02-16T14:02:36.1Z</time>
      </trkpt>
      <trkpt lat="48.44655" lon="-2.90131">
        <ele>247</ele>
        <time>2014-02-16T14:02:39.1Z</time>
      </trkpt>
      <trkpt lat="48.44658" lon="-2.90135">
        <ele>247</ele>
        <time>2014-02-16T14:02:42.1Z</time>
      </trkpt>
      <trkpt lat="48.44661" lon="-2.90139">
        <ele>247</ele>
        <time>2014-02-16T14:02:45.1Z</time>
      </trkpt>
      <trkpt lat="48.44663" lon="-2.90142">
        <ele>247</ele>
        <time>2014-02-16T14:02:48.1Z</time>
      </trkpt>
      <trkpt lat="48.44665" lon="-2.90145">
        <ele>247</ele>
        <time>2014-02-16T14:02:51.1Z</time>
      </trkpt>
      <trkpt lat="48.44666" lon="-2.90147">
        <ele>247</ele>
        <time>2014-02-16T14:02:53.1Z</time>
      </trkpt>
      <trkpt lat="48.44668" lon="-2.9015">
        <ele>248</ele>
        <time>2014-02-16T14:02:56.1Z</time>
      </trkpt>
      <trkpt lat="48.4467" lon="-2.90154">
        <ele>248</ele>
        <time>2014-02-16T14:02:59.1Z</time>
      </trkpt>
      <trkpt lat="48.44672" lon="-2.90158">
        <ele>248</ele>
        <time>2014-02-16T14:03:02.1Z</time>
      </trkpt>
      <trkpt lat="48.44673" lon="-2.9016">
        <ele>249</ele>
        <time>2014-02-16T14:03:04.1Z</time>
      </trkpt>
      <trkpt lat="48.44675" lon="-2.90162">
        <ele>249</ele>
        <time>2014-02-16T14:03:06.1Z</time>
      </trkpt>
      <trkpt lat="48.44675" lon="-2.90166">
        <ele>249</ele>
        <time>2014-02-16T14:03:09.1Z</time>
      </trkpt>
      <trkpt lat="48.44676" lon="-2.9017">
        <ele>249</ele>
        <time>2014-02-16T14:03:12.1Z</time>
      </trkpt>
      <trkpt lat="48.44675" lon="-2.90174">
        <ele>249</ele>
        <time>2014-02-16T14:03:15.1Z</time>
      </trkpt>
      <trkpt lat="48.44674" lon="-2.90178">
        <ele>250</ele>
        <time>2014-02-16T14:03:18.1Z</time>
      </trkpt>
      <trkpt lat="48.44673" lon="-2.90182">
        <ele>250</ele>
        <time>2014-02-16T14:03:21.1Z</time>
      </trkpt>
      <trkpt lat="48.44671" lon="-2.90187">
        <ele>250</ele>
        <time>2014-02-16T14:03:24.1Z</time>
      </trkpt>
      <trkpt lat="48.44669" lon="-2.90191">
        <ele>250</ele>
        <time>2014-02-16T14:03:27.1Z</time>
      </trkpt>
      <trkpt lat="48.44668" lon="-2.90194">
        <ele>250</ele>
        <time>2014-02-16T14:03:30.1Z</time>
      </trkpt>
      <trkpt lat="48.44666" lon="-2.90198">
        <ele>251</ele>
        <time>2014-02-16T14:03:33.1Z</time>
      </trkpt>
      <trkpt lat="48.44664" lon="-2.90202">
        <ele>251</ele>
        <time>2014-02-16T14:03:36.1Z</time>
      </trkpt>
      <trkpt lat="48.44663" lon="-2.90205">
        <ele>251</ele>
        <time>2014-02-16T14:03:38.1Z</time>
      </trkpt>
      <trkpt lat="48.44662" lon="-2.90207">
        <ele>251</ele>
        <time>2014-02-16T14:03:40.1Z</time>
      </trkpt>
      <trkpt lat="48.44661" lon="-2.90212">
        <ele>251</ele>
        <time>2014-02-16T14:03:43.1Z</time>
      </trkpt>
      <trkpt lat="48.44659" lon="-2.90215">
        <ele>252</ele>
        <time>2014-02-16T14:03:46.1Z</time>
      </trkpt>
      <trkpt lat="48.44658" lon="-2.90219">
        <ele>252</ele>
        <time>2014-02-16T14:03:49.1Z</time>
      </trkpt>
      <trkpt lat="48.44657" lon="-2.90222">
        <ele>252</ele>
        <time>2014-02-16T14:03:51.1Z</time>
      </trkpt>
      <trkpt lat="48.44656" lon="-2.90224">
        <ele>251</ele>
        <time>2014-02-16T14:03:53.1Z</time>
      </trkpt>
      <trkpt lat="48.44654" lon="-2.90228">
        <ele>252</ele>
        <time>2014-02-16T14:03:56.1Z</time>
      </trkpt>
      <trkpt lat="48.44653" lon="-2.90231">
        <ele>252</ele>
        <time>2014-02-16T14:03:58.1Z</time>
      </trkpt>
      <trkpt lat="48.44652" lon="-2.90233">
        <ele>252</ele>
        <time>2014-02-16T14:04:00.1Z</time>
      </trkpt>
      <trkpt lat="48.4465" lon="-2.90237">
        <ele>253</ele>
        <time>2014-02-16T14:04:03.1Z</time>
      </trkpt>
      <trkpt lat="48.44649" lon="-2.9024">
        <ele>253</ele>
        <time>2014-02-16T14:04:05.1Z</time>
      </trkpt>
      <trkpt lat="48.44648" lon="-2.90242">
        <ele>253</ele>
        <time>2014-02-16T14:04:07.1Z</time>
      </trkpt>
      <trkpt lat="48.44647" lon="-2.90246">
        <ele>254</ele>
        <time>2014-02-16T14:04:10.1Z</time>
      </trkpt>
      <trkpt lat="48.44645" lon="-2.9025">
        <ele>253</ele>
        <time>2014-02-16T14:04:13.1Z</time>
      </trkpt>
      <trkpt lat="48.44644" lon="-2.90254">
        <ele>253</ele>
        <time>2014-02-16T14:04:16.1Z</time>
      </trkpt>
      <trkpt lat="48.44643" lon="-2.90258">
        <ele>253</ele>
        <time>2014-02-16T14:04:19.1Z</time>
      </trkpt>
      <trkpt lat="48.44642" lon="-2.9026">
        <ele>254</ele>
        <time>2014-02-16T14:04:21.1Z</time>
      </trkpt>
      <trkpt lat="48.4464" lon="-2.90263">
        <ele>254</ele>
        <time>2014-02-16T14:04:24.1Z</time>
      </trkpt>
      <trkpt lat="48.44639" lon="-2.90266">
        <ele>254</ele>
        <time>2014-02-16T14:04:27.1Z</time>
      </trkpt>
      <trkpt lat="48.44638" lon="-2.9027">
        <ele>254</ele>
        <time>2014-02-16T14:04:30.1Z</time>
      </trkpt>
      <trkpt lat="48.44637" lon="-2.90273">
        <ele>255</ele>
        <time>2014-02-16T14:04:32.1Z</time>
      </trkpt>
      <trkpt lat="48.44635" lon="-2.90277">
        <ele>255</ele>
        <time>2014-02-16T14:04:35.1Z</time>
      </trkpt>
      <trkpt lat="48.44635" lon="-2.90279">
        <ele>255</ele>
        <time>2014-02-16T14:04:37.1Z</time>
      </trkpt>
      <trkpt lat="48.44633" lon="-2.90283">
        <ele>255</ele>
        <time>2014-02-16T14:04:40.1Z</time>
      </trkpt>
      <trkpt lat="48.44632" lon="-2.90287">
        <ele>255</ele>
        <time>2014-02-16T14:04:43.1Z</time>
      </trkpt>
      <trkpt lat="48.44631" lon="-2.90292">
        <ele>255</ele>
        <time>2014-02-16T14:04:46.1Z</time>
      </trkpt>
      <trkpt lat="48.4463" lon="-2.90296">
        <ele>255</ele>
        <time>2014-02-16T14:04:49.1Z</time>
      </trkpt>
      <trkpt lat="48.44629" lon="-2.903">
        <ele>255</ele>
        <time>2014-02-16T14:04:52.1Z</time>
      </trkpt>
      <trkpt lat="48.44627" lon="-2.90305">
        <ele>256</ele>
        <time>2014-02-16T14:04:55.1Z</time>
      </trkpt>
      <trkpt lat="48.44627" lon="-2.90309">
        <ele>256</ele>
        <time>2014-02-16T14:04:58.1Z</time>
      </trkpt>
      <trkpt lat="48.44626" lon="-2.90313">
        <ele>256</ele>
        <time>2014-02-16T14:05:00.1Z</time>
      </trkpt>
      <trkpt lat="48.44626" lon="-2.90317">
        <ele>256</ele>
        <time>2014-02-16T14:05:03.1Z</time>
      </trkpt>
      <trkpt lat="48.44625" lon="-2.90322">
        <ele>257</ele>
        <time>2014-02-16T14:05:06.1Z</time>
      </trkpt>
      <trkpt lat="48.44625" lon="-2.90327">
        <ele>258</ele>
        <time>2014-02-16T14:05:09.1Z</time>
      </trkpt>
      <trkpt lat="48.44626" lon="-2.90332">
        <ele>259</ele>
        <time>2014-02-16T14:05:12.1Z</time>
      </trkpt>
      <trkpt lat="48.44626" lon="-2.90335">
        <ele>260</ele>
        <time>2014-02-16T14:05:14.1Z</time>
      </trkpt>
      <trkpt lat="48.44627" lon="-2.90339">
        <ele>260</ele>
        <time>2014-02-16T14:05:17.1Z</time>
      </trkpt>
      <trkpt lat="48.44628" lon="-2.90342">
        <ele>261</ele>
        <time>2014-02-16T14:05:19.1Z</time>
      </trkpt>
      <trkpt lat="48.44629" lon="-2.90345">
        <ele>261</ele>
        <time>2014-02-16T14:05:21.1Z</time>
      </trkpt>
      <trkpt lat="48.4463" lon="-2.90347">
        <ele>261</ele>
        <time>2014-02-16T14:05:23.1Z</time>
      </trkpt>
      <trkpt lat="48.44632" lon="-2.90351">
        <ele>261</ele>
        <time>2014-02-16T14:05:26.1Z</time>
      </trkpt>
      <trkpt lat="48.44634" lon="-2.90352">
        <ele>261</ele>
        <time>2014-02-16T14:05:28.1Z</time>
      </trkpt>
      <trkpt lat="48.44636" lon="-2.90355">
        <ele>261</ele>
        <time>2014-02-16T14:05:31.1Z</time>
      </trkpt>
      <trkpt lat="48.44638" lon="-2.90357">
        <ele>261</ele>
        <time>2014-02-16T14:05:33.1Z</time>
      </trkpt>
      <trkpt lat="48.4464" lon="-2.9036">
        <ele>262</ele>
        <time>2014-02-16T14:05:36.1Z</time>
      </trkpt>
      <trkpt lat="48.44643" lon="-2.90363">
        <ele>262</ele>
        <time>2014-02-16T14:05:39.1Z</time>
      </trkpt>
      <trkpt lat="48.44645" lon="-2.90365">
        <ele>262</ele>
        <time>2014-02-16T14:05:42.1Z</time>
      </trkpt>
      <trkpt lat="48.44648" lon="-2.90368">
        <ele>262</ele>
        <time>2014-02-16T14:05:45.1Z</time>
      </trkpt>
      <trkpt lat="48.44649" lon="-2.9037">
        <ele>262</ele>
        <time>2014-02-16T14:05:47.1Z</time>
      </trkpt>
      <trkpt lat="48.44652" lon="-2.90372">
        <ele>262</ele>
        <time>2014-02-16T14:05:50.1Z</time>
      </trkpt>
      <trkpt lat="48.44654" lon="-2.90374">
        <ele>262</ele>
        <time>2014-02-16T14:05:52.1Z</time>
      </trkpt>
      <trkpt lat="48.44656" lon="-2.90377">
        <ele>262</ele>
        <time>2014-02-16T14:05:55.1Z</time>
      </trkpt>
      <trkpt lat="48.44659" lon="-2.9038">
        <ele>262</ele>
        <time>2014-02-16T14:05:58.1Z</time>
      </trkpt>
      <trkpt lat="48.44661" lon="-2.90383">
        <ele>262</ele>
        <time>2014-02-16T14:06:01.1Z</time>
      </trkpt>
      <trkpt lat="48.44664" lon="-2.90385">
        <ele>261</ele>
        <time>2014-02-16T14:06:04.1Z</time>
      </trkpt>
      <trkpt lat="48.44666" lon="-2.90387">
        <ele>262</ele>
        <time>2014-02-16T14:06:06.1Z</time>
      </trkpt>
      <trkpt lat="48.44669" lon="-2.9039">
        <ele>263</ele>
        <time>2014-02-16T14:06:09.1Z</time>
      </trkpt>
      <trkpt lat="48.44671" lon="-2.90392">
        <ele>264</ele>
        <time>2014-02-16T14:06:12.1Z</time>
      </trkpt>
      <trkpt lat="48.44673" lon="-2.90394">
        <ele>263</ele>
        <time>2014-02-16T14:06:14.1Z</time>
      </trkpt>
      <trkpt lat="48.44676" lon="-2.90397">
        <ele>263</ele>
        <time>2014-02-16T14:06:17.1Z</time>
      </trkpt>
      <trkpt lat="48.44677" lon="-2.90399">
        <ele>263</ele>
        <time>2014-02-16T14:06:19.1Z</time>
      </trkpt>
      <trkpt lat="48.44679" lon="-2.904">
        <ele>263</ele>
        <time>2014-02-16T14:06:21.1Z</time>
      </trkpt>
      <trkpt lat="48.44682" lon="-2.90403">
        <ele>264</ele>
        <time>2014-02-16T14:06:24.1Z</time>
      </trkpt>
      <trkpt lat="48.44684" lon="-2.90406">
        <ele>264</ele>
        <time>2014-02-16T14:06:27.1Z</time>
      </trkpt>
      <trkpt lat="48.44686" lon="-2.90407">
        <ele>264</ele>
        <time>2014-02-16T14:06:29.1Z</time>
      </trkpt>
      <trkpt lat="48.44689" lon="-2.9041">
        <ele>263</ele>
        <time>2014-02-16T14:06:32.1Z</time>
      </trkpt>
      <trkpt lat="48.4469" lon="-2.90412">
        <ele>263</ele>
        <time>2014-02-16T14:06:34.1Z</time>
      </trkpt>
      <trkpt lat="48.44692" lon="-2.90414">
        <ele>263</ele>
        <time>2014-02-16T14:06:36.1Z</time>
      </trkpt>
      <trkpt lat="48.44695" lon="-2.90417">
        <ele>263</ele>
        <time>2014-02-16T14:06:39.1Z</time>
      </trkpt>
      <trkpt lat="48.44698" lon="-2.9042">
        <ele>263</ele>
        <time>2014-02-16T14:06:42.1Z</time>
      </trkpt>
      <trkpt lat="48.44699" lon="-2.90422">
        <ele>263</ele>
        <time>2014-02-16T14:06:44.1Z</time>
      </trkpt>
      <trkpt lat="48.44702" lon="-2.90424">
        <ele>263</ele>
        <time>2014-02-16T14:06:47.1Z</time>
      </trkpt>
      <trkpt lat="48.44705" lon="-2.90428">
        <ele>263</ele>
        <time>2014-02-16T14:06:50.1Z</time>
      </trkpt>
      <trkpt lat="48.44708" lon="-2.90431">
        <ele>263</ele>
        <time>2014-02-16T14:06:53.1Z</time>
      </trkpt>
      <trkpt lat="48.4471" lon="-2.90433">
        <ele>263</ele>
        <time>2014-02-16T14:06:55.1Z</time>
      </trkpt>
      <trkpt lat="48.44713" lon="-2.90437">
        <ele>262</ele>
        <time>2014-02-16T14:06:58.1Z</time>
      </trkpt>
      <trkpt lat="48.44714" lon="-2.90439">
        <ele>262</ele>
        <time>2014-02-16T14:07:00.1Z</time>
      </trkpt>
      <trkpt lat="48.44717" lon="-2.90443">
        <ele>263</ele>
        <time>2014-02-16T14:07:03.1Z</time>
      </trkpt>
      <trkpt lat="48.44719" lon="-2.90447">
        <ele>263</ele>
        <time>2014-02-16T14:07:06.1Z</time>
      </trkpt>
      <trkpt lat="48.4472" lon="-2.9045">
        <ele>263</ele>
        <time>2014-02-16T14:07:09.1Z</time>
      </trkpt>
      <trkpt lat="48.44721" lon="-2.90453">
        <ele>263</ele>
        <time>2014-02-16T14:07:12.1Z</time>
      </trkpt>
      <trkpt lat="48.44722" lon="-2.90457">
        <ele>263</ele>
        <time>2014-02-16T14:07:15.1Z</time>
      </trkpt>
      <trkpt lat="48.44721" lon="-2.9046">
        <ele>263</ele>
        <time>2014-02-16T14:07:17.1Z</time>
      </trkpt>
      <trkpt lat="48.4472" lon="-2.90463">
        <ele>262</ele>
        <time>2014-02-16T14:07:19.1Z</time>
      </trkpt>
      <trkpt lat="48.44719" lon="-2.90466">
        <ele>262</ele>
        <time>2014-02-16T14:07:21.1Z</time>
      </trkpt>
      <trkpt lat="48.44718" lon="-2.9047">
        <ele>262</ele>
        <time>2014-02-16T14:07:24.1Z</time>
      </trkpt>
      <trkpt lat="48.44717" lon="-2.90473">
        <ele>261</ele>
        <time>2014-02-16T14:07:26.1Z</time>
      </trkpt>
      <trkpt lat="48.44715" lon="-2.90477">
        <ele>262</ele>
        <time>2014-02-16T14:07:29.1Z</time>
      </trkpt>
      <trkpt lat="48.44714" lon="-2.90481">
        <ele>262</ele>
        <time>2014-02-16T14:07:32.1Z</time>
      </trkpt>
      <trkpt lat="48.44712" lon="-2.90484">
        <ele>263</ele>
        <time>2014-02-16T14:07:35.1Z</time>
      </trkpt>
      <trkpt lat="48.44711" lon="-2.90487">
        <ele>263</ele>
        <time>2014-02-16T14:07:37.1Z</time>
      </trkpt>
      <trkpt lat="48.44709" lon="-2.90491">
        <ele>263</ele>
        <time>2014-02-16T14:07:40.1Z</time>
      </trkpt>
      <trkpt lat="48.44707" lon="-2.90494">
        <ele>263</ele>
        <time>2014-02-16T14:07:43.1Z</time>
      </trkpt>
      <trkpt lat="48.44705" lon="-2.90498">
        <ele>263</ele>
        <time>2014-02-16T14:07:46.1Z</time>
      </trkpt>
      <trkpt lat="48.44703" lon="-2.90502">
        <ele>262</ele>
        <time>2014-02-16T14:07:49.1Z</time>
      </trkpt>
      <trkpt lat="48.44702" lon="-2.90505">
        <ele>262</ele>
        <time>2014-02-16T14:07:51.1Z</time>
      </trkpt>
      <trkpt lat="48.44701" lon="-2.90507">
        <ele>262</ele>
        <time>2014-02-16T14:07:53.1Z</time>
      </trkpt>
      <trkpt lat="48.44698" lon="-2.90511">
        <ele>262</ele>
        <time>2014-02-16T14:07:56.1Z</time>
      </trkpt>
      <trkpt lat="48.44697" lon="-2.90514">
        <ele>262</ele>
        <time>2014-02-16T14:07:58.1Z</time>
      </trkpt>
      <trkpt lat="48.44696" lon="-2.90516">
        <ele>263</ele>
        <time>2014-02-16T14:08:00.1Z</time>
      </trkpt>
      <trkpt lat="48.44694" lon="-2.9052">
        <ele>263</ele>
        <time>2014-02-16T14:08:03.1Z</time>
      </trkpt>
      <trkpt lat="48.44692" lon="-2.90523">
        <ele>263</ele>
        <time>2014-02-16T14:08:05.1Z</time>
      </trkpt>
      <trkpt lat="48.4469" lon="-2.90526">
        <ele>263</ele>
        <time>2014-02-16T14:08:08.1Z</time>
      </trkpt>
      <trkpt lat="48.44689" lon="-2.90529">
        <ele>263</ele>
        <time>2014-02-16T14:08:10.1Z</time>
      </trkpt>
      <trkpt lat="48.44687" lon="-2.90531">
        <ele>263</ele>
        <time>2014-02-16T14:08:12.1Z</time>
      </trkpt>
      <trkpt lat="48.44685" lon="-2.90535">
        <ele>263</ele>
        <time>2014-02-16T14:08:15.1Z</time>
      </trkpt>
      <trkpt lat="48.44683" lon="-2.90539">
        <ele>262</ele>
        <time>2014-02-16T14:08:18.1Z</time>
      </trkpt>
      <trkpt lat="48.44682" lon="-2.90542">
        <ele>262</ele>
        <time>2014-02-16T14:08:20.1Z</time>
      </trkpt>
      <trkpt lat="48.4468" lon="-2.90546">
        <ele>262</ele>
        <time>2014-02-16T14:08:23.1Z</time>
      </trkpt>
      <trkpt lat="48.44678" lon="-2.9055">
        <ele>262</ele>
        <time>2014-02-16T14:08:26.1Z</time>
      </trkpt>
      <trkpt lat="48.44677" lon="-2.90553">
        <ele>262</ele>
        <time>2014-02-16T14:08:28.1Z</time>
      </trkpt>
      <trkpt lat="48.44675" lon="-2.90557">
        <ele>262</ele>
        <time>2014-02-16T14:08:31.1Z</time>
      </trkpt>
      <trkpt lat="48.44674" lon="-2.9056">
        <ele>262</ele>
        <time>2014-02-16T14:08:33.1Z</time>
      </trkpt>
      <trkpt lat="48.44672" lon="-2.90564">
        <ele>262</ele>
        <time>2014-02-16T14:08:36.1Z</time>
      </trkpt>
      <trkpt lat="48.44671" lon="-2.90567">
        <ele>262</ele>
        <time>2014-02-16T14:08:38.1Z</time>
      </trkpt>
      <trkpt lat="48.44669" lon="-2.90572">
        <ele>262</ele>
        <time>2014-02-16T14:08:41.1Z</time>
      </trkpt>
      <trkpt lat="48.44668" lon="-2.90575">
        <ele>263</ele>
        <time>2014-02-16T14:08:43.1Z</time>
      </trkpt>
      <trkpt lat="48.44667" lon="-2.90578">
        <ele>263</ele>
        <time>2014-02-16T14:08:45.1Z</time>
      </trkpt>
      <trkpt lat="48.44666" lon="-2.90581">
        <ele>262</ele>
        <time>2014-02-16T14:08:47.1Z</time>
      </trkpt>
      <trkpt lat="48.44665" lon="-2.90586">
        <ele>263</ele>
        <time>2014-02-16T14:08:50.1Z</time>
      </trkpt>
      <trkpt lat="48.44664" lon="-2.90589">
        <ele>262</ele>
        <time>2014-02-16T14:08:52.1Z</time>
      </trkpt>
      <trkpt lat="48.44663" lon="-2.90594">
        <ele>262</ele>
        <time>2014-02-16T14:08:55.1Z</time>
      </trkpt>
      <trkpt lat="48.44662" lon="-2.90597">
        <ele>262</ele>
        <time>2014-02-16T14:08:57.1Z</time>
      </trkpt>
      <trkpt lat="48.44661" lon="-2.90602">
        <ele>262</ele>
        <time>2014-02-16T14:09:00.1Z</time>
      </trkpt>
      <trkpt lat="48.44659" lon="-2.90607">
        <ele>262</ele>
        <time>2014-02-16T14:09:03.1Z</time>
      </trkpt>
      <trkpt lat="48.44658" lon="-2.90611">
        <ele>263</ele>
        <time>2014-02-16T14:09:06.1Z</time>
      </trkpt>
      <trkpt lat="48.44656" lon="-2.90616">
        <ele>263</ele>
        <time>2014-02-16T14:09:09.1Z</time>
      </trkpt>
      <trkpt lat="48.44656" lon="-2.90619">
        <ele>263</ele>
        <time>2014-02-16T14:09:11.1Z</time>
      </trkpt>
      <trkpt lat="48.44655" lon="-2.90623">
        <ele>264</ele>
        <time>2014-02-16T14:09:13.1Z</time>
      </trkpt>
      <trkpt lat="48.44653" lon="-2.90627">
        <ele>264</ele>
        <time>2014-02-16T14:09:16.1Z</time>
      </trkpt>
      <trkpt lat="48.44653" lon="-2.90631">
        <ele>263</ele>
        <time>2014-02-16T14:09:18.1Z</time>
      </trkpt>
      <trkpt lat="48.44651" lon="-2.90636">
        <ele>264</ele>
        <time>2014-02-16T14:09:21.1Z</time>
      </trkpt>
      <trkpt lat="48.4465" lon="-2.9064">
        <ele>264</ele>
        <time>2014-02-16T14:09:24.1Z</time>
      </trkpt>
      <trkpt lat="48.44649" lon="-2.90643">
        <ele>264</ele>
        <time>2014-02-16T14:09:26.1Z</time>
      </trkpt>
      <trkpt lat="48.44648" lon="-2.90647">
        <ele>263</ele>
        <time>2014-02-16T14:09:28.1Z</time>
      </trkpt>
      <trkpt lat="48.44646" lon="-2.90651">
        <ele>263</ele>
        <time>2014-02-16T14:09:31.1Z</time>
      </trkpt>
      <trkpt lat="48.44644" lon="-2.90656">
        <ele>263</ele>
        <time>2014-02-16T14:09:34.1Z</time>
      </trkpt>
      <trkpt lat="48.44642" lon="-2.9066">
        <ele>263</ele>
        <time>2014-02-16T14:09:37.1Z</time>
      </trkpt>
      <trkpt lat="48.44641" lon="-2.90663">
        <ele>263</ele>
        <time>2014-02-16T14:09:39.1Z</time>
      </trkpt>
      <trkpt lat="48.4464" lon="-2.90667">
        <ele>263</ele>
        <time>2014-02-16T14:09:42.1Z</time>
      </trkpt>
      <trkpt lat="48.44639" lon="-2.90672">
        <ele>263</ele>
        <time>2014-02-16T14:09:45.1Z</time>
      </trkpt>
      <trkpt lat="48.44638" lon="-2.90674">
        <ele>263</ele>
        <time>2014-02-16T14:09:47.1Z</time>
      </trkpt>
      <trkpt lat="48.44637" lon="-2.90677">
        <ele>263</ele>
        <time>2014-02-16T14:09:49.1Z</time>
      </trkpt>
      <trkpt lat="48.44635" lon="-2.90682">
        <ele>263</ele>
        <time>2014-02-16T14:09:52.1Z</time>
      </trkpt>
      <trkpt lat="48.44634" lon="-2.90684">
        <ele>263</ele>
        <time>2014-02-16T14:09:54.1Z</time>
      </trkpt>
      <trkpt lat="48.44633" lon="-2.90687">
        <ele>263</ele>
        <time>2014-02-16T14:09:56.1Z</time>
      </trkpt>
      <trkpt lat="48.44632" lon="-2.90691">
        <ele>263</ele>
        <time>2014-02-16T14:09:59.1Z</time>
      </trkpt>
      <trkpt lat="48.44631" lon="-2.90694">
        <ele>263</ele>
        <time>2014-02-16T14:10:01.1Z</time>
      </trkpt>
      <trkpt lat="48.44629" lon="-2.90698">
        <ele>263</ele>
        <time>2014-02-16T14:10:04.1Z</time>
      </trkpt>
      <trkpt lat="48.44627" lon="-2.90703">
        <ele>263</ele>
        <time>2014-02-16T14:10:07.1Z</time>
      </trkpt>
      <trkpt lat="48.44626" lon="-2.90707">
        <ele>263</ele>
        <time>2014-02-16T14:10:10.1Z</time>
      </trkpt>
      <trkpt lat="48.44624" lon="-2.90711">
        <ele>263</ele>
        <time>2014-02-16T14:10:13.1Z</time>
      </trkpt>
      <trkpt lat="48.44622" lon="-2.90716">
        <ele>263</ele>
        <time>2014-02-16T14:10:16.1Z</time>
      </trkpt>
      <trkpt lat="48.44621" lon="-2.90719">
        <ele>263</ele>
        <time>2014-02-16T14:10:18.1Z</time>
      </trkpt>
      <trkpt lat="48.44619" lon="-2.90723">
        <ele>263</ele>
        <time>2014-02-16T14:10:21.1Z</time>
      </trkpt>
      <trkpt lat="48.44618" lon="-2.90726">
        <ele>264</ele>
        <time>2014-02-16T14:10:23.1Z</time>
      </trkpt>
      <trkpt lat="48.44616" lon="-2.90731">
        <ele>264</ele>
        <time>2014-02-16T14:10:26.1Z</time>
      </trkpt>
      <trkpt lat="48.44615" lon="-2.90734">
        <ele>264</ele>
        <time>2014-02-16T14:10:28.1Z</time>
      </trkpt>
      <trkpt lat="48.44614" lon="-2.90738">
        <ele>263</ele>
        <time>2014-02-16T14:10:31.1Z</time>
      </trkpt>
      <trkpt lat="48.44612" lon="-2.9074">
        <ele>263</ele>
        <time>2014-02-16T14:10:33.1Z</time>
      </trkpt>
      <trkpt lat="48.44611" lon="-2.90745">
        <ele>264</ele>
        <time>2014-02-16T14:10:36.1Z</time>
      </trkpt>
      <trkpt lat="48.44609" lon="-2.90747">
        <ele>264</ele>
        <time>2014-02-16T14:10:38.1Z</time>
      </trkpt>
      <trkpt lat="48.44608" lon="-2.90752">
        <ele>264</ele>
        <time>2014-02-16T14:10:41.1Z</time>
      </trkpt>
      <trkpt lat="48.44605" lon="-2.90756">
        <ele>263</ele>
        <time>2014-02-16T14:10:44.1Z</time>
      </trkpt>
      <trkpt lat="48.44603" lon="-2.9076">
        <ele>264</ele>
        <time>2014-02-16T14:10:47.1Z</time>
      </trkpt>
      <trkpt lat="48.44602" lon="-2.90763">
        <ele>264</ele>
        <time>2014-02-16T14:10:49.1Z</time>
      </trkpt>
      <trkpt lat="48.446" lon="-2.90766">
        <ele>264</ele>
        <time>2014-02-16T14:10:51.1Z</time>
      </trkpt>
      <trkpt lat="48.44599" lon="-2.90769">
        <ele>263</ele>
        <time>2014-02-16T14:10:53.1Z</time>
      </trkpt>
      <trkpt lat="48.44597" lon="-2.90773">
        <ele>264</ele>
        <time>2014-02-16T14:10:56.1Z</time>
      </trkpt>
      <trkpt lat="48.44595" lon="-2.90776">
        <ele>264</ele>
        <time>2014-02-16T14:10:59.1Z</time>
      </trkpt>
      <trkpt lat="48.44593" lon="-2.90779">
        <ele>264</ele>
        <time>2014-02-16T14:11:01.1Z</time>
      </trkpt>
      <trkpt lat="48.44592" lon="-2.90784">
        <ele>264</ele>
        <time>2014-02-16T14:11:04.1Z</time>
      </trkpt>
      <trkpt lat="48.4459" lon="-2.90786">
        <ele>264</ele>
        <time>2014-02-16T14:11:06.1Z</time>
      </trkpt>
      <trkpt lat="48.44588" lon="-2.9079">
        <ele>264</ele>
        <time>2014-02-16T14:11:09.1Z</time>
      </trkpt>
      <trkpt lat="48.44587" lon="-2.90793">
        <ele>263</ele>
        <time>2014-02-16T14:11:11.1Z</time>
      </trkpt>
      <trkpt lat="48.44585" lon="-2.90796">
        <ele>263</ele>
        <time>2014-02-16T14:11:13.1Z</time>
      </trkpt>
      <trkpt lat="48.44583" lon="-2.908">
        <ele>263</ele>
        <time>2014-02-16T14:11:16.1Z</time>
      </trkpt>
      <trkpt lat="48.44581" lon="-2.90805">
        <ele>263</ele>
        <time>2014-02-16T14:11:19.1Z</time>
      </trkpt>
      <trkpt lat="48.44579" lon="-2.90808">
        <ele>263</ele>
        <time>2014-02-16T14:11:21.1Z</time>
      </trkpt>
      <trkpt lat="48.44577" lon="-2.90812">
        <ele>263</ele>
        <time>2014-02-16T14:11:24.1Z</time>
      </trkpt>
      <trkpt lat="48.44575" lon="-2.90816">
        <ele>263</ele>
        <time>2014-02-16T14:11:27.1Z</time>
      </trkpt>
      <trkpt lat="48.44572" lon="-2.9082">
        <ele>263</ele>
        <time>2014-02-16T14:11:30.1Z</time>
      </trkpt>
      <trkpt lat="48.4457" lon="-2.90825">
        <ele>263</ele>
        <time>2014-02-16T14:11:33.1Z</time>
      </trkpt>
      <trkpt lat="48.44568" lon="-2.90829">
        <ele>263</ele>
        <time>2014-02-16T14:11:36.1Z</time>
      </trkpt>
      <trkpt lat="48.44566" lon="-2.90831">
        <ele>262</ele>
        <time>2014-02-16T14:11:38.1Z</time>
      </trkpt>
      <trkpt lat="48.44564" lon="-2.90836">
        <ele>262</ele>
        <time>2014-02-16T14:11:41.1Z</time>
      </trkpt>
      <trkpt lat="48.44563" lon="-2.90839">
        <ele>263</ele>
        <time>2014-02-16T14:11:43.1Z</time>
      </trkpt>
      <trkpt lat="48.4456" lon="-2.90844">
        <ele>263</ele>
        <time>2014-02-16T14:11:46.1Z</time>
      </trkpt>
      <trkpt lat="48.44558" lon="-2.90848">
        <ele>263</ele>
        <time>2014-02-16T14:11:49.1Z</time>
      </trkpt>
      <trkpt lat="48.44556" lon="-2.90851">
        <ele>263</ele>
        <time>2014-02-16T14:11:51.1Z</time>
      </trkpt>
      <trkpt lat="48.44554" lon="-2.90855">
        <ele>262</ele>
        <time>2014-02-16T14:11:54.1Z</time>
      </trkpt>
      <trkpt lat="48.44552" lon="-2.90859">
        <ele>262</ele>
        <time>2014-02-16T14:11:57.1Z</time>
      </trkpt>
      <trkpt lat="48.44551" lon="-2.90862">
        <ele>262</ele>
        <time>2014-02-16T14:11:59.1Z</time>
      </trkpt>
      <trkpt lat="48.4455" lon="-2.90866">
        <ele>262</ele>
        <time>2014-02-16T14:12:02.1Z</time>
      </trkpt>
      <trkpt lat="48.44548" lon="-2.90868">
        <ele>262</ele>
        <time>2014-02-16T14:12:04.1Z</time>
      </trkpt>
      <trkpt lat="48.44547" lon="-2.90872">
        <ele>262</ele>
        <time>2014-02-16T14:12:07.1Z</time>
      </trkpt>
      <trkpt lat="48.44545" lon="-2.90875">
        <ele>262</ele>
        <time>2014-02-16T14:12:10.1Z</time>
      </trkpt>
      <trkpt lat="48.44543" lon="-2.90879">
        <ele>263</ele>
        <time>2014-02-16T14:12:13.1Z</time>
      </trkpt>
      <trkpt lat="48.44542" lon="-2.90882">
        <ele>262</ele>
        <time>2014-02-16T14:12:15.1Z</time>
      </trkpt>
      <trkpt lat="48.4454" lon="-2.90885">
        <ele>262</ele>
        <time>2014-02-16T14:12:18.1Z</time>
      </trkpt>
      <trkpt lat="48.44539" lon="-2.90888">
        <ele>262</ele>
        <time>2014-02-16T14:12:20.1Z</time>
      </trkpt>
      <trkpt lat="48.44537" lon="-2.90891">
        <ele>263</ele>
        <time>2014-02-16T14:12:22.1Z</time>
      </trkpt>
      <trkpt lat="48.44535" lon="-2.90894">
        <ele>263</ele>
        <time>2014-02-16T14:12:25.1Z</time>
      </trkpt>
      <trkpt lat="48.44533" lon="-2.90898">
        <ele>263</ele>
        <time>2014-02-16T14:12:28.1Z</time>
      </trkpt>
      <trkpt lat="48.44531" lon="-2.90902">
        <ele>263</ele>
        <time>2014-02-16T14:12:31.1Z</time>
      </trkpt>
      <trkpt lat="48.4453" lon="-2.90904">
        <ele>263</ele>
        <time>2014-02-16T14:12:33.1Z</time>
      </trkpt>
      <trkpt lat="48.44529" lon="-2.90908">
        <ele>263</ele>
        <time>2014-02-16T14:12:35.1Z</time>
      </trkpt>
      <trkpt lat="48.44527" lon="-2.90911">
        <ele>263</ele>
        <time>2014-02-16T14:12:38.1Z</time>
      </trkpt>
      <trkpt lat="48.44526" lon="-2.90914">
        <ele>263</ele>
        <time>2014-02-16T14:12:40.1Z</time>
      </trkpt>
      <trkpt lat="48.44525" lon="-2.90918">
        <ele>262</ele>
        <time>2014-02-16T14:12:43.1Z</time>
      </trkpt>
      <trkpt lat="48.44523" lon="-2.90922">
        <ele>262</ele>
        <time>2014-02-16T14:12:46.1Z</time>
      </trkpt>
      <trkpt lat="48.44522" lon="-2.90926">
        <ele>262</ele>
        <time>2014-02-16T14:12:48.1Z</time>
      </trkpt>
      <trkpt lat="48.44521" lon="-2.90929">
        <ele>262</ele>
        <time>2014-02-16T14:12:50.1Z</time>
      </trkpt>
      <trkpt lat="48.4452" lon="-2.90933">
        <ele>262</ele>
        <time>2014-02-16T14:12:53.1Z</time>
      </trkpt>
      <trkpt lat="48.44519" lon="-2.90936">
        <ele>263</ele>
        <time>2014-02-16T14:12:55.1Z</time>
      </trkpt>
      <trkpt lat="48.44518" lon="-2.90938">
        <ele>263</ele>
        <time>2014-02-16T14:12:57.1Z</time>
      </trkpt>
      <trkpt lat="48.44517" lon="-2.90942">
        <ele>263</ele>
        <time>2014-02-16T14:12:59.1Z</time>
      </trkpt>
      <trkpt lat="48.44515" lon="-2.90947">
        <ele>263</ele>
        <time>2014-02-16T14:13:02.1Z</time>
      </trkpt>
      <trkpt lat="48.44513" lon="-2.90951">
        <ele>263</ele>
        <time>2014-02-16T14:13:05.1Z</time>
      </trkpt>
      <trkpt lat="48.44511" lon="-2.90957">
        <ele>263</ele>
        <time>2014-02-16T14:13:08.1Z</time>
      </trkpt>
      <trkpt lat="48.4451" lon="-2.90963">
        <ele>263</ele>
        <time>2014-02-16T14:13:11.1Z</time>
      </trkpt>
      <trkpt lat="48.44509" lon="-2.90968">
        <ele>264</ele>
        <time>2014-02-16T14:13:14.1Z</time>
      </trkpt>
      <trkpt lat="48.44508" lon="-2.90971">
        <ele>264</ele>
        <time>2014-02-16T14:13:16.1Z</time>
      </trkpt>
      <trkpt lat="48.44507" lon="-2.90974">
        <ele>264</ele>
        <time>2014-02-16T14:13:18.1Z</time>
      </trkpt>
      <trkpt lat="48.44507" lon="-2.9098">
        <ele>264</ele>
        <time>2014-02-16T14:13:21.1Z</time>
      </trkpt>
      <trkpt lat="48.44507" lon="-2.90985">
        <ele>264</ele>
        <time>2014-02-16T14:13:24.1Z</time>
      </trkpt>
      <trkpt lat="48.44507" lon="-2.9099">
        <ele>264</ele>
        <time>2014-02-16T14:13:27.1Z</time>
      </trkpt>
      <trkpt lat="48.44507" lon="-2.90994">
        <ele>263</ele>
        <time>2014-02-16T14:13:29.1Z</time>
      </trkpt>
      <trkpt lat="48.44507" lon="-2.91">
        <ele>264</ele>
        <time>2014-02-16T14:13:32.1Z</time>
      </trkpt>
      <trkpt lat="48.44507" lon="-2.91005">
        <ele>264</ele>
        <time>2014-02-16T14:13:35.1Z</time>
      </trkpt>
      <trkpt lat="48.44507" lon="-2.91009">
        <ele>263</ele>
        <time>2014-02-16T14:13:37.1Z</time>
      </trkpt>
      <trkpt lat="48.44507" lon="-2.91015">
        <ele>264</ele>
        <time>2014-02-16T14:13:40.1Z</time>
      </trkpt>
      <trkpt lat="48.44506" lon="-2.9102">
        <ele>264</ele>
        <time>2014-02-16T14:13:43.1Z</time>
      </trkpt>
      <trkpt lat="48.44507" lon="-2.91024">
        <ele>264</ele>
        <time>2014-02-16T14:13:45.1Z</time>
      </trkpt>
      <trkpt lat="48.44507" lon="-2.91028">
        <ele>265</ele>
        <time>2014-02-16T14:13:47.1Z</time>
      </trkpt>
      <trkpt lat="48.44506" lon="-2.91031">
        <ele>265</ele>
        <time>2014-02-16T14:13:49.1Z</time>
      </trkpt>
      <trkpt lat="48.44506" lon="-2.91036">
        <ele>264</ele>
        <time>2014-02-16T14:13:52.1Z</time>
      </trkpt>
      <trkpt lat="48.44506" lon="-2.91041">
        <ele>264</ele>
        <time>2014-02-16T14:13:55.1Z</time>
      </trkpt>
      <trkpt lat="48.44506" lon="-2.91044">
        <ele>264</ele>
        <time>2014-02-16T14:13:57.1Z</time>
      </trkpt>
      <trkpt lat="48.44505" lon="-2.9105">
        <ele>265</ele>
        <time>2014-02-16T14:14:00.1Z</time>
      </trkpt>
      <trkpt lat="48.44505" lon="-2.91054">
        <ele>265</ele>
        <time>2014-02-16T14:14:02.1Z</time>
      </trkpt>
      <trkpt lat="48.44505" lon="-2.91059">
        <ele>266</ele>
        <time>2014-02-16T14:14:05.1Z</time>
      </trkpt>
      <trkpt lat="48.44505" lon="-2.91063">
        <ele>265</ele>
        <time>2014-02-16T14:14:07.1Z</time>
      </trkpt>
      <trkpt lat="48.44505" lon="-2.91068">
        <ele>266</ele>
        <time>2014-02-16T14:14:10.1Z</time>
      </trkpt>
      <trkpt lat="48.44505" lon="-2.91072">
        <ele>266</ele>
        <time>2014-02-16T14:14:12.1Z</time>
      </trkpt>
      <trkpt lat="48.44505" lon="-2.91077">
        <ele>266</ele>
        <time>2014-02-16T14:14:15.1Z</time>
      </trkpt>
      <trkpt lat="48.44505" lon="-2.9108">
        <ele>267</ele>
        <time>2014-02-16T14:14:17.1Z</time>
      </trkpt>
      <trkpt lat="48.44504" lon="-2.91085">
        <ele>267</ele>
        <time>2014-02-16T14:14:20.1Z</time>
      </trkpt>
      <trkpt lat="48.44504" lon="-2.91089">
        <ele>267</ele>
        <time>2014-02-16T14:14:23.1Z</time>
      </trkpt>
      <trkpt lat="48.44504" lon="-2.91091">
        <ele>267</ele>
        <time>2014-02-16T14:14:26.1Z</time>
      </trkpt>
      <trkpt lat="48.44503" lon="-2.91094">
        <ele>267</ele>
        <time>2014-02-16T14:14:29.1Z</time>
      </trkpt>
      <trkpt lat="48.44503" lon="-2.91098">
        <ele>267</ele>
        <time>2014-02-16T14:14:32.1Z</time>
      </trkpt>
      <trkpt lat="48.44502" lon="-2.91101">
        <ele>267</ele>
        <time>2014-02-16T14:14:34.1Z</time>
      </trkpt>
      <trkpt lat="48.44501" lon="-2.91104">
        <ele>267</ele>
        <time>2014-02-16T14:14:36.1Z</time>
      </trkpt>
      <trkpt lat="48.44499" lon="-2.91108">
        <ele>267</ele>
        <time>2014-02-16T14:14:39.1Z</time>
      </trkpt>
      <trkpt lat="48.44498" lon="-2.9111">
        <ele>267</ele>
        <time>2014-02-16T14:14:41.1Z</time>
      </trkpt>
      <trkpt lat="48.44497" lon="-2.91113">
        <ele>267</ele>
        <time>2014-02-16T14:14:44.1Z</time>
      </trkpt>
      <trkpt lat="48.44496" lon="-2.91116">
        <ele>267</ele>
        <time>2014-02-16T14:14:47.1Z</time>
      </trkpt>
      <trkpt lat="48.44495" lon="-2.91118">
        <ele>267</ele>
        <time>2014-02-16T14:14:50.1Z</time>
      </trkpt>
      <trkpt lat="48.44494" lon="-2.91121">
        <ele>267</ele>
        <time>2014-02-16T14:14:53.1Z</time>
      </trkpt>
      <trkpt lat="48.44493" lon="-2.91125">
        <ele>268</ele>
        <time>2014-02-16T14:14:56.1Z</time>
      </trkpt>
      <trkpt lat="48.44492" lon="-2.91128">
        <ele>268</ele>
        <time>2014-02-16T14:14:58.1Z</time>
      </trkpt>
      <trkpt lat="48.44492" lon="-2.91133">
        <ele>268</ele>
        <time>2014-02-16T14:15:01.1Z</time>
      </trkpt>
      <trkpt lat="48.44491" lon="-2.91137">
        <ele>268</ele>
        <time>2014-02-16T14:15:04.1Z</time>
      </trkpt>
      <trkpt lat="48.4449" lon="-2.91142">
        <ele>268</ele>
        <time>2014-02-16T14:15:07.1Z</time>
      </trkpt>
      <trkpt lat="48.4449" lon="-2.91145">
        <ele>268</ele>
        <time>2014-02-16T14:15:09.1Z</time>
      </trkpt>
      <trkpt lat="48.4449" lon="-2.91148">
        <ele>268</ele>
        <time>2014-02-16T14:15:11.1Z</time>
      </trkpt>
      <trkpt lat="48.44489" lon="-2.91151">
        <ele>268</ele>
        <time>2014-02-16T14:15:13.1Z</time>
      </trkpt>
      <trkpt lat="48.44489" lon="-2.91156">
        <ele>268</ele>
        <time>2014-02-16T14:15:16.1Z</time>
      </trkpt>
      <trkpt lat="48.44488" lon="-2.9116">
        <ele>268</ele>
        <time>2014-02-16T14:15:18.1Z</time>
      </trkpt>
      <trkpt lat="48.44488" lon="-2.91163">
        <ele>268</ele>
        <time>2014-02-16T14:15:20.1Z</time>
      </trkpt>
      <trkpt lat="48.44487" lon="-2.91168">
        <ele>268</ele>
        <time>2014-02-16T14:15:23.1Z</time>
      </trkpt>
      <trkpt lat="48.44486" lon="-2.91172">
        <ele>269</ele>
        <time>2014-02-16T14:15:25.1Z</time>
      </trkpt>
      <trkpt lat="48.44486" lon="-2.91175">
        <ele>269</ele>
        <time>2014-02-16T14:15:27.1Z</time>
      </trkpt>
      <trkpt lat="48.44485" lon="-2.9118">
        <ele>270</ele>
        <time>2014-02-16T14:15:30.1Z</time>
      </trkpt>
      <trkpt lat="48.44484" lon="-2.91186">
        <ele>269</ele>
        <time>2014-02-16T14:15:33.1Z</time>
      </trkpt>
      <trkpt lat="48.44484" lon="-2.91192">
        <ele>269</ele>
        <time>2014-02-16T14:15:36.1Z</time>
      </trkpt>
      <trkpt lat="48.44483" lon="-2.91196">
        <ele>269</ele>
        <time>2014-02-16T14:15:39.1Z</time>
      </trkpt>
      <trkpt lat="48.44482" lon="-2.912">
        <ele>270</ele>
        <time>2014-02-16T14:15:41.1Z</time>
      </trkpt>
      <trkpt lat="48.44482" lon="-2.91206">
        <ele>270</ele>
        <time>2014-02-16T14:15:44.1Z</time>
      </trkpt>
      <trkpt lat="48.44482" lon="-2.91209">
        <ele>270</ele>
        <time>2014-02-16T14:15:46.1Z</time>
      </trkpt>
      <trkpt lat="48.4448" lon="-2.91214">
        <ele>270</ele>
        <time>2014-02-16T14:15:49.1Z</time>
      </trkpt>
      <trkpt lat="48.4448" lon="-2.91217">
        <ele>270</ele>
        <time>2014-02-16T14:15:51.1Z</time>
      </trkpt>
      <trkpt lat="48.44479" lon="-2.91222">
        <ele>270</ele>
        <time>2014-02-16T14:15:54.1Z</time>
      </trkpt>
      <trkpt lat="48.44477" lon="-2.91226">
        <ele>270</ele>
        <time>2014-02-16T14:15:57.1Z</time>
      </trkpt>
      <trkpt lat="48.44477" lon="-2.91231">
        <ele>270</ele>
        <time>2014-02-16T14:16:00.1Z</time>
      </trkpt>
      <trkpt lat="48.44476" lon="-2.91236">
        <ele>270</ele>
        <time>2014-02-16T14:16:03.1Z</time>
      </trkpt>
      <trkpt lat="48.44474" lon="-2.91239">
        <ele>270</ele>
        <time>2014-02-16T14:16:05.1Z</time>
      </trkpt>
      <trkpt lat="48.44474" lon="-2.91243">
        <ele>270</ele>
        <time>2014-02-16T14:16:08.1Z</time>
      </trkpt>
      <trkpt lat="48.44473" lon="-2.91246">
        <ele>270</ele>
        <time>2014-02-16T14:16:10.1Z</time>
      </trkpt>
      <trkpt lat="48.44472" lon="-2.91249">
        <ele>271</ele>
        <time>2014-02-16T14:16:12.1Z</time>
      </trkpt>
      <trkpt lat="48.44471" lon="-2.91254">
        <ele>270</ele>
        <time>2014-02-16T14:16:15.1Z</time>
      </trkpt>
      <trkpt lat="48.4447" lon="-2.91257">
        <ele>270</ele>
        <time>2014-02-16T14:16:17.1Z</time>
      </trkpt>
      <trkpt lat="48.44468" lon="-2.91261">
        <ele>270</ele>
        <time>2014-02-16T14:16:20.1Z</time>
      </trkpt>
      <trkpt lat="48.44468" lon="-2.91265">
        <ele>270</ele>
        <time>2014-02-16T14:16:23.1Z</time>
      </trkpt>
      <trkpt lat="48.44466" lon="-2.91269">
        <ele>270</ele>
        <time>2014-02-16T14:16:26.1Z</time>
      </trkpt>
      <trkpt lat="48.44465" lon="-2.91273">
        <ele>271</ele>
        <time>2014-02-16T14:16:28.1Z</time>
      </trkpt>
      <trkpt lat="48.44463" lon="-2.91276">
        <ele>271</ele>
        <time>2014-02-16T14:16:31.1Z</time>
      </trkpt>
      <trkpt lat="48.44463" lon="-2.91279">
        <ele>271</ele>
        <time>2014-02-16T14:16:33.1Z</time>
      </trkpt>
      <trkpt lat="48.44462" lon="-2.91281">
        <ele>271</ele>
        <time>2014-02-16T14:16:35.1Z</time>
      </trkpt>
      <trkpt lat="48.4446" lon="-2.91285">
        <ele>271</ele>
        <time>2014-02-16T14:16:38.1Z</time>
      </trkpt>
      <trkpt lat="48.44459" lon="-2.91287">
        <ele>271</ele>
        <time>2014-02-16T14:16:40.1Z</time>
      </trkpt>
      <trkpt lat="48.44458" lon="-2.9129">
        <ele>271</ele>
        <time>2014-02-16T14:16:42.1Z</time>
      </trkpt>
      <trkpt lat="48.44456" lon="-2.91293">
        <ele>271</ele>
        <time>2014-02-16T14:16:44.1Z</time>
      </trkpt>
      <trkpt lat="48.44455" lon="-2.91296">
        <ele>271</ele>
        <time>2014-02-16T14:16:47.1Z</time>
      </trkpt>
      <trkpt lat="48.44455" lon="-2.91298">
        <ele>272</ele>
        <time>2014-02-16T14:16:49.1Z</time>
      </trkpt>
      <trkpt lat="48.44454" lon="-2.91302">
        <ele>272</ele>
        <time>2014-02-16T14:16:52.1Z</time>
      </trkpt>
      <trkpt lat="48.44453" lon="-2.91305">
        <ele>272</ele>
        <time>2014-02-16T14:16:54.1Z</time>
      </trkpt>
      <trkpt lat="48.44451" lon="-2.91309">
        <ele>272</ele>
        <time>2014-02-16T14:16:57.1Z</time>
      </trkpt>
      <trkpt lat="48.4445" lon="-2.91312">
        <ele>272</ele>
        <time>2014-02-16T14:16:59.1Z</time>
      </trkpt>
      <trkpt lat="48.44449" lon="-2.91315">
        <ele>272</ele>
        <time>2014-02-16T14:17:01.1Z</time>
      </trkpt>
      <trkpt lat="48.44447" lon="-2.91318">
        <ele>272</ele>
        <time>2014-02-16T14:17:03.1Z</time>
      </trkpt>
      <trkpt lat="48.44445" lon="-2.91321">
        <ele>272</ele>
        <time>2014-02-16T14:17:06.1Z</time>
      </trkpt>
      <trkpt lat="48.44444" lon="-2.91326">
        <ele>272</ele>
        <time>2014-02-16T14:17:09.1Z</time>
      </trkpt>
      <trkpt lat="48.44442" lon="-2.91329">
        <ele>272</ele>
        <time>2014-02-16T14:17:11.1Z</time>
      </trkpt>
      <trkpt lat="48.44439" lon="-2.91333">
        <ele>272</ele>
        <time>2014-02-16T14:17:14.1Z</time>
      </trkpt>
      <trkpt lat="48.44438" lon="-2.91336">
        <ele>272</ele>
        <time>2014-02-16T14:17:16.1Z</time>
      </trkpt>
      <trkpt lat="48.44437" lon="-2.9134">
        <ele>272</ele>
        <time>2014-02-16T14:17:19.1Z</time>
      </trkpt>
      <trkpt lat="48.44433" lon="-2.91346">
        <ele>272</ele>
        <time>2014-02-16T14:17:22.1Z</time>
      </trkpt>
      <trkpt lat="48.44432" lon="-2.91348">
        <ele>272</ele>
        <time>2014-02-16T14:17:24.1Z</time>
      </trkpt>
      <trkpt lat="48.4443" lon="-2.91353">
        <ele>271</ele>
        <time>2014-02-16T14:17:27.1Z</time>
      </trkpt>
      <trkpt lat="48.44427" lon="-2.91357">
        <ele>272</ele>
        <time>2014-02-16T14:17:30.1Z</time>
      </trkpt>
      <trkpt lat="48.44425" lon="-2.9136">
        <ele>271</ele>
        <time>2014-02-16T14:17:32.1Z</time>
      </trkpt>
      <trkpt lat="48.44423" lon="-2.91363">
        <ele>272</ele>
        <time>2014-02-16T14:17:35.1Z</time>
      </trkpt>
      <trkpt lat="48.44422" lon="-2.91367">
        <ele>272</ele>
        <time>2014-02-16T14:17:38.1Z</time>
      </trkpt>
      <trkpt lat="48.44421" lon="-2.91369">
        <ele>272</ele>
        <time>2014-02-16T14:17:41.1Z</time>
      </trkpt>
      <trkpt lat="48.44421" lon="-2.91369">
        <ele>272</ele>
        <time>2014-02-16T14:17:44.1Z</time>
      </trkpt>
      <trkpt lat="48.44421" lon="-2.91369">
        <ele>271</ele>
        <time>2014-02-16T14:17:46.1Z</time>
      </trkpt>
      <trkpt lat="48.44421" lon="-2.91369">
        <ele>272</ele>
        <time>2014-02-16T14:17:49.1Z</time>
      </trkpt>
      <trkpt lat="48.44421" lon="-2.91369">
        <ele>271</ele>
        <time>2014-02-16T14:17:53.1Z</time>
      </trkpt>
      <trkpt lat="48.44421" lon="-2.91368">
        <ele>271</ele>
        <time>2014-02-16T14:17:56.1Z</time>
      </trkpt>
      <trkpt lat="48.44421" lon="-2.91368">
        <ele>271</ele>
        <time>2014-02-16T14:17:58.1Z</time>
      </trkpt>
      <trkpt lat="48.44421" lon="-2.91369">
        <ele>271</ele>
        <time>2014-02-16T14:18:02.1Z</time>
      </trkpt>
      <trkpt lat="48.44421" lon="-2.91368">
        <ele>271</ele>
        <time>2014-02-16T14:18:06.1Z</time>
      </trkpt>
      <trkpt lat="48.44421" lon="-2.91369">
        <ele>271</ele>
        <time>2014-02-16T14:18:10.1Z</time>
      </trkpt>
      <trkpt lat="48.44422" lon="-2.91369">
        <ele>271</ele>
        <time>2014-02-16T14:18:12.1Z</time>
      </trkpt>
      <trkpt lat="48.44422" lon="-2.91369">
        <ele>271</ele>
        <time>2014-02-16T14:18:14.1Z</time>
      </trkpt>
      <trkpt lat="48.44421" lon="-2.91369">
        <ele>271</ele>
        <time>2014-02-16T14:18:17.1Z</time>
      </trkpt>
      <trkpt lat="48.4442" lon="-2.9137">
        <ele>271</ele>
        <time>2014-02-16T14:18:20.1Z</time>
      </trkpt>
      <trkpt lat="48.44419" lon="-2.91371">
        <ele>271</ele>
        <time>2014-02-16T14:18:22.1Z</time>
      </trkpt>
      <trkpt lat="48.44418" lon="-2.91374">
        <ele>272</ele>
        <time>2014-02-16T14:18:25.1Z</time>
      </trkpt>
      <trkpt lat="48.44417" lon="-2.91376">
        <ele>272</ele>
        <time>2014-02-16T14:18:27.1Z</time>
      </trkpt>
      <trkpt lat="48.44415" lon="-2.9138">
        <ele>272</ele>
        <time>2014-02-16T14:18:30.1Z</time>
      </trkpt>
      <trkpt lat="48.44413" lon="-2.91383">
        <ele>272</ele>
        <time>2014-02-16T14:18:32.1Z</time>
      </trkpt>
      <trkpt lat="48.44411" lon="-2.91387">
        <ele>271</ele>
        <time>2014-02-16T14:18:35.1Z</time>
      </trkpt>
      <trkpt lat="48.4441" lon="-2.9139">
        <ele>271</ele>
        <time>2014-02-16T14:18:37.1Z</time>
      </trkpt>
      <trkpt lat="48.4441" lon="-2.91393">
        <ele>271</ele>
        <time>2014-02-16T14:18:40.1Z</time>
      </trkpt>
      <trkpt lat="48.44408" lon="-2.91397">
        <ele>271</ele>
        <time>2014-02-16T14:18:43.1Z</time>
      </trkpt>
      <trkpt lat="48.44407" lon="-2.91401">
        <ele>271</ele>
        <time>2014-02-16T14:18:46.1Z</time>
      </trkpt>
      <trkpt lat="48.44405" lon="-2.91405">
        <ele>271</ele>
        <time>2014-02-16T14:18:49.1Z</time>
      </trkpt>
      <trkpt lat="48.44403" lon="-2.91408">
        <ele>271</ele>
        <time>2014-02-16T14:18:51.1Z</time>
      </trkpt>
      <trkpt lat="48.44401" lon="-2.91413">
        <ele>271</ele>
        <time>2014-02-16T14:18:54.1Z</time>
      </trkpt>
      <trkpt lat="48.44399" lon="-2.91418">
        <ele>271</ele>
        <time>2014-02-16T14:18:57.1Z</time>
      </trkpt>
      <trkpt lat="48.44398" lon="-2.91421">
        <ele>271</ele>
        <time>2014-02-16T14:18:59.1Z</time>
      </trkpt>
      <trkpt lat="48.44397" lon="-2.91424">
        <ele>271</ele>
        <time>2014-02-16T14:19:01.1Z</time>
      </trkpt>
      <trkpt lat="48.44395" lon="-2.91428">
        <ele>271</ele>
        <time>2014-02-16T14:19:04.1Z</time>
      </trkpt>
      <trkpt lat="48.44394" lon="-2.91431">
        <ele>271</ele>
        <time>2014-02-16T14:19:06.1Z</time>
      </trkpt>
      <trkpt lat="48.44393" lon="-2.91435">
        <ele>271</ele>
        <time>2014-02-16T14:19:08.1Z</time>
      </trkpt>
      <trkpt lat="48.44391" lon="-2.91438">
        <ele>271</ele>
        <time>2014-02-16T14:19:11.1Z</time>
      </trkpt>
      <trkpt lat="48.44389" lon="-2.91442">
        <ele>271</ele>
        <time>2014-02-16T14:19:14.1Z</time>
      </trkpt>
      <trkpt lat="48.44387" lon="-2.91446">
        <ele>271</ele>
        <time>2014-02-16T14:19:17.1Z</time>
      </trkpt>
      <trkpt lat="48.44386" lon="-2.91451">
        <ele>271</ele>
        <time>2014-02-16T14:19:20.1Z</time>
      </trkpt>
      <trkpt lat="48.44384" lon="-2.91455">
        <ele>271</ele>
        <time>2014-02-16T14:19:22.1Z</time>
      </trkpt>
      <trkpt lat="48.44382" lon="-2.91459">
        <ele>271</ele>
        <time>2014-02-16T14:19:25.1Z</time>
      </trkpt>
      <trkpt lat="48.44381" lon="-2.91461">
        <ele>271</ele>
        <time>2014-02-16T14:19:27.1Z</time>
      </trkpt>
      <trkpt lat="48.44379" lon="-2.91466">
        <ele>271</ele>
        <time>2014-02-16T14:19:30.1Z</time>
      </trkpt>
      <trkpt lat="48.44377" lon="-2.91469">
        <ele>271</ele>
        <time>2014-02-16T14:19:32.1Z</time>
      </trkpt>
      <trkpt lat="48.44375" lon="-2.91474">
        <ele>272</ele>
        <time>2014-02-16T14:19:35.1Z</time>
      </trkpt>
      <trkpt lat="48.44374" lon="-2.91477">
        <ele>272</ele>
        <time>2014-02-16T14:19:37.1Z</time>
      </trkpt>
      <trkpt lat="48.44371" lon="-2.91481">
        <ele>272</ele>
        <time>2014-02-16T14:19:40.1Z</time>
      </trkpt>
      <trkpt lat="48.44368" lon="-2.91486">
        <ele>272</ele>
        <time>2014-02-16T14:19:43.1Z</time>
      </trkpt>
      <trkpt lat="48.44366" lon="-2.91492">
        <ele>271</ele>
        <time>2014-02-16T14:19:46.1Z</time>
      </trkpt>
      <trkpt lat="48.44364" lon="-2.91496">
        <ele>272</ele>
        <time>2014-02-16T14:19:49.1Z</time>
      </trkpt>
      <trkpt lat="48.44363" lon="-2.915">
        <ele>272</ele>
        <time>2014-02-16T14:19:51.1Z</time>
      </trkpt>
      <trkpt lat="48.44361" lon="-2.91505">
        <ele>272</ele>
        <time>2014-02-16T14:19:54.1Z</time>
      </trkpt>
      <trkpt lat="48.44359" lon="-2.91508">
        <ele>272</ele>
        <time>2014-02-16T14:19:56.1Z</time>
      </trkpt>
      <trkpt lat="48.44357" lon="-2.91512">
        <ele>272</ele>
        <time>2014-02-16T14:19:59.1Z</time>
      </trkpt>
      <trkpt lat="48.44356" lon="-2.91515">
        <ele>272</ele>
        <time>2014-02-16T14:20:01.1Z</time>
      </trkpt>
      <trkpt lat="48.44353" lon="-2.9152">
        <ele>272</ele>
        <time>2014-02-16T14:20:04.1Z</time>
      </trkpt>
      <trkpt lat="48.4435" lon="-2.91525">
        <ele>272</ele>
        <time>2014-02-16T14:20:07.1Z</time>
      </trkpt>
      <trkpt lat="48.44349" lon="-2.91528">
        <ele>272</ele>
        <time>2014-02-16T14:20:09.1Z</time>
      </trkpt>
      <trkpt lat="48.44346" lon="-2.91532">
        <ele>272</ele>
        <time>2014-02-16T14:20:12.1Z</time>
      </trkpt>
      <trkpt lat="48.44344" lon="-2.91536">
        <ele>273</ele>
        <time>2014-02-16T14:20:15.1Z</time>
      </trkpt>
      <trkpt lat="48.44343" lon="-2.91539">
        <ele>273</ele>
        <time>2014-02-16T14:20:17.1Z</time>
      </trkpt>
      <trkpt lat="48.44341" lon="-2.91543">
        <ele>273</ele>
        <time>2014-02-16T14:20:20.1Z</time>
      </trkpt>
      <trkpt lat="48.44339" lon="-2.91546">
        <ele>274</ele>
        <time>2014-02-16T14:20:22.1Z</time>
      </trkpt>
      <trkpt lat="48.44337" lon="-2.91548">
        <ele>274</ele>
        <time>2014-02-16T14:20:24.1Z</time>
      </trkpt>
      <trkpt lat="48.44335" lon="-2.91553">
        <ele>273</ele>
        <time>2014-02-16T14:20:27.1Z</time>
      </trkpt>
      <trkpt lat="48.44333" lon="-2.91558">
        <ele>273</ele>
        <time>2014-02-16T14:20:30.1Z</time>
      </trkpt>
      <trkpt lat="48.44331" lon="-2.91561">
        <ele>273</ele>
        <time>2014-02-16T14:20:32.1Z</time>
      </trkpt>
      <trkpt lat="48.44329" lon="-2.91565">
        <ele>274</ele>
        <time>2014-02-16T14:20:35.1Z</time>
      </trkpt>
      <trkpt lat="48.44326" lon="-2.91569">
        <ele>274</ele>
        <time>2014-02-16T14:20:38.1Z</time>
      </trkpt>
      <trkpt lat="48.44324" lon="-2.91571">
        <ele>274</ele>
        <time>2014-02-16T14:20:40.1Z</time>
      </trkpt>
      <trkpt lat="48.44322" lon="-2.91575">
        <ele>274</ele>
        <time>2014-02-16T14:20:43.1Z</time>
      </trkpt>
      <trkpt lat="48.44318" lon="-2.91579">
        <ele>274</ele>
        <time>2014-02-16T14:20:46.1Z</time>
      </trkpt>
      <trkpt lat="48.44316" lon="-2.91581">
        <ele>274</ele>
        <time>2014-02-16T14:20:48.1Z</time>
      </trkpt>
      <trkpt lat="48.44313" lon="-2.91584">
        <ele>275</ele>
        <time>2014-02-16T14:20:51.1Z</time>
      </trkpt>
      <trkpt lat="48.44312" lon="-2.91586">
        <ele>275</ele>
        <time>2014-02-16T14:20:53.1Z</time>
      </trkpt>
      <trkpt lat="48.44308" lon="-2.91588">
        <ele>275</ele>
        <time>2014-02-16T14:20:56.1Z</time>
      </trkpt>
      <trkpt lat="48.44306" lon="-2.9159">
        <ele>275</ele>
        <time>2014-02-16T14:20:58.1Z</time>
      </trkpt>
      <trkpt lat="48.44304" lon="-2.91592">
        <ele>275</ele>
        <time>2014-02-16T14:21:00.1Z</time>
      </trkpt>
      <trkpt lat="48.443" lon="-2.91593">
        <ele>275</ele>
        <time>2014-02-16T14:21:03.1Z</time>
      </trkpt>
      <trkpt lat="48.44297" lon="-2.91595">
        <ele>275</ele>
        <time>2014-02-16T14:21:06.1Z</time>
      </trkpt>
      <trkpt lat="48.44295" lon="-2.91596">
        <ele>275</ele>
        <time>2014-02-16T14:21:08.1Z</time>
      </trkpt>
      <trkpt lat="48.44292" lon="-2.91597">
        <ele>275</ele>
        <time>2014-02-16T14:21:10.1Z</time>
      </trkpt>
      <trkpt lat="48.44289" lon="-2.91599">
        <ele>276</ele>
        <time>2014-02-16T14:21:13.1Z</time>
      </trkpt>
      <trkpt lat="48.44286" lon="-2.916">
        <ele>276</ele>
        <time>2014-02-16T14:21:15.1Z</time>
      </trkpt>
      <trkpt lat="48.44284" lon="-2.91601">
        <ele>276</ele>
        <time>2014-02-16T14:21:17.1Z</time>
      </trkpt>
      <trkpt lat="48.44281" lon="-2.91603">
        <ele>276</ele>
        <time>2014-02-16T14:21:20.1Z</time>
      </trkpt>
      <trkpt lat="48.44278" lon="-2.91604">
        <ele>276</ele>
        <time>2014-02-16T14:21:22.1Z</time>
      </trkpt>
      <trkpt lat="48.44275" lon="-2.91606">
        <ele>276</ele>
        <time>2014-02-16T14:21:25.1Z</time>
      </trkpt>
      <trkpt lat="48.44273" lon="-2.91608">
        <ele>275</ele>
        <time>2014-02-16T14:21:27.1Z</time>
      </trkpt>
      <trkpt lat="48.4427" lon="-2.9161">
        <ele>275</ele>
        <time>2014-02-16T14:21:30.1Z</time>
      </trkpt>
      <trkpt lat="48.44267" lon="-2.91612">
        <ele>275</ele>
        <time>2014-02-16T14:21:32.1Z</time>
      </trkpt>
      <trkpt lat="48.44264" lon="-2.91614">
        <ele>275</ele>
        <time>2014-02-16T14:21:35.1Z</time>
      </trkpt>
      <trkpt lat="48.44261" lon="-2.91617">
        <ele>275</ele>
        <time>2014-02-16T14:21:38.1Z</time>
      </trkpt>
      <trkpt lat="48.44259" lon="-2.91618">
        <ele>275</ele>
        <time>2014-02-16T14:21:40.1Z</time>
      </trkpt>
      <trkpt lat="48.44256" lon="-2.91621">
        <ele>275</ele>
        <time>2014-02-16T14:21:43.1Z</time>
      </trkpt>
      <trkpt lat="48.44254" lon="-2.91622">
        <ele>275</ele>
        <time>2014-02-16T14:21:45.1Z</time>
      </trkpt>
      <trkpt lat="48.44252" lon="-2.91624">
        <ele>275</ele>
        <time>2014-02-16T14:21:47.1Z</time>
      </trkpt>
      <trkpt lat="48.44249" lon="-2.91626">
        <ele>275</ele>
        <time>2014-02-16T14:21:50.1Z</time>
      </trkpt>
      <trkpt lat="48.44246" lon="-2.91629">
        <ele>275</ele>
        <time>2014-02-16T14:21:53.1Z</time>
      </trkpt>
      <trkpt lat="48.44242" lon="-2.91631">
        <ele>274</ele>
        <time>2014-02-16T14:21:56.1Z</time>
      </trkpt>
      <trkpt lat="48.44241" lon="-2.91632">
        <ele>274</ele>
        <time>2014-02-16T14:21:58.1Z</time>
      </trkpt>
      <trkpt lat="48.44237" lon="-2.91634">
        <ele>274</ele>
        <time>2014-02-16T14:22:01.1Z</time>
      </trkpt>
      <trkpt lat="48.44234" lon="-2.91637">
        <ele>274</ele>
        <time>2014-02-16T14:22:04.1Z</time>
      </trkpt>
      <trkpt lat="48.44232" lon="-2.91638">
        <ele>274</ele>
        <time>2014-02-16T14:22:06.1Z</time>
      </trkpt>
      <trkpt lat="48.44229" lon="-2.9164">
        <ele>274</ele>
        <time>2014-02-16T14:22:09.1Z</time>
      </trkpt>
      <trkpt lat="48.44226" lon="-2.91642">
        <ele>273</ele>
        <time>2014-02-16T14:22:11.1Z</time>
      </trkpt>
      <trkpt lat="48.44223" lon="-2.91645">
        <ele>273</ele>
        <time>2014-02-16T14:22:14.1Z</time>
      </trkpt>
      <trkpt lat="48.44221" lon="-2.91646">
        <ele>272</ele>
        <time>2014-02-16T14:22:16.1Z</time>
      </trkpt>
      <trkpt lat="48.44218" lon="-2.91648">
        <ele>272</ele>
        <time>2014-02-16T14:22:19.1Z</time>
      </trkpt>
      <trkpt lat="48.44215" lon="-2.9165">
        <ele>272</ele>
        <time>2014-02-16T14:22:21.1Z</time>
      </trkpt>
      <trkpt lat="48.44212" lon="-2.91652">
        <ele>271</ele>
        <time>2014-02-16T14:22:24.1Z</time>
      </trkpt>
      <trkpt lat="48.4421" lon="-2.91653">
        <ele>271</ele>
        <time>2014-02-16T14:22:26.1Z</time>
      </trkpt>
      <trkpt lat="48.44207" lon="-2.91655">
        <ele>271</ele>
        <time>2014-02-16T14:22:29.1Z</time>
      </trkpt>
      <trkpt lat="48.44205" lon="-2.91657">
        <ele>271</ele>
        <time>2014-02-16T14:22:31.1Z</time>
      </trkpt>
      <trkpt lat="48.44201" lon="-2.9166">
        <ele>270</ele>
        <time>2014-02-16T14:22:34.1Z</time>
      </trkpt>
      <trkpt lat="48.44199" lon="-2.91662">
        <ele>270</ele>
        <time>2014-02-16T14:22:36.1Z</time>
      </trkpt>
      <trkpt lat="48.44197" lon="-2.91663">
        <ele>270</ele>
        <time>2014-02-16T14:22:38.1Z</time>
      </trkpt>
      <trkpt lat="48.44193" lon="-2.91665">
        <ele>270</ele>
        <time>2014-02-16T14:22:41.1Z</time>
      </trkpt>
      <trkpt lat="48.44191" lon="-2.91666">
        <ele>269</ele>
        <time>2014-02-16T14:22:43.1Z</time>
      </trkpt>
      <trkpt lat="48.44189" lon="-2.91669">
        <ele>269</ele>
        <time>2014-02-16T14:22:45.1Z</time>
      </trkpt>
      <trkpt lat="48.44185" lon="-2.9167">
        <ele>269</ele>
        <time>2014-02-16T14:22:48.1Z</time>
      </trkpt>
      <trkpt lat="48.44182" lon="-2.91673">
        <ele>269</ele>
        <time>2014-02-16T14:22:51.1Z</time>
      </trkpt>
      <trkpt lat="48.44179" lon="-2.91675">
        <ele>268</ele>
        <time>2014-02-16T14:22:54.1Z</time>
      </trkpt>
      <trkpt lat="48.44177" lon="-2.91676">
        <ele>268</ele>
        <time>2014-02-16T14:22:56.1Z</time>
      </trkpt>
      <trkpt lat="48.44175" lon="-2.91678">
        <ele>268</ele>
        <time>2014-02-16T14:22:58.1Z</time>
      </trkpt>
      <trkpt lat="48.44172" lon="-2.91679">
        <ele>267</ele>
        <time>2014-02-16T14:23:01.1Z</time>
      </trkpt>
      <trkpt lat="48.44168" lon="-2.91681">
        <ele>267</ele>
        <time>2014-02-16T14:23:04.1Z</time>
      </trkpt>
      <trkpt lat="48.44165" lon="-2.91683">
        <ele>267</ele>
        <time>2014-02-16T14:23:07.1Z</time>
      </trkpt>
      <trkpt lat="48.44162" lon="-2.91686">
        <ele>266</ele>
        <time>2014-02-16T14:23:10.1Z</time>
      </trkpt>
      <trkpt lat="48.44158" lon="-2.91688">
        <ele>266</ele>
        <time>2014-02-16T14:23:13.1Z</time>
      </trkpt>
      <trkpt lat="48.44154" lon="-2.9169">
        <ele>266</ele>
        <time>2014-02-16T14:23:16.1Z</time>
      </trkpt>
      <trkpt lat="48.44151" lon="-2.91691">
        <ele>265</ele>
        <time>2014-02-16T14:23:19.1Z</time>
      </trkpt>
      <trkpt lat="48.44149" lon="-2.91692">
        <ele>265</ele>
        <time>2014-02-16T14:23:21.1Z</time>
      </trkpt>
      <trkpt lat="48.44145" lon="-2.91694">
        <ele>265</ele>
        <time>2014-02-16T14:23:24.1Z</time>
      </trkpt>
      <trkpt lat="48.44141" lon="-2.91696">
        <ele>265</ele>
        <time>2014-02-16T14:23:27.1Z</time>
      </trkpt>
      <trkpt lat="48.44138" lon="-2.91697">
        <ele>265</ele>
        <time>2014-02-16T14:23:30.1Z</time>
      </trkpt>
      <trkpt lat="48.44136" lon="-2.91699">
        <ele>264</ele>
        <time>2014-02-16T14:23:33.1Z</time>
      </trkpt>
      <trkpt lat="48.44133" lon="-2.91701">
        <ele>264</ele>
        <time>2014-02-16T14:23:36.1Z</time>
      </trkpt>
      <trkpt lat="48.4413" lon="-2.91702">
        <ele>264</ele>
        <time>2014-02-16T14:23:38.1Z</time>
      </trkpt>
      <trkpt lat="48.44127" lon="-2.91704">
        <ele>264</ele>
        <time>2014-02-16T14:23:41.1Z</time>
      </trkpt>
      <trkpt lat="48.44123" lon="-2.91705">
        <ele>264</ele>
        <time>2014-02-16T14:23:44.1Z</time>
      </trkpt>
      <trkpt lat="48.44121" lon="-2.91706">
        <ele>263</ele>
        <time>2014-02-16T14:23:46.1Z</time>
      </trkpt>
      <trkpt lat="48.4412" lon="-2.91706">
        <ele>264</ele>
        <time>2014-02-16T14:23:49.1Z</time>
      </trkpt>
      <trkpt lat="48.44119" lon="-2.91708">
        <ele>263</ele>
        <time>2014-02-16T14:23:51.1Z</time>
      </trkpt>
      <trkpt lat="48.44115" lon="-2.9171">
        <ele>264</ele>
        <time>2014-02-16T14:23:54.1Z</time>
      </trkpt>
      <trkpt lat="48.44112" lon="-2.91712">
        <ele>264</ele>
        <time>2014-02-16T14:23:56.1Z</time>
      </trkpt>
      <trkpt lat="48.44108" lon="-2.91714">
        <ele>263</ele>
        <time>2014-02-16T14:23:59.1Z</time>
      </trkpt>
      <trkpt lat="48.44105" lon="-2.91715">
        <ele>263</ele>
        <time>2014-02-16T14:24:01.1Z</time>
      </trkpt>
      <trkpt lat="48.44101" lon="-2.91717">
        <ele>263</ele>
        <time>2014-02-16T14:24:04.1Z</time>
      </trkpt>
      <trkpt lat="48.44098" lon="-2.9172">
        <ele>263</ele>
        <time>2014-02-16T14:24:07.1Z</time>
      </trkpt>
      <trkpt lat="48.44096" lon="-2.91721">
        <ele>262</ele>
        <time>2014-02-16T14:24:09.1Z</time>
      </trkpt>
      <trkpt lat="48.44094" lon="-2.91723">
        <ele>262</ele>
        <time>2014-02-16T14:24:11.1Z</time>
      </trkpt>
      <trkpt lat="48.44091" lon="-2.91725">
        <ele>262</ele>
        <time>2014-02-16T14:24:14.1Z</time>
      </trkpt>
      <trkpt lat="48.44087" lon="-2.91728">
        <ele>261</ele>
        <time>2014-02-16T14:24:17.1Z</time>
      </trkpt>
      <trkpt lat="48.44083" lon="-2.91729">
        <ele>261</ele>
        <time>2014-02-16T14:24:20.1Z</time>
      </trkpt>
      <trkpt lat="48.4408" lon="-2.9173">
        <ele>262</ele>
        <time>2014-02-16T14:24:22.1Z</time>
      </trkpt>
      <trkpt lat="48.44077" lon="-2.91732">
        <ele>262</ele>
        <time>2014-02-16T14:24:24.1Z</time>
      </trkpt>
      <trkpt lat="48.44073" lon="-2.91733">
        <ele>262</ele>
        <time>2014-02-16T14:24:27.1Z</time>
      </trkpt>
      <trkpt lat="48.4407" lon="-2.91734">
        <ele>262</ele>
        <time>2014-02-16T14:24:30.1Z</time>
      </trkpt>
      <trkpt lat="48.44065" lon="-2.91734">
        <ele>262</ele>
        <time>2014-02-16T14:24:33.1Z</time>
      </trkpt>
      <trkpt lat="48.44061" lon="-2.91734">
        <ele>262</ele>
        <time>2014-02-16T14:24:36.1Z</time>
      </trkpt>
      <trkpt lat="48.44057" lon="-2.91733">
        <ele>261</ele>
        <time>2014-02-16T14:24:39.1Z</time>
      </trkpt>
      <trkpt lat="48.44055" lon="-2.91733">
        <ele>261</ele>
        <time>2014-02-16T14:24:41.1Z</time>
      </trkpt>
      <trkpt lat="48.44052" lon="-2.91731">
        <ele>261</ele>
        <time>2014-02-16T14:24:44.1Z</time>
      </trkpt>
      <trkpt lat="48.4405" lon="-2.9173">
        <ele>261</ele>
        <time>2014-02-16T14:24:46.1Z</time>
      </trkpt>
      <trkpt lat="48.44048" lon="-2.91727">
        <ele>261</ele>
        <time>2014-02-16T14:24:49.1Z</time>
      </trkpt>
      <trkpt lat="48.44046" lon="-2.91726">
        <ele>261</ele>
        <time>2014-02-16T14:24:51.1Z</time>
      </trkpt>
      <trkpt lat="48.44042" lon="-2.91724">
        <ele>261</ele>
        <time>2014-02-16T14:24:54.1Z</time>
      </trkpt>
      <trkpt lat="48.44041" lon="-2.91722">
        <ele>261</ele>
        <time>2014-02-16T14:24:56.1Z</time>
      </trkpt>
      <trkpt lat="48.44039" lon="-2.91721">
        <ele>261</ele>
        <time>2014-02-16T14:24:58.1Z</time>
      </trkpt>
      <trkpt lat="48.44037" lon="-2.91718">
        <ele>261</ele>
        <time>2014-02-16T14:25:00.1Z</time>
      </trkpt>
      <trkpt lat="48.44034" lon="-2.91715">
        <ele>261</ele>
        <time>2014-02-16T14:25:03.1Z</time>
      </trkpt>
      <trkpt lat="48.44032" lon="-2.91712">
        <ele>261</ele>
        <time>2014-02-16T14:25:06.1Z</time>
      </trkpt>
      <trkpt lat="48.4403" lon="-2.91709">
        <ele>261</ele>
        <time>2014-02-16T14:25:08.1Z</time>
      </trkpt>
      <trkpt lat="48.44027" lon="-2.91706">
        <ele>261</ele>
        <time>2014-02-16T14:25:11.1Z</time>
      </trkpt>
      <trkpt lat="48.44024" lon="-2.91703">
        <ele>261</ele>
        <time>2014-02-16T14:25:14.1Z</time>
      </trkpt>
      <trkpt lat="48.44022" lon="-2.91701">
        <ele>261</ele>
        <time>2014-02-16T14:25:16.1Z</time>
      </trkpt>
      <trkpt lat="48.44019" lon="-2.91697">
        <ele>261</ele>
        <time>2014-02-16T14:25:19.1Z</time>
      </trkpt>
      <trkpt lat="48.44016" lon="-2.91694">
        <ele>261</ele>
        <time>2014-02-16T14:25:22.1Z</time>
      </trkpt>
      <trkpt lat="48.44014" lon="-2.91692">
        <ele>261</ele>
        <time>2014-02-16T14:25:24.1Z</time>
      </trkpt>
      <trkpt lat="48.44012" lon="-2.9169">
        <ele>261</ele>
        <time>2014-02-16T14:25:26.1Z</time>
      </trkpt>
      <trkpt lat="48.4401" lon="-2.91689">
        <ele>261</ele>
        <time>2014-02-16T14:25:28.1Z</time>
      </trkpt>
      <trkpt lat="48.44007" lon="-2.91687">
        <ele>261</ele>
        <time>2014-02-16T14:25:31.1Z</time>
      </trkpt>
      <trkpt lat="48.44005" lon="-2.91685">
        <ele>261</ele>
        <time>2014-02-16T14:25:33.1Z</time>
      </trkpt>
      <trkpt lat="48.44002" lon="-2.91683">
        <ele>261</ele>
        <time>2014-02-16T14:25:36.1Z</time>
      </trkpt>
      <trkpt lat="48.43998" lon="-2.91681">
        <ele>261</ele>
        <time>2014-02-16T14:25:39.1Z</time>
      </trkpt>
      <trkpt lat="48.43995" lon="-2.91679">
        <ele>261</ele>
        <time>2014-02-16T14:25:42.1Z</time>
      </trkpt>
      <trkpt lat="48.43992" lon="-2.91677">
        <ele>260</ele>
        <time>2014-02-16T14:25:45.1Z</time>
      </trkpt>
      <trkpt lat="48.4399" lon="-2.91676">
        <ele>260</ele>
        <time>2014-02-16T14:25:47.1Z</time>
      </trkpt>
      <trkpt lat="48.43986" lon="-2.91674">
        <ele>260</ele>
        <time>2014-02-16T14:25:50.1Z</time>
      </trkpt>
      <trkpt lat="48.43984" lon="-2.91673">
        <ele>260</ele>
        <time>2014-02-16T14:25:52.1Z</time>
      </trkpt>
      <trkpt lat="48.43981" lon="-2.91672">
        <ele>260</ele>
        <time>2014-02-16T14:25:55.1Z</time>
      </trkpt>
      <trkpt lat="48.43978" lon="-2.9167">
        <ele>260</ele>
        <time>2014-02-16T14:25:58.1Z</time>
      </trkpt>
      <trkpt lat="48.43974" lon="-2.91669">
        <ele>259</ele>
        <time>2014-02-16T14:26:01.1Z</time>
      </trkpt>
      <trkpt lat="48.43972" lon="-2.91668">
        <ele>259</ele>
        <time>2014-02-16T14:26:03.1Z</time>
      </trkpt>
      <trkpt lat="48.43969" lon="-2.91666">
        <ele>259</ele>
        <time>2014-02-16T14:26:06.1Z</time>
      </trkpt>
      <trkpt lat="48.43966" lon="-2.91664">
        <ele>259</ele>
        <time>2014-02-16T14:26:09.1Z</time>
      </trkpt>
      <trkpt lat="48.43964" lon="-2.91664">
        <ele>259</ele>
        <time>2014-02-16T14:26:11.1Z</time>
      </trkpt>
      <trkpt lat="48.4396" lon="-2.91663">
        <ele>259</ele>
        <time>2014-02-16T14:26:14.1Z</time>
      </trkpt>
      <trkpt lat="48.43957" lon="-2.91662">
        <ele>259</ele>
        <time>2014-02-16T14:26:17.1Z</time>
      </trkpt>
      <trkpt lat="48.43954" lon="-2.91662">
        <ele>259</ele>
        <time>2014-02-16T14:26:19.1Z</time>
      </trkpt>
      <trkpt lat="48.43951" lon="-2.91661">
        <ele>259</ele>
        <time>2014-02-16T14:26:22.1Z</time>
      </trkpt>
      <trkpt lat="48.43947" lon="-2.91661">
        <ele>259</ele>
        <time>2014-02-16T14:26:25.1Z</time>
      </trkpt>
      <trkpt lat="48.43944" lon="-2.91662">
        <ele>259</ele>
        <time>2014-02-16T14:26:28.1Z</time>
      </trkpt>
      <trkpt lat="48.4394" lon="-2.91664">
        <ele>258</ele>
        <time>2014-02-16T14:26:31.1Z</time>
      </trkpt>
      <trkpt lat="48.43937" lon="-2.91666">
        <ele>258</ele>
        <time>2014-02-16T14:26:34.1Z</time>
      </trkpt>
      <trkpt lat="48.43933" lon="-2.91668">
        <ele>258</ele>
        <time>2014-02-16T14:26:37.1Z</time>
      </trkpt>
      <trkpt lat="48.43931" lon="-2.91669">
        <ele>258</ele>
        <time>2014-02-16T14:26:39.1Z</time>
      </trkpt>
      <trkpt lat="48.43928" lon="-2.91671">
        <ele>258</ele>
        <time>2014-02-16T14:26:41.1Z</time>
      </trkpt>
      <trkpt lat="48.43925" lon="-2.91673">
        <ele>258</ele>
        <time>2014-02-16T14:26:44.1Z</time>
      </trkpt>
      <trkpt lat="48.43922" lon="-2.91675">
        <ele>259</ele>
        <time>2014-02-16T14:26:47.1Z</time>
      </trkpt>
      <trkpt lat="48.43919" lon="-2.91677">
        <ele>259</ele>
        <time>2014-02-16T14:26:50.1Z</time>
      </trkpt>
      <trkpt lat="48.43916" lon="-2.91678">
        <ele>259</ele>
        <time>2014-02-16T14:26:52.1Z</time>
      </trkpt>
      <trkpt lat="48.43913" lon="-2.91681">
        <ele>259</ele>
        <time>2014-02-16T14:26:55.1Z</time>
      </trkpt>
      <trkpt lat="48.43911" lon="-2.91682">
        <ele>259</ele>
        <time>2014-02-16T14:26:57.1Z</time>
      </trkpt>
      <trkpt lat="48.43908" lon="-2.91684">
        <ele>259</ele>
        <time>2014-02-16T14:27:00.1Z</time>
      </trkpt>
      <trkpt lat="48.43904" lon="-2.91686">
        <ele>259</ele>
        <time>2014-02-16T14:27:03.1Z</time>
      </trkpt>
      <trkpt lat="48.43902" lon="-2.91687">
        <ele>259</ele>
        <time>2014-02-16T14:27:05.1Z</time>
      </trkpt>
      <trkpt lat="48.439" lon="-2.91688">
        <ele>259</ele>
        <time>2014-02-16T14:27:07.1Z</time>
      </trkpt>
      <trkpt lat="48.43896" lon="-2.9169">
        <ele>259</ele>
        <time>2014-02-16T14:27:10.1Z</time>
      </trkpt>
      <trkpt lat="48.43894" lon="-2.91692">
        <ele>259</ele>
        <time>2014-02-16T14:27:12.1Z</time>
      </trkpt>
      <trkpt lat="48.43892" lon="-2.91693">
        <ele>259</ele>
        <time>2014-02-16T14:27:14.1Z</time>
      </trkpt>
      <trkpt lat="48.43888" lon="-2.91695">
        <ele>259</ele>
        <time>2014-02-16T14:27:17.1Z</time>
      </trkpt>
      <trkpt lat="48.43885" lon="-2.91697">
        <ele>259</ele>
        <time>2014-02-16T14:27:20.1Z</time>
      </trkpt>
      <trkpt lat="48.43883" lon="-2.91698">
        <ele>259</ele>
        <time>2014-02-16T14:27:22.1Z</time>
      </trkpt>
      <trkpt lat="48.43879" lon="-2.917">
        <ele>259</ele>
        <time>2014-02-16T14:27:25.1Z</time>
      </trkpt>
      <trkpt lat="48.43877" lon="-2.91702">
        <ele>259</ele>
        <time>2014-02-16T14:27:27.1Z</time>
      </trkpt>
      <trkpt lat="48.43875" lon="-2.91703">
        <ele>259</ele>
        <time>2014-02-16T14:27:29.1Z</time>
      </trkpt>
      <trkpt lat="48.43871" lon="-2.91705">
        <ele>259</ele>
        <time>2014-02-16T14:27:32.1Z</time>
      </trkpt>
      <trkpt lat="48.43868" lon="-2.91707">
        <ele>258</ele>
        <time>2014-02-16T14:27:35.1Z</time>
      </trkpt>
      <trkpt lat="48.43865" lon="-2.91708">
        <ele>258</ele>
        <time>2014-02-16T14:27:37.1Z</time>
      </trkpt>
      <trkpt lat="48.43862" lon="-2.91709">
        <ele>259</ele>
        <time>2014-02-16T14:27:40.1Z</time>
      </trkpt>
      <trkpt lat="48.4386" lon="-2.91711">
        <ele>259</ele>
        <time>2014-02-16T14:27:42.1Z</time>
      </trkpt>
      <trkpt lat="48.43856" lon="-2.91713">
        <ele>259</ele>
        <time>2014-02-16T14:27:45.1Z</time>
      </trkpt>
      <trkpt lat="48.43853" lon="-2.91715">
        <ele>259</ele>
        <time>2014-02-16T14:27:48.1Z</time>
      </trkpt>
      <trkpt lat="48.4385" lon="-2.91717">
        <ele>259</ele>
        <time>2014-02-16T14:27:51.1Z</time>
      </trkpt>
      <trkpt lat="48.43847" lon="-2.9172">
        <ele>259</ele>
        <time>2014-02-16T14:27:54.1Z</time>
      </trkpt>
      <trkpt lat="48.43845" lon="-2.91721">
        <ele>259</ele>
        <time>2014-02-16T14:27:56.1Z</time>
      </trkpt>
      <trkpt lat="48.43842" lon="-2.91723">
        <ele>259</ele>
        <time>2014-02-16T14:27:59.1Z</time>
      </trkpt>
      <trkpt lat="48.43839" lon="-2.91726">
        <ele>259</ele>
        <time>2014-02-16T14:28:02.1Z</time>
      </trkpt>
      <trkpt lat="48.43836" lon="-2.91729">
        <ele>259</ele>
        <time>2014-02-16T14:28:05.1Z</time>
      </trkpt>
      <trkpt lat="48.43833" lon="-2.91732">
        <ele>259</ele>
        <time>2014-02-16T14:28:08.1Z</time>
      </trkpt>
      <trkpt lat="48.43831" lon="-2.91734">
        <ele>259</ele>
        <time>2014-02-16T14:28:10.1Z</time>
      </trkpt>
      <trkpt lat="48.43828" lon="-2.91737">
        <ele>259</ele>
        <time>2014-02-16T14:28:13.1Z</time>
      </trkpt>
      <trkpt lat="48.43825" lon="-2.9174">
        <ele>258</ele>
        <time>2014-02-16T14:28:16.1Z</time>
      </trkpt>
      <trkpt lat="48.43823" lon="-2.91742">
        <ele>258</ele>
        <time>2014-02-16T14:28:18.1Z</time>
      </trkpt>
      <trkpt lat="48.4382" lon="-2.91746">
        <ele>258</ele>
        <time>2014-02-16T14:28:21.1Z</time>
      </trkpt>
      <trkpt lat="48.43818" lon="-2.91749">
        <ele>259</ele>
        <time>2014-02-16T14:28:24.1Z</time>
      </trkpt>
      <trkpt lat="48.43815" lon="-2.91753">
        <ele>259</ele>
        <time>2014-02-16T14:28:27.1Z</time>
      </trkpt>
      <trkpt lat="48.43812" lon="-2.91756">
        <ele>259</ele>
        <time>2014-02-16T14:28:30.1Z</time>
      </trkpt>
      <trkpt lat="48.43811" lon="-2.91759">
        <ele>259</ele>
        <time>2014-02-16T14:28:32.1Z</time>
      </trkpt>
      <trkpt lat="48.43808" lon="-2.91762">
        <ele>259</ele>
        <time>2014-02-16T14:28:35.1Z</time>
      </trkpt>
      <trkpt lat="48.43807" lon="-2.91765">
        <ele>259</ele>
        <time>2014-02-16T14:28:37.1Z</time>
      </trkpt>
      <trkpt lat="48.43804" lon="-2.91769">
        <ele>259</ele>
        <time>2014-02-16T14:28:40.1Z</time>
      </trkpt>
      <trkpt lat="48.43801" lon="-2.91772">
        <ele>259</ele>
        <time>2014-02-16T14:28:43.1Z</time>
      </trkpt>
      <trkpt lat="48.43799" lon="-2.91776">
        <ele>259</ele>
        <time>2014-02-16T14:28:46.1Z</time>
      </trkpt>
      <trkpt lat="48.43797" lon="-2.91778">
        <ele>259</ele>
        <time>2014-02-16T14:28:48.1Z</time>
      </trkpt>
      <trkpt lat="48.43795" lon="-2.91781">
        <ele>259</ele>
        <time>2014-02-16T14:28:51.1Z</time>
      </trkpt>
      <trkpt lat="48.43793" lon="-2.91783">
        <ele>259</ele>
        <time>2014-02-16T14:28:53.1Z</time>
      </trkpt>
      <trkpt lat="48.43792" lon="-2.91785">
        <ele>259</ele>
        <time>2014-02-16T14:28:55.1Z</time>
      </trkpt>
      <trkpt lat="48.43789" lon="-2.91788">
        <ele>259</ele>
        <time>2014-02-16T14:28:58.1Z</time>
      </trkpt>
      <trkpt lat="48.43788" lon="-2.9179">
        <ele>259</ele>
        <time>2014-02-16T14:29:01.1Z</time>
      </trkpt>
      <trkpt lat="48.43788" lon="-2.9179">
        <ele>259</ele>
        <time>2014-02-16T14:29:03.1Z</time>
      </trkpt>
      <trkpt lat="48.43788" lon="-2.9179">
        <ele>259</ele>
        <time>2014-02-16T14:29:06.1Z</time>
      </trkpt>
      <trkpt lat="48.43788" lon="-2.9179">
        <ele>259</ele>
        <time>2014-02-16T14:29:08.1Z</time>
      </trkpt>
      <trkpt lat="48.43787" lon="-2.9179">
        <ele>259</ele>
        <time>2014-02-16T14:29:11.1Z</time>
      </trkpt>
      <trkpt lat="48.43787" lon="-2.9179">
        <ele>259</ele>
        <time>2014-02-16T14:29:14.1Z</time>
      </trkpt>
      <trkpt lat="48.43787" lon="-2.9179">
        <ele>258</ele>
        <time>2014-02-16T14:29:17.1Z</time>
      </trkpt>
      <trkpt lat="48.43787" lon="-2.91789">
        <ele>258</ele>
        <time>2014-02-16T14:29:20.1Z</time>
      </trkpt>
      <trkpt lat="48.43787" lon="-2.91789">
        <ele>259</ele>
        <time>2014-02-16T14:29:24.1Z</time>
      </trkpt>
      <trkpt lat="48.43787" lon="-2.91789">
        <ele>259</ele>
        <time>2014-02-16T14:29:26.1Z</time>
      </trkpt>
      <trkpt lat="48.43786" lon="-2.91789">
        <ele>259</ele>
        <time>2014-02-16T14:29:28.1Z</time>
      </trkpt>
      <trkpt lat="48.43786" lon="-2.91787">
        <ele>259</ele>
        <time>2014-02-16T14:29:31.1Z</time>
      </trkpt>
      <trkpt lat="48.43786" lon="-2.91785">
        <ele>259</ele>
        <time>2014-02-16T14:29:33.1Z</time>
      </trkpt>
      <trkpt lat="48.43784" lon="-2.91783">
        <ele>258</ele>
        <time>2014-02-16T14:29:36.1Z</time>
      </trkpt>
      <trkpt lat="48.43783" lon="-2.91782">
        <ele>258</ele>
        <time>2014-02-16T14:29:39.1Z</time>
      </trkpt>
      <trkpt lat="48.43782" lon="-2.91782">
        <ele>258</ele>
        <time>2014-02-16T14:29:41.1Z</time>
      </trkpt>
      <trkpt lat="48.43782" lon="-2.91782">
        <ele>258</ele>
        <time>2014-02-16T14:29:43.1Z</time>
      </trkpt>
      <trkpt lat="48.43782" lon="-2.91782">
        <ele>258</ele>
        <time>2014-02-16T14:29:46.1Z</time>
      </trkpt>
      <trkpt lat="48.43782" lon="-2.91782">
        <ele>258</ele>
        <time>2014-02-16T14:29:49.1Z</time>
      </trkpt>
      <trkpt lat="48.43781" lon="-2.91783">
        <ele>259</ele>
        <time>2014-02-16T14:29:51.1Z</time>
      </trkpt>
      <trkpt lat="48.43781" lon="-2.91783">
        <ele>259</ele>
        <time>2014-02-16T14:29:53.1Z</time>
      </trkpt>
      <trkpt lat="48.43781" lon="-2.91783">
        <ele>259</ele>
        <time>2014-02-16T14:29:57.1Z</time>
      </trkpt>
      <trkpt lat="48.4378" lon="-2.91784">
        <ele>259</ele>
        <time>2014-02-16T14:30:00.1Z</time>
      </trkpt>
      <trkpt lat="48.43779" lon="-2.91784">
        <ele>259</ele>
        <time>2014-02-16T14:30:03.1Z</time>
      </trkpt>
      <trkpt lat="48.43778" lon="-2.91785">
        <ele>259</ele>
        <time>2014-02-16T14:30:05.1Z</time>
      </trkpt>
      <trkpt lat="48.43777" lon="-2.91785">
        <ele>259</ele>
        <time>2014-02-16T14:30:07.1Z</time>
      </trkpt>
      <trkpt lat="48.43776" lon="-2.91786">
        <ele>259</ele>
        <time>2014-02-16T14:30:10.1Z</time>
      </trkpt>
      <trkpt lat="48.43776" lon="-2.91786">
        <ele>259</ele>
        <time>2014-02-16T14:30:12.1Z</time>
      </trkpt>
      <trkpt lat="48.43776" lon="-2.91786">
        <ele>259</ele>
        <time>2014-02-16T14:30:14.1Z</time>
      </trkpt>
      <trkpt lat="48.43775" lon="-2.91787">
        <ele>259</ele>
        <time>2014-02-16T14:30:18.1Z</time>
      </trkpt>
      <trkpt lat="48.43775" lon="-2.91787">
        <ele>259</ele>
        <time>2014-02-16T14:30:21.1Z</time>
      </trkpt>
      <trkpt lat="48.43774" lon="-2.91787">
        <ele>259</ele>
        <time>2014-02-16T14:30:26.1Z</time>
      </trkpt>
      <trkpt lat="48.43774" lon="-2.91786">
        <ele>259</ele>
        <time>2014-02-16T14:30:30.1Z</time>
      </trkpt>
      <trkpt lat="48.43774" lon="-2.91787">
        <ele>259</ele>
        <time>2014-02-16T14:30:33.1Z</time>
      </trkpt>
      <trkpt lat="48.43774" lon="-2.91788">
        <ele>259</ele>
        <time>2014-02-16T14:30:36.1Z</time>
      </trkpt>
      <trkpt lat="48.43774" lon="-2.9179">
        <ele>259</ele>
        <time>2014-02-16T14:30:39.1Z</time>
      </trkpt>
      <trkpt lat="48.43774" lon="-2.9179">
        <ele>259</ele>
        <time>2014-02-16T14:30:41.1Z</time>
      </trkpt>
      <trkpt lat="48.43774" lon="-2.91791">
        <ele>260</ele>
        <time>2014-02-16T14:30:43.1Z</time>
      </trkpt>
      <trkpt lat="48.43775" lon="-2.91793">
        <ele>260</ele>
        <time>2014-02-16T14:30:46.1Z</time>
      </trkpt>
      <trkpt lat="48.43775" lon="-2.91795">
        <ele>260</ele>
        <time>2014-02-16T14:30:49.1Z</time>
      </trkpt>
      <trkpt lat="48.43775" lon="-2.91796">
        <ele>259</ele>
        <time>2014-02-16T14:30:52.1Z</time>
      </trkpt>
      <trkpt lat="48.43776" lon="-2.91796">
        <ele>259</ele>
        <time>2014-02-16T14:30:55.1Z</time>
      </trkpt>
      <trkpt lat="48.43776" lon="-2.91796">
        <ele>260</ele>
        <time>2014-02-16T14:30:57.1Z</time>
      </trkpt>
      <trkpt lat="48.43776" lon="-2.91796">
        <ele>260</ele>
        <time>2014-02-16T14:31:00.1Z</time>
      </trkpt>
      <trkpt lat="48.43775" lon="-2.91797">
        <ele>260</ele>
        <time>2014-02-16T14:31:02.1Z</time>
      </trkpt>
      <trkpt lat="48.43774" lon="-2.91799">
        <ele>259</ele>
        <time>2014-02-16T14:31:05.1Z</time>
      </trkpt>
      <trkpt lat="48.43773" lon="-2.918">
        <ele>258</ele>
        <time>2014-02-16T14:31:08.1Z</time>
      </trkpt>
      <trkpt lat="48.43772" lon="-2.91801">
        <ele>259</ele>
        <time>2014-02-16T14:31:10.1Z</time>
      </trkpt>
      <trkpt lat="48.43771" lon="-2.91802">
        <ele>259</ele>
        <time>2014-02-16T14:31:13.1Z</time>
      </trkpt>
      <trkpt lat="48.43771" lon="-2.91802">
        <ele>259</ele>
        <time>2014-02-16T14:31:16.1Z</time>
      </trkpt>
      <trkpt lat="48.43771" lon="-2.91802">
        <ele>260</ele>
        <time>2014-02-16T14:31:19.1Z</time>
      </trkpt>
      <trkpt lat="48.43771" lon="-2.91801">
        <ele>260</ele>
        <time>2014-02-16T14:31:21.1Z</time>
      </trkpt>
      <trkpt lat="48.43772" lon="-2.91801">
        <ele>260</ele>
        <time>2014-02-16T14:31:24.1Z</time>
      </trkpt>
      <trkpt lat="48.43772" lon="-2.91801">
        <ele>260</ele>
        <time>2014-02-16T14:31:27.1Z</time>
      </trkpt>
      <trkpt lat="48.43773" lon="-2.918">
        <ele>259</ele>
        <time>2014-02-16T14:31:29.1Z</time>
      </trkpt>
      <trkpt lat="48.43773" lon="-2.918">
        <ele>259</ele>
        <time>2014-02-16T14:31:31.1Z</time>
      </trkpt>
      <trkpt lat="48.43773" lon="-2.918">
        <ele>259</ele>
        <time>2014-02-16T14:31:34.1Z</time>
      </trkpt>
      <trkpt lat="48.43773" lon="-2.91801">
        <ele>259</ele>
        <time>2014-02-16T14:31:37.1Z</time>
      </trkpt>
      <trkpt lat="48.43772" lon="-2.91801">
        <ele>259</ele>
        <time>2014-02-16T14:31:40.1Z</time>
      </trkpt>
      <trkpt lat="48.43772" lon="-2.91801">
        <ele>259</ele>
        <time>2014-02-16T14:31:44.1Z</time>
      </trkpt>
      <trkpt lat="48.43773" lon="-2.91801">
        <ele>259</ele>
        <time>2014-02-16T14:31:46.1Z</time>
      </trkpt>
      <trkpt lat="48.43774" lon="-2.918">
        <ele>259</ele>
        <time>2014-02-16T14:31:49.1Z</time>
      </trkpt>
      <trkpt lat="48.43774" lon="-2.918">
        <ele>259</ele>
        <time>2014-02-16T14:31:51.1Z</time>
      </trkpt>
      <trkpt lat="48.43775" lon="-2.918">
        <ele>259</ele>
        <time>2014-02-16T14:31:53.1Z</time>
      </trkpt>
      <trkpt lat="48.43775" lon="-2.918">
        <ele>259</ele>
        <time>2014-02-16T14:31:56.1Z</time>
      </trkpt>
      <trkpt lat="48.43776" lon="-2.918">
        <ele>259</ele>
        <time>2014-02-16T14:31:58.1Z</time>
      </trkpt>
      <trkpt lat="48.43776" lon="-2.91799">
        <ele>259</ele>
        <time>2014-02-16T14:32:01.1Z</time>
      </trkpt>
      <trkpt lat="48.43776" lon="-2.918">
        <ele>259</ele>
        <time>2014-02-16T14:32:04.1Z</time>
      </trkpt>
      <trkpt lat="48.43776" lon="-2.918">
        <ele>259</ele>
        <time>2014-02-16T14:32:06.1Z</time>
      </trkpt>
      <trkpt lat="48.43776" lon="-2.918">
        <ele>259</ele>
        <time>2014-02-16T14:32:09.1Z</time>
      </trkpt>
      <trkpt lat="48.43775" lon="-2.918">
        <ele>260</ele>
        <time>2014-02-16T14:32:13.1Z</time>
      </trkpt>
      <trkpt lat="48.43775" lon="-2.918">
        <ele>260</ele>
        <time>2014-02-16T14:32:15.1Z</time>
      </trkpt>
      <trkpt lat="48.43775" lon="-2.91801">
        <ele>260</ele>
        <time>2014-02-16T14:32:18.1Z</time>
      </trkpt>
      <trkpt lat="48.43775" lon="-2.91801">
        <ele>260</ele>
        <time>2014-02-16T14:32:22.1Z</time>
      </trkpt>
      <trkpt lat="48.43775" lon="-2.91801">
        <ele>260</ele>
        <time>2014-02-16T14:32:26.1Z</time>
      </trkpt>
      <trkpt lat="48.43774" lon="-2.91802">
        <ele>259</ele>
        <time>2014-02-16T14:32:29.1Z</time>
      </trkpt>
      <trkpt lat="48.43774" lon="-2.91802">
        <ele>259</ele>
        <time>2014-02-16T14:32:32.1Z</time>
      </trkpt>
      <trkpt lat="48.43774" lon="-2.91802">
        <ele>259</ele>
        <time>2014-02-16T14:32:35.1Z</time>
      </trkpt>
      <trkpt lat="48.43774" lon="-2.91802">
        <ele>260</ele>
        <time>2014-02-16T14:32:38.1Z</time>
      </trkpt>
      <trkpt lat="48.43773" lon="-2.91802">
        <ele>260</ele>
        <time>2014-02-16T14:32:40.1Z</time>
      </trkpt>
      <trkpt lat="48.43773" lon="-2.91803">
        <ele>260</ele>
        <time>2014-02-16T14:32:42.1Z</time>
      </trkpt>
      <trkpt lat="48.43771" lon="-2.91803">
        <ele>259</ele>
        <time>2014-02-16T14:32:45.1Z</time>
      </trkpt>
      <trkpt lat="48.43771" lon="-2.91803">
        <ele>259</ele>
        <time>2014-02-16T14:32:47.1Z</time>
      </trkpt>
      <trkpt lat="48.4377" lon="-2.91804">
        <ele>259</ele>
        <time>2014-02-16T14:32:49.1Z</time>
      </trkpt>
      <trkpt lat="48.43768" lon="-2.91804">
        <ele>259</ele>
        <time>2014-02-16T14:32:52.1Z</time>
      </trkpt>
      <trkpt lat="48.43766" lon="-2.91804">
        <ele>259</ele>
        <time>2014-02-16T14:32:55.1Z</time>
      </trkpt>
      <trkpt lat="48.43765" lon="-2.91805">
        <ele>258</ele>
        <time>2014-02-16T14:32:57.1Z</time>
      </trkpt>
      <trkpt lat="48.43763" lon="-2.91805">
        <ele>258</ele>
        <time>2014-02-16T14:32:59.1Z</time>
      </trkpt>
      <trkpt lat="48.43761" lon="-2.91806">
        <ele>258</ele>
        <time>2014-02-16T14:33:02.1Z</time>
      </trkpt>
      <trkpt lat="48.43758" lon="-2.91807">
        <ele>259</ele>
        <time>2014-02-16T14:33:05.1Z</time>
      </trkpt>
      <trkpt lat="48.43757" lon="-2.91808">
        <ele>259</ele>
        <time>2014-02-16T14:33:07.1Z</time>
      </trkpt>
      <trkpt lat="48.43756" lon="-2.91808">
        <ele>259</ele>
        <time>2014-02-16T14:33:10.1Z</time>
      </trkpt>
      <trkpt lat="48.43756" lon="-2.91808">
        <ele>258</ele>
        <time>2014-02-16T14:33:12.1Z</time>
      </trkpt>
      <trkpt lat="48.43756" lon="-2.91809">
        <ele>258</ele>
        <time>2014-02-16T14:33:15.1Z</time>
      </trkpt>
      <trkpt lat="48.43756" lon="-2.91809">
        <ele>259</ele>
        <time>2014-02-16T14:33:17.1Z</time>
      </trkpt>
      <trkpt lat="48.43754" lon="-2.91809">
        <ele>259</ele>
        <time>2014-02-16T14:33:20.1Z</time>
      </trkpt>
      <trkpt lat="48.43751" lon="-2.9181">
        <ele>259</ele>
        <time>2014-02-16T14:33:23.1Z</time>
      </trkpt>
      <trkpt lat="48.43749" lon="-2.9181">
        <ele>258</ele>
        <time>2014-02-16T14:33:25.1Z</time>
      </trkpt>
      <trkpt lat="48.43747" lon="-2.9181">
        <ele>258</ele>
        <time>2014-02-16T14:33:27.1Z</time>
      </trkpt>
      <trkpt lat="48.43744" lon="-2.9181">
        <ele>259</ele>
        <time>2014-02-16T14:33:30.1Z</time>
      </trkpt>
      <trkpt lat="48.43741" lon="-2.91811">
        <ele>259</ele>
        <time>2014-02-16T14:33:32.1Z</time>
      </trkpt>
      <trkpt lat="48.43738" lon="-2.91811">
        <ele>259</ele>
        <time>2014-02-16T14:33:35.1Z</time>
      </trkpt>
      <trkpt lat="48.43736" lon="-2.91811">
        <ele>259</ele>
        <time>2014-02-16T14:33:37.1Z</time>
      </trkpt>
      <trkpt lat="48.43734" lon="-2.91811">
        <ele>259</ele>
        <time>2014-02-16T14:33:39.1Z</time>
      </trkpt>
      <trkpt lat="48.43731" lon="-2.91811">
        <ele>259</ele>
        <time>2014-02-16T14:33:42.1Z</time>
      </trkpt>
      <trkpt lat="48.43729" lon="-2.91811">
        <ele>259</ele>
        <time>2014-02-16T14:33:44.1Z</time>
      </trkpt>
      <trkpt lat="48.43727" lon="-2.91811">
        <ele>259</ele>
        <time>2014-02-16T14:33:47.1Z</time>
      </trkpt>
      <trkpt lat="48.43726" lon="-2.9181">
        <ele>259</ele>
        <time>2014-02-16T14:33:50.1Z</time>
      </trkpt>
      <trkpt lat="48.43724" lon="-2.9181">
        <ele>259</ele>
        <time>2014-02-16T14:33:52.1Z</time>
      </trkpt>
      <trkpt lat="48.43723" lon="-2.9181">
        <ele>259</ele>
        <time>2014-02-16T14:33:54.1Z</time>
      </trkpt>
      <trkpt lat="48.4372" lon="-2.9181">
        <ele>259</ele>
        <time>2014-02-16T14:33:57.1Z</time>
      </trkpt>
      <trkpt lat="48.43717" lon="-2.9181">
        <ele>259</ele>
        <time>2014-02-16T14:34:00.1Z</time>
      </trkpt>
      <trkpt lat="48.43714" lon="-2.9181">
        <ele>259</ele>
        <time>2014-02-16T14:34:03.1Z</time>
      </trkpt>
      <trkpt lat="48.43712" lon="-2.91809">
        <ele>260</ele>
        <time>2014-02-16T14:34:05.1Z</time>
      </trkpt>
      <trkpt lat="48.4371" lon="-2.91809">
        <ele>260</ele>
        <time>2014-02-16T14:34:07.1Z</time>
      </trkpt>
      <trkpt lat="48.43706" lon="-2.91808">
        <ele>260</ele>
        <time>2014-02-16T14:34:10.1Z</time>
      </trkpt>
      <trkpt lat="48.43703" lon="-2.91808">
        <ele>260</ele>
        <time>2014-02-16T14:34:13.1Z</time>
      </trkpt>
      <trkpt lat="48.43701" lon="-2.91808">
        <ele>260</ele>
        <time>2014-02-16T14:34:15.1Z</time>
      </trkpt>
      <trkpt lat="48.43698" lon="-2.91807">
        <ele>260</ele>
        <time>2014-02-16T14:34:18.1Z</time>
      </trkpt>
      <trkpt lat="48.43694" lon="-2.91806">
        <ele>260</ele>
        <time>2014-02-16T14:34:21.1Z</time>
      </trkpt>
      <trkpt lat="48.43692" lon="-2.91806">
        <ele>260</ele>
        <time>2014-02-16T14:34:23.1Z</time>
      </trkpt>
      <trkpt lat="48.43689" lon="-2.91806">
        <ele>260</ele>
        <time>2014-02-16T14:34:26.1Z</time>
      </trkpt>
      <trkpt lat="48.43687" lon="-2.91805">
        <ele>260</ele>
        <time>2014-02-16T14:34:28.1Z</time>
      </trkpt>
      <trkpt lat="48.43684" lon="-2.91805">
        <ele>261</ele>
        <time>2014-02-16T14:34:31.1Z</time>
      </trkpt>
      <trkpt lat="48.43681" lon="-2.91805">
        <ele>261</ele>
        <time>2014-02-16T14:34:33.1Z</time>
      </trkpt>
      <trkpt lat="48.43678" lon="-2.91805">
        <ele>261</ele>
        <time>2014-02-16T14:34:36.1Z</time>
      </trkpt>
      <trkpt lat="48.43676" lon="-2.91805">
        <ele>261</ele>
        <time>2014-02-16T14:34:38.1Z</time>
      </trkpt>
      <trkpt lat="48.43673" lon="-2.91804">
        <ele>261</ele>
        <time>2014-02-16T14:34:41.1Z</time>
      </trkpt>
      <trkpt lat="48.4367" lon="-2.91804">
        <ele>261</ele>
        <time>2014-02-16T14:34:44.1Z</time>
      </trkpt>
      <trkpt lat="48.43668" lon="-2.91805">
        <ele>261</ele>
        <time>2014-02-16T14:34:46.1Z</time>
      </trkpt>
      <trkpt lat="48.43666" lon="-2.91806">
        <ele>261</ele>
        <time>2014-02-16T14:34:48.1Z</time>
      </trkpt>
      <trkpt lat="48.43663" lon="-2.91807">
        <ele>261</ele>
        <time>2014-02-16T14:34:50.1Z</time>
      </trkpt>
      <trkpt lat="48.43661" lon="-2.91807">
        <ele>262</ele>
        <time>2014-02-16T14:34:53.1Z</time>
      </trkpt>
      <trkpt lat="48.43658" lon="-2.91809">
        <ele>261</ele>
        <time>2014-02-16T14:34:56.1Z</time>
      </trkpt>
      <trkpt lat="48.43656" lon="-2.9181">
        <ele>261</ele>
        <time>2014-02-16T14:34:58.1Z</time>
      </trkpt>
      <trkpt lat="48.43653" lon="-2.91812">
        <ele>262</ele>
        <time>2014-02-16T14:35:01.1Z</time>
      </trkpt>
      <trkpt lat="48.4365" lon="-2.91813">
        <ele>262</ele>
        <time>2014-02-16T14:35:04.1Z</time>
      </trkpt>
      <trkpt lat="48.43648" lon="-2.91814">
        <ele>262</ele>
        <time>2014-02-16T14:35:07.1Z</time>
      </trkpt>
      <trkpt lat="48.43645" lon="-2.91815">
        <ele>262</ele>
        <time>2014-02-16T14:35:10.1Z</time>
      </trkpt>
      <trkpt lat="48.43642" lon="-2.91816">
        <ele>262</ele>
        <time>2014-02-16T14:35:13.1Z</time>
      </trkpt>
      <trkpt lat="48.43639" lon="-2.91818">
        <ele>262</ele>
        <time>2014-02-16T14:35:16.1Z</time>
      </trkpt>
      <trkpt lat="48.43636" lon="-2.91821">
        <ele>262</ele>
        <time>2014-02-16T14:35:19.1Z</time>
      </trkpt>
      <trkpt lat="48.43634" lon="-2.91822">
        <ele>262</ele>
        <time>2014-02-16T14:35:21.1Z</time>
      </trkpt>
      <trkpt lat="48.43631" lon="-2.91823">
        <ele>262</ele>
        <time>2014-02-16T14:35:23.1Z</time>
      </trkpt>
      <trkpt lat="48.43629" lon="-2.91823">
        <ele>262</ele>
        <time>2014-02-16T14:35:25.1Z</time>
      </trkpt>
      <trkpt lat="48.43626" lon="-2.91825">
        <ele>262</ele>
        <time>2014-02-16T14:35:28.1Z</time>
      </trkpt>
      <trkpt lat="48.43622" lon="-2.91826">
        <ele>262</ele>
        <time>2014-02-16T14:35:31.1Z</time>
      </trkpt>
      <trkpt lat="48.43619" lon="-2.91828">
        <ele>261</ele>
        <time>2014-02-16T14:35:34.1Z</time>
      </trkpt>
      <trkpt lat="48.43616" lon="-2.91829">
        <ele>261</ele>
        <time>2014-02-16T14:35:36.1Z</time>
      </trkpt>
      <trkpt lat="48.43614" lon="-2.9183">
        <ele>261</ele>
        <time>2014-02-16T14:35:38.1Z</time>
      </trkpt>
      <trkpt lat="48.43612" lon="-2.91831">
        <ele>261</ele>
        <time>2014-02-16T14:35:40.1Z</time>
      </trkpt>
      <trkpt lat="48.4361" lon="-2.91832">
        <ele>261</ele>
        <time>2014-02-16T14:35:42.1Z</time>
      </trkpt>
      <trkpt lat="48.43607" lon="-2.91833">
        <ele>261</ele>
        <time>2014-02-16T14:35:45.1Z</time>
      </trkpt>
      <trkpt lat="48.43604" lon="-2.91835">
        <ele>261</ele>
        <time>2014-02-16T14:35:47.1Z</time>
      </trkpt>
      <trkpt lat="48.43602" lon="-2.91835">
        <ele>261</ele>
        <time>2014-02-16T14:35:49.1Z</time>
      </trkpt>
      <trkpt lat="48.436" lon="-2.91837">
        <ele>261</ele>
        <time>2014-02-16T14:35:51.1Z</time>
      </trkpt>
      <trkpt lat="48.43597" lon="-2.91838">
        <ele>261</ele>
        <time>2014-02-16T14:35:53.1Z</time>
      </trkpt>
      <trkpt lat="48.43596" lon="-2.91839">
        <ele>261</ele>
        <time>2014-02-16T14:35:55.1Z</time>
      </trkpt>
      <trkpt lat="48.43592" lon="-2.9184">
        <ele>261</ele>
        <time>2014-02-16T14:35:58.1Z</time>
      </trkpt>
      <trkpt lat="48.43589" lon="-2.91843">
        <ele>261</ele>
        <time>2014-02-16T14:36:01.1Z</time>
      </trkpt>
      <trkpt lat="48.43587" lon="-2.91844">
        <ele>261</ele>
        <time>2014-02-16T14:36:04.1Z</time>
      </trkpt>
      <trkpt lat="48.43586" lon="-2.91845">
        <ele>261</ele>
        <time>2014-02-16T14:36:06.1Z</time>
      </trkpt>
      <trkpt lat="48.43584" lon="-2.91845">
        <ele>260</ele>
        <time>2014-02-16T14:36:08.1Z</time>
      </trkpt>
      <trkpt lat="48.43582" lon="-2.91846">
        <ele>260</ele>
        <time>2014-02-16T14:36:11.1Z</time>
      </trkpt>
      <trkpt lat="48.4358" lon="-2.91847">
        <ele>260</ele>
        <time>2014-02-16T14:36:13.1Z</time>
      </trkpt>
      <trkpt lat="48.43577" lon="-2.91849">
        <ele>260</ele>
        <time>2014-02-16T14:36:16.1Z</time>
      </trkpt>
      <trkpt lat="48.43574" lon="-2.91851">
        <ele>259</ele>
        <time>2014-02-16T14:36:19.1Z</time>
      </trkpt>
      <trkpt lat="48.43571" lon="-2.91852">
        <ele>260</ele>
        <time>2014-02-16T14:36:22.1Z</time>
      </trkpt>
      <trkpt lat="48.4357" lon="-2.91854">
        <ele>260</ele>
        <time>2014-02-16T14:36:24.1Z</time>
      </trkpt>
      <trkpt lat="48.43566" lon="-2.91856">
        <ele>260</ele>
        <time>2014-02-16T14:36:27.1Z</time>
      </trkpt>
      <trkpt lat="48.43563" lon="-2.91858">
        <ele>260</ele>
        <time>2014-02-16T14:36:30.1Z</time>
      </trkpt>
      <trkpt lat="48.4356" lon="-2.9186">
        <ele>260</ele>
        <time>2014-02-16T14:36:33.1Z</time>
      </trkpt>
      <trkpt lat="48.43557" lon="-2.91862">
        <ele>260</ele>
        <time>2014-02-16T14:36:36.1Z</time>
      </trkpt>
      <trkpt lat="48.43554" lon="-2.91865">
        <ele>260</ele>
        <time>2014-02-16T14:36:39.1Z</time>
      </trkpt>
      <trkpt lat="48.43551" lon="-2.91867">
        <ele>261</ele>
        <time>2014-02-16T14:36:42.1Z</time>
      </trkpt>
      <trkpt lat="48.43548" lon="-2.9187">
        <ele>260</ele>
        <time>2014-02-16T14:36:45.1Z</time>
      </trkpt>
      <trkpt lat="48.43544" lon="-2.91873">
        <ele>260</ele>
        <time>2014-02-16T14:36:48.1Z</time>
      </trkpt>
      <trkpt lat="48.43542" lon="-2.91875">
        <ele>260</ele>
        <time>2014-02-16T14:36:50.1Z</time>
      </trkpt>
      <trkpt lat="48.4354" lon="-2.91877">
        <ele>260</ele>
        <time>2014-02-16T14:36:52.1Z</time>
      </trkpt>
      <trkpt lat="48.43537" lon="-2.9188">
        <ele>260</ele>
        <time>2014-02-16T14:36:55.1Z</time>
      </trkpt>
      <trkpt lat="48.43534" lon="-2.91884">
        <ele>261</ele>
        <time>2014-02-16T14:36:58.1Z</time>
      </trkpt>
      <trkpt lat="48.43532" lon="-2.91886">
        <ele>261</ele>
        <time>2014-02-16T14:37:00.1Z</time>
      </trkpt>
      <trkpt lat="48.4353" lon="-2.91889">
        <ele>260</ele>
        <time>2014-02-16T14:37:03.1Z</time>
      </trkpt>
      <trkpt lat="48.43528" lon="-2.91892">
        <ele>260</ele>
        <time>2014-02-16T14:37:05.1Z</time>
      </trkpt>
      <trkpt lat="48.43525" lon="-2.91895">
        <ele>260</ele>
        <time>2014-02-16T14:37:08.1Z</time>
      </trkpt>
      <trkpt lat="48.43522" lon="-2.91898">
        <ele>261</ele>
        <time>2014-02-16T14:37:11.1Z</time>
      </trkpt>
      <trkpt lat="48.4352" lon="-2.919">
        <ele>261</ele>
        <time>2014-02-16T14:37:13.1Z</time>
      </trkpt>
      <trkpt lat="48.43519" lon="-2.91902">
        <ele>260</ele>
        <time>2014-02-16T14:37:15.1Z</time>
      </trkpt>
      <trkpt lat="48.43517" lon="-2.91904">
        <ele>260</ele>
        <time>2014-02-16T14:37:17.1Z</time>
      </trkpt>
      <trkpt lat="48.43514" lon="-2.91908">
        <ele>260</ele>
        <time>2014-02-16T14:37:20.1Z</time>
      </trkpt>
      <trkpt lat="48.43512" lon="-2.91912">
        <ele>260</ele>
        <time>2014-02-16T14:37:23.1Z</time>
      </trkpt>
      <trkpt lat="48.43509" lon="-2.91916">
        <ele>260</ele>
        <time>2014-02-16T14:37:26.1Z</time>
      </trkpt>
      <trkpt lat="48.43508" lon="-2.91919">
        <ele>260</ele>
        <time>2014-02-16T14:37:28.1Z</time>
      </trkpt>
      <trkpt lat="48.43507" lon="-2.91922">
        <ele>260</ele>
        <time>2014-02-16T14:37:30.1Z</time>
      </trkpt>
      <trkpt lat="48.43505" lon="-2.91925">
        <ele>260</ele>
        <time>2014-02-16T14:37:32.1Z</time>
      </trkpt>
      <trkpt lat="48.43505" lon="-2.91927">
        <ele>260</ele>
        <time>2014-02-16T14:37:34.1Z</time>
      </trkpt>
      <trkpt lat="48.43504" lon="-2.91932">
        <ele>260</ele>
        <time>2014-02-16T14:37:37.1Z</time>
      </trkpt>
      <trkpt lat="48.43504" lon="-2.91936">
        <ele>261</ele>
        <time>2014-02-16T14:37:40.1Z</time>
      </trkpt>
      <trkpt lat="48.43504" lon="-2.91939">
        <ele>261</ele>
        <time>2014-02-16T14:37:42.1Z</time>
      </trkpt>
      <trkpt lat="48.43504" lon="-2.91942">
        <ele>262</ele>
        <time>2014-02-16T14:37:44.1Z</time>
      </trkpt>
      <trkpt lat="48.43505" lon="-2.91946">
        <ele>262</ele>
        <time>2014-02-16T14:37:47.1Z</time>
      </trkpt>
      <trkpt lat="48.43506" lon="-2.91948">
        <ele>263</ele>
        <time>2014-02-16T14:37:49.1Z</time>
      </trkpt>
      <trkpt lat="48.43508" lon="-2.91951">
        <ele>263</ele>
        <time>2014-02-16T14:37:52.1Z</time>
      </trkpt>
      <trkpt lat="48.4351" lon="-2.91953">
        <ele>263</ele>
        <time>2014-02-16T14:37:55.1Z</time>
      </trkpt>
      <trkpt lat="48.43512" lon="-2.91954">
        <ele>262</ele>
        <time>2014-02-16T14:37:57.1Z</time>
      </trkpt>
      <trkpt lat="48.43514" lon="-2.91956">
        <ele>262</ele>
        <time>2014-02-16T14:37:59.1Z</time>
      </trkpt>
      <trkpt lat="48.43516" lon="-2.91957">
        <ele>262</ele>
        <time>2014-02-16T14:38:01.1Z</time>
      </trkpt>
      <trkpt lat="48.43519" lon="-2.91958">
        <ele>262</ele>
        <time>2014-02-16T14:38:04.1Z</time>
      </trkpt>
      <trkpt lat="48.43521" lon="-2.9196">
        <ele>262</ele>
        <time>2014-02-16T14:38:06.1Z</time>
      </trkpt>
      <trkpt lat="48.43523" lon="-2.91961">
        <ele>262</ele>
        <time>2014-02-16T14:38:09.1Z</time>
      </trkpt>
      <trkpt lat="48.43526" lon="-2.91963">
        <ele>262</ele>
        <time>2014-02-16T14:38:12.1Z</time>
      </trkpt>
      <trkpt lat="48.43529" lon="-2.91964">
        <ele>262</ele>
        <time>2014-02-16T14:38:14.1Z</time>
      </trkpt>
      <trkpt lat="48.43532" lon="-2.91965">
        <ele>262</ele>
        <time>2014-02-16T14:38:17.1Z</time>
      </trkpt>
      <trkpt lat="48.43535" lon="-2.91966">
        <ele>262</ele>
        <time>2014-02-16T14:38:20.1Z</time>
      </trkpt>
      <trkpt lat="48.43537" lon="-2.91966">
        <ele>262</ele>
        <time>2014-02-16T14:38:22.1Z</time>
      </trkpt>
      <trkpt lat="48.43541" lon="-2.91966">
        <ele>262</ele>
        <time>2014-02-16T14:38:25.1Z</time>
      </trkpt>
      <trkpt lat="48.43544" lon="-2.91967">
        <ele>263</ele>
        <time>2014-02-16T14:38:28.1Z</time>
      </trkpt>
      <trkpt lat="48.43547" lon="-2.91967">
        <ele>263</ele>
        <time>2014-02-16T14:38:30.1Z</time>
      </trkpt>
      <trkpt lat="48.43549" lon="-2.91968">
        <ele>263</ele>
        <time>2014-02-16T14:38:32.1Z</time>
      </trkpt>
      <trkpt lat="48.43551" lon="-2.91968">
        <ele>263</ele>
        <time>2014-02-16T14:38:34.1Z</time>
      </trkpt>
      <trkpt lat="48.43555" lon="-2.91968">
        <ele>262</ele>
        <time>2014-02-16T14:38:37.1Z</time>
      </trkpt>
      <trkpt lat="48.43558" lon="-2.91968">
        <ele>263</ele>
        <time>2014-02-16T14:38:40.1Z</time>
      </trkpt>
      <trkpt lat="48.43561" lon="-2.91968">
        <ele>262</ele>
        <time>2014-02-16T14:38:42.1Z</time>
      </trkpt>
      <trkpt lat="48.43563" lon="-2.91968">
        <ele>262</ele>
        <time>2014-02-16T14:38:44.1Z</time>
      </trkpt>
      <trkpt lat="48.43567" lon="-2.91967">
        <ele>262</ele>
        <time>2014-02-16T14:38:47.1Z</time>
      </trkpt>
      <trkpt lat="48.43571" lon="-2.91967">
        <ele>263</ele>
        <time>2014-02-16T14:38:50.1Z</time>
      </trkpt>
      <trkpt lat="48.43575" lon="-2.91967">
        <ele>263</ele>
        <time>2014-02-16T14:38:53.1Z</time>
      </trkpt>
      <trkpt lat="48.43577" lon="-2.91967">
        <ele>263</ele>
        <time>2014-02-16T14:38:55.1Z</time>
      </trkpt>
      <trkpt lat="48.43581" lon="-2.91967">
        <ele>263</ele>
        <time>2014-02-16T14:38:58.1Z</time>
      </trkpt>
      <trkpt lat="48.43583" lon="-2.91967">
        <ele>263</ele>
        <time>2014-02-16T14:39:00.1Z</time>
      </trkpt>
      <trkpt lat="48.43586" lon="-2.91967">
        <ele>263</ele>
        <time>2014-02-16T14:39:02.1Z</time>
      </trkpt>
      <trkpt lat="48.43588" lon="-2.91968">
        <ele>263</ele>
        <time>2014-02-16T14:39:04.1Z</time>
      </trkpt>
      <trkpt lat="48.43592" lon="-2.91968">
        <ele>263</ele>
        <time>2014-02-16T14:39:07.1Z</time>
      </trkpt>
      <trkpt lat="48.43594" lon="-2.91969">
        <ele>263</ele>
        <time>2014-02-16T14:39:09.1Z</time>
      </trkpt>
      <trkpt lat="48.43597" lon="-2.91969">
        <ele>263</ele>
        <time>2014-02-16T14:39:12.1Z</time>
      </trkpt>
      <trkpt lat="48.436" lon="-2.91969">
        <ele>264</ele>
        <time>2014-02-16T14:39:14.1Z</time>
      </trkpt>
      <trkpt lat="48.43602" lon="-2.9197">
        <ele>263</ele>
        <time>2014-02-16T14:39:16.1Z</time>
      </trkpt>
      <trkpt lat="48.43605" lon="-2.9197">
        <ele>263</ele>
        <time>2014-02-16T14:39:19.1Z</time>
      </trkpt>
      <trkpt lat="48.43608" lon="-2.91971">
        <ele>263</ele>
        <time>2014-02-16T14:39:21.1Z</time>
      </trkpt>
      <trkpt lat="48.4361" lon="-2.91972">
        <ele>263</ele>
        <time>2014-02-16T14:39:23.1Z</time>
      </trkpt>
      <trkpt lat="48.43613" lon="-2.91973">
        <ele>264</ele>
        <time>2014-02-16T14:39:26.1Z</time>
      </trkpt>
      <trkpt lat="48.43617" lon="-2.91974">
        <ele>264</ele>
        <time>2014-02-16T14:39:29.1Z</time>
      </trkpt>
      <trkpt lat="48.4362" lon="-2.91975">
        <ele>264</ele>
        <time>2014-02-16T14:39:32.1Z</time>
      </trkpt>
      <trkpt lat="48.43623" lon="-2.91976">
        <ele>264</ele>
        <time>2014-02-16T14:39:34.1Z</time>
      </trkpt>
      <trkpt lat="48.43625" lon="-2.91977">
        <ele>264</ele>
        <time>2014-02-16T14:39:36.1Z</time>
      </trkpt>
      <trkpt lat="48.43627" lon="-2.91978">
        <ele>265</ele>
        <time>2014-02-16T14:39:38.1Z</time>
      </trkpt>
      <trkpt lat="48.43631" lon="-2.91979">
        <ele>265</ele>
        <time>2014-02-16T14:39:41.1Z</time>
      </trkpt>
      <trkpt lat="48.43633" lon="-2.9198">
        <ele>266</ele>
        <time>2014-02-16T14:39:43.1Z</time>
      </trkpt>
      <trkpt lat="48.43635" lon="-2.91982">
        <ele>266</ele>
        <time>2014-02-16T14:39:45.1Z</time>
      </trkpt>
      <trkpt lat="48.43638" lon="-2.91984">
        <ele>266</ele>
        <time>2014-02-16T14:39:48.1Z</time>
      </trkpt>
      <trkpt lat="48.43642" lon="-2.91985">
        <ele>266</ele>
        <time>2014-02-16T14:39:51.1Z</time>
      </trkpt>
      <trkpt lat="48.43645" lon="-2.91987">
        <ele>266</ele>
        <time>2014-02-16T14:39:54.1Z</time>
      </trkpt>
      <trkpt lat="48.43648" lon="-2.91989">
        <ele>266</ele>
        <time>2014-02-16T14:39:57.1Z</time>
      </trkpt>
      <trkpt lat="48.4365" lon="-2.9199">
        <ele>266</ele>
        <time>2014-02-16T14:39:59.1Z</time>
      </trkpt>
      <trkpt lat="48.43653" lon="-2.91992">
        <ele>267</ele>
        <time>2014-02-16T14:40:02.1Z</time>
      </trkpt>
      <trkpt lat="48.43655" lon="-2.91994">
        <ele>267</ele>
        <time>2014-02-16T14:40:04.1Z</time>
      </trkpt>
      <trkpt lat="48.43658" lon="-2.91996">
        <ele>266</ele>
        <time>2014-02-16T14:40:07.1Z</time>
      </trkpt>
      <trkpt lat="48.43661" lon="-2.91997">
        <ele>266</ele>
        <time>2014-02-16T14:40:10.1Z</time>
      </trkpt>
      <trkpt lat="48.43664" lon="-2.91999">
        <ele>266</ele>
        <time>2014-02-16T14:40:12.1Z</time>
      </trkpt>
      <trkpt lat="48.43666" lon="-2.92001">
        <ele>265</ele>
        <time>2014-02-16T14:40:14.1Z</time>
      </trkpt>
      <trkpt lat="48.43668" lon="-2.92002">
        <ele>265</ele>
        <time>2014-02-16T14:40:16.1Z</time>
      </trkpt>
      <trkpt lat="48.4367" lon="-2.92003">
        <ele>266</ele>
        <time>2014-02-16T14:40:18.1Z</time>
      </trkpt>
      <trkpt lat="48.43673" lon="-2.92006">
        <ele>266</ele>
        <time>2014-02-16T14:40:21.1Z</time>
      </trkpt>
      <trkpt lat="48.43676" lon="-2.92007">
        <ele>267</ele>
        <time>2014-02-16T14:40:23.1Z</time>
      </trkpt>
      <trkpt lat="48.43679" lon="-2.92009">
        <ele>267</ele>
        <time>2014-02-16T14:40:26.1Z</time>
      </trkpt>
      <trkpt lat="48.43682" lon="-2.92011">
        <ele>267</ele>
        <time>2014-02-16T14:40:29.1Z</time>
      </trkpt>
      <trkpt lat="48.43685" lon="-2.92014">
        <ele>267</ele>
        <time>2014-02-16T14:40:32.1Z</time>
      </trkpt>
      <trkpt lat="48.43687" lon="-2.92015">
        <ele>267</ele>
        <time>2014-02-16T14:40:34.1Z</time>
      </trkpt>
      <trkpt lat="48.43689" lon="-2.92016">
        <ele>267</ele>
        <time>2014-02-16T14:40:36.1Z</time>
      </trkpt>
      <trkpt lat="48.43691" lon="-2.92018">
        <ele>267</ele>
        <time>2014-02-16T14:40:38.1Z</time>
      </trkpt>
      <trkpt lat="48.43693" lon="-2.92019">
        <ele>267</ele>
        <time>2014-02-16T14:40:40.1Z</time>
      </trkpt>
      <trkpt lat="48.43697" lon="-2.92021">
        <ele>268</ele>
        <time>2014-02-16T14:40:43.1Z</time>
      </trkpt>
      <trkpt lat="48.437" lon="-2.92024">
        <ele>268</ele>
        <time>2014-02-16T14:40:46.1Z</time>
      </trkpt>
      <trkpt lat="48.43702" lon="-2.92026">
        <ele>268</ele>
        <time>2014-02-16T14:40:48.1Z</time>
      </trkpt>
      <trkpt lat="48.43704" lon="-2.92027">
        <ele>268</ele>
        <time>2014-02-16T14:40:50.1Z</time>
      </trkpt>
      <trkpt lat="48.43706" lon="-2.92029">
        <ele>268</ele>
        <time>2014-02-16T14:40:52.1Z</time>
      </trkpt>
      <trkpt lat="48.43708" lon="-2.92031">
        <ele>268</ele>
        <time>2014-02-16T14:40:54.1Z</time>
      </trkpt>
      <trkpt lat="48.4371" lon="-2.92033">
        <ele>268</ele>
        <time>2014-02-16T14:40:56.1Z</time>
      </trkpt>
      <trkpt lat="48.43713" lon="-2.92036">
        <ele>269</ele>
        <time>2014-02-16T14:40:59.1Z</time>
      </trkpt>
      <trkpt lat="48.43715" lon="-2.92038">
        <ele>269</ele>
        <time>2014-02-16T14:41:01.1Z</time>
      </trkpt>
      <trkpt lat="48.43718" lon="-2.92041">
        <ele>269</ele>
        <time>2014-02-16T14:41:04.1Z</time>
      </trkpt>
      <trkpt lat="48.43721" lon="-2.92044">
        <ele>269</ele>
        <time>2014-02-16T14:41:07.1Z</time>
      </trkpt>
      <trkpt lat="48.43723" lon="-2.92047">
        <ele>269</ele>
        <time>2014-02-16T14:41:10.1Z</time>
      </trkpt>
      <trkpt lat="48.43725" lon="-2.92048">
        <ele>269</ele>
        <time>2014-02-16T14:41:12.1Z</time>
      </trkpt>
      <trkpt lat="48.43727" lon="-2.9205">
        <ele>270</ele>
        <time>2014-02-16T14:41:14.1Z</time>
      </trkpt>
      <trkpt lat="48.43729" lon="-2.92053">
        <ele>270</ele>
        <time>2014-02-16T14:41:17.1Z</time>
      </trkpt>
      <trkpt lat="48.43732" lon="-2.92056">
        <ele>269</ele>
        <time>2014-02-16T14:41:20.1Z</time>
      </trkpt>
      <trkpt lat="48.43734" lon="-2.92059">
        <ele>269</ele>
        <time>2014-02-16T14:41:23.1Z</time>
      </trkpt>
      <trkpt lat="48.43736" lon="-2.9206">
        <ele>269</ele>
        <time>2014-02-16T14:41:25.1Z</time>
      </trkpt>
      <trkpt lat="48.43737" lon="-2.92062">
        <ele>269</ele>
        <time>2014-02-16T14:41:27.1Z</time>
      </trkpt>
      <trkpt lat="48.43739" lon="-2.92064">
        <ele>269</ele>
        <time>2014-02-16T14:41:29.1Z</time>
      </trkpt>
      <trkpt lat="48.43741" lon="-2.92067">
        <ele>269</ele>
        <time>2014-02-16T14:41:32.1Z</time>
      </trkpt>
      <trkpt lat="48.43742" lon="-2.92069">
        <ele>269</ele>
        <time>2014-02-16T14:41:34.1Z</time>
      </trkpt>
      <trkpt lat="48.43745" lon="-2.92072">
        <ele>270</ele>
        <time>2014-02-16T14:41:37.1Z</time>
      </trkpt>
      <trkpt lat="48.43747" lon="-2.92075">
        <ele>270</ele>
        <time>2014-02-16T14:41:40.1Z</time>
      </trkpt>
      <trkpt lat="48.4375" lon="-2.92078">
        <ele>269</ele>
        <time>2014-02-16T14:41:43.1Z</time>
      </trkpt>
      <trkpt lat="48.43753" lon="-2.92082">
        <ele>270</ele>
        <time>2014-02-16T14:41:46.1Z</time>
      </trkpt>
      <trkpt lat="48.43754" lon="-2.92084">
        <ele>270</ele>
        <time>2014-02-16T14:41:48.1Z</time>
      </trkpt>
      <trkpt lat="48.43757" lon="-2.92087">
        <ele>270</ele>
        <time>2014-02-16T14:41:51.1Z</time>
      </trkpt>
      <trkpt lat="48.43758" lon="-2.92089">
        <ele>270</ele>
        <time>2014-02-16T14:41:53.1Z</time>
      </trkpt>
      <trkpt lat="48.43761" lon="-2.92092">
        <ele>269</ele>
        <time>2014-02-16T14:41:56.1Z</time>
      </trkpt>
      <trkpt lat="48.43764" lon="-2.92095">
        <ele>269</ele>
        <time>2014-02-16T14:41:59.1Z</time>
      </trkpt>
      <trkpt lat="48.43766" lon="-2.92098">
        <ele>270</ele>
        <time>2014-02-16T14:42:02.1Z</time>
      </trkpt>
      <trkpt lat="48.43768" lon="-2.92101">
        <ele>270</ele>
        <time>2014-02-16T14:42:04.1Z</time>
      </trkpt>
      <trkpt lat="48.43771" lon="-2.92104">
        <ele>271</ele>
        <time>2014-02-16T14:42:07.1Z</time>
      </trkpt>
      <trkpt lat="48.43773" lon="-2.92107">
        <ele>271</ele>
        <time>2014-02-16T14:42:10.1Z</time>
      </trkpt>
      <trkpt lat="48.43776" lon="-2.9211">
        <ele>271</ele>
        <time>2014-02-16T14:42:13.1Z</time>
      </trkpt>
      <trkpt lat="48.43779" lon="-2.92114">
        <ele>271</ele>
        <time>2014-02-16T14:42:16.1Z</time>
      </trkpt>
      <trkpt lat="48.4378" lon="-2.92116">
        <ele>270</ele>
        <time>2014-02-16T14:42:18.1Z</time>
      </trkpt>
      <trkpt lat="48.43782" lon="-2.92118">
        <ele>271</ele>
        <time>2014-02-16T14:42:20.1Z</time>
      </trkpt>
      <trkpt lat="48.43785" lon="-2.92121">
        <ele>271</ele>
        <time>2014-02-16T14:42:23.1Z</time>
      </trkpt>
      <trkpt lat="48.43787" lon="-2.92124">
        <ele>271</ele>
        <time>2014-02-16T14:42:26.1Z</time>
      </trkpt>
      <trkpt lat="48.4379" lon="-2.92127">
        <ele>272</ele>
        <time>2014-02-16T14:42:29.1Z</time>
      </trkpt>
      <trkpt lat="48.43792" lon="-2.9213">
        <ele>272</ele>
        <time>2014-02-16T14:42:31.1Z</time>
      </trkpt>
      <trkpt lat="48.43793" lon="-2.92132">
        <ele>272</ele>
        <time>2014-02-16T14:42:33.1Z</time>
      </trkpt>
      <trkpt lat="48.43796" lon="-2.92135">
        <ele>272</ele>
        <time>2014-02-16T14:42:36.1Z</time>
      </trkpt>
      <trkpt lat="48.43799" lon="-2.92139">
        <ele>273</ele>
        <time>2014-02-16T14:42:39.1Z</time>
      </trkpt>
      <trkpt lat="48.43801" lon="-2.92141">
        <ele>273</ele>
        <time>2014-02-16T14:42:41.1Z</time>
      </trkpt>
      <trkpt lat="48.43803" lon="-2.92144">
        <ele>273</ele>
        <time>2014-02-16T14:42:44.1Z</time>
      </trkpt>
      <trkpt lat="48.43805" lon="-2.92145">
        <ele>273</ele>
        <time>2014-02-16T14:42:46.1Z</time>
      </trkpt>
      <trkpt lat="48.43808" lon="-2.92149">
        <ele>273</ele>
        <time>2014-02-16T14:42:49.1Z</time>
      </trkpt>
      <trkpt lat="48.4381" lon="-2.92151">
        <ele>273</ele>
        <time>2014-02-16T14:42:52.1Z</time>
      </trkpt>
      <trkpt lat="48.43811" lon="-2.92153">
        <ele>273</ele>
        <time>2014-02-16T14:42:54.1Z</time>
      </trkpt>
      <trkpt lat="48.43814" lon="-2.92156">
        <ele>274</ele>
        <time>2014-02-16T14:42:57.1Z</time>
      </trkpt>
      <trkpt lat="48.43815" lon="-2.92158">
        <ele>274</ele>
        <time>2014-02-16T14:42:59.1Z</time>
      </trkpt>
      <trkpt lat="48.43818" lon="-2.92161">
        <ele>274</ele>
        <time>2014-02-16T14:43:02.1Z</time>
      </trkpt>
      <trkpt lat="48.43819" lon="-2.92162">
        <ele>274</ele>
        <time>2014-02-16T14:43:04.1Z</time>
      </trkpt>
      <trkpt lat="48.43822" lon="-2.92165">
        <ele>274</ele>
        <time>2014-02-16T14:43:07.1Z</time>
      </trkpt>
      <trkpt lat="48.43825" lon="-2.92168">
        <ele>275</ele>
        <time>2014-02-16T14:43:10.1Z</time>
      </trkpt>
      <trkpt lat="48.43827" lon="-2.9217">
        <ele>275</ele>
        <time>2014-02-16T14:43:12.1Z</time>
      </trkpt>
      <trkpt lat="48.43829" lon="-2.92173">
        <ele>275</ele>
        <time>2014-02-16T14:43:15.1Z</time>
      </trkpt>
      <trkpt lat="48.43832" lon="-2.92175">
        <ele>275</ele>
        <time>2014-02-16T14:43:18.1Z</time>
      </trkpt>
      <trkpt lat="48.43834" lon="-2.92177">
        <ele>275</ele>
        <time>2014-02-16T14:43:20.1Z</time>
      </trkpt>
      <trkpt lat="48.43836" lon="-2.9218">
        <ele>275</ele>
        <time>2014-02-16T14:43:23.1Z</time>
      </trkpt>
      <trkpt lat="48.43839" lon="-2.92183">
        <ele>276</ele>
        <time>2014-02-16T14:43:26.1Z</time>
      </trkpt>
      <trkpt lat="48.43841" lon="-2.92186">
        <ele>276</ele>
        <time>2014-02-16T14:43:29.1Z</time>
      </trkpt>
      <trkpt lat="48.43844" lon="-2.92188">
        <ele>276</ele>
        <time>2014-02-16T14:43:32.1Z</time>
      </trkpt>
      <trkpt lat="48.43846" lon="-2.9219">
        <ele>276</ele>
        <time>2014-02-16T14:43:34.1Z</time>
      </trkpt>
      <trkpt lat="48.43849" lon="-2.92193">
        <ele>276</ele>
        <time>2014-02-16T14:43:37.1Z</time>
      </trkpt>
      <trkpt lat="48.43851" lon="-2.92194">
        <ele>276</ele>
        <time>2014-02-16T14:43:39.1Z</time>
      </trkpt>
      <trkpt lat="48.43853" lon="-2.92196">
        <ele>275</ele>
        <time>2014-02-16T14:43:41.1Z</time>
      </trkpt>
      <trkpt lat="48.43856" lon="-2.92199">
        <ele>276</ele>
        <time>2014-02-16T14:43:44.1Z</time>
      </trkpt>
      <trkpt lat="48.43857" lon="-2.92201">
        <ele>276</ele>
        <time>2014-02-16T14:43:46.1Z</time>
      </trkpt>
      <trkpt lat="48.4386" lon="-2.92204">
        <ele>277</ele>
        <time>2014-02-16T14:43:49.1Z</time>
      </trkpt>
      <trkpt lat="48.43863" lon="-2.92207">
        <ele>277</ele>
        <time>2014-02-16T14:43:52.1Z</time>
      </trkpt>
      <trkpt lat="48.43865" lon="-2.92209">
        <ele>277</ele>
        <time>2014-02-16T14:43:54.1Z</time>
      </trkpt>
      <trkpt lat="48.43867" lon="-2.92211">
        <ele>277</ele>
        <time>2014-02-16T14:43:56.1Z</time>
      </trkpt>
      <trkpt lat="48.4387" lon="-2.92214">
        <ele>277</ele>
        <time>2014-02-16T14:43:59.1Z</time>
      </trkpt>
      <trkpt lat="48.43872" lon="-2.92216">
        <ele>277</ele>
        <time>2014-02-16T14:44:01.1Z</time>
      </trkpt>
      <trkpt lat="48.43875" lon="-2.92219">
        <ele>278</ele>
        <time>2014-02-16T14:44:04.1Z</time>
      </trkpt>
      <trkpt lat="48.43877" lon="-2.92222">
        <ele>278</ele>
        <time>2014-02-16T14:44:07.1Z</time>
      </trkpt>
      <trkpt lat="48.43879" lon="-2.92224">
        <ele>278</ele>
        <time>2014-02-16T14:44:09.1Z</time>
      </trkpt>
      <trkpt lat="48.43882" lon="-2.92227">
        <ele>278</ele>
        <time>2014-02-16T14:44:12.1Z</time>
      </trkpt>
      <trkpt lat="48.43883" lon="-2.92229">
        <ele>278</ele>
        <time>2014-02-16T14:44:14.1Z</time>
      </trkpt>
      <trkpt lat="48.43885" lon="-2.92231">
        <ele>278</ele>
        <time>2014-02-16T14:44:16.1Z</time>
      </trkpt>
      <trkpt lat="48.43887" lon="-2.92234">
        <ele>278</ele>
        <time>2014-02-16T14:44:19.1Z</time>
      </trkpt>
      <trkpt lat="48.43889" lon="-2.92236">
        <ele>278</ele>
        <time>2014-02-16T14:44:21.1Z</time>
      </trkpt>
      <trkpt lat="48.43892" lon="-2.92239">
        <ele>278</ele>
        <time>2014-02-16T14:44:24.1Z</time>
      </trkpt>
      <trkpt lat="48.43894" lon="-2.92241">
        <ele>278</ele>
        <time>2014-02-16T14:44:26.1Z</time>
      </trkpt>
      <trkpt lat="48.43896" lon="-2.92244">
        <ele>279</ele>
        <time>2014-02-16T14:44:29.1Z</time>
      </trkpt>
      <trkpt lat="48.43899" lon="-2.92247">
        <ele>280</ele>
        <time>2014-02-16T14:44:32.1Z</time>
      </trkpt>
      <trkpt lat="48.43901" lon="-2.92249">
        <ele>280</ele>
        <time>2014-02-16T14:44:34.1Z</time>
      </trkpt>
      <trkpt lat="48.43903" lon="-2.92251">
        <ele>280</ele>
        <time>2014-02-16T14:44:37.1Z</time>
      </trkpt>
      <trkpt lat="48.43906" lon="-2.92253">
        <ele>280</ele>
        <time>2014-02-16T14:44:39.1Z</time>
      </trkpt>
      <trkpt lat="48.43908" lon="-2.92254">
        <ele>280</ele>
        <time>2014-02-16T14:44:41.1Z</time>
      </trkpt>
      <trkpt lat="48.43909" lon="-2.92257">
        <ele>280</ele>
        <time>2014-02-16T14:44:43.1Z</time>
      </trkpt>
      <trkpt lat="48.43912" lon="-2.92259">
        <ele>279</ele>
        <time>2014-02-16T14:44:46.1Z</time>
      </trkpt>
      <trkpt lat="48.43914" lon="-2.92261">
        <ele>280</ele>
        <time>2014-02-16T14:44:48.1Z</time>
      </trkpt>
      <trkpt lat="48.43917" lon="-2.92264">
        <ele>280</ele>
        <time>2014-02-16T14:44:51.1Z</time>
      </trkpt>
      <trkpt lat="48.43918" lon="-2.92266">
        <ele>280</ele>
        <time>2014-02-16T14:44:53.1Z</time>
      </trkpt>
      <trkpt lat="48.43921" lon="-2.92269">
        <ele>280</ele>
        <time>2014-02-16T14:44:56.1Z</time>
      </trkpt>
      <trkpt lat="48.43922" lon="-2.9227">
        <ele>280</ele>
        <time>2014-02-16T14:44:58.1Z</time>
      </trkpt>
      <trkpt lat="48.43924" lon="-2.92272">
        <ele>280</ele>
        <time>2014-02-16T14:45:00.1Z</time>
      </trkpt>
      <trkpt lat="48.43926" lon="-2.92274">
        <ele>280</ele>
        <time>2014-02-16T14:45:02.1Z</time>
      </trkpt>
      <trkpt lat="48.43928" lon="-2.92277">
        <ele>280</ele>
        <time>2014-02-16T14:45:05.1Z</time>
      </trkpt>
      <trkpt lat="48.43931" lon="-2.9228">
        <ele>280</ele>
        <time>2014-02-16T14:45:08.1Z</time>
      </trkpt>
      <trkpt lat="48.43933" lon="-2.92283">
        <ele>279</ele>
        <time>2014-02-16T14:45:11.1Z</time>
      </trkpt>
      <trkpt lat="48.43935" lon="-2.92284">
        <ele>279</ele>
        <time>2014-02-16T14:45:13.1Z</time>
      </trkpt>
      <trkpt lat="48.43938" lon="-2.92287">
        <ele>279</ele>
        <time>2014-02-16T14:45:16.1Z</time>
      </trkpt>
      <trkpt lat="48.43941" lon="-2.9229">
        <ele>279</ele>
        <time>2014-02-16T14:45:19.1Z</time>
      </trkpt>
      <trkpt lat="48.43943" lon="-2.92293">
        <ele>279</ele>
        <time>2014-02-16T14:45:22.1Z</time>
      </trkpt>
      <trkpt lat="48.43946" lon="-2.92295">
        <ele>279</ele>
        <time>2014-02-16T14:45:25.1Z</time>
      </trkpt>
      <trkpt lat="48.43948" lon="-2.92297">
        <ele>279</ele>
        <time>2014-02-16T14:45:27.1Z</time>
      </trkpt>
      <trkpt lat="48.4395" lon="-2.92299">
        <ele>280</ele>
        <time>2014-02-16T14:45:29.1Z</time>
      </trkpt>
      <trkpt lat="48.43953" lon="-2.92302">
        <ele>280</ele>
        <time>2014-02-16T14:45:32.1Z</time>
      </trkpt>
      <trkpt lat="48.43954" lon="-2.92304">
        <ele>280</ele>
        <time>2014-02-16T14:45:34.1Z</time>
      </trkpt>
      <trkpt lat="48.43957" lon="-2.92307">
        <ele>280</ele>
        <time>2014-02-16T14:45:37.1Z</time>
      </trkpt>
      <trkpt lat="48.4396" lon="-2.9231">
        <ele>280</ele>
        <time>2014-02-16T14:45:40.1Z</time>
      </trkpt>
      <trkpt lat="48.43962" lon="-2.92313">
        <ele>281</ele>
        <time>2014-02-16T14:45:43.1Z</time>
      </trkpt>
      <trkpt lat="48.43965" lon="-2.92316">
        <ele>281</ele>
        <time>2014-02-16T14:45:46.1Z</time>
      </trkpt>
      <trkpt lat="48.43968" lon="-2.92319">
        <ele>281</ele>
        <time>2014-02-16T14:45:49.1Z</time>
      </trkpt>
      <trkpt lat="48.4397" lon="-2.92323">
        <ele>281</ele>
        <time>2014-02-16T14:45:52.1Z</time>
      </trkpt>
      <trkpt lat="48.43973" lon="-2.92326">
        <ele>281</ele>
        <time>2014-02-16T14:45:55.1Z</time>
      </trkpt>
      <trkpt lat="48.43975" lon="-2.92329">
        <ele>282</ele>
        <time>2014-02-16T14:45:58.1Z</time>
      </trkpt>
      <trkpt lat="48.43977" lon="-2.92332">
        <ele>282</ele>
        <time>2014-02-16T14:46:00.1Z</time>
      </trkpt>
      <trkpt lat="48.43979" lon="-2.92336">
        <ele>283</ele>
        <time>2014-02-16T14:46:03.1Z</time>
      </trkpt>
      <trkpt lat="48.43981" lon="-2.92339">
        <ele>282</ele>
        <time>2014-02-16T14:46:06.1Z</time>
      </trkpt>
      <trkpt lat="48.43982" lon="-2.92342">
        <ele>282</ele>
        <time>2014-02-16T14:46:08.1Z</time>
      </trkpt>
      <trkpt lat="48.43984" lon="-2.92344">
        <ele>282</ele>
        <time>2014-02-16T14:46:10.1Z</time>
      </trkpt>
      <trkpt lat="48.43986" lon="-2.92348">
        <ele>282</ele>
        <time>2014-02-16T14:46:13.1Z</time>
      </trkpt>
      <trkpt lat="48.43988" lon="-2.92351">
        <ele>282</ele>
        <time>2014-02-16T14:46:15.1Z</time>
      </trkpt>
      <trkpt lat="48.43989" lon="-2.92353">
        <ele>282</ele>
        <time>2014-02-16T14:46:17.1Z</time>
      </trkpt>
      <trkpt lat="48.43991" lon="-2.92355">
        <ele>282</ele>
        <time>2014-02-16T14:46:19.1Z</time>
      </trkpt>
      <trkpt lat="48.43993" lon="-2.92358">
        <ele>282</ele>
        <time>2014-02-16T14:46:22.1Z</time>
      </trkpt>
      <trkpt lat="48.43995" lon="-2.92362">
        <ele>282</ele>
        <time>2014-02-16T14:46:25.1Z</time>
      </trkpt>
      <trkpt lat="48.43998" lon="-2.92367">
        <ele>283</ele>
        <time>2014-02-16T14:46:28.1Z</time>
      </trkpt>
      <trkpt lat="48.43999" lon="-2.92369">
        <ele>284</ele>
        <time>2014-02-16T14:46:30.1Z</time>
      </trkpt>
      <trkpt lat="48.44" lon="-2.92372">
        <ele>284</ele>
        <time>2014-02-16T14:46:32.1Z</time>
      </trkpt>
      <trkpt lat="48.44001" lon="-2.92374">
        <ele>284</ele>
        <time>2014-02-16T14:46:34.1Z</time>
      </trkpt>
      <trkpt lat="48.44003" lon="-2.92376">
        <ele>284</ele>
        <time>2014-02-16T14:46:36.1Z</time>
      </trkpt>
      <trkpt lat="48.44006" lon="-2.9238">
        <ele>284</ele>
        <time>2014-02-16T14:46:39.1Z</time>
      </trkpt>
      <trkpt lat="48.44007" lon="-2.92383">
        <ele>284</ele>
        <time>2014-02-16T14:46:42.1Z</time>
      </trkpt>
      <trkpt lat="48.44009" lon="-2.92387">
        <ele>284</ele>
        <time>2014-02-16T14:46:45.1Z</time>
      </trkpt>
      <trkpt lat="48.44011" lon="-2.92391">
        <ele>284</ele>
        <time>2014-02-16T14:46:48.1Z</time>
      </trkpt>
      <trkpt lat="48.44013" lon="-2.92394">
        <ele>284</ele>
        <time>2014-02-16T14:46:50.1Z</time>
      </trkpt>
      <trkpt lat="48.44015" lon="-2.92396">
        <ele>284</ele>
        <time>2014-02-16T14:46:52.1Z</time>
      </trkpt>
      <trkpt lat="48.44016" lon="-2.92399">
        <ele>284</ele>
        <time>2014-02-16T14:46:54.1Z</time>
      </trkpt>
      <trkpt lat="48.44019" lon="-2.92402">
        <ele>284</ele>
        <time>2014-02-16T14:46:57.1Z</time>
      </trkpt>
      <trkpt lat="48.4402" lon="-2.92405">
        <ele>284</ele>
        <time>2014-02-16T14:46:59.1Z</time>
      </trkpt>
      <trkpt lat="48.44022" lon="-2.92408">
        <ele>284</ele>
        <time>2014-02-16T14:47:02.1Z</time>
      </trkpt>
      <trkpt lat="48.44023" lon="-2.9241">
        <ele>285</ele>
        <time>2014-02-16T14:47:04.1Z</time>
      </trkpt>
      <trkpt lat="48.44025" lon="-2.92415">
        <ele>286</ele>
        <time>2014-02-16T14:47:07.1Z</time>
      </trkpt>
      <trkpt lat="48.44026" lon="-2.92418">
        <ele>286</ele>
        <time>2014-02-16T14:47:09.1Z</time>
      </trkpt>
      <trkpt lat="48.44029" lon="-2.92421">
        <ele>287</ele>
        <time>2014-02-16T14:47:12.1Z</time>
      </trkpt>
      <trkpt lat="48.4403" lon="-2.92424">
        <ele>287</ele>
        <time>2014-02-16T14:47:14.1Z</time>
      </trkpt>
      <trkpt lat="48.44031" lon="-2.92426">
        <ele>287</ele>
        <time>2014-02-16T14:47:16.1Z</time>
      </trkpt>
      <trkpt lat="48.44032" lon="-2.92428">
        <ele>287</ele>
        <time>2014-02-16T14:47:18.1Z</time>
      </trkpt>
      <trkpt lat="48.44035" lon="-2.92432">
        <ele>287</ele>
        <time>2014-02-16T14:47:21.1Z</time>
      </trkpt>
      <trkpt lat="48.44037" lon="-2.92435">
        <ele>287</ele>
        <time>2014-02-16T14:47:24.1Z</time>
      </trkpt>
      <trkpt lat="48.44039" lon="-2.92437">
        <ele>287</ele>
        <time>2014-02-16T14:47:26.1Z</time>
      </trkpt>
      <trkpt lat="48.4404" lon="-2.92439">
        <ele>287</ele>
        <time>2014-02-16T14:47:28.1Z</time>
      </trkpt>
      <trkpt lat="48.44043" lon="-2.92442">
        <ele>287</ele>
        <time>2014-02-16T14:47:31.1Z</time>
      </trkpt>
      <trkpt lat="48.44045" lon="-2.92446">
        <ele>287</ele>
        <time>2014-02-16T14:47:34.1Z</time>
      </trkpt>
      <trkpt lat="48.44047" lon="-2.92448">
        <ele>287</ele>
        <time>2014-02-16T14:47:36.1Z</time>
      </trkpt>
      <trkpt lat="48.44049" lon="-2.92451">
        <ele>287</ele>
        <time>2014-02-16T14:47:39.1Z</time>
      </trkpt>
      <trkpt lat="48.44051" lon="-2.92453">
        <ele>287</ele>
        <time>2014-02-16T14:47:41.1Z</time>
      </trkpt>
      <trkpt lat="48.44054" lon="-2.92457">
        <ele>287</ele>
        <time>2014-02-16T14:47:44.1Z</time>
      </trkpt>
      <trkpt lat="48.44056" lon="-2.9246">
        <ele>288</ele>
        <time>2014-02-16T14:47:46.1Z</time>
      </trkpt>
      <trkpt lat="48.44058" lon="-2.92462">
        <ele>289</ele>
        <time>2014-02-16T14:47:48.1Z</time>
      </trkpt>
      <trkpt lat="48.4406" lon="-2.92466">
        <ele>290</ele>
        <time>2014-02-16T14:47:51.1Z</time>
      </trkpt>
      <trkpt lat="48.44062" lon="-2.92468">
        <ele>290</ele>
        <time>2014-02-16T14:47:53.1Z</time>
      </trkpt>
      <trkpt lat="48.44064" lon="-2.92471">
        <ele>290</ele>
        <time>2014-02-16T14:47:55.1Z</time>
      </trkpt>
      <trkpt lat="48.44066" lon="-2.92475">
        <ele>290</ele>
        <time>2014-02-16T14:47:58.1Z</time>
      </trkpt>
      <trkpt lat="48.44069" lon="-2.92479">
        <ele>290</ele>
        <time>2014-02-16T14:48:01.1Z</time>
      </trkpt>
      <trkpt lat="48.4407" lon="-2.92482">
        <ele>290</ele>
        <time>2014-02-16T14:48:03.1Z</time>
      </trkpt>
      <trkpt lat="48.44073" lon="-2.92487">
        <ele>290</ele>
        <time>2014-02-16T14:48:06.1Z</time>
      </trkpt>
      <trkpt lat="48.44075" lon="-2.9249">
        <ele>291</ele>
        <time>2014-02-16T14:48:09.1Z</time>
      </trkpt>
      <trkpt lat="48.44078" lon="-2.92494">
        <ele>292</ele>
        <time>2014-02-16T14:48:12.1Z</time>
      </trkpt>
      <trkpt lat="48.4408" lon="-2.92498">
        <ele>293</ele>
        <time>2014-02-16T14:48:15.1Z</time>
      </trkpt>
      <trkpt lat="48.44081" lon="-2.92501">
        <ele>293</ele>
        <time>2014-02-16T14:48:17.1Z</time>
      </trkpt>
      <trkpt lat="48.44083" lon="-2.92504">
        <ele>292</ele>
        <time>2014-02-16T14:48:20.1Z</time>
      </trkpt>
      <trkpt lat="48.44085" lon="-2.92507">
        <ele>292</ele>
        <time>2014-02-16T14:48:22.1Z</time>
      </trkpt>
      <trkpt lat="48.44086" lon="-2.92509">
        <ele>292</ele>
        <time>2014-02-16T14:48:24.1Z</time>
      </trkpt>
      <trkpt lat="48.44088" lon="-2.92513">
        <ele>292</ele>
        <time>2014-02-16T14:48:27.1Z</time>
      </trkpt>
      <trkpt lat="48.4409" lon="-2.92515">
        <ele>292</ele>
        <time>2014-02-16T14:48:29.1Z</time>
      </trkpt>
      <trkpt lat="48.44091" lon="-2.92518">
        <ele>292</ele>
        <time>2014-02-16T14:48:31.1Z</time>
      </trkpt>
      <trkpt lat="48.44093" lon="-2.92522">
        <ele>292</ele>
        <time>2014-02-16T14:48:34.1Z</time>
      </trkpt>
      <trkpt lat="48.44094" lon="-2.92525">
        <ele>293</ele>
        <time>2014-02-16T14:48:36.1Z</time>
      </trkpt>
      <trkpt lat="48.44096" lon="-2.92528">
        <ele>293</ele>
        <time>2014-02-16T14:48:38.1Z</time>
      </trkpt>
      <trkpt lat="48.44097" lon="-2.92531">
        <ele>293</ele>
        <time>2014-02-16T14:48:40.1Z</time>
      </trkpt>
      <trkpt lat="48.44098" lon="-2.92532">
        <ele>293</ele>
        <time>2014-02-16T14:48:42.1Z</time>
      </trkpt>
      <trkpt lat="48.44098" lon="-2.92533">
        <ele>293</ele>
        <time>2014-02-16T14:48:45.1Z</time>
      </trkpt>
      <trkpt lat="48.44098" lon="-2.92533">
        <ele>292</ele>
        <time>2014-02-16T14:48:48.1Z</time>
      </trkpt>
      <trkpt lat="48.44098" lon="-2.92534">
        <ele>293</ele>
        <time>2014-02-16T14:48:51.1Z</time>
      </trkpt>
      <trkpt lat="48.44098" lon="-2.92534">
        <ele>292</ele>
        <time>2014-02-16T14:48:53.1Z</time>
      </trkpt>
      <trkpt lat="48.44098" lon="-2.92534">
        <ele>293</ele>
        <time>2014-02-16T14:48:56.1Z</time>
      </trkpt>
      <trkpt lat="48.44098" lon="-2.92534">
        <ele>292</ele>
        <time>2014-02-16T14:48:58.1Z</time>
      </trkpt>
      <trkpt lat="48.44098" lon="-2.92535">
        <ele>292</ele>
        <time>2014-02-16T14:49:01.1Z</time>
      </trkpt>
      <trkpt lat="48.44098" lon="-2.92535">
        <ele>292</ele>
        <time>2014-02-16T14:49:03.1Z</time>
      </trkpt>
      <trkpt lat="48.44098" lon="-2.92535">
        <ele>292</ele>
        <time>2014-02-16T14:49:06.1Z</time>
      </trkpt>
      <trkpt lat="48.44099" lon="-2.92535">
        <ele>293</ele>
        <time>2014-02-16T14:49:22.1Z</time>
      </trkpt>
      <trkpt lat="48.44099" lon="-2.92535">
        <ele>293</ele>
        <time>2014-02-16T14:49:24.1Z</time>
      </trkpt>
      <trkpt lat="48.44099" lon="-2.92536">
        <ele>293</ele>
        <time>2014-02-16T14:49:26.1Z</time>
      </trkpt>
      <trkpt lat="48.44099" lon="-2.92537">
        <ele>293</ele>
        <time>2014-02-16T14:49:29.1Z</time>
      </trkpt>
      <trkpt lat="48.44099" lon="-2.92537">
        <ele>293</ele>
        <time>2014-02-16T14:49:31.1Z</time>
      </trkpt>
      <trkpt lat="48.44099" lon="-2.92537">
        <ele>293</ele>
        <time>2014-02-16T14:49:35.1Z</time>
      </trkpt>
      <trkpt lat="48.44099" lon="-2.92537">
        <ele>293</ele>
        <time>2014-02-16T14:49:38.1Z</time>
      </trkpt>
      <trkpt lat="48.44099" lon="-2.92537">
        <ele>293</ele>
        <time>2014-02-16T14:49:40.1Z</time>
      </trkpt>
      <trkpt lat="48.44099" lon="-2.92537">
        <ele>293</ele>
        <time>2014-02-16T14:49:43.1Z</time>
      </trkpt>
      <trkpt lat="48.441" lon="-2.92537">
        <ele>293</ele>
        <time>2014-02-16T14:49:45.1Z</time>
      </trkpt>
      <trkpt lat="48.441" lon="-2.92537">
        <ele>293</ele>
        <time>2014-02-16T14:49:48.1Z</time>
      </trkpt>
      <trkpt lat="48.44101" lon="-2.92537">
        <ele>292</ele>
        <time>2014-02-16T14:49:50.1Z</time>
      </trkpt>
      <trkpt lat="48.44102" lon="-2.92536">
        <ele>292</ele>
        <time>2014-02-16T14:49:53.1Z</time>
      </trkpt>
      <trkpt lat="48.44103" lon="-2.92535">
        <ele>292</ele>
        <time>2014-02-16T14:49:55.1Z</time>
      </trkpt>
      <trkpt lat="48.44105" lon="-2.92536">
        <ele>292</ele>
        <time>2014-02-16T14:49:58.1Z</time>
      </trkpt>
      <trkpt lat="48.44106" lon="-2.92536">
        <ele>293</ele>
        <time>2014-02-16T14:50:00.1Z</time>
      </trkpt>
      <trkpt lat="48.44106" lon="-2.92536">
        <ele>293</ele>
        <time>2014-02-16T14:50:04.1Z</time>
      </trkpt>
      <trkpt lat="48.44107" lon="-2.92535">
        <ele>293</ele>
        <time>2014-02-16T14:50:07.1Z</time>
      </trkpt>
      <trkpt lat="48.44107" lon="-2.92533">
        <ele>293</ele>
        <time>2014-02-16T14:50:10.1Z</time>
      </trkpt>
      <trkpt lat="48.44109" lon="-2.9253">
        <ele>293</ele>
        <time>2014-02-16T14:50:13.1Z</time>
      </trkpt>
      <trkpt lat="48.4411" lon="-2.92529">
        <ele>293</ele>
        <time>2014-02-16T14:50:15.1Z</time>
      </trkpt>
      <trkpt lat="48.44112" lon="-2.92528">
        <ele>293</ele>
        <time>2014-02-16T14:50:18.1Z</time>
      </trkpt>
      <trkpt lat="48.44112" lon="-2.92527">
        <ele>294</ele>
        <time>2014-02-16T14:50:20.1Z</time>
      </trkpt>
      <trkpt lat="48.44114" lon="-2.92525">
        <ele>294</ele>
        <time>2014-02-16T14:50:23.1Z</time>
      </trkpt>
      <trkpt lat="48.44115" lon="-2.92523">
        <ele>295</ele>
        <time>2014-02-16T14:50:26.1Z</time>
      </trkpt>
      <trkpt lat="48.44116" lon="-2.92522">
        <ele>295</ele>
        <time>2014-02-16T14:50:28.1Z</time>
      </trkpt>
      <trkpt lat="48.44118" lon="-2.9252">
        <ele>295</ele>
        <time>2014-02-16T14:50:31.1Z</time>
      </trkpt>
      <trkpt lat="48.44119" lon="-2.92518">
        <ele>295</ele>
        <time>2014-02-16T14:50:34.1Z</time>
      </trkpt>
      <trkpt lat="48.44121" lon="-2.92517">
        <ele>296</ele>
        <time>2014-02-16T14:50:37.1Z</time>
      </trkpt>
      <trkpt lat="48.44123" lon="-2.92516">
        <ele>296</ele>
        <time>2014-02-16T14:50:40.1Z</time>
      </trkpt>
      <trkpt lat="48.44125" lon="-2.92515">
        <ele>296</ele>
        <time>2014-02-16T14:50:43.1Z</time>
      </trkpt>
      <trkpt lat="48.44127" lon="-2.92514">
        <ele>296</ele>
        <time>2014-02-16T14:50:46.1Z</time>
      </trkpt>
      <trkpt lat="48.44128" lon="-2.92513">
        <ele>296</ele>
        <time>2014-02-16T14:50:48.1Z</time>
      </trkpt>
      <trkpt lat="48.4413" lon="-2.92512">
        <ele>297</ele>
        <time>2014-02-16T14:50:51.1Z</time>
      </trkpt>
      <trkpt lat="48.44132" lon="-2.9251">
        <ele>297</ele>
        <time>2014-02-16T14:50:54.1Z</time>
      </trkpt>
      <trkpt lat="48.44133" lon="-2.92508">
        <ele>298</ele>
        <time>2014-02-16T14:50:57.1Z</time>
      </trkpt>
      <trkpt lat="48.44134" lon="-2.92507">
        <ele>298</ele>
        <time>2014-02-16T14:50:59.1Z</time>
      </trkpt>
      <trkpt lat="48.44136" lon="-2.92505">
        <ele>298</ele>
        <time>2014-02-16T14:51:02.1Z</time>
      </trkpt>
      <trkpt lat="48.44138" lon="-2.92502">
        <ele>298</ele>
        <time>2014-02-16T14:51:05.1Z</time>
      </trkpt>
      <trkpt lat="48.44139" lon="-2.925">
        <ele>298</ele>
        <time>2014-02-16T14:51:08.1Z</time>
      </trkpt>
      <trkpt lat="48.44141" lon="-2.92497">
        <ele>298</ele>
        <time>2014-02-16T14:51:11.1Z</time>
      </trkpt>
      <trkpt lat="48.44143" lon="-2.92495">
        <ele>299</ele>
        <time>2014-02-16T14:51:14.1Z</time>
      </trkpt>
      <trkpt lat="48.44145" lon="-2.92493">
        <ele>299</ele>
        <time>2014-02-16T14:51:17.1Z</time>
      </trkpt>
      <trkpt lat="48.44146" lon="-2.92492">
        <ele>299</ele>
        <time>2014-02-16T14:51:19.1Z</time>
      </trkpt>
      <trkpt lat="48.44147" lon="-2.92491">
        <ele>300</ele>
        <time>2014-02-16T14:51:21.1Z</time>
      </trkpt>
      <trkpt lat="48.44149" lon="-2.92488">
        <ele>300</ele>
        <time>2014-02-16T14:51:24.1Z</time>
      </trkpt>
      <trkpt lat="48.44151" lon="-2.92485">
        <ele>300</ele>
        <time>2014-02-16T14:51:27.1Z</time>
      </trkpt>
      <trkpt lat="48.44152" lon="-2.92484">
        <ele>301</ele>
        <time>2014-02-16T14:51:29.1Z</time>
      </trkpt>
      <trkpt lat="48.44154" lon="-2.92482">
        <ele>301</ele>
        <time>2014-02-16T14:51:32.1Z</time>
      </trkpt>
      <trkpt lat="48.44155" lon="-2.9248">
        <ele>302</ele>
        <time>2014-02-16T14:51:34.1Z</time>
      </trkpt>
      <trkpt lat="48.44157" lon="-2.92478">
        <ele>302</ele>
        <time>2014-02-16T14:51:37.1Z</time>
      </trkpt>
      <trkpt lat="48.44159" lon="-2.92476">
        <ele>301</ele>
        <time>2014-02-16T14:51:39.1Z</time>
      </trkpt>
      <trkpt lat="48.4416" lon="-2.92474">
        <ele>301</ele>
        <time>2014-02-16T14:51:41.1Z</time>
      </trkpt>
      <trkpt lat="48.44162" lon="-2.92471">
        <ele>302</ele>
        <time>2014-02-16T14:51:44.1Z</time>
      </trkpt>
      <trkpt lat="48.44162" lon="-2.92469">
        <ele>302</ele>
        <time>2014-02-16T14:51:46.1Z</time>
      </trkpt>
      <trkpt lat="48.44162" lon="-2.92467">
        <ele>302</ele>
        <time>2014-02-16T14:51:50.1Z</time>
      </trkpt>
      <trkpt lat="48.44163" lon="-2.92467">
        <ele>302</ele>
        <time>2014-02-16T14:51:53.1Z</time>
      </trkpt>
      <trkpt lat="48.44163" lon="-2.92467">
        <ele>302</ele>
        <time>2014-02-16T14:51:55.1Z</time>
      </trkpt>
      <trkpt lat="48.44163" lon="-2.92467">
        <ele>302</ele>
        <time>2014-02-16T14:51:57.1Z</time>
      </trkpt>
      <trkpt lat="48.44164" lon="-2.92467">
        <ele>302</ele>
        <time>2014-02-16T14:52:00.1Z</time>
      </trkpt>
      <trkpt lat="48.44165" lon="-2.92466">
        <ele>302</ele>
        <time>2014-02-16T14:52:02.1Z</time>
      </trkpt>
      <trkpt lat="48.44165" lon="-2.92466">
        <ele>302</ele>
        <time>2014-02-16T14:52:04.1Z</time>
      </trkpt>
      <trkpt lat="48.44166" lon="-2.92466">
        <ele>302</ele>
        <time>2014-02-16T14:52:06.1Z</time>
      </trkpt>
      <trkpt lat="48.44168" lon="-2.92466">
        <ele>302</ele>
        <time>2014-02-16T14:52:09.1Z</time>
      </trkpt>
      <trkpt lat="48.44168" lon="-2.92466">
        <ele>302</ele>
        <time>2014-02-16T14:52:11.1Z</time>
      </trkpt>
      <trkpt lat="48.44168" lon="-2.92466">
        <ele>302</ele>
        <time>2014-02-16T14:52:15.1Z</time>
      </trkpt>
      <trkpt lat="48.44166" lon="-2.92467">
        <ele>302</ele>
        <time>2014-02-16T14:52:17.1Z</time>
      </trkpt>
      <trkpt lat="48.44166" lon="-2.92466">
        <ele>302</ele>
        <time>2014-02-16T14:52:20.1Z</time>
      </trkpt>
      <trkpt lat="48.44166" lon="-2.92466">
        <ele>302</ele>
        <time>2014-02-16T14:52:23.1Z</time>
      </trkpt>
      <trkpt lat="48.44166" lon="-2.92466">
        <ele>302</ele>
        <time>2014-02-16T14:52:27.1Z</time>
      </trkpt>
      <trkpt lat="48.44166" lon="-2.92465">
        <ele>302</ele>
        <time>2014-02-16T14:52:31.1Z</time>
      </trkpt>
      <trkpt lat="48.44167" lon="-2.92462">
        <ele>302</ele>
        <time>2014-02-16T14:52:34.1Z</time>
      </trkpt>
      <trkpt lat="48.44168" lon="-2.9246">
        <ele>302</ele>
        <time>2014-02-16T14:52:37.1Z</time>
      </trkpt>
      <trkpt lat="48.44169" lon="-2.92459">
        <ele>302</ele>
        <time>2014-02-16T14:52:39.1Z</time>
      </trkpt>
      <trkpt lat="48.4417" lon="-2.92458">
        <ele>302</ele>
        <time>2014-02-16T14:52:41.1Z</time>
      </trkpt>
      <trkpt lat="48.44171" lon="-2.92456">
        <ele>302</ele>
        <time>2014-02-16T14:52:44.1Z</time>
      </trkpt>
      <trkpt lat="48.44172" lon="-2.92454">
        <ele>303</ele>
        <time>2014-02-16T14:52:46.1Z</time>
      </trkpt>
      <trkpt lat="48.44173" lon="-2.92453">
        <ele>302</ele>
        <time>2014-02-16T14:52:48.1Z</time>
      </trkpt>
      <trkpt lat="48.44176" lon="-2.9245">
        <ele>303</ele>
        <time>2014-02-16T14:52:51.1Z</time>
      </trkpt>
      <trkpt lat="48.44178" lon="-2.92448">
        <ele>303</ele>
        <time>2014-02-16T14:52:54.1Z</time>
      </trkpt>
      <trkpt lat="48.4418" lon="-2.92445">
        <ele>303</ele>
        <time>2014-02-16T14:52:57.1Z</time>
      </trkpt>
      <trkpt lat="48.4418" lon="-2.92445">
        <ele>303</ele>
        <time>2014-02-16T14:53:00.1Z</time>
      </trkpt>
      <trkpt lat="48.4418" lon="-2.92445">
        <ele>303</ele>
        <time>2014-02-16T14:53:03.1Z</time>
      </trkpt>
      <trkpt lat="48.4418" lon="-2.92444">
        <ele>304</ele>
        <time>2014-02-16T14:53:06.1Z</time>
      </trkpt>
      <trkpt lat="48.44181" lon="-2.92442">
        <ele>304</ele>
        <time>2014-02-16T14:53:09.1Z</time>
      </trkpt>
      <trkpt lat="48.44182" lon="-2.9244">
        <ele>304</ele>
        <time>2014-02-16T14:53:11.1Z</time>
      </trkpt>
      <trkpt lat="48.44183" lon="-2.92439">
        <ele>304</ele>
        <time>2014-02-16T14:53:13.1Z</time>
      </trkpt>
      <trkpt lat="48.44184" lon="-2.92437">
        <ele>304</ele>
        <time>2014-02-16T14:53:16.1Z</time>
      </trkpt>
      <trkpt lat="48.44185" lon="-2.92434">
        <ele>304</ele>
        <time>2014-02-16T14:53:18.1Z</time>
      </trkpt>
      <trkpt lat="48.44186" lon="-2.92431">
        <ele>304</ele>
        <time>2014-02-16T14:53:21.1Z</time>
      </trkpt>
      <trkpt lat="48.44186" lon="-2.92427">
        <ele>304</ele>
        <time>2014-02-16T14:53:24.1Z</time>
      </trkpt>
      <trkpt lat="48.44187" lon="-2.92425">
        <ele>304</ele>
        <time>2014-02-16T14:53:26.1Z</time>
      </trkpt>
      <trkpt lat="48.44186" lon="-2.92423">
        <ele>304</ele>
        <time>2014-02-16T14:53:28.1Z</time>
      </trkpt>
      <trkpt lat="48.44185" lon="-2.9242">
        <ele>304</ele>
        <time>2014-02-16T14:53:30.1Z</time>
      </trkpt>
      <trkpt lat="48.44184" lon="-2.92417">
        <ele>304</ele>
        <time>2014-02-16T14:53:33.1Z</time>
      </trkpt>
      <trkpt lat="48.44183" lon="-2.92414">
        <ele>304</ele>
        <time>2014-02-16T14:53:35.1Z</time>
      </trkpt>
      <trkpt lat="48.44181" lon="-2.92411">
        <ele>304</ele>
        <time>2014-02-16T14:53:38.1Z</time>
      </trkpt>
      <trkpt lat="48.4418" lon="-2.92409">
        <ele>304</ele>
        <time>2014-02-16T14:53:40.1Z</time>
      </trkpt>
      <trkpt lat="48.44179" lon="-2.92406">
        <ele>304</ele>
        <time>2014-02-16T14:53:42.1Z</time>
      </trkpt>
      <trkpt lat="48.44178" lon="-2.92404">
        <ele>304</ele>
        <time>2014-02-16T14:53:44.1Z</time>
      </trkpt>
      <trkpt lat="48.44177" lon="-2.92403">
        <ele>304</ele>
        <time>2014-02-16T14:53:47.1Z</time>
      </trkpt>
      <trkpt lat="48.44177" lon="-2.92401">
        <ele>304</ele>
        <time>2014-02-16T14:53:50.1Z</time>
      </trkpt>
      <trkpt lat="48.44176" lon="-2.92397">
        <ele>304</ele>
        <time>2014-02-16T14:53:53.1Z</time>
      </trkpt>
      <trkpt lat="48.44176" lon="-2.92394">
        <ele>304</ele>
        <time>2014-02-16T14:53:55.1Z</time>
      </trkpt>
      <trkpt lat="48.44176" lon="-2.92392">
        <ele>305</ele>
        <time>2014-02-16T14:53:57.1Z</time>
      </trkpt>
      <trkpt lat="48.44175" lon="-2.92389">
        <ele>304</ele>
        <time>2014-02-16T14:53:59.1Z</time>
      </trkpt>
      <trkpt lat="48.44176" lon="-2.92385">
        <ele>304</ele>
        <time>2014-02-16T14:54:02.1Z</time>
      </trkpt>
      <trkpt lat="48.44176" lon="-2.92382">
        <ele>304</ele>
        <time>2014-02-16T14:54:04.1Z</time>
      </trkpt>
      <trkpt lat="48.44177" lon="-2.92378">
        <ele>304</ele>
        <time>2014-02-16T14:54:07.1Z</time>
      </trkpt>
      <trkpt lat="48.44178" lon="-2.92374">
        <ele>304</ele>
        <time>2014-02-16T14:54:10.1Z</time>
      </trkpt>
      <trkpt lat="48.4418" lon="-2.92371">
        <ele>304</ele>
        <time>2014-02-16T14:54:12.1Z</time>
      </trkpt>
      <trkpt lat="48.44181" lon="-2.92368">
        <ele>304</ele>
        <time>2014-02-16T14:54:15.1Z</time>
      </trkpt>
      <trkpt lat="48.44181" lon="-2.92366">
        <ele>304</ele>
        <time>2014-02-16T14:54:17.1Z</time>
      </trkpt>
      <trkpt lat="48.44182" lon="-2.92364">
        <ele>304</ele>
        <time>2014-02-16T14:54:20.1Z</time>
      </trkpt>
      <trkpt lat="48.44182" lon="-2.92364">
        <ele>304</ele>
        <time>2014-02-16T14:54:22.1Z</time>
      </trkpt>
      <trkpt lat="48.44183" lon="-2.92363">
        <ele>304</ele>
        <time>2014-02-16T14:54:25.1Z</time>
      </trkpt>
      <trkpt lat="48.44183" lon="-2.92362">
        <ele>304</ele>
        <time>2014-02-16T14:54:28.1Z</time>
      </trkpt>
      <trkpt lat="48.44183" lon="-2.92358">
        <ele>304</ele>
        <time>2014-02-16T14:54:31.1Z</time>
      </trkpt>
      <trkpt lat="48.44184" lon="-2.92355">
        <ele>304</ele>
        <time>2014-02-16T14:54:34.1Z</time>
      </trkpt>
      <trkpt lat="48.44185" lon="-2.92352">
        <ele>304</ele>
        <time>2014-02-16T14:54:36.1Z</time>
      </trkpt>
      <trkpt lat="48.44186" lon="-2.92347">
        <ele>304</ele>
        <time>2014-02-16T14:54:39.1Z</time>
      </trkpt>
      <trkpt lat="48.44188" lon="-2.92342">
        <ele>304</ele>
        <time>2014-02-16T14:54:42.1Z</time>
      </trkpt>
      <trkpt lat="48.44188" lon="-2.92339">
        <ele>304</ele>
        <time>2014-02-16T14:54:44.1Z</time>
      </trkpt>
      <trkpt lat="48.44189" lon="-2.92334">
        <ele>304</ele>
        <time>2014-02-16T14:54:47.1Z</time>
      </trkpt>
      <trkpt lat="48.4419" lon="-2.92331">
        <ele>304</ele>
        <time>2014-02-16T14:54:49.1Z</time>
      </trkpt>
      <trkpt lat="48.44191" lon="-2.92326">
        <ele>304</ele>
        <time>2014-02-16T14:54:52.1Z</time>
      </trkpt>
      <trkpt lat="48.44192" lon="-2.92322">
        <ele>305</ele>
        <time>2014-02-16T14:54:55.1Z</time>
      </trkpt>
      <trkpt lat="48.44192" lon="-2.92317">
        <ele>305</ele>
        <time>2014-02-16T14:54:58.1Z</time>
      </trkpt>
      <trkpt lat="48.44193" lon="-2.92312">
        <ele>305</ele>
        <time>2014-02-16T14:55:01.1Z</time>
      </trkpt>
      <trkpt lat="48.44194" lon="-2.92309">
        <ele>305</ele>
        <time>2014-02-16T14:55:03.1Z</time>
      </trkpt>
      <trkpt lat="48.44195" lon="-2.92305">
        <ele>305</ele>
        <time>2014-02-16T14:55:06.1Z</time>
      </trkpt>
      <trkpt lat="48.44197" lon="-2.92301">
        <ele>305</ele>
        <time>2014-02-16T14:55:09.1Z</time>
      </trkpt>
      <trkpt lat="48.44199" lon="-2.92297">
        <ele>305</ele>
        <time>2014-02-16T14:55:12.1Z</time>
      </trkpt>
      <trkpt lat="48.442" lon="-2.92295">
        <ele>305</ele>
        <time>2014-02-16T14:55:14.1Z</time>
      </trkpt>
      <trkpt lat="48.44201" lon="-2.92292">
        <ele>305</ele>
        <time>2014-02-16T14:55:16.1Z</time>
      </trkpt>
      <trkpt lat="48.44203" lon="-2.92288">
        <ele>305</ele>
        <time>2014-02-16T14:55:19.1Z</time>
      </trkpt>
      <trkpt lat="48.44204" lon="-2.92284">
        <ele>305</ele>
        <time>2014-02-16T14:55:22.1Z</time>
      </trkpt>
      <trkpt lat="48.44205" lon="-2.92281">
        <ele>305</ele>
        <time>2014-02-16T14:55:24.1Z</time>
      </trkpt>
      <trkpt lat="48.44206" lon="-2.92278">
        <ele>305</ele>
        <time>2014-02-16T14:55:26.1Z</time>
      </trkpt>
      <trkpt lat="48.44207" lon="-2.92275">
        <ele>305</ele>
        <time>2014-02-16T14:55:29.1Z</time>
      </trkpt>
      <trkpt lat="48.44208" lon="-2.92273">
        <ele>305</ele>
        <time>2014-02-16T14:55:31.1Z</time>
      </trkpt>
      <trkpt lat="48.44209" lon="-2.92269">
        <ele>305</ele>
        <time>2014-02-16T14:55:34.1Z</time>
      </trkpt>
      <trkpt lat="48.4421" lon="-2.92266">
        <ele>305</ele>
        <time>2014-02-16T14:55:36.1Z</time>
      </trkpt>
      <trkpt lat="48.44212" lon="-2.92263">
        <ele>305</ele>
        <time>2014-02-16T14:55:39.1Z</time>
      </trkpt>
      <trkpt lat="48.44213" lon="-2.92261">
        <ele>305</ele>
        <time>2014-02-16T14:55:41.1Z</time>
      </trkpt>
      <trkpt lat="48.44214" lon="-2.92259">
        <ele>305</ele>
        <time>2014-02-16T14:55:43.1Z</time>
      </trkpt>
      <trkpt lat="48.44215" lon="-2.92257">
        <ele>305</ele>
        <time>2014-02-16T14:55:45.1Z</time>
      </trkpt>
      <trkpt lat="48.44216" lon="-2.92254">
        <ele>305</ele>
        <time>2014-02-16T14:55:47.1Z</time>
      </trkpt>
      <trkpt lat="48.44217" lon="-2.92251">
        <ele>305</ele>
        <time>2014-02-16T14:55:50.1Z</time>
      </trkpt>
      <trkpt lat="48.44218" lon="-2.92248">
        <ele>305</ele>
        <time>2014-02-16T14:55:52.1Z</time>
      </trkpt>
      <trkpt lat="48.44219" lon="-2.92248">
        <ele>305</ele>
        <time>2014-02-16T14:55:54.1Z</time>
      </trkpt>
      <trkpt lat="48.4422" lon="-2.92244">
        <ele>305</ele>
        <time>2014-02-16T14:55:57.1Z</time>
      </trkpt>
      <trkpt lat="48.4422" lon="-2.92243">
        <ele>305</ele>
        <time>2014-02-16T14:55:59.1Z</time>
      </trkpt>
      <trkpt lat="48.44222" lon="-2.9224">
        <ele>305</ele>
        <time>2014-02-16T14:56:02.1Z</time>
      </trkpt>
      <trkpt lat="48.44223" lon="-2.92238">
        <ele>305</ele>
        <time>2014-02-16T14:56:05.1Z</time>
      </trkpt>
      <trkpt lat="48.44225" lon="-2.92235">
        <ele>305</ele>
        <time>2014-02-16T14:56:08.1Z</time>
      </trkpt>
      <trkpt lat="48.44225" lon="-2.92232">
        <ele>305</ele>
        <time>2014-02-16T14:56:10.1Z</time>
      </trkpt>
      <trkpt lat="48.44226" lon="-2.9223">
        <ele>305</ele>
        <time>2014-02-16T14:56:13.1Z</time>
      </trkpt>
      <trkpt lat="48.44227" lon="-2.92228">
        <ele>306</ele>
        <time>2014-02-16T14:56:15.1Z</time>
      </trkpt>
      <trkpt lat="48.44228" lon="-2.92227">
        <ele>306</ele>
        <time>2014-02-16T14:56:17.1Z</time>
      </trkpt>
      <trkpt lat="48.4423" lon="-2.92225">
        <ele>305</ele>
        <time>2014-02-16T14:56:20.1Z</time>
      </trkpt>
      <trkpt lat="48.44231" lon="-2.92224">
        <ele>305</ele>
        <time>2014-02-16T14:56:23.1Z</time>
      </trkpt>
      <trkpt lat="48.44233" lon="-2.92224">
        <ele>305</ele>
        <time>2014-02-16T14:56:25.1Z</time>
      </trkpt>
      <trkpt lat="48.44234" lon="-2.92223">
        <ele>306</ele>
        <time>2014-02-16T14:56:27.1Z</time>
      </trkpt>
      <trkpt lat="48.44236" lon="-2.92222">
        <ele>306</ele>
        <time>2014-02-16T14:56:30.1Z</time>
      </trkpt>
      <trkpt lat="48.44238" lon="-2.92221">
        <ele>305</ele>
        <time>2014-02-16T14:56:33.1Z</time>
      </trkpt>
      <trkpt lat="48.44241" lon="-2.9222">
        <ele>305</ele>
        <time>2014-02-16T14:56:36.1Z</time>
      </trkpt>
      <trkpt lat="48.44244" lon="-2.92218">
        <ele>305</ele>
        <time>2014-02-16T14:56:39.1Z</time>
      </trkpt>
      <trkpt lat="48.44247" lon="-2.92216">
        <ele>306</ele>
        <time>2014-02-16T14:56:42.1Z</time>
      </trkpt>
      <trkpt lat="48.44249" lon="-2.92216">
        <ele>306</ele>
        <time>2014-02-16T14:56:44.1Z</time>
      </trkpt>
      <trkpt lat="48.44252" lon="-2.92216">
        <ele>306</ele>
        <time>2014-02-16T14:56:47.1Z</time>
      </trkpt>
      <trkpt lat="48.44253" lon="-2.92215">
        <ele>306</ele>
        <time>2014-02-16T14:56:49.1Z</time>
      </trkpt>
      <trkpt lat="48.44255" lon="-2.92215">
        <ele>306</ele>
        <time>2014-02-16T14:56:52.1Z</time>
      </trkpt>
      <trkpt lat="48.44257" lon="-2.92214">
        <ele>306</ele>
        <time>2014-02-16T14:56:54.1Z</time>
      </trkpt>
      <trkpt lat="48.44258" lon="-2.92215">
        <ele>305</ele>
        <time>2014-02-16T14:56:56.1Z</time>
      </trkpt>
      <trkpt lat="48.4426" lon="-2.92213">
        <ele>305</ele>
        <time>2014-02-16T14:56:58.1Z</time>
      </trkpt>
      <trkpt lat="48.44262" lon="-2.92212">
        <ele>305</ele>
        <time>2014-02-16T14:57:01.1Z</time>
      </trkpt>
      <trkpt lat="48.44264" lon="-2.92212">
        <ele>305</ele>
        <time>2014-02-16T14:57:03.1Z</time>
      </trkpt>
      <trkpt lat="48.44267" lon="-2.92211">
        <ele>305</ele>
        <time>2014-02-16T14:57:06.1Z</time>
      </trkpt>
      <trkpt lat="48.4427" lon="-2.92209">
        <ele>305</ele>
        <time>2014-02-16T14:57:09.1Z</time>
      </trkpt>
      <trkpt lat="48.44271" lon="-2.92209">
        <ele>305</ele>
        <time>2014-02-16T14:57:11.1Z</time>
      </trkpt>
      <trkpt lat="48.44273" lon="-2.92209">
        <ele>305</ele>
        <time>2014-02-16T14:57:14.1Z</time>
      </trkpt>
      <trkpt lat="48.44274" lon="-2.92208">
        <ele>305</ele>
        <time>2014-02-16T14:57:16.1Z</time>
      </trkpt>
      <trkpt lat="48.44276" lon="-2.92208">
        <ele>305</ele>
        <time>2014-02-16T14:57:18.1Z</time>
      </trkpt>
      <trkpt lat="48.44278" lon="-2.92208">
        <ele>305</ele>
        <time>2014-02-16T14:57:21.1Z</time>
      </trkpt>
      <trkpt lat="48.4428" lon="-2.92208">
        <ele>305</ele>
        <time>2014-02-16T14:57:23.1Z</time>
      </trkpt>
      <trkpt lat="48.44281" lon="-2.92207">
        <ele>305</ele>
        <time>2014-02-16T14:57:25.1Z</time>
      </trkpt>
      <trkpt lat="48.44284" lon="-2.92207">
        <ele>305</ele>
        <time>2014-02-16T14:57:28.1Z</time>
      </trkpt>
      <trkpt lat="48.44286" lon="-2.92207">
        <ele>305</ele>
        <time>2014-02-16T14:57:31.1Z</time>
      </trkpt>
      <trkpt lat="48.44288" lon="-2.92207">
        <ele>306</ele>
        <time>2014-02-16T14:57:33.1Z</time>
      </trkpt>
      <trkpt lat="48.44289" lon="-2.92207">
        <ele>305</ele>
        <time>2014-02-16T14:57:35.1Z</time>
      </trkpt>
      <trkpt lat="48.4429" lon="-2.92207">
        <ele>305</ele>
        <time>2014-02-16T14:57:37.1Z</time>
      </trkpt>
      <trkpt lat="48.44291" lon="-2.92207">
        <ele>305</ele>
        <time>2014-02-16T14:57:40.1Z</time>
      </trkpt>
      <trkpt lat="48.44294" lon="-2.92207">
        <ele>305</ele>
        <time>2014-02-16T14:57:43.1Z</time>
      </trkpt>
      <trkpt lat="48.44296" lon="-2.92207">
        <ele>305</ele>
        <time>2014-02-16T14:57:45.1Z</time>
      </trkpt>
      <trkpt lat="48.44297" lon="-2.92206">
        <ele>305</ele>
        <time>2014-02-16T14:57:48.1Z</time>
      </trkpt>
      <trkpt lat="48.44299" lon="-2.92205">
        <ele>305</ele>
        <time>2014-02-16T14:57:51.1Z</time>
      </trkpt>
      <trkpt lat="48.44301" lon="-2.92204">
        <ele>305</ele>
        <time>2014-02-16T14:57:54.1Z</time>
      </trkpt>
      <trkpt lat="48.44302" lon="-2.92203">
        <ele>305</ele>
        <time>2014-02-16T14:57:56.1Z</time>
      </trkpt>
      <trkpt lat="48.44304" lon="-2.92202">
        <ele>305</ele>
        <time>2014-02-16T14:57:59.1Z</time>
      </trkpt>
      <trkpt lat="48.44306" lon="-2.92202">
        <ele>305</ele>
        <time>2014-02-16T14:58:01.1Z</time>
      </trkpt>
      <trkpt lat="48.44307" lon="-2.92202">
        <ele>305</ele>
        <time>2014-02-16T14:58:03.1Z</time>
      </trkpt>
      <trkpt lat="48.44309" lon="-2.92201">
        <ele>305</ele>
        <time>2014-02-16T14:58:06.1Z</time>
      </trkpt>
      <trkpt lat="48.44311" lon="-2.922">
        <ele>305</ele>
        <time>2014-02-16T14:58:09.1Z</time>
      </trkpt>
      <trkpt lat="48.44313" lon="-2.92199">
        <ele>305</ele>
        <time>2014-02-16T14:58:12.1Z</time>
      </trkpt>
      <trkpt lat="48.44315" lon="-2.92198">
        <ele>305</ele>
        <time>2014-02-16T14:58:15.1Z</time>
      </trkpt>
      <trkpt lat="48.44316" lon="-2.92198">
        <ele>305</ele>
        <time>2014-02-16T14:58:17.1Z</time>
      </trkpt>
      <trkpt lat="48.44317" lon="-2.92198">
        <ele>305</ele>
        <time>2014-02-16T14:58:19.1Z</time>
      </trkpt>
      <trkpt lat="48.44318" lon="-2.92197">
        <ele>305</ele>
        <time>2014-02-16T14:58:22.1Z</time>
      </trkpt>
      <trkpt lat="48.4432" lon="-2.92197">
        <ele>305</ele>
        <time>2014-02-16T14:58:24.1Z</time>
      </trkpt>
      <trkpt lat="48.44321" lon="-2.92197">
        <ele>305</ele>
        <time>2014-02-16T14:58:26.1Z</time>
      </trkpt>
      <trkpt lat="48.44324" lon="-2.92197">
        <ele>305</ele>
        <time>2014-02-16T14:58:29.1Z</time>
      </trkpt>
      <trkpt lat="48.44327" lon="-2.92196">
        <ele>305</ele>
        <time>2014-02-16T14:58:32.1Z</time>
      </trkpt>
      <trkpt lat="48.44329" lon="-2.92196">
        <ele>305</ele>
        <time>2014-02-16T14:58:34.1Z</time>
      </trkpt>
      <trkpt lat="48.44331" lon="-2.92195">
        <ele>304</ele>
        <time>2014-02-16T14:58:37.1Z</time>
      </trkpt>
      <trkpt lat="48.44333" lon="-2.92195">
        <ele>304</ele>
        <time>2014-02-16T14:58:40.1Z</time>
      </trkpt>
      <trkpt lat="48.44335" lon="-2.92194">
        <ele>305</ele>
        <time>2014-02-16T14:58:43.1Z</time>
      </trkpt>
      <trkpt lat="48.44336" lon="-2.92194">
        <ele>305</ele>
        <time>2014-02-16T14:58:45.1Z</time>
      </trkpt>
      <trkpt lat="48.44337" lon="-2.92193">
        <ele>305</ele>
        <time>2014-02-16T14:58:47.1Z</time>
      </trkpt>
      <trkpt lat="48.44338" lon="-2.92194">
        <ele>304</ele>
        <time>2014-02-16T14:58:50.1Z</time>
      </trkpt>
      <trkpt lat="48.44338" lon="-2.92194">
        <ele>304</ele>
        <time>2014-02-16T14:58:52.1Z</time>
      </trkpt>
      <trkpt lat="48.44339" lon="-2.92194">
        <ele>304</ele>
        <time>2014-02-16T14:58:55.1Z</time>
      </trkpt>
      <trkpt lat="48.44339" lon="-2.92195">
        <ele>304</ele>
        <time>2014-02-16T14:58:58.1Z</time>
      </trkpt>
      <trkpt lat="48.44339" lon="-2.92195">
        <ele>304</ele>
        <time>2014-02-16T14:59:02.1Z</time>
      </trkpt>
      <trkpt lat="48.4434" lon="-2.92194">
        <ele>304</ele>
        <time>2014-02-16T14:59:04.1Z</time>
      </trkpt>
      <trkpt lat="48.44341" lon="-2.92194">
        <ele>304</ele>
        <time>2014-02-16T14:59:06.1Z</time>
      </trkpt>
      <trkpt lat="48.44344" lon="-2.92193">
        <ele>304</ele>
        <time>2014-02-16T14:59:09.1Z</time>
      </trkpt>
      <trkpt lat="48.44347" lon="-2.92191">
        <ele>304</ele>
        <time>2014-02-16T14:59:12.1Z</time>
      </trkpt>
      <trkpt lat="48.44349" lon="-2.9219">
        <ele>304</ele>
        <time>2014-02-16T14:59:15.1Z</time>
      </trkpt>
      <trkpt lat="48.44351" lon="-2.92189">
        <ele>304</ele>
        <time>2014-02-16T14:59:17.1Z</time>
      </trkpt>
      <trkpt lat="48.44353" lon="-2.92187">
        <ele>304</ele>
        <time>2014-02-16T14:59:20.1Z</time>
      </trkpt>
      <trkpt lat="48.44355" lon="-2.92185">
        <ele>304</ele>
        <time>2014-02-16T14:59:23.1Z</time>
      </trkpt>
      <trkpt lat="48.44358" lon="-2.92182">
        <ele>304</ele>
        <time>2014-02-16T14:59:26.1Z</time>
      </trkpt>
      <trkpt lat="48.4436" lon="-2.92181">
        <ele>303</ele>
        <time>2014-02-16T14:59:29.1Z</time>
      </trkpt>
      <trkpt lat="48.44363" lon="-2.92179">
        <ele>303</ele>
        <time>2014-02-16T14:59:32.1Z</time>
      </trkpt>
      <trkpt lat="48.44364" lon="-2.92177">
        <ele>303</ele>
        <time>2014-02-16T14:59:34.1Z</time>
      </trkpt>
      <trkpt lat="48.44365" lon="-2.92175">
        <ele>303</ele>
        <time>2014-02-16T14:59:36.1Z</time>
      </trkpt>
      <trkpt lat="48.44368" lon="-2.92172">
        <ele>303</ele>
        <time>2014-02-16T14:59:39.1Z</time>
      </trkpt>
      <trkpt lat="48.44369" lon="-2.92169">
        <ele>303</ele>
        <time>2014-02-16T14:59:41.1Z</time>
      </trkpt>
      <trkpt lat="48.4437" lon="-2.92167">
        <ele>303</ele>
        <time>2014-02-16T14:59:43.1Z</time>
      </trkpt>
      <trkpt lat="48.44371" lon="-2.92162">
        <ele>303</ele>
        <time>2014-02-16T14:59:46.1Z</time>
      </trkpt>
      <trkpt lat="48.44372" lon="-2.9216">
        <ele>303</ele>
        <time>2014-02-16T14:59:48.1Z</time>
      </trkpt>
      <trkpt lat="48.44373" lon="-2.92156">
        <ele>303</ele>
        <time>2014-02-16T14:59:51.1Z</time>
      </trkpt>
      <trkpt lat="48.44375" lon="-2.92153">
        <ele>303</ele>
        <time>2014-02-16T14:59:53.1Z</time>
      </trkpt>
      <trkpt lat="48.44376" lon="-2.9215">
        <ele>303</ele>
        <time>2014-02-16T14:59:55.1Z</time>
      </trkpt>
      <trkpt lat="48.44377" lon="-2.92146">
        <ele>302</ele>
        <time>2014-02-16T14:59:57.1Z</time>
      </trkpt>
      <trkpt lat="48.44379" lon="-2.92143">
        <ele>302</ele>
        <time>2014-02-16T15:00:00.1Z</time>
      </trkpt>
      <trkpt lat="48.4438" lon="-2.92143">
        <ele>302</ele>
        <time>2014-02-16T15:00:02.1Z</time>
      </trkpt>
      <trkpt lat="48.44381" lon="-2.92141">
        <ele>302</ele>
        <time>2014-02-16T15:00:05.1Z</time>
      </trkpt>
      <trkpt lat="48.44383" lon="-2.92139">
        <ele>302</ele>
        <time>2014-02-16T15:00:07.1Z</time>
      </trkpt>
      <trkpt lat="48.44384" lon="-2.92136">
        <ele>303</ele>
        <time>2014-02-16T15:00:09.1Z</time>
      </trkpt>
      <trkpt lat="48.44386" lon="-2.92132">
        <ele>303</ele>
        <time>2014-02-16T15:00:12.1Z</time>
      </trkpt>
      <trkpt lat="48.44388" lon="-2.92128">
        <ele>303</ele>
        <time>2014-02-16T15:00:15.1Z</time>
      </trkpt>
      <trkpt lat="48.4439" lon="-2.92125">
        <ele>303</ele>
        <time>2014-02-16T15:00:17.1Z</time>
      </trkpt>
      <trkpt lat="48.44392" lon="-2.92122">
        <ele>302</ele>
        <time>2014-02-16T15:00:20.1Z</time>
      </trkpt>
      <trkpt lat="48.44393" lon="-2.9212">
        <ele>302</ele>
        <time>2014-02-16T15:00:22.1Z</time>
      </trkpt>
      <trkpt lat="48.44395" lon="-2.92116">
        <ele>303</ele>
        <time>2014-02-16T15:00:25.1Z</time>
      </trkpt>
      <trkpt lat="48.44397" lon="-2.92111">
        <ele>303</ele>
        <time>2014-02-16T15:00:28.1Z</time>
      </trkpt>
      <trkpt lat="48.44399" lon="-2.92106">
        <ele>303</ele>
        <time>2014-02-16T15:00:31.1Z</time>
      </trkpt>
      <trkpt lat="48.444" lon="-2.92102">
        <ele>303</ele>
        <time>2014-02-16T15:00:34.1Z</time>
      </trkpt>
      <trkpt lat="48.44402" lon="-2.92098">
        <ele>303</ele>
        <time>2014-02-16T15:00:36.1Z</time>
      </trkpt>
      <trkpt lat="48.44404" lon="-2.92094">
        <ele>302</ele>
        <time>2014-02-16T15:00:39.1Z</time>
      </trkpt>
      <trkpt lat="48.44406" lon="-2.92089">
        <ele>302</ele>
        <time>2014-02-16T15:00:42.1Z</time>
      </trkpt>
      <trkpt lat="48.44407" lon="-2.92086">
        <ele>302</ele>
        <time>2014-02-16T15:00:44.1Z</time>
      </trkpt>
      <trkpt lat="48.44409" lon="-2.92084">
        <ele>302</ele>
        <time>2014-02-16T15:00:46.1Z</time>
      </trkpt>
      <trkpt lat="48.44411" lon="-2.9208">
        <ele>302</ele>
        <time>2014-02-16T15:00:49.1Z</time>
      </trkpt>
      <trkpt lat="48.44412" lon="-2.92076">
        <ele>302</ele>
        <time>2014-02-16T15:00:52.1Z</time>
      </trkpt>
      <trkpt lat="48.44413" lon="-2.92073">
        <ele>302</ele>
        <time>2014-02-16T15:00:54.1Z</time>
      </trkpt>
      <trkpt lat="48.44414" lon="-2.92069">
        <ele>302</ele>
        <time>2014-02-16T15:00:57.1Z</time>
      </trkpt>
      <trkpt lat="48.44415" lon="-2.92067">
        <ele>302</ele>
        <time>2014-02-16T15:00:59.1Z</time>
      </trkpt>
      <trkpt lat="48.44416" lon="-2.92062">
        <ele>301</ele>
        <time>2014-02-16T15:01:02.1Z</time>
      </trkpt>
      <trkpt lat="48.44418" lon="-2.9206">
        <ele>301</ele>
        <time>2014-02-16T15:01:04.1Z</time>
      </trkpt>
      <trkpt lat="48.4442" lon="-2.92056">
        <ele>301</ele>
        <time>2014-02-16T15:01:07.1Z</time>
      </trkpt>
      <trkpt lat="48.44421" lon="-2.92052">
        <ele>301</ele>
        <time>2014-02-16T15:01:10.1Z</time>
      </trkpt>
      <trkpt lat="48.44422" lon="-2.92052">
        <ele>301</ele>
        <time>2014-02-16T15:01:12.1Z</time>
      </trkpt>
      <trkpt lat="48.44423" lon="-2.92052">
        <ele>301</ele>
        <time>2014-02-16T15:01:15.1Z</time>
      </trkpt>
      <trkpt lat="48.44424" lon="-2.92053">
        <ele>301</ele>
        <time>2014-02-16T15:01:17.1Z</time>
      </trkpt>
      <trkpt lat="48.44426" lon="-2.92054">
        <ele>302</ele>
        <time>2014-02-16T15:01:20.1Z</time>
      </trkpt>
      <trkpt lat="48.44427" lon="-2.92054">
        <ele>302</ele>
        <time>2014-02-16T15:01:23.1Z</time>
      </trkpt>
      <trkpt lat="48.44429" lon="-2.92055">
        <ele>301</ele>
        <time>2014-02-16T15:01:25.1Z</time>
      </trkpt>
      <trkpt lat="48.44429" lon="-2.92056">
        <ele>301</ele>
        <time>2014-02-16T15:01:27.1Z</time>
      </trkpt>
      <trkpt lat="48.4443" lon="-2.92057">
        <ele>301</ele>
        <time>2014-02-16T15:01:30.1Z</time>
      </trkpt>
      <trkpt lat="48.4443" lon="-2.92057">
        <ele>301</ele>
        <time>2014-02-16T15:01:32.1Z</time>
      </trkpt>
      <trkpt lat="48.44431" lon="-2.92057">
        <ele>302</ele>
        <time>2014-02-16T15:01:35.1Z</time>
      </trkpt>
      <trkpt lat="48.4443" lon="-2.92057">
        <ele>302</ele>
        <time>2014-02-16T15:01:38.1Z</time>
      </trkpt>
      <trkpt lat="48.44431" lon="-2.92057">
        <ele>302</ele>
        <time>2014-02-16T15:01:41.1Z</time>
      </trkpt>
      <trkpt lat="48.44434" lon="-2.92057">
        <ele>302</ele>
        <time>2014-02-16T15:01:44.1Z</time>
      </trkpt>
      <trkpt lat="48.44435" lon="-2.92058">
        <ele>302</ele>
        <time>2014-02-16T15:01:46.1Z</time>
      </trkpt>
      <trkpt lat="48.44437" lon="-2.92057">
        <ele>302</ele>
        <time>2014-02-16T15:01:49.1Z</time>
      </trkpt>
      <trkpt lat="48.44438" lon="-2.92055">
        <ele>302</ele>
        <time>2014-02-16T15:01:52.1Z</time>
      </trkpt>
      <trkpt lat="48.44439" lon="-2.92054">
        <ele>303</ele>
        <time>2014-02-16T15:01:55.1Z</time>
      </trkpt>
      <trkpt lat="48.4444" lon="-2.92054">
        <ele>303</ele>
        <time>2014-02-16T15:01:57.1Z</time>
      </trkpt>
      <trkpt lat="48.44443" lon="-2.92056">
        <ele>303</ele>
        <time>2014-02-16T15:02:00.1Z</time>
      </trkpt>
      <trkpt lat="48.44444" lon="-2.92056">
        <ele>303</ele>
        <time>2014-02-16T15:02:02.1Z</time>
      </trkpt>
      <trkpt lat="48.44446" lon="-2.92058">
        <ele>303</ele>
        <time>2014-02-16T15:02:05.1Z</time>
      </trkpt>
      <trkpt lat="48.44448" lon="-2.92059">
        <ele>303</ele>
        <time>2014-02-16T15:02:07.1Z</time>
      </trkpt>
      <trkpt lat="48.44451" lon="-2.92059">
        <ele>303</ele>
        <time>2014-02-16T15:02:10.1Z</time>
      </trkpt>
      <trkpt lat="48.44453" lon="-2.9206">
        <ele>303</ele>
        <time>2014-02-16T15:02:12.1Z</time>
      </trkpt>
      <trkpt lat="48.44455" lon="-2.9206">
        <ele>303</ele>
        <time>2014-02-16T15:02:14.1Z</time>
      </trkpt>
      <trkpt lat="48.44459" lon="-2.92062">
        <ele>303</ele>
        <time>2014-02-16T15:02:17.1Z</time>
      </trkpt>
      <trkpt lat="48.44462" lon="-2.92064">
        <ele>303</ele>
        <time>2014-02-16T15:02:20.1Z</time>
      </trkpt>
      <trkpt lat="48.44464" lon="-2.92065">
        <ele>303</ele>
        <time>2014-02-16T15:02:22.1Z</time>
      </trkpt>
      <trkpt lat="48.44469" lon="-2.92067">
        <ele>302</ele>
        <time>2014-02-16T15:02:25.1Z</time>
      </trkpt>
      <trkpt lat="48.44471" lon="-2.92068">
        <ele>302</ele>
        <time>2014-02-16T15:02:27.1Z</time>
      </trkpt>
      <trkpt lat="48.44476" lon="-2.92069">
        <ele>302</ele>
        <time>2014-02-16T15:02:30.1Z</time>
      </trkpt>
      <trkpt lat="48.44479" lon="-2.92069">
        <ele>303</ele>
        <time>2014-02-16T15:02:33.1Z</time>
      </trkpt>
      <trkpt lat="48.44482" lon="-2.92069">
        <ele>302</ele>
        <time>2014-02-16T15:02:35.1Z</time>
      </trkpt>
      <trkpt lat="48.44486" lon="-2.9207">
        <ele>302</ele>
        <time>2014-02-16T15:02:38.1Z</time>
      </trkpt>
      <trkpt lat="48.4449" lon="-2.92071">
        <ele>303</ele>
        <time>2014-02-16T15:02:41.1Z</time>
      </trkpt>
      <trkpt lat="48.44494" lon="-2.92072">
        <ele>302</ele>
        <time>2014-02-16T15:02:44.1Z</time>
      </trkpt>
      <trkpt lat="48.44498" lon="-2.92073">
        <ele>302</ele>
        <time>2014-02-16T15:02:47.1Z</time>
      </trkpt>
      <trkpt lat="48.445" lon="-2.92074">
        <ele>301</ele>
        <time>2014-02-16T15:02:49.1Z</time>
      </trkpt>
      <trkpt lat="48.44504" lon="-2.92075">
        <ele>301</ele>
        <time>2014-02-16T15:02:52.1Z</time>
      </trkpt>
      <trkpt lat="48.44508" lon="-2.92074">
        <ele>300</ele>
        <time>2014-02-16T15:02:55.1Z</time>
      </trkpt>
      <trkpt lat="48.44511" lon="-2.92075">
        <ele>299</ele>
        <time>2014-02-16T15:02:58.1Z</time>
      </trkpt>
      <trkpt lat="48.44513" lon="-2.92076">
        <ele>299</ele>
        <time>2014-02-16T15:03:00.1Z</time>
      </trkpt>
      <trkpt lat="48.44517" lon="-2.92077">
        <ele>299</ele>
        <time>2014-02-16T15:03:03.1Z</time>
      </trkpt>
      <trkpt lat="48.44519" lon="-2.92078">
        <ele>299</ele>
        <time>2014-02-16T15:03:05.1Z</time>
      </trkpt>
      <trkpt lat="48.44523" lon="-2.92079">
        <ele>299</ele>
        <time>2014-02-16T15:03:08.1Z</time>
      </trkpt>
      <trkpt lat="48.44526" lon="-2.92082">
        <ele>299</ele>
        <time>2014-02-16T15:03:11.1Z</time>
      </trkpt>
      <trkpt lat="48.44529" lon="-2.92085">
        <ele>298</ele>
        <time>2014-02-16T15:03:14.1Z</time>
      </trkpt>
      <trkpt lat="48.44531" lon="-2.92088">
        <ele>296</ele>
        <time>2014-02-16T15:03:17.1Z</time>
      </trkpt>
      <trkpt lat="48.44534" lon="-2.92091">
        <ele>296</ele>
        <time>2014-02-16T15:03:20.1Z</time>
      </trkpt>
      <trkpt lat="48.44535" lon="-2.92093">
        <ele>295</ele>
        <time>2014-02-16T15:03:22.1Z</time>
      </trkpt>
      <trkpt lat="48.44536" lon="-2.92096">
        <ele>295</ele>
        <time>2014-02-16T15:03:24.1Z</time>
      </trkpt>
      <trkpt lat="48.44538" lon="-2.92099">
        <ele>295</ele>
        <time>2014-02-16T15:03:27.1Z</time>
      </trkpt>
      <trkpt lat="48.4454" lon="-2.92102">
        <ele>295</ele>
        <time>2014-02-16T15:03:29.1Z</time>
      </trkpt>
      <trkpt lat="48.44542" lon="-2.92105">
        <ele>295</ele>
        <time>2014-02-16T15:03:32.1Z</time>
      </trkpt>
      <trkpt lat="48.44543" lon="-2.92107">
        <ele>294</ele>
        <time>2014-02-16T15:03:34.1Z</time>
      </trkpt>
      <trkpt lat="48.44546" lon="-2.92111">
        <ele>294</ele>
        <time>2014-02-16T15:03:37.1Z</time>
      </trkpt>
      <trkpt lat="48.44548" lon="-2.92114">
        <ele>294</ele>
        <time>2014-02-16T15:03:40.1Z</time>
      </trkpt>
      <trkpt lat="48.4455" lon="-2.92118">
        <ele>295</ele>
        <time>2014-02-16T15:03:43.1Z</time>
      </trkpt>
      <trkpt lat="48.44551" lon="-2.9212">
        <ele>295</ele>
        <time>2014-02-16T15:03:45.1Z</time>
      </trkpt>
      <trkpt lat="48.44553" lon="-2.92123">
        <ele>295</ele>
        <time>2014-02-16T15:03:47.1Z</time>
      </trkpt>
      <trkpt lat="48.44555" lon="-2.92125">
        <ele>295</ele>
        <time>2014-02-16T15:03:49.1Z</time>
      </trkpt>
      <trkpt lat="48.44558" lon="-2.92126">
        <ele>295</ele>
        <time>2014-02-16T15:03:52.1Z</time>
      </trkpt>
      <trkpt lat="48.4456" lon="-2.92128">
        <ele>295</ele>
        <time>2014-02-16T15:03:54.1Z</time>
      </trkpt>
      <trkpt lat="48.44563" lon="-2.9213">
        <ele>294</ele>
        <time>2014-02-16T15:03:57.1Z</time>
      </trkpt>
      <trkpt lat="48.44566" lon="-2.92131">
        <ele>293</ele>
        <time>2014-02-16T15:04:00.1Z</time>
      </trkpt>
      <trkpt lat="48.4457" lon="-2.92131">
        <ele>293</ele>
        <time>2014-02-16T15:04:03.1Z</time>
      </trkpt>
      <trkpt lat="48.44572" lon="-2.92132">
        <ele>292</ele>
        <time>2014-02-16T15:04:05.1Z</time>
      </trkpt>
      <trkpt lat="48.44574" lon="-2.92132">
        <ele>292</ele>
        <time>2014-02-16T15:04:07.1Z</time>
      </trkpt>
      <trkpt lat="48.44577" lon="-2.92133">
        <ele>292</ele>
        <time>2014-02-16T15:04:09.1Z</time>
      </trkpt>
      <trkpt lat="48.44579" lon="-2.92133">
        <ele>292</ele>
        <time>2014-02-16T15:04:11.1Z</time>
      </trkpt>
      <trkpt lat="48.44583" lon="-2.92134">
        <ele>292</ele>
        <time>2014-02-16T15:04:14.1Z</time>
      </trkpt>
      <trkpt lat="48.44587" lon="-2.92135">
        <ele>291</ele>
        <time>2014-02-16T15:04:17.1Z</time>
      </trkpt>
      <trkpt lat="48.4459" lon="-2.92136">
        <ele>291</ele>
        <time>2014-02-16T15:04:20.1Z</time>
      </trkpt>
      <trkpt lat="48.44593" lon="-2.92136">
        <ele>290</ele>
        <time>2014-02-16T15:04:22.1Z</time>
      </trkpt>
      <trkpt lat="48.44595" lon="-2.92137">
        <ele>290</ele>
        <time>2014-02-16T15:04:24.1Z</time>
      </trkpt>
      <trkpt lat="48.44598" lon="-2.92138">
        <ele>290</ele>
        <time>2014-02-16T15:04:27.1Z</time>
      </trkpt>
      <trkpt lat="48.44602" lon="-2.92139">
        <ele>290</ele>
        <time>2014-02-16T15:04:30.1Z</time>
      </trkpt>
      <trkpt lat="48.44606" lon="-2.92139">
        <ele>290</ele>
        <time>2014-02-16T15:04:33.1Z</time>
      </trkpt>
      <trkpt lat="48.44609" lon="-2.9214">
        <ele>289</ele>
        <time>2014-02-16T15:04:35.1Z</time>
      </trkpt>
      <trkpt lat="48.44611" lon="-2.92141">
        <ele>289</ele>
        <time>2014-02-16T15:04:37.1Z</time>
      </trkpt>
      <trkpt lat="48.44614" lon="-2.92141">
        <ele>289</ele>
        <time>2014-02-16T15:04:39.1Z</time>
      </trkpt>
      <trkpt lat="48.44618" lon="-2.92142">
        <ele>289</ele>
        <time>2014-02-16T15:04:42.1Z</time>
      </trkpt>
      <trkpt lat="48.44622" lon="-2.92143">
        <ele>289</ele>
        <time>2014-02-16T15:04:45.1Z</time>
      </trkpt>
      <trkpt lat="48.44625" lon="-2.92144">
        <ele>289</ele>
        <time>2014-02-16T15:04:48.1Z</time>
      </trkpt>
      <trkpt lat="48.44628" lon="-2.92145">
        <ele>289</ele>
        <time>2014-02-16T15:04:50.1Z</time>
      </trkpt>
      <trkpt lat="48.44631" lon="-2.92146">
        <ele>289</ele>
        <time>2014-02-16T15:04:53.1Z</time>
      </trkpt>
      <trkpt lat="48.44633" lon="-2.92147">
        <ele>290</ele>
        <time>2014-02-16T15:04:55.1Z</time>
      </trkpt>
      <trkpt lat="48.44637" lon="-2.92149">
        <ele>289</ele>
        <time>2014-02-16T15:04:58.1Z</time>
      </trkpt>
      <trkpt lat="48.44639" lon="-2.9215">
        <ele>288</ele>
        <time>2014-02-16T15:05:00.1Z</time>
      </trkpt>
      <trkpt lat="48.44643" lon="-2.92152">
        <ele>288</ele>
        <time>2014-02-16T15:05:03.1Z</time>
      </trkpt>
      <trkpt lat="48.44645" lon="-2.92153">
        <ele>287</ele>
        <time>2014-02-16T15:05:05.1Z</time>
      </trkpt>
      <trkpt lat="48.44648" lon="-2.92155">
        <ele>287</ele>
        <time>2014-02-16T15:05:08.1Z</time>
      </trkpt>
      <trkpt lat="48.44651" lon="-2.92156">
        <ele>287</ele>
        <time>2014-02-16T15:05:11.1Z</time>
      </trkpt>
      <trkpt lat="48.44653" lon="-2.92157">
        <ele>287</ele>
        <time>2014-02-16T15:05:13.1Z</time>
      </trkpt>
      <trkpt lat="48.44657" lon="-2.92159">
        <ele>286</ele>
        <time>2014-02-16T15:05:16.1Z</time>
      </trkpt>
      <trkpt lat="48.44659" lon="-2.9216">
        <ele>286</ele>
        <time>2014-02-16T15:05:18.1Z</time>
      </trkpt>
      <trkpt lat="48.44662" lon="-2.92161">
        <ele>286</ele>
        <time>2014-02-16T15:05:21.1Z</time>
      </trkpt>
      <trkpt lat="48.44666" lon="-2.92162">
        <ele>286</ele>
        <time>2014-02-16T15:05:24.1Z</time>
      </trkpt>
      <trkpt lat="48.44668" lon="-2.92163">
        <ele>286</ele>
        <time>2014-02-16T15:05:26.1Z</time>
      </trkpt>
      <trkpt lat="48.44671" lon="-2.92164">
        <ele>286</ele>
        <time>2014-02-16T15:05:28.1Z</time>
      </trkpt>
      <trkpt lat="48.44674" lon="-2.92165">
        <ele>286</ele>
        <time>2014-02-16T15:05:31.1Z</time>
      </trkpt>
      <trkpt lat="48.44676" lon="-2.92166">
        <ele>285</ele>
        <time>2014-02-16T15:05:33.1Z</time>
      </trkpt>
      <trkpt lat="48.44679" lon="-2.92167">
        <ele>285</ele>
        <time>2014-02-16T15:05:35.1Z</time>
      </trkpt>
      <trkpt lat="48.44682" lon="-2.92169">
        <ele>284</ele>
        <time>2014-02-16T15:05:38.1Z</time>
      </trkpt>
      <trkpt lat="48.44685" lon="-2.9217">
        <ele>284</ele>
        <time>2014-02-16T15:05:40.1Z</time>
      </trkpt>
      <trkpt lat="48.44688" lon="-2.92172">
        <ele>284</ele>
        <time>2014-02-16T15:05:43.1Z</time>
      </trkpt>
      <trkpt lat="48.44691" lon="-2.92174">
        <ele>285</ele>
        <time>2014-02-16T15:05:46.1Z</time>
      </trkpt>
      <trkpt lat="48.44694" lon="-2.92175">
        <ele>285</ele>
        <time>2014-02-16T15:05:48.1Z</time>
      </trkpt>
      <trkpt lat="48.44697" lon="-2.92177">
        <ele>285</ele>
        <time>2014-02-16T15:05:51.1Z</time>
      </trkpt>
      <trkpt lat="48.447" lon="-2.92178">
        <ele>285</ele>
        <time>2014-02-16T15:05:53.1Z</time>
      </trkpt>
      <trkpt lat="48.44703" lon="-2.92179">
        <ele>284</ele>
        <time>2014-02-16T15:05:56.1Z</time>
      </trkpt>
      <trkpt lat="48.44706" lon="-2.9218">
        <ele>283</ele>
        <time>2014-02-16T15:05:59.1Z</time>
      </trkpt>
      <trkpt lat="48.44709" lon="-2.92181">
        <ele>283</ele>
        <time>2014-02-16T15:06:01.1Z</time>
      </trkpt>
      <trkpt lat="48.44712" lon="-2.92182">
        <ele>283</ele>
        <time>2014-02-16T15:06:04.1Z</time>
      </trkpt>
      <trkpt lat="48.44716" lon="-2.92184">
        <ele>284</ele>
        <time>2014-02-16T15:06:07.1Z</time>
      </trkpt>
      <trkpt lat="48.44719" lon="-2.92185">
        <ele>284</ele>
        <time>2014-02-16T15:06:10.1Z</time>
      </trkpt>
      <trkpt lat="48.44722" lon="-2.92186">
        <ele>284</ele>
        <time>2014-02-16T15:06:13.1Z</time>
      </trkpt>
      <trkpt lat="48.44726" lon="-2.92187">
        <ele>284</ele>
        <time>2014-02-16T15:06:16.1Z</time>
      </trkpt>
      <trkpt lat="48.44729" lon="-2.92189">
        <ele>283</ele>
        <time>2014-02-16T15:06:19.1Z</time>
      </trkpt>
      <trkpt lat="48.44731" lon="-2.92189">
        <ele>283</ele>
        <time>2014-02-16T15:06:21.1Z</time>
      </trkpt>
      <trkpt lat="48.44733" lon="-2.9219">
        <ele>283</ele>
        <time>2014-02-16T15:06:23.1Z</time>
      </trkpt>
      <trkpt lat="48.44736" lon="-2.92191">
        <ele>283</ele>
        <time>2014-02-16T15:06:26.1Z</time>
      </trkpt>
      <trkpt lat="48.44739" lon="-2.92192">
        <ele>282</ele>
        <time>2014-02-16T15:06:28.1Z</time>
      </trkpt>
      <trkpt lat="48.44742" lon="-2.92194">
        <ele>283</ele>
        <time>2014-02-16T15:06:31.1Z</time>
      </trkpt>
      <trkpt lat="48.44744" lon="-2.92195">
        <ele>283</ele>
        <time>2014-02-16T15:06:33.1Z</time>
      </trkpt>
      <trkpt lat="48.44747" lon="-2.92196">
        <ele>283</ele>
        <time>2014-02-16T15:06:36.1Z</time>
      </trkpt>
      <trkpt lat="48.4475" lon="-2.92196">
        <ele>283</ele>
        <time>2014-02-16T15:06:38.1Z</time>
      </trkpt>
      <trkpt lat="48.44752" lon="-2.92197">
        <ele>283</ele>
        <time>2014-02-16T15:06:40.1Z</time>
      </trkpt>
      <trkpt lat="48.44755" lon="-2.92198">
        <ele>282</ele>
        <time>2014-02-16T15:06:43.1Z</time>
      </trkpt>
      <trkpt lat="48.44758" lon="-2.92199">
        <ele>282</ele>
        <time>2014-02-16T15:06:46.1Z</time>
      </trkpt>
      <trkpt lat="48.4476" lon="-2.922">
        <ele>282</ele>
        <time>2014-02-16T15:06:49.1Z</time>
      </trkpt>
      <trkpt lat="48.4476" lon="-2.922">
        <ele>282</ele>
        <time>2014-02-16T15:06:51.1Z</time>
      </trkpt>
      <trkpt lat="48.44761" lon="-2.92201">
        <ele>282</ele>
        <time>2014-02-16T15:06:53.1Z</time>
      </trkpt>
      <trkpt lat="48.44762" lon="-2.92204">
        <ele>282</ele>
        <time>2014-02-16T15:06:56.1Z</time>
      </trkpt>
      <trkpt lat="48.44764" lon="-2.92206">
        <ele>282</ele>
        <time>2014-02-16T15:06:59.1Z</time>
      </trkpt>
      <trkpt lat="48.44765" lon="-2.92207">
        <ele>282</ele>
        <time>2014-02-16T15:07:01.1Z</time>
      </trkpt>
      <trkpt lat="48.44766" lon="-2.92208">
        <ele>282</ele>
        <time>2014-02-16T15:07:03.1Z</time>
      </trkpt>
      <trkpt lat="48.44769" lon="-2.9221">
        <ele>283</ele>
        <time>2014-02-16T15:07:06.1Z</time>
      </trkpt>
      <trkpt lat="48.44772" lon="-2.92211">
        <ele>283</ele>
        <time>2014-02-16T15:07:09.1Z</time>
      </trkpt>
      <trkpt lat="48.44773" lon="-2.9221">
        <ele>282</ele>
        <time>2014-02-16T15:07:11.1Z</time>
      </trkpt>
      <trkpt lat="48.44776" lon="-2.92212">
        <ele>282</ele>
        <time>2014-02-16T15:07:14.1Z</time>
      </trkpt>
      <trkpt lat="48.44778" lon="-2.92213">
        <ele>282</ele>
        <time>2014-02-16T15:07:16.1Z</time>
      </trkpt>
      <trkpt lat="48.4478" lon="-2.92215">
        <ele>282</ele>
        <time>2014-02-16T15:07:18.1Z</time>
      </trkpt>
      <trkpt lat="48.44783" lon="-2.92217">
        <ele>281</ele>
        <time>2014-02-16T15:07:21.1Z</time>
      </trkpt>
      <trkpt lat="48.44785" lon="-2.92219">
        <ele>281</ele>
        <time>2014-02-16T15:07:23.1Z</time>
      </trkpt>
      <trkpt lat="48.44788" lon="-2.92221">
        <ele>281</ele>
        <time>2014-02-16T15:07:26.1Z</time>
      </trkpt>
      <trkpt lat="48.4479" lon="-2.92223">
        <ele>280</ele>
        <time>2014-02-16T15:07:28.1Z</time>
      </trkpt>
      <trkpt lat="48.44791" lon="-2.92224">
        <ele>280</ele>
        <time>2014-02-16T15:07:30.1Z</time>
      </trkpt>
      <trkpt lat="48.44794" lon="-2.92228">
        <ele>280</ele>
        <time>2014-02-16T15:07:33.1Z</time>
      </trkpt>
      <trkpt lat="48.44796" lon="-2.92231">
        <ele>280</ele>
        <time>2014-02-16T15:07:36.1Z</time>
      </trkpt>
      <trkpt lat="48.44797" lon="-2.92233">
        <ele>280</ele>
        <time>2014-02-16T15:07:38.1Z</time>
      </trkpt>
      <trkpt lat="48.44798" lon="-2.92235">
        <ele>281</ele>
        <time>2014-02-16T15:07:40.1Z</time>
      </trkpt>
      <trkpt lat="48.448" lon="-2.92238">
        <ele>280</ele>
        <time>2014-02-16T15:07:43.1Z</time>
      </trkpt>
      <trkpt lat="48.44802" lon="-2.92238">
        <ele>280</ele>
        <time>2014-02-16T15:07:45.1Z</time>
      </trkpt>
      <trkpt lat="48.44804" lon="-2.9224">
        <ele>281</ele>
        <time>2014-02-16T15:07:48.1Z</time>
      </trkpt>
      <trkpt lat="48.44807" lon="-2.92243">
        <ele>282</ele>
        <time>2014-02-16T15:07:51.1Z</time>
      </trkpt>
      <trkpt lat="48.44809" lon="-2.92246">
        <ele>283</ele>
        <time>2014-02-16T15:07:54.1Z</time>
      </trkpt>
      <trkpt lat="48.44812" lon="-2.92249">
        <ele>283</ele>
        <time>2014-02-16T15:07:57.1Z</time>
      </trkpt>
      <trkpt lat="48.44813" lon="-2.92252">
        <ele>283</ele>
        <time>2014-02-16T15:07:59.1Z</time>
      </trkpt>
      <trkpt lat="48.44814" lon="-2.92255">
        <ele>282</ele>
        <time>2014-02-16T15:08:02.1Z</time>
      </trkpt>
      <trkpt lat="48.44815" lon="-2.92256">
        <ele>282</ele>
        <time>2014-02-16T15:08:04.1Z</time>
      </trkpt>
      <trkpt lat="48.44817" lon="-2.92259">
        <ele>282</ele>
        <time>2014-02-16T15:08:07.1Z</time>
      </trkpt>
      <trkpt lat="48.44819" lon="-2.92262">
        <ele>282</ele>
        <time>2014-02-16T15:08:09.1Z</time>
      </trkpt>
      <trkpt lat="48.4482" lon="-2.92264">
        <ele>282</ele>
        <time>2014-02-16T15:08:12.1Z</time>
      </trkpt>
      <trkpt lat="48.44821" lon="-2.92266">
        <ele>282</ele>
        <time>2014-02-16T15:08:14.1Z</time>
      </trkpt>
      <trkpt lat="48.44822" lon="-2.92266">
        <ele>282</ele>
        <time>2014-02-16T15:08:16.1Z</time>
      </trkpt>
      <trkpt lat="48.44823" lon="-2.92267">
        <ele>282</ele>
        <time>2014-02-16T15:08:19.1Z</time>
      </trkpt>
      <trkpt lat="48.44825" lon="-2.92269">
        <ele>283</ele>
        <time>2014-02-16T15:08:22.1Z</time>
      </trkpt>
      <trkpt lat="48.44827" lon="-2.92271">
        <ele>283</ele>
        <time>2014-02-16T15:08:24.1Z</time>
      </trkpt>
      <trkpt lat="48.44828" lon="-2.92274">
        <ele>284</ele>
        <time>2014-02-16T15:08:27.1Z</time>
      </trkpt>
      <trkpt lat="48.44829" lon="-2.92276">
        <ele>284</ele>
        <time>2014-02-16T15:08:29.1Z</time>
      </trkpt>
      <trkpt lat="48.44831" lon="-2.92279">
        <ele>284</ele>
        <time>2014-02-16T15:08:32.1Z</time>
      </trkpt>
      <trkpt lat="48.44832" lon="-2.9228">
        <ele>283</ele>
        <time>2014-02-16T15:08:34.1Z</time>
      </trkpt>
      <trkpt lat="48.44833" lon="-2.92283">
        <ele>283</ele>
        <time>2014-02-16T15:08:37.1Z</time>
      </trkpt>
      <trkpt lat="48.44834" lon="-2.92284">
        <ele>284</ele>
        <time>2014-02-16T15:08:39.1Z</time>
      </trkpt>
      <trkpt lat="48.44836" lon="-2.92287">
        <ele>284</ele>
        <time>2014-02-16T15:08:42.1Z</time>
      </trkpt>
      <trkpt lat="48.44838" lon="-2.9229">
        <ele>283</ele>
        <time>2014-02-16T15:08:45.1Z</time>
      </trkpt>
      <trkpt lat="48.4484" lon="-2.92293">
        <ele>283</ele>
        <time>2014-02-16T15:08:48.1Z</time>
      </trkpt>
      <trkpt lat="48.44841" lon="-2.92297">
        <ele>283</ele>
        <time>2014-02-16T15:08:51.1Z</time>
      </trkpt>
      <trkpt lat="48.44843" lon="-2.923">
        <ele>283</ele>
        <time>2014-02-16T15:08:53.1Z</time>
      </trkpt>
      <trkpt lat="48.44844" lon="-2.92304">
        <ele>283</ele>
        <time>2014-02-16T15:08:56.1Z</time>
      </trkpt>
      <trkpt lat="48.44845" lon="-2.92307">
        <ele>284</ele>
        <time>2014-02-16T15:08:58.1Z</time>
      </trkpt>
      <trkpt lat="48.44846" lon="-2.92312">
        <ele>285</ele>
        <time>2014-02-16T15:09:01.1Z</time>
      </trkpt>
      <trkpt lat="48.44847" lon="-2.92316">
        <ele>285</ele>
        <time>2014-02-16T15:09:04.1Z</time>
      </trkpt>
      <trkpt lat="48.44849" lon="-2.9232">
        <ele>285</ele>
        <time>2014-02-16T15:09:07.1Z</time>
      </trkpt>
      <trkpt lat="48.4485" lon="-2.92323">
        <ele>284</ele>
        <time>2014-02-16T15:09:09.1Z</time>
      </trkpt>
      <trkpt lat="48.4485" lon="-2.92324">
        <ele>284</ele>
        <time>2014-02-16T15:09:12.1Z</time>
      </trkpt>
      <trkpt lat="48.4485" lon="-2.92327">
        <ele>284</ele>
        <time>2014-02-16T15:09:15.1Z</time>
      </trkpt>
      <trkpt lat="48.44852" lon="-2.92331">
        <ele>285</ele>
        <time>2014-02-16T15:09:18.1Z</time>
      </trkpt>
      <trkpt lat="48.44852" lon="-2.92333">
        <ele>285</ele>
        <time>2014-02-16T15:09:20.1Z</time>
      </trkpt>
      <trkpt lat="48.44853" lon="-2.92335">
        <ele>285</ele>
        <time>2014-02-16T15:09:22.1Z</time>
      </trkpt>
      <trkpt lat="48.44854" lon="-2.9234">
        <ele>286</ele>
        <time>2014-02-16T15:09:25.1Z</time>
      </trkpt>
      <trkpt lat="48.44856" lon="-2.92344">
        <ele>286</ele>
        <time>2014-02-16T15:09:28.1Z</time>
      </trkpt>
      <trkpt lat="48.44857" lon="-2.92348">
        <ele>286</ele>
        <time>2014-02-16T15:09:30.1Z</time>
      </trkpt>
      <trkpt lat="48.44858" lon="-2.92352">
        <ele>287</ele>
        <time>2014-02-16T15:09:33.1Z</time>
      </trkpt>
      <trkpt lat="48.44859" lon="-2.92355">
        <ele>287</ele>
        <time>2014-02-16T15:09:35.1Z</time>
      </trkpt>
      <trkpt lat="48.44861" lon="-2.92359">
        <ele>287</ele>
        <time>2014-02-16T15:09:38.1Z</time>
      </trkpt>
      <trkpt lat="48.44862" lon="-2.92362">
        <ele>287</ele>
        <time>2014-02-16T15:09:40.1Z</time>
      </trkpt>
      <trkpt lat="48.44864" lon="-2.92366">
        <ele>288</ele>
        <time>2014-02-16T15:09:43.1Z</time>
      </trkpt>
      <trkpt lat="48.44866" lon="-2.9237">
        <ele>288</ele>
        <time>2014-02-16T15:09:46.1Z</time>
      </trkpt>
      <trkpt lat="48.44869" lon="-2.92374">
        <ele>288</ele>
        <time>2014-02-16T15:09:49.1Z</time>
      </trkpt>
      <trkpt lat="48.4487" lon="-2.92377">
        <ele>288</ele>
        <time>2014-02-16T15:09:51.1Z</time>
      </trkpt>
      <trkpt lat="48.44872" lon="-2.92381">
        <ele>287</ele>
        <time>2014-02-16T15:09:54.1Z</time>
      </trkpt>
      <trkpt lat="48.44874" lon="-2.92385">
        <ele>288</ele>
        <time>2014-02-16T15:09:57.1Z</time>
      </trkpt>
      <trkpt lat="48.44876" lon="-2.92389">
        <ele>288</ele>
        <time>2014-02-16T15:10:00.1Z</time>
      </trkpt>
      <trkpt lat="48.44878" lon="-2.92393">
        <ele>288</ele>
        <time>2014-02-16T15:10:03.1Z</time>
      </trkpt>
      <trkpt lat="48.4488" lon="-2.92395">
        <ele>288</ele>
        <time>2014-02-16T15:10:05.1Z</time>
      </trkpt>
      <trkpt lat="48.44882" lon="-2.92399">
        <ele>288</ele>
        <time>2014-02-16T15:10:08.1Z</time>
      </trkpt>
      <trkpt lat="48.44884" lon="-2.92403">
        <ele>288</ele>
        <time>2014-02-16T15:10:11.1Z</time>
      </trkpt>
      <trkpt lat="48.44886" lon="-2.92406">
        <ele>288</ele>
        <time>2014-02-16T15:10:13.1Z</time>
      </trkpt>
      <trkpt lat="48.44887" lon="-2.92409">
        <ele>289</ele>
        <time>2014-02-16T15:10:15.1Z</time>
      </trkpt>
      <trkpt lat="48.44889" lon="-2.92412">
        <ele>289</ele>
        <time>2014-02-16T15:10:18.1Z</time>
      </trkpt>
      <trkpt lat="48.44891" lon="-2.92416">
        <ele>288</ele>
        <time>2014-02-16T15:10:21.1Z</time>
      </trkpt>
      <trkpt lat="48.44893" lon="-2.92418">
        <ele>289</ele>
        <time>2014-02-16T15:10:23.1Z</time>
      </trkpt>
      <trkpt lat="48.44894" lon="-2.92422">
        <ele>289</ele>
        <time>2014-02-16T15:10:26.1Z</time>
      </trkpt>
      <trkpt lat="48.44896" lon="-2.92425">
        <ele>289</ele>
        <time>2014-02-16T15:10:28.1Z</time>
      </trkpt>
      <trkpt lat="48.44898" lon="-2.92429">
        <ele>289</ele>
        <time>2014-02-16T15:10:31.1Z</time>
      </trkpt>
      <trkpt lat="48.44899" lon="-2.92432">
        <ele>289</ele>
        <time>2014-02-16T15:10:33.1Z</time>
      </trkpt>
      <trkpt lat="48.449" lon="-2.92434">
        <ele>289</ele>
        <time>2014-02-16T15:10:35.1Z</time>
      </trkpt>
      <trkpt lat="48.44902" lon="-2.92437">
        <ele>289</ele>
        <time>2014-02-16T15:10:37.1Z</time>
      </trkpt>
      <trkpt lat="48.44903" lon="-2.92441">
        <ele>290</ele>
        <time>2014-02-16T15:10:40.1Z</time>
      </trkpt>
      <trkpt lat="48.44905" lon="-2.92444">
        <ele>290</ele>
        <time>2014-02-16T15:10:42.1Z</time>
      </trkpt>
      <trkpt lat="48.44907" lon="-2.92447">
        <ele>291</ele>
        <time>2014-02-16T15:10:45.1Z</time>
      </trkpt>
      <trkpt lat="48.44908" lon="-2.9245">
        <ele>291</ele>
        <time>2014-02-16T15:10:47.1Z</time>
      </trkpt>
      <trkpt lat="48.4491" lon="-2.92452">
        <ele>290</ele>
        <time>2014-02-16T15:10:50.1Z</time>
      </trkpt>
      <trkpt lat="48.44913" lon="-2.92454">
        <ele>290</ele>
        <time>2014-02-16T15:10:53.1Z</time>
      </trkpt>
      <trkpt lat="48.44915" lon="-2.92454">
        <ele>290</ele>
        <time>2014-02-16T15:10:55.1Z</time>
      </trkpt>
      <trkpt lat="48.44917" lon="-2.92454">
        <ele>290</ele>
        <time>2014-02-16T15:10:57.1Z</time>
      </trkpt>
      <trkpt lat="48.4492" lon="-2.92454">
        <ele>290</ele>
        <time>2014-02-16T15:11:00.1Z</time>
      </trkpt>
      <trkpt lat="48.44922" lon="-2.92452">
        <ele>290</ele>
        <time>2014-02-16T15:11:02.1Z</time>
      </trkpt>
      <trkpt lat="48.44923" lon="-2.9245">
        <ele>289</ele>
        <time>2014-02-16T15:11:04.1Z</time>
      </trkpt>
      <trkpt lat="48.44926" lon="-2.92446">
        <ele>289</ele>
        <time>2014-02-16T15:11:07.1Z</time>
      </trkpt>
      <trkpt lat="48.44927" lon="-2.92444">
        <ele>289</ele>
        <time>2014-02-16T15:11:09.1Z</time>
      </trkpt>
      <trkpt lat="48.44929" lon="-2.92442">
        <ele>289</ele>
        <time>2014-02-16T15:11:12.1Z</time>
      </trkpt>
      <trkpt lat="48.44931" lon="-2.92438">
        <ele>289</ele>
        <time>2014-02-16T15:11:15.1Z</time>
      </trkpt>
      <trkpt lat="48.44933" lon="-2.92436">
        <ele>289</ele>
        <time>2014-02-16T15:11:17.1Z</time>
      </trkpt>
      <trkpt lat="48.44935" lon="-2.92432">
        <ele>289</ele>
        <time>2014-02-16T15:11:20.1Z</time>
      </trkpt>
      <trkpt lat="48.44937" lon="-2.9243">
        <ele>289</ele>
        <time>2014-02-16T15:11:22.1Z</time>
      </trkpt>
      <trkpt lat="48.44939" lon="-2.92426">
        <ele>289</ele>
        <time>2014-02-16T15:11:25.1Z</time>
      </trkpt>
      <trkpt lat="48.44941" lon="-2.92422">
        <ele>289</ele>
        <time>2014-02-16T15:11:28.1Z</time>
      </trkpt>
      <trkpt lat="48.44943" lon="-2.9242">
        <ele>289</ele>
        <time>2014-02-16T15:11:30.1Z</time>
      </trkpt>
      <trkpt lat="48.44944" lon="-2.92417">
        <ele>289</ele>
        <time>2014-02-16T15:11:32.1Z</time>
      </trkpt>
      <trkpt lat="48.44947" lon="-2.92414">
        <ele>288</ele>
        <time>2014-02-16T15:11:35.1Z</time>
      </trkpt>
      <trkpt lat="48.44948" lon="-2.92412">
        <ele>288</ele>
        <time>2014-02-16T15:11:37.1Z</time>
      </trkpt>
      <trkpt lat="48.4495" lon="-2.92409">
        <ele>288</ele>
        <time>2014-02-16T15:11:40.1Z</time>
      </trkpt>
      <trkpt lat="48.44952" lon="-2.92406">
        <ele>289</ele>
        <time>2014-02-16T15:11:43.1Z</time>
      </trkpt>
      <trkpt lat="48.44953" lon="-2.92403">
        <ele>289</ele>
        <time>2014-02-16T15:11:45.1Z</time>
      </trkpt>
      <trkpt lat="48.44955" lon="-2.92401">
        <ele>289</ele>
        <time>2014-02-16T15:11:47.1Z</time>
      </trkpt>
      <trkpt lat="48.44956" lon="-2.92399">
        <ele>289</ele>
        <time>2014-02-16T15:11:49.1Z</time>
      </trkpt>
      <trkpt lat="48.44959" lon="-2.92395">
        <ele>289</ele>
        <time>2014-02-16T15:11:52.1Z</time>
      </trkpt>
      <trkpt lat="48.44961" lon="-2.92391">
        <ele>289</ele>
        <time>2014-02-16T15:11:55.1Z</time>
      </trkpt>
      <trkpt lat="48.44963" lon="-2.92389">
        <ele>289</ele>
        <time>2014-02-16T15:11:57.1Z</time>
      </trkpt>
      <trkpt lat="48.44965" lon="-2.92385">
        <ele>288</ele>
        <time>2014-02-16T15:12:00.1Z</time>
      </trkpt>
      <trkpt lat="48.44967" lon="-2.92383">
        <ele>288</ele>
        <time>2014-02-16T15:12:02.1Z</time>
      </trkpt>
      <trkpt lat="48.44969" lon="-2.92379">
        <ele>288</ele>
        <time>2014-02-16T15:12:05.1Z</time>
      </trkpt>
      <trkpt lat="48.44971" lon="-2.92376">
        <ele>288</ele>
        <time>2014-02-16T15:12:07.1Z</time>
      </trkpt>
      <trkpt lat="48.44973" lon="-2.92373">
        <ele>288</ele>
        <time>2014-02-16T15:12:10.1Z</time>
      </trkpt>
      <trkpt lat="48.44976" lon="-2.92369">
        <ele>288</ele>
        <time>2014-02-16T15:12:13.1Z</time>
      </trkpt>
      <trkpt lat="48.44978" lon="-2.92367">
        <ele>289</ele>
        <time>2014-02-16T15:12:15.1Z</time>
      </trkpt>
      <trkpt lat="48.44979" lon="-2.92364">
        <ele>289</ele>
        <time>2014-02-16T15:12:17.1Z</time>
      </trkpt>
      <trkpt lat="48.44982" lon="-2.92361">
        <ele>289</ele>
        <time>2014-02-16T15:12:20.1Z</time>
      </trkpt>
      <trkpt lat="48.44984" lon="-2.92357">
        <ele>288</ele>
        <time>2014-02-16T15:12:23.1Z</time>
      </trkpt>
      <trkpt lat="48.44986" lon="-2.92356">
        <ele>288</ele>
        <time>2014-02-16T15:12:25.1Z</time>
      </trkpt>
      <trkpt lat="48.44989" lon="-2.92352">
        <ele>289</ele>
        <time>2014-02-16T15:12:28.1Z</time>
      </trkpt>
      <trkpt lat="48.44991" lon="-2.92349">
        <ele>289</ele>
        <time>2014-02-16T15:12:30.1Z</time>
      </trkpt>
      <trkpt lat="48.44992" lon="-2.92346">
        <ele>289</ele>
        <time>2014-02-16T15:12:33.1Z</time>
      </trkpt>
      <trkpt lat="48.44994" lon="-2.92344">
        <ele>289</ele>
        <time>2014-02-16T15:12:35.1Z</time>
      </trkpt>
      <trkpt lat="48.44996" lon="-2.92341">
        <ele>288</ele>
        <time>2014-02-16T15:12:38.1Z</time>
      </trkpt>
      <trkpt lat="48.44998" lon="-2.92339">
        <ele>288</ele>
        <time>2014-02-16T15:12:40.1Z</time>
      </trkpt>
      <trkpt lat="48.45" lon="-2.92335">
        <ele>288</ele>
        <time>2014-02-16T15:12:43.1Z</time>
      </trkpt>
      <trkpt lat="48.45002" lon="-2.92332">
        <ele>288</ele>
        <time>2014-02-16T15:12:45.1Z</time>
      </trkpt>
      <trkpt lat="48.45004" lon="-2.92329">
        <ele>288</ele>
        <time>2014-02-16T15:12:47.1Z</time>
      </trkpt>
      <trkpt lat="48.45006" lon="-2.92325">
        <ele>288</ele>
        <time>2014-02-16T15:12:50.1Z</time>
      </trkpt>
      <trkpt lat="48.45009" lon="-2.92322">
        <ele>288</ele>
        <time>2014-02-16T15:12:53.1Z</time>
      </trkpt>
      <trkpt lat="48.4501" lon="-2.92319">
        <ele>288</ele>
        <time>2014-02-16T15:12:55.1Z</time>
      </trkpt>
      <trkpt lat="48.45013" lon="-2.92316">
        <ele>288</ele>
        <time>2014-02-16T15:12:58.1Z</time>
      </trkpt>
      <trkpt lat="48.45015" lon="-2.92312">
        <ele>288</ele>
        <time>2014-02-16T15:13:01.1Z</time>
      </trkpt>
      <trkpt lat="48.45018" lon="-2.92309">
        <ele>288</ele>
        <time>2014-02-16T15:13:04.1Z</time>
      </trkpt>
      <trkpt lat="48.45019" lon="-2.92307">
        <ele>288</ele>
        <time>2014-02-16T15:13:06.1Z</time>
      </trkpt>
      <trkpt lat="48.45021" lon="-2.92303">
        <ele>288</ele>
        <time>2014-02-16T15:13:09.1Z</time>
      </trkpt>
      <trkpt lat="48.45023" lon="-2.923">
        <ele>288</ele>
        <time>2014-02-16T15:13:11.1Z</time>
      </trkpt>
      <trkpt lat="48.45024" lon="-2.92298">
        <ele>288</ele>
        <time>2014-02-16T15:13:13.1Z</time>
      </trkpt>
      <trkpt lat="48.45027" lon="-2.92294">
        <ele>287</ele>
        <time>2014-02-16T15:13:16.1Z</time>
      </trkpt>
      <trkpt lat="48.45029" lon="-2.92289">
        <ele>287</ele>
        <time>2014-02-16T15:13:19.1Z</time>
      </trkpt>
      <trkpt lat="48.4503" lon="-2.92287">
        <ele>287</ele>
        <time>2014-02-16T15:13:21.1Z</time>
      </trkpt>
      <trkpt lat="48.45032" lon="-2.92283">
        <ele>287</ele>
        <time>2014-02-16T15:13:24.1Z</time>
      </trkpt>
      <trkpt lat="48.45034" lon="-2.9228">
        <ele>287</ele>
        <time>2014-02-16T15:13:26.1Z</time>
      </trkpt>
      <trkpt lat="48.45034" lon="-2.92279">
        <ele>287</ele>
        <time>2014-02-16T15:13:29.1Z</time>
      </trkpt>
      <trkpt lat="48.45035" lon="-2.92277">
        <ele>287</ele>
        <time>2014-02-16T15:13:32.1Z</time>
      </trkpt>
      <trkpt lat="48.45036" lon="-2.92276">
        <ele>287</ele>
        <time>2014-02-16T15:13:35.1Z</time>
      </trkpt>
      <trkpt lat="48.45036" lon="-2.92275">
        <ele>287</ele>
        <time>2014-02-16T15:13:37.1Z</time>
      </trkpt>
      <trkpt lat="48.45037" lon="-2.92273">
        <ele>287</ele>
        <time>2014-02-16T15:13:39.1Z</time>
      </trkpt>
      <trkpt lat="48.45039" lon="-2.92271">
        <ele>287</ele>
        <time>2014-02-16T15:13:42.1Z</time>
      </trkpt>
      <trkpt lat="48.45039" lon="-2.9227">
        <ele>287</ele>
        <time>2014-02-16T15:13:45.1Z</time>
      </trkpt>
      <trkpt lat="48.4504" lon="-2.92269">
        <ele>287</ele>
        <time>2014-02-16T15:13:47.1Z</time>
      </trkpt>
      <trkpt lat="48.45041" lon="-2.92266">
        <ele>287</ele>
        <time>2014-02-16T15:13:50.1Z</time>
      </trkpt>
      <trkpt lat="48.45043" lon="-2.92263">
        <ele>287</ele>
        <time>2014-02-16T15:13:53.1Z</time>
      </trkpt>
      <trkpt lat="48.45044" lon="-2.9226">
        <ele>287</ele>
        <time>2014-02-16T15:13:56.1Z</time>
      </trkpt>
      <trkpt lat="48.45047" lon="-2.92256">
        <ele>287</ele>
        <time>2014-02-16T15:13:59.1Z</time>
      </trkpt>
      <trkpt lat="48.45048" lon="-2.92254">
        <ele>286</ele>
        <time>2014-02-16T15:14:01.1Z</time>
      </trkpt>
      <trkpt lat="48.4505" lon="-2.9225">
        <ele>286</ele>
        <time>2014-02-16T15:14:04.1Z</time>
      </trkpt>
      <trkpt lat="48.45052" lon="-2.92247">
        <ele>286</ele>
        <time>2014-02-16T15:14:07.1Z</time>
      </trkpt>
      <trkpt lat="48.45055" lon="-2.92243">
        <ele>286</ele>
        <time>2014-02-16T15:14:10.1Z</time>
      </trkpt>
      <trkpt lat="48.45057" lon="-2.9224">
        <ele>286</ele>
        <time>2014-02-16T15:14:13.1Z</time>
      </trkpt>
      <trkpt lat="48.45058" lon="-2.92237">
        <ele>286</ele>
        <time>2014-02-16T15:14:15.1Z</time>
      </trkpt>
      <trkpt lat="48.4506" lon="-2.92234">
        <ele>286</ele>
        <time>2014-02-16T15:14:18.1Z</time>
      </trkpt>
      <trkpt lat="48.45063" lon="-2.9223">
        <ele>286</ele>
        <time>2014-02-16T15:14:21.1Z</time>
      </trkpt>
      <trkpt lat="48.45065" lon="-2.92226">
        <ele>286</ele>
        <time>2014-02-16T15:14:24.1Z</time>
      </trkpt>
      <trkpt lat="48.45067" lon="-2.92222">
        <ele>286</ele>
        <time>2014-02-16T15:14:27.1Z</time>
      </trkpt>
      <trkpt lat="48.45068" lon="-2.9222">
        <ele>286</ele>
        <time>2014-02-16T15:14:29.1Z</time>
      </trkpt>
      <trkpt lat="48.45071" lon="-2.92216">
        <ele>286</ele>
        <time>2014-02-16T15:14:32.1Z</time>
      </trkpt>
      <trkpt lat="48.45073" lon="-2.92212">
        <ele>286</ele>
        <time>2014-02-16T15:14:35.1Z</time>
      </trkpt>
      <trkpt lat="48.45075" lon="-2.9221">
        <ele>286</ele>
        <time>2014-02-16T15:14:37.1Z</time>
      </trkpt>
      <trkpt lat="48.45077" lon="-2.92206">
        <ele>286</ele>
        <time>2014-02-16T15:14:40.1Z</time>
      </trkpt>
      <trkpt lat="48.45079" lon="-2.92202">
        <ele>286</ele>
        <time>2014-02-16T15:14:43.1Z</time>
      </trkpt>
      <trkpt lat="48.45081" lon="-2.92198">
        <ele>286</ele>
        <time>2014-02-16T15:14:46.1Z</time>
      </trkpt>
      <trkpt lat="48.45082" lon="-2.92196">
        <ele>286</ele>
        <time>2014-02-16T15:14:48.1Z</time>
      </trkpt>
      <trkpt lat="48.45083" lon="-2.92194">
        <ele>286</ele>
        <time>2014-02-16T15:14:50.1Z</time>
      </trkpt>
      <trkpt lat="48.45084" lon="-2.92192">
        <ele>286</ele>
        <time>2014-02-16T15:14:53.1Z</time>
      </trkpt>
      <trkpt lat="48.45086" lon="-2.9219">
        <ele>286</ele>
        <time>2014-02-16T15:14:55.1Z</time>
      </trkpt>
      <trkpt lat="48.45087" lon="-2.92187">
        <ele>286</ele>
        <time>2014-02-16T15:14:58.1Z</time>
      </trkpt>
      <trkpt lat="48.45089" lon="-2.92184">
        <ele>286</ele>
        <time>2014-02-16T15:15:00.1Z</time>
      </trkpt>
      <trkpt lat="48.4509" lon="-2.92182">
        <ele>286</ele>
        <time>2014-02-16T15:15:02.1Z</time>
      </trkpt>
      <trkpt lat="48.45092" lon="-2.92179">
        <ele>286</ele>
        <time>2014-02-16T15:15:05.1Z</time>
      </trkpt>
      <trkpt lat="48.45094" lon="-2.92176">
        <ele>286</ele>
        <time>2014-02-16T15:15:07.1Z</time>
      </trkpt>
      <trkpt lat="48.45096" lon="-2.92173">
        <ele>286</ele>
        <time>2014-02-16T15:15:10.1Z</time>
      </trkpt>
      <trkpt lat="48.45098" lon="-2.92169">
        <ele>286</ele>
        <time>2014-02-16T15:15:13.1Z</time>
      </trkpt>
      <trkpt lat="48.45099" lon="-2.92167">
        <ele>286</ele>
        <time>2014-02-16T15:15:15.1Z</time>
      </trkpt>
      <trkpt lat="48.45101" lon="-2.92163">
        <ele>286</ele>
        <time>2014-02-16T15:15:18.1Z</time>
      </trkpt>
      <trkpt lat="48.45103" lon="-2.9216">
        <ele>286</ele>
        <time>2014-02-16T15:15:21.1Z</time>
      </trkpt>
      <trkpt lat="48.45105" lon="-2.92158">
        <ele>286</ele>
        <time>2014-02-16T15:15:23.1Z</time>
      </trkpt>
      <trkpt lat="48.45107" lon="-2.92154">
        <ele>287</ele>
        <time>2014-02-16T15:15:26.1Z</time>
      </trkpt>
      <trkpt lat="48.45108" lon="-2.92151">
        <ele>287</ele>
        <time>2014-02-16T15:15:28.1Z</time>
      </trkpt>
      <trkpt lat="48.4511" lon="-2.92147">
        <ele>286</ele>
        <time>2014-02-16T15:15:31.1Z</time>
      </trkpt>
      <trkpt lat="48.45111" lon="-2.92145">
        <ele>287</ele>
        <time>2014-02-16T15:15:33.1Z</time>
      </trkpt>
      <trkpt lat="48.45112" lon="-2.92142">
        <ele>287</ele>
        <time>2014-02-16T15:15:35.1Z</time>
      </trkpt>
      <trkpt lat="48.45114" lon="-2.9214">
        <ele>287</ele>
        <time>2014-02-16T15:15:37.1Z</time>
      </trkpt>
      <trkpt lat="48.45116" lon="-2.92136">
        <ele>287</ele>
        <time>2014-02-16T15:15:40.1Z</time>
      </trkpt>
      <trkpt lat="48.45118" lon="-2.92133">
        <ele>286</ele>
        <time>2014-02-16T15:15:42.1Z</time>
      </trkpt>
      <trkpt lat="48.4512" lon="-2.9213">
        <ele>286</ele>
        <time>2014-02-16T15:15:45.1Z</time>
      </trkpt>
      <trkpt lat="48.45121" lon="-2.92127">
        <ele>286</ele>
        <time>2014-02-16T15:15:47.1Z</time>
      </trkpt>
      <trkpt lat="48.45122" lon="-2.92125">
        <ele>286</ele>
        <time>2014-02-16T15:15:49.1Z</time>
      </trkpt>
      <trkpt lat="48.45123" lon="-2.92123">
        <ele>286</ele>
        <time>2014-02-16T15:15:52.1Z</time>
      </trkpt>
      <trkpt lat="48.45124" lon="-2.92122">
        <ele>286</ele>
        <time>2014-02-16T15:15:54.1Z</time>
      </trkpt>
      <trkpt lat="48.45126" lon="-2.92119">
        <ele>286</ele>
        <time>2014-02-16T15:15:57.1Z</time>
      </trkpt>
      <trkpt lat="48.45128" lon="-2.92117">
        <ele>286</ele>
        <time>2014-02-16T15:16:00.1Z</time>
      </trkpt>
      <trkpt lat="48.4513" lon="-2.92113">
        <ele>286</ele>
        <time>2014-02-16T15:16:03.1Z</time>
      </trkpt>
      <trkpt lat="48.45131" lon="-2.9211">
        <ele>286</ele>
        <time>2014-02-16T15:16:05.1Z</time>
      </trkpt>
      <trkpt lat="48.45132" lon="-2.92108">
        <ele>286</ele>
        <time>2014-02-16T15:16:07.1Z</time>
      </trkpt>
      <trkpt lat="48.45134" lon="-2.92105">
        <ele>286</ele>
        <time>2014-02-16T15:16:09.1Z</time>
      </trkpt>
      <trkpt lat="48.45135" lon="-2.92102">
        <ele>286</ele>
        <time>2014-02-16T15:16:12.1Z</time>
      </trkpt>
      <trkpt lat="48.45137" lon="-2.92098">
        <ele>286</ele>
        <time>2014-02-16T15:16:15.1Z</time>
      </trkpt>
      <trkpt lat="48.45139" lon="-2.92096">
        <ele>286</ele>
        <time>2014-02-16T15:16:17.1Z</time>
      </trkpt>
      <trkpt lat="48.4514" lon="-2.92092">
        <ele>286</ele>
        <time>2014-02-16T15:16:20.1Z</time>
      </trkpt>
      <trkpt lat="48.45142" lon="-2.92089">
        <ele>286</ele>
        <time>2014-02-16T15:16:23.1Z</time>
      </trkpt>
      <trkpt lat="48.45144" lon="-2.92085">
        <ele>286</ele>
        <time>2014-02-16T15:16:26.1Z</time>
      </trkpt>
      <trkpt lat="48.45146" lon="-2.92082">
        <ele>286</ele>
        <time>2014-02-16T15:16:28.1Z</time>
      </trkpt>
      <trkpt lat="48.45147" lon="-2.92078">
        <ele>286</ele>
        <time>2014-02-16T15:16:31.1Z</time>
      </trkpt>
      <trkpt lat="48.45149" lon="-2.92075">
        <ele>286</ele>
        <time>2014-02-16T15:16:34.1Z</time>
      </trkpt>
      <trkpt lat="48.4515" lon="-2.92072">
        <ele>286</ele>
        <time>2014-02-16T15:16:36.1Z</time>
      </trkpt>
      <trkpt lat="48.45152" lon="-2.92069">
        <ele>286</ele>
        <time>2014-02-16T15:16:38.1Z</time>
      </trkpt>
      <trkpt lat="48.45153" lon="-2.92066">
        <ele>286</ele>
        <time>2014-02-16T15:16:41.1Z</time>
      </trkpt>
      <trkpt lat="48.45155" lon="-2.92063">
        <ele>286</ele>
        <time>2014-02-16T15:16:43.1Z</time>
      </trkpt>
      <trkpt lat="48.45157" lon="-2.92059">
        <ele>286</ele>
        <time>2014-02-16T15:16:46.1Z</time>
      </trkpt>
      <trkpt lat="48.45159" lon="-2.92056">
        <ele>286</ele>
        <time>2014-02-16T15:16:49.1Z</time>
      </trkpt>
      <trkpt lat="48.45161" lon="-2.92053">
        <ele>287</ele>
        <time>2014-02-16T15:16:52.1Z</time>
      </trkpt>
      <trkpt lat="48.45162" lon="-2.92051">
        <ele>287</ele>
        <time>2014-02-16T15:16:54.1Z</time>
      </trkpt>
      <trkpt lat="48.45163" lon="-2.92047">
        <ele>287</ele>
        <time>2014-02-16T15:16:57.1Z</time>
      </trkpt>
      <trkpt lat="48.45165" lon="-2.92043">
        <ele>287</ele>
        <time>2014-02-16T15:17:00.1Z</time>
      </trkpt>
      <trkpt lat="48.45167" lon="-2.92041">
        <ele>286</ele>
        <time>2014-02-16T15:17:02.1Z</time>
      </trkpt>
      <trkpt lat="48.45168" lon="-2.92038">
        <ele>287</ele>
        <time>2014-02-16T15:17:04.1Z</time>
      </trkpt>
      <trkpt lat="48.4517" lon="-2.92034">
        <ele>286</ele>
        <time>2014-02-16T15:17:07.1Z</time>
      </trkpt>
      <trkpt lat="48.45171" lon="-2.92032">
        <ele>286</ele>
        <time>2014-02-16T15:17:09.1Z</time>
      </trkpt>
      <trkpt lat="48.45173" lon="-2.92028">
        <ele>286</ele>
        <time>2014-02-16T15:17:12.1Z</time>
      </trkpt>
      <trkpt lat="48.45175" lon="-2.92026">
        <ele>286</ele>
        <time>2014-02-16T15:17:14.1Z</time>
      </trkpt>
      <trkpt lat="48.45176" lon="-2.92023">
        <ele>287</ele>
        <time>2014-02-16T15:17:16.1Z</time>
      </trkpt>
      <trkpt lat="48.45179" lon="-2.92019">
        <ele>287</ele>
        <time>2014-02-16T15:17:19.1Z</time>
      </trkpt>
      <trkpt lat="48.45181" lon="-2.92016">
        <ele>287</ele>
        <time>2014-02-16T15:17:22.1Z</time>
      </trkpt>
      <trkpt lat="48.45184" lon="-2.92012">
        <ele>287</ele>
        <time>2014-02-16T15:17:25.1Z</time>
      </trkpt>
      <trkpt lat="48.45187" lon="-2.92008">
        <ele>287</ele>
        <time>2014-02-16T15:17:28.1Z</time>
      </trkpt>
      <trkpt lat="48.45189" lon="-2.92005">
        <ele>287</ele>
        <time>2014-02-16T15:17:30.1Z</time>
      </trkpt>
      <trkpt lat="48.45191" lon="-2.92002">
        <ele>287</ele>
        <time>2014-02-16T15:17:33.1Z</time>
      </trkpt>
      <trkpt lat="48.45194" lon="-2.91997">
        <ele>287</ele>
        <time>2014-02-16T15:17:36.1Z</time>
      </trkpt>
      <trkpt lat="48.45196" lon="-2.91993">
        <ele>287</ele>
        <time>2014-02-16T15:17:39.1Z</time>
      </trkpt>
      <trkpt lat="48.45198" lon="-2.91991">
        <ele>288</ele>
        <time>2014-02-16T15:17:41.1Z</time>
      </trkpt>
      <trkpt lat="48.452" lon="-2.91988">
        <ele>288</ele>
        <time>2014-02-16T15:17:44.1Z</time>
      </trkpt>
      <trkpt lat="48.45203" lon="-2.91984">
        <ele>287</ele>
        <time>2014-02-16T15:17:47.1Z</time>
      </trkpt>
      <trkpt lat="48.45205" lon="-2.91981">
        <ele>287</ele>
        <time>2014-02-16T15:17:50.1Z</time>
      </trkpt>
      <trkpt lat="48.45206" lon="-2.91979">
        <ele>287</ele>
        <time>2014-02-16T15:17:52.1Z</time>
      </trkpt>
      <trkpt lat="48.45209" lon="-2.91976">
        <ele>287</ele>
        <time>2014-02-16T15:17:55.1Z</time>
      </trkpt>
      <trkpt lat="48.45211" lon="-2.91974">
        <ele>288</ele>
        <time>2014-02-16T15:17:57.1Z</time>
      </trkpt>
      <trkpt lat="48.45213" lon="-2.91971">
        <ele>288</ele>
        <time>2014-02-16T15:18:00.1Z</time>
      </trkpt>
      <trkpt lat="48.45214" lon="-2.91969">
        <ele>288</ele>
        <time>2014-02-16T15:18:02.1Z</time>
      </trkpt>
      <trkpt lat="48.45216" lon="-2.91966">
        <ele>288</ele>
        <time>2014-02-16T15:18:05.1Z</time>
      </trkpt>
      <trkpt lat="48.45219" lon="-2.91963">
        <ele>288</ele>
        <time>2014-02-16T15:18:08.1Z</time>
      </trkpt>
      <trkpt lat="48.45221" lon="-2.91962">
        <ele>288</ele>
        <time>2014-02-16T15:18:10.1Z</time>
      </trkpt>
      <trkpt lat="48.45223" lon="-2.91958">
        <ele>289</ele>
        <time>2014-02-16T15:18:13.1Z</time>
      </trkpt>
      <trkpt lat="48.45225" lon="-2.91955">
        <ele>289</ele>
        <time>2014-02-16T15:18:16.1Z</time>
      </trkpt>
      <trkpt lat="48.45227" lon="-2.91953">
        <ele>289</ele>
        <time>2014-02-16T15:18:18.1Z</time>
      </trkpt>
      <trkpt lat="48.45229" lon="-2.9195">
        <ele>289</ele>
        <time>2014-02-16T15:18:21.1Z</time>
      </trkpt>
      <trkpt lat="48.45231" lon="-2.91949">
        <ele>289</ele>
        <time>2014-02-16T15:18:23.1Z</time>
      </trkpt>
      <trkpt lat="48.45234" lon="-2.91946">
        <ele>289</ele>
        <time>2014-02-16T15:18:26.1Z</time>
      </trkpt>
      <trkpt lat="48.45236" lon="-2.91943">
        <ele>289</ele>
        <time>2014-02-16T15:18:29.1Z</time>
      </trkpt>
      <trkpt lat="48.45238" lon="-2.9194">
        <ele>289</ele>
        <time>2014-02-16T15:18:31.1Z</time>
      </trkpt>
      <trkpt lat="48.45239" lon="-2.91938">
        <ele>289</ele>
        <time>2014-02-16T15:18:33.1Z</time>
      </trkpt>
      <trkpt lat="48.45242" lon="-2.91935">
        <ele>289</ele>
        <time>2014-02-16T15:18:36.1Z</time>
      </trkpt>
      <trkpt lat="48.45243" lon="-2.91932">
        <ele>289</ele>
        <time>2014-02-16T15:18:39.1Z</time>
      </trkpt>
      <trkpt lat="48.45245" lon="-2.9193">
        <ele>289</ele>
        <time>2014-02-16T15:18:41.1Z</time>
      </trkpt>
      <trkpt lat="48.45247" lon="-2.91929">
        <ele>289</ele>
        <time>2014-02-16T15:18:43.1Z</time>
      </trkpt>
      <trkpt lat="48.45249" lon="-2.91928">
        <ele>289</ele>
        <time>2014-02-16T15:18:45.1Z</time>
      </trkpt>
      <trkpt lat="48.45252" lon="-2.91925">
        <ele>289</ele>
        <time>2014-02-16T15:18:48.1Z</time>
      </trkpt>
      <trkpt lat="48.45255" lon="-2.91921">
        <ele>289</ele>
        <time>2014-02-16T15:18:51.1Z</time>
      </trkpt>
      <trkpt lat="48.45258" lon="-2.91918">
        <ele>289</ele>
        <time>2014-02-16T15:18:54.1Z</time>
      </trkpt>
      <trkpt lat="48.4526" lon="-2.91915">
        <ele>289</ele>
        <time>2014-02-16T15:18:56.1Z</time>
      </trkpt>
      <trkpt lat="48.45262" lon="-2.91912">
        <ele>289</ele>
        <time>2014-02-16T15:18:59.1Z</time>
      </trkpt>
      <trkpt lat="48.45264" lon="-2.91908">
        <ele>289</ele>
        <time>2014-02-16T15:19:02.1Z</time>
      </trkpt>
      <trkpt lat="48.45266" lon="-2.91904">
        <ele>289</ele>
        <time>2014-02-16T15:19:05.1Z</time>
      </trkpt>
      <trkpt lat="48.45268" lon="-2.91901">
        <ele>289</ele>
        <time>2014-02-16T15:19:08.1Z</time>
      </trkpt>
      <trkpt lat="48.45269" lon="-2.91899">
        <ele>289</ele>
        <time>2014-02-16T15:19:10.1Z</time>
      </trkpt>
      <trkpt lat="48.4527" lon="-2.91897">
        <ele>289</ele>
        <time>2014-02-16T15:19:12.1Z</time>
      </trkpt>
      <trkpt lat="48.45272" lon="-2.91893">
        <ele>289</ele>
        <time>2014-02-16T15:19:15.1Z</time>
      </trkpt>
      <trkpt lat="48.45273" lon="-2.91891">
        <ele>288</ele>
        <time>2014-02-16T15:19:17.1Z</time>
      </trkpt>
      <trkpt lat="48.45275" lon="-2.91888">
        <ele>288</ele>
        <time>2014-02-16T15:19:20.1Z</time>
      </trkpt>
      <trkpt lat="48.45277" lon="-2.91887">
        <ele>288</ele>
        <time>2014-02-16T15:19:22.1Z</time>
      </trkpt>
      <trkpt lat="48.45279" lon="-2.91887">
        <ele>288</ele>
        <time>2014-02-16T15:19:24.1Z</time>
      </trkpt>
      <trkpt lat="48.45281" lon="-2.91887">
        <ele>288</ele>
        <time>2014-02-16T15:19:26.1Z</time>
      </trkpt>
      <trkpt lat="48.45282" lon="-2.91888">
        <ele>288</ele>
        <time>2014-02-16T15:19:28.1Z</time>
      </trkpt>
      <trkpt lat="48.45285" lon="-2.9189">
        <ele>289</ele>
        <time>2014-02-16T15:19:31.1Z</time>
      </trkpt>
      <trkpt lat="48.45286" lon="-2.91891">
        <ele>289</ele>
        <time>2014-02-16T15:19:33.1Z</time>
      </trkpt>
      <trkpt lat="48.45289" lon="-2.91894">
        <ele>289</ele>
        <time>2014-02-16T15:19:36.1Z</time>
      </trkpt>
      <trkpt lat="48.45292" lon="-2.91895">
        <ele>289</ele>
        <time>2014-02-16T15:19:38.1Z</time>
      </trkpt>
      <trkpt lat="48.45295" lon="-2.91897">
        <ele>289</ele>
        <time>2014-02-16T15:19:41.1Z</time>
      </trkpt>
      <trkpt lat="48.45297" lon="-2.91898">
        <ele>289</ele>
        <time>2014-02-16T15:19:43.1Z</time>
      </trkpt>
      <trkpt lat="48.45299" lon="-2.91898">
        <ele>289</ele>
        <time>2014-02-16T15:19:45.1Z</time>
      </trkpt>
      <trkpt lat="48.45303" lon="-2.91898">
        <ele>289</ele>
        <time>2014-02-16T15:19:48.1Z</time>
      </trkpt>
      <trkpt lat="48.45305" lon="-2.91899">
        <ele>289</ele>
        <time>2014-02-16T15:19:50.1Z</time>
      </trkpt>
      <trkpt lat="48.45308" lon="-2.919">
        <ele>289</ele>
        <time>2014-02-16T15:19:53.1Z</time>
      </trkpt>
      <trkpt lat="48.45311" lon="-2.91902">
        <ele>289</ele>
        <time>2014-02-16T15:19:56.1Z</time>
      </trkpt>
      <trkpt lat="48.45313" lon="-2.91903">
        <ele>289</ele>
        <time>2014-02-16T15:19:58.1Z</time>
      </trkpt>
      <trkpt lat="48.45316" lon="-2.91905">
        <ele>289</ele>
        <time>2014-02-16T15:20:01.1Z</time>
      </trkpt>
      <trkpt lat="48.45319" lon="-2.91906">
        <ele>289</ele>
        <time>2014-02-16T15:20:03.1Z</time>
      </trkpt>
      <trkpt lat="48.45321" lon="-2.91908">
        <ele>288</ele>
        <time>2014-02-16T15:20:05.1Z</time>
      </trkpt>
      <trkpt lat="48.45323" lon="-2.91911">
        <ele>288</ele>
        <time>2014-02-16T15:20:08.1Z</time>
      </trkpt>
      <trkpt lat="48.45326" lon="-2.91914">
        <ele>288</ele>
        <time>2014-02-16T15:20:11.1Z</time>
      </trkpt>
      <trkpt lat="48.45328" lon="-2.91916">
        <ele>288</ele>
        <time>2014-02-16T15:20:14.1Z</time>
      </trkpt>
      <trkpt lat="48.4533" lon="-2.91918">
        <ele>287</ele>
        <time>2014-02-16T15:20:16.1Z</time>
      </trkpt>
      <trkpt lat="48.45331" lon="-2.91921">
        <ele>287</ele>
        <time>2014-02-16T15:20:18.1Z</time>
      </trkpt>
      <trkpt lat="48.45333" lon="-2.91923">
        <ele>288</ele>
        <time>2014-02-16T15:20:20.1Z</time>
      </trkpt>
      <trkpt lat="48.45335" lon="-2.91926">
        <ele>288</ele>
        <time>2014-02-16T15:20:22.1Z</time>
      </trkpt>
      <trkpt lat="48.45336" lon="-2.91928">
        <ele>288</ele>
        <time>2014-02-16T15:20:24.1Z</time>
      </trkpt>
      <trkpt lat="48.45338" lon="-2.91932">
        <ele>288</ele>
        <time>2014-02-16T15:20:27.1Z</time>
      </trkpt>
      <trkpt lat="48.45341" lon="-2.91936">
        <ele>288</ele>
        <time>2014-02-16T15:20:30.1Z</time>
      </trkpt>
      <trkpt lat="48.45342" lon="-2.91937">
        <ele>288</ele>
        <time>2014-02-16T15:20:32.1Z</time>
      </trkpt>
      <trkpt lat="48.45344" lon="-2.91939">
        <ele>288</ele>
        <time>2014-02-16T15:20:35.1Z</time>
      </trkpt>
      <trkpt lat="48.45345" lon="-2.91942">
        <ele>287</ele>
        <time>2014-02-16T15:20:37.1Z</time>
      </trkpt>
      <trkpt lat="48.45347" lon="-2.91945">
        <ele>287</ele>
        <time>2014-02-16T15:20:39.1Z</time>
      </trkpt>
      <trkpt lat="48.45349" lon="-2.91949">
        <ele>287</ele>
        <time>2014-02-16T15:20:42.1Z</time>
      </trkpt>
      <trkpt lat="48.45351" lon="-2.91951">
        <ele>287</ele>
        <time>2014-02-16T15:20:44.1Z</time>
      </trkpt>
      <trkpt lat="48.45353" lon="-2.91956">
        <ele>287</ele>
        <time>2014-02-16T15:20:47.1Z</time>
      </trkpt>
      <trkpt lat="48.45354" lon="-2.91958">
        <ele>287</ele>
        <time>2014-02-16T15:20:49.1Z</time>
      </trkpt>
      <trkpt lat="48.45356" lon="-2.91963">
        <ele>287</ele>
        <time>2014-02-16T15:20:52.1Z</time>
      </trkpt>
      <trkpt lat="48.45358" lon="-2.91967">
        <ele>287</ele>
        <time>2014-02-16T15:20:55.1Z</time>
      </trkpt>
      <trkpt lat="48.45359" lon="-2.9197">
        <ele>286</ele>
        <time>2014-02-16T15:20:57.1Z</time>
      </trkpt>
      <trkpt lat="48.45362" lon="-2.91974">
        <ele>286</ele>
        <time>2014-02-16T15:21:00.1Z</time>
      </trkpt>
      <trkpt lat="48.45365" lon="-2.91976">
        <ele>286</ele>
        <time>2014-02-16T15:21:03.1Z</time>
      </trkpt>
      <trkpt lat="48.45369" lon="-2.91978">
        <ele>286</ele>
        <time>2014-02-16T15:21:06.1Z</time>
      </trkpt>
      <trkpt lat="48.45372" lon="-2.91979">
        <ele>286</ele>
        <time>2014-02-16T15:21:09.1Z</time>
      </trkpt>
      <trkpt lat="48.45374" lon="-2.91979">
        <ele>285</ele>
        <time>2014-02-16T15:21:11.1Z</time>
      </trkpt>
      <trkpt lat="48.45376" lon="-2.91979">
        <ele>285</ele>
        <time>2014-02-16T15:21:13.1Z</time>
      </trkpt>
      <trkpt lat="48.45378" lon="-2.91978">
        <ele>285</ele>
        <time>2014-02-16T15:21:15.1Z</time>
      </trkpt>
      <trkpt lat="48.4538" lon="-2.91976">
        <ele>285</ele>
        <time>2014-02-16T15:21:18.1Z</time>
      </trkpt>
      <trkpt lat="48.45383" lon="-2.91975">
        <ele>285</ele>
        <time>2014-02-16T15:21:21.1Z</time>
      </trkpt>
      <trkpt lat="48.45386" lon="-2.91973">
        <ele>285</ele>
        <time>2014-02-16T15:21:24.1Z</time>
      </trkpt>
      <trkpt lat="48.4539" lon="-2.9197">
        <ele>285</ele>
        <time>2014-02-16T15:21:27.1Z</time>
      </trkpt>
      <trkpt lat="48.45393" lon="-2.91968">
        <ele>285</ele>
        <time>2014-02-16T15:21:30.1Z</time>
      </trkpt>
      <trkpt lat="48.45394" lon="-2.91966">
        <ele>285</ele>
        <time>2014-02-16T15:21:32.1Z</time>
      </trkpt>
      <trkpt lat="48.45397" lon="-2.91964">
        <ele>285</ele>
        <time>2014-02-16T15:21:35.1Z</time>
      </trkpt>
      <trkpt lat="48.45399" lon="-2.91962">
        <ele>285</ele>
        <time>2014-02-16T15:21:38.1Z</time>
      </trkpt>
      <trkpt lat="48.45402" lon="-2.9196">
        <ele>285</ele>
        <time>2014-02-16T15:21:41.1Z</time>
      </trkpt>
      <trkpt lat="48.45406" lon="-2.91957">
        <ele>284</ele>
        <time>2014-02-16T15:21:44.1Z</time>
      </trkpt>
      <trkpt lat="48.45409" lon="-2.91953">
        <ele>284</ele>
        <time>2014-02-16T15:21:47.1Z</time>
      </trkpt>
      <trkpt lat="48.45412" lon="-2.91951">
        <ele>284</ele>
        <time>2014-02-16T15:21:50.1Z</time>
      </trkpt>
      <trkpt lat="48.45414" lon="-2.91948">
        <ele>284</ele>
        <time>2014-02-16T15:21:53.1Z</time>
      </trkpt>
      <trkpt lat="48.45417" lon="-2.91946">
        <ele>284</ele>
        <time>2014-02-16T15:21:55.1Z</time>
      </trkpt>
      <trkpt lat="48.45419" lon="-2.91942">
        <ele>284</ele>
        <time>2014-02-16T15:21:58.1Z</time>
      </trkpt>
      <trkpt lat="48.45422" lon="-2.91939">
        <ele>284</ele>
        <time>2014-02-16T15:22:01.1Z</time>
      </trkpt>
      <trkpt lat="48.45425" lon="-2.91936">
        <ele>284</ele>
        <time>2014-02-16T15:22:03.1Z</time>
      </trkpt>
      <trkpt lat="48.45428" lon="-2.91933">
        <ele>284</ele>
        <time>2014-02-16T15:22:06.1Z</time>
      </trkpt>
      <trkpt lat="48.4543" lon="-2.91931">
        <ele>284</ele>
        <time>2014-02-16T15:22:08.1Z</time>
      </trkpt>
      <trkpt lat="48.45432" lon="-2.91929">
        <ele>284</ele>
        <time>2014-02-16T15:22:10.1Z</time>
      </trkpt>
      <trkpt lat="48.45435" lon="-2.91926">
        <ele>284</ele>
        <time>2014-02-16T15:22:13.1Z</time>
      </trkpt>
      <trkpt lat="48.45437" lon="-2.91924">
        <ele>284</ele>
        <time>2014-02-16T15:22:15.1Z</time>
      </trkpt>
      <trkpt lat="48.45439" lon="-2.91923">
        <ele>284</ele>
        <time>2014-02-16T15:22:17.1Z</time>
      </trkpt>
      <trkpt lat="48.45443" lon="-2.91919">
        <ele>284</ele>
        <time>2014-02-16T15:22:20.1Z</time>
      </trkpt>
      <trkpt lat="48.45444" lon="-2.91917">
        <ele>284</ele>
        <time>2014-02-16T15:22:22.1Z</time>
      </trkpt>
      <trkpt lat="48.45446" lon="-2.91915">
        <ele>284</ele>
        <time>2014-02-16T15:22:24.1Z</time>
      </trkpt>
      <trkpt lat="48.45449" lon="-2.91912">
        <ele>285</ele>
        <time>2014-02-16T15:22:27.1Z</time>
      </trkpt>
      <trkpt lat="48.45451" lon="-2.9191">
        <ele>285</ele>
        <time>2014-02-16T15:22:29.1Z</time>
      </trkpt>
      <trkpt lat="48.45453" lon="-2.91907">
        <ele>285</ele>
        <time>2014-02-16T15:22:32.1Z</time>
      </trkpt>
      <trkpt lat="48.45456" lon="-2.91903">
        <ele>284</ele>
        <time>2014-02-16T15:22:35.1Z</time>
      </trkpt>
      <trkpt lat="48.45458" lon="-2.91899">
        <ele>284</ele>
        <time>2014-02-16T15:22:38.1Z</time>
      </trkpt>
      <trkpt lat="48.45459" lon="-2.91897">
        <ele>284</ele>
        <time>2014-02-16T15:22:40.1Z</time>
      </trkpt>
      <trkpt lat="48.45461" lon="-2.91894">
        <ele>284</ele>
        <time>2014-02-16T15:22:42.1Z</time>
      </trkpt>
      <trkpt lat="48.45462" lon="-2.91889">
        <ele>284</ele>
        <time>2014-02-16T15:22:45.1Z</time>
      </trkpt>
      <trkpt lat="48.45463" lon="-2.91886">
        <ele>284</ele>
        <time>2014-02-16T15:22:47.1Z</time>
      </trkpt>
      <trkpt lat="48.45464" lon="-2.91883">
        <ele>284</ele>
        <time>2014-02-16T15:22:49.1Z</time>
      </trkpt>
      <trkpt lat="48.45465" lon="-2.9188">
        <ele>284</ele>
        <time>2014-02-16T15:22:51.1Z</time>
      </trkpt>
      <trkpt lat="48.45467" lon="-2.91876">
        <ele>284</ele>
        <time>2014-02-16T15:22:54.1Z</time>
      </trkpt>
      <trkpt lat="48.45469" lon="-2.91872">
        <ele>285</ele>
        <time>2014-02-16T15:22:57.1Z</time>
      </trkpt>
      <trkpt lat="48.4547" lon="-2.91868">
        <ele>284</ele>
        <time>2014-02-16T15:22:59.1Z</time>
      </trkpt>
      <trkpt lat="48.45472" lon="-2.91864">
        <ele>285</ele>
        <time>2014-02-16T15:23:02.1Z</time>
      </trkpt>
      <trkpt lat="48.45473" lon="-2.91862">
        <ele>285</ele>
        <time>2014-02-16T15:23:04.1Z</time>
      </trkpt>
      <trkpt lat="48.45475" lon="-2.91859">
        <ele>284</ele>
        <time>2014-02-16T15:23:06.1Z</time>
      </trkpt>
      <trkpt lat="48.45476" lon="-2.91856">
        <ele>285</ele>
        <time>2014-02-16T15:23:08.1Z</time>
      </trkpt>
      <trkpt lat="48.45478" lon="-2.91852">
        <ele>285</ele>
        <time>2014-02-16T15:23:11.1Z</time>
      </trkpt>
      <trkpt lat="48.4548" lon="-2.91848">
        <ele>285</ele>
        <time>2014-02-16T15:23:14.1Z</time>
      </trkpt>
      <trkpt lat="48.45483" lon="-2.91845">
        <ele>285</ele>
        <time>2014-02-16T15:23:17.1Z</time>
      </trkpt>
      <trkpt lat="48.45486" lon="-2.91841">
        <ele>285</ele>
        <time>2014-02-16T15:23:20.1Z</time>
      </trkpt>
      <trkpt lat="48.45488" lon="-2.91839">
        <ele>285</ele>
        <time>2014-02-16T15:23:22.1Z</time>
      </trkpt>
      <trkpt lat="48.4549" lon="-2.91837">
        <ele>285</ele>
        <time>2014-02-16T15:23:24.1Z</time>
      </trkpt>
      <trkpt lat="48.45493" lon="-2.91833">
        <ele>285</ele>
        <time>2014-02-16T15:23:27.1Z</time>
      </trkpt>
      <trkpt lat="48.45495" lon="-2.9183">
        <ele>285</ele>
        <time>2014-02-16T15:23:30.1Z</time>
      </trkpt>
      <trkpt lat="48.45497" lon="-2.91828">
        <ele>285</ele>
        <time>2014-02-16T15:23:32.1Z</time>
      </trkpt>
      <trkpt lat="48.455" lon="-2.91825">
        <ele>285</ele>
        <time>2014-02-16T15:23:35.1Z</time>
      </trkpt>
      <trkpt lat="48.45502" lon="-2.91824">
        <ele>285</ele>
        <time>2014-02-16T15:23:37.1Z</time>
      </trkpt>
      <trkpt lat="48.45504" lon="-2.91821">
        <ele>285</ele>
        <time>2014-02-16T15:23:40.1Z</time>
      </trkpt>
      <trkpt lat="48.45506" lon="-2.91818">
        <ele>285</ele>
        <time>2014-02-16T15:23:43.1Z</time>
      </trkpt>
      <trkpt lat="48.45508" lon="-2.91816">
        <ele>285</ele>
        <time>2014-02-16T15:23:45.1Z</time>
      </trkpt>
      <trkpt lat="48.4551" lon="-2.91815">
        <ele>285</ele>
        <time>2014-02-16T15:23:47.1Z</time>
      </trkpt>
      <trkpt lat="48.45513" lon="-2.91812">
        <ele>285</ele>
        <time>2014-02-16T15:23:50.1Z</time>
      </trkpt>
      <trkpt lat="48.45515" lon="-2.9181">
        <ele>285</ele>
        <time>2014-02-16T15:23:52.1Z</time>
      </trkpt>
      <trkpt lat="48.45517" lon="-2.91807">
        <ele>285</ele>
        <time>2014-02-16T15:23:55.1Z</time>
      </trkpt>
      <trkpt lat="48.4552" lon="-2.91805">
        <ele>285</ele>
        <time>2014-02-16T15:23:58.1Z</time>
      </trkpt>
      <trkpt lat="48.45524" lon="-2.91802">
        <ele>285</ele>
        <time>2014-02-16T15:24:01.1Z</time>
      </trkpt>
      <trkpt lat="48.45527" lon="-2.91799">
        <ele>285</ele>
        <time>2014-02-16T15:24:04.1Z</time>
      </trkpt>
      <trkpt lat="48.45529" lon="-2.91798">
        <ele>285</ele>
        <time>2014-02-16T15:24:06.1Z</time>
      </trkpt>
      <trkpt lat="48.45531" lon="-2.91796">
        <ele>285</ele>
        <time>2014-02-16T15:24:08.1Z</time>
      </trkpt>
      <trkpt lat="48.45535" lon="-2.91794">
        <ele>285</ele>
        <time>2014-02-16T15:24:11.1Z</time>
      </trkpt>
      <trkpt lat="48.45538" lon="-2.91792">
        <ele>285</ele>
        <time>2014-02-16T15:24:14.1Z</time>
      </trkpt>
      <trkpt lat="48.4554" lon="-2.9179">
        <ele>285</ele>
        <time>2014-02-16T15:24:16.1Z</time>
      </trkpt>
      <trkpt lat="48.45542" lon="-2.91789">
        <ele>285</ele>
        <time>2014-02-16T15:24:18.1Z</time>
      </trkpt>
      <trkpt lat="48.45544" lon="-2.91788">
        <ele>284</ele>
        <time>2014-02-16T15:24:20.1Z</time>
      </trkpt>
      <trkpt lat="48.45548" lon="-2.91787">
        <ele>284</ele>
        <time>2014-02-16T15:24:23.1Z</time>
      </trkpt>
      <trkpt lat="48.45551" lon="-2.91787">
        <ele>284</ele>
        <time>2014-02-16T15:24:26.1Z</time>
      </trkpt>
      <trkpt lat="48.45554" lon="-2.91786">
        <ele>284</ele>
        <time>2014-02-16T15:24:28.1Z</time>
      </trkpt>
      <trkpt lat="48.45555" lon="-2.91786">
        <ele>284</ele>
        <time>2014-02-16T15:24:30.1Z</time>
      </trkpt>
      <trkpt lat="48.45559" lon="-2.91786">
        <ele>284</ele>
        <time>2014-02-16T15:24:33.1Z</time>
      </trkpt>
      <trkpt lat="48.45561" lon="-2.91785">
        <ele>284</ele>
        <time>2014-02-16T15:24:35.1Z</time>
      </trkpt>
      <trkpt lat="48.45564" lon="-2.91785">
        <ele>284</ele>
        <time>2014-02-16T15:24:37.1Z</time>
      </trkpt>
      <trkpt lat="48.45567" lon="-2.91786">
        <ele>284</ele>
        <time>2014-02-16T15:24:40.1Z</time>
      </trkpt>
      <trkpt lat="48.4557" lon="-2.91786">
        <ele>284</ele>
        <time>2014-02-16T15:24:42.1Z</time>
      </trkpt>
      <trkpt lat="48.45572" lon="-2.91785">
        <ele>284</ele>
        <time>2014-02-16T15:24:44.1Z</time>
      </trkpt>
      <trkpt lat="48.45575" lon="-2.91785">
        <ele>284</ele>
        <time>2014-02-16T15:24:47.1Z</time>
      </trkpt>
      <trkpt lat="48.45577" lon="-2.91785">
        <ele>284</ele>
        <time>2014-02-16T15:24:49.1Z</time>
      </trkpt>
      <trkpt lat="48.45581" lon="-2.91785">
        <ele>284</ele>
        <time>2014-02-16T15:24:52.1Z</time>
      </trkpt>
      <trkpt lat="48.45584" lon="-2.91785">
        <ele>283</ele>
        <time>2014-02-16T15:24:55.1Z</time>
      </trkpt>
      <trkpt lat="48.45587" lon="-2.91785">
        <ele>283</ele>
        <time>2014-02-16T15:24:57.1Z</time>
      </trkpt>
      <trkpt lat="48.4559" lon="-2.91785">
        <ele>283</ele>
        <time>2014-02-16T15:25:00.1Z</time>
      </trkpt>
      <trkpt lat="48.45593" lon="-2.91785">
        <ele>283</ele>
        <time>2014-02-16T15:25:03.1Z</time>
      </trkpt>
      <trkpt lat="48.45596" lon="-2.91785">
        <ele>283</ele>
        <time>2014-02-16T15:25:06.1Z</time>
      </trkpt>
      <trkpt lat="48.45598" lon="-2.91785">
        <ele>283</ele>
        <time>2014-02-16T15:25:08.1Z</time>
      </trkpt>
      <trkpt lat="48.45601" lon="-2.91785">
        <ele>283</ele>
        <time>2014-02-16T15:25:11.1Z</time>
      </trkpt>
      <trkpt lat="48.45604" lon="-2.91785">
        <ele>283</ele>
        <time>2014-02-16T15:25:13.1Z</time>
      </trkpt>
      <trkpt lat="48.45607" lon="-2.91785">
        <ele>283</ele>
        <time>2014-02-16T15:25:16.1Z</time>
      </trkpt>
      <trkpt lat="48.45609" lon="-2.91785">
        <ele>282</ele>
        <time>2014-02-16T15:25:18.1Z</time>
      </trkpt>
      <trkpt lat="48.45612" lon="-2.91784">
        <ele>283</ele>
        <time>2014-02-16T15:25:21.1Z</time>
      </trkpt>
      <trkpt lat="48.45614" lon="-2.91784">
        <ele>283</ele>
        <time>2014-02-16T15:25:23.1Z</time>
      </trkpt>
      <trkpt lat="48.45617" lon="-2.91785">
        <ele>282</ele>
        <time>2014-02-16T15:25:26.1Z</time>
      </trkpt>
      <trkpt lat="48.4562" lon="-2.91784">
        <ele>282</ele>
        <time>2014-02-16T15:25:29.1Z</time>
      </trkpt>
      <trkpt lat="48.45623" lon="-2.91784">
        <ele>282</ele>
        <time>2014-02-16T15:25:32.1Z</time>
      </trkpt>
      <trkpt lat="48.45626" lon="-2.91784">
        <ele>282</ele>
        <time>2014-02-16T15:25:34.1Z</time>
      </trkpt>
      <trkpt lat="48.45629" lon="-2.91784">
        <ele>282</ele>
        <time>2014-02-16T15:25:37.1Z</time>
      </trkpt>
      <trkpt lat="48.45631" lon="-2.91783">
        <ele>282</ele>
        <time>2014-02-16T15:25:39.1Z</time>
      </trkpt>
      <trkpt lat="48.45633" lon="-2.91783">
        <ele>282</ele>
        <time>2014-02-16T15:25:42.1Z</time>
      </trkpt>
      <trkpt lat="48.45636" lon="-2.91783">
        <ele>282</ele>
        <time>2014-02-16T15:25:44.1Z</time>
      </trkpt>
      <trkpt lat="48.45639" lon="-2.91783">
        <ele>282</ele>
        <time>2014-02-16T15:25:47.1Z</time>
      </trkpt>
      <trkpt lat="48.45641" lon="-2.91782">
        <ele>282</ele>
        <time>2014-02-16T15:25:49.1Z</time>
      </trkpt>
      <trkpt lat="48.45644" lon="-2.91782">
        <ele>282</ele>
        <time>2014-02-16T15:25:52.1Z</time>
      </trkpt>
      <trkpt lat="48.45647" lon="-2.91781">
        <ele>282</ele>
        <time>2014-02-16T15:25:54.1Z</time>
      </trkpt>
      <trkpt lat="48.4565" lon="-2.91781">
        <ele>282</ele>
        <time>2014-02-16T15:25:57.1Z</time>
      </trkpt>
      <trkpt lat="48.45654" lon="-2.9178">
        <ele>282</ele>
        <time>2014-02-16T15:26:00.1Z</time>
      </trkpt>
      <trkpt lat="48.45656" lon="-2.9178">
        <ele>282</ele>
        <time>2014-02-16T15:26:02.1Z</time>
      </trkpt>
      <trkpt lat="48.45659" lon="-2.91779">
        <ele>281</ele>
        <time>2014-02-16T15:26:05.1Z</time>
      </trkpt>
      <trkpt lat="48.45663" lon="-2.91778">
        <ele>282</ele>
        <time>2014-02-16T15:26:08.1Z</time>
      </trkpt>
      <trkpt lat="48.45665" lon="-2.91778">
        <ele>281</ele>
        <time>2014-02-16T15:26:10.1Z</time>
      </trkpt>
      <trkpt lat="48.45668" lon="-2.91778">
        <ele>281</ele>
        <time>2014-02-16T15:26:13.1Z</time>
      </trkpt>
      <trkpt lat="48.4567" lon="-2.91777">
        <ele>281</ele>
        <time>2014-02-16T15:26:15.1Z</time>
      </trkpt>
      <trkpt lat="48.45672" lon="-2.91777">
        <ele>281</ele>
        <time>2014-02-16T15:26:17.1Z</time>
      </trkpt>
      <trkpt lat="48.45676" lon="-2.91776">
        <ele>281</ele>
        <time>2014-02-16T15:26:20.1Z</time>
      </trkpt>
      <trkpt lat="48.45679" lon="-2.91776">
        <ele>281</ele>
        <time>2014-02-16T15:26:23.1Z</time>
      </trkpt>
      <trkpt lat="48.45681" lon="-2.91776">
        <ele>281</ele>
        <time>2014-02-16T15:26:25.1Z</time>
      </trkpt>
      <trkpt lat="48.45684" lon="-2.91776">
        <ele>281</ele>
        <time>2014-02-16T15:26:28.1Z</time>
      </trkpt>
      <trkpt lat="48.45686" lon="-2.91775">
        <ele>281</ele>
        <time>2014-02-16T15:26:30.1Z</time>
      </trkpt>
      <trkpt lat="48.45689" lon="-2.91775">
        <ele>280</ele>
        <time>2014-02-16T15:26:33.1Z</time>
      </trkpt>
      <trkpt lat="48.45692" lon="-2.91775">
        <ele>280</ele>
        <time>2014-02-16T15:26:35.1Z</time>
      </trkpt>
      <trkpt lat="48.45695" lon="-2.91775">
        <ele>280</ele>
        <time>2014-02-16T15:26:38.1Z</time>
      </trkpt>
      <trkpt lat="48.45699" lon="-2.91774">
        <ele>280</ele>
        <time>2014-02-16T15:26:41.1Z</time>
      </trkpt>
      <trkpt lat="48.45701" lon="-2.91774">
        <ele>280</ele>
        <time>2014-02-16T15:26:43.1Z</time>
      </trkpt>
      <trkpt lat="48.45704" lon="-2.91774">
        <ele>280</ele>
        <time>2014-02-16T15:26:45.1Z</time>
      </trkpt>
      <trkpt lat="48.45707" lon="-2.91773">
        <ele>279</ele>
        <time>2014-02-16T15:26:48.1Z</time>
      </trkpt>
      <trkpt lat="48.4571" lon="-2.91772">
        <ele>280</ele>
        <time>2014-02-16T15:26:51.1Z</time>
      </trkpt>
      <trkpt lat="48.45714" lon="-2.91772">
        <ele>280</ele>
        <time>2014-02-16T15:26:54.1Z</time>
      </trkpt>
      <trkpt lat="48.45717" lon="-2.91771">
        <ele>280</ele>
        <time>2014-02-16T15:26:57.1Z</time>
      </trkpt>
      <trkpt lat="48.4572" lon="-2.91771">
        <ele>280</ele>
        <time>2014-02-16T15:26:59.1Z</time>
      </trkpt>
      <trkpt lat="48.45723" lon="-2.9177">
        <ele>280</ele>
        <time>2014-02-16T15:27:02.1Z</time>
      </trkpt>
      <trkpt lat="48.45727" lon="-2.9177">
        <ele>280</ele>
        <time>2014-02-16T15:27:05.1Z</time>
      </trkpt>
      <trkpt lat="48.45731" lon="-2.91769">
        <ele>279</ele>
        <time>2014-02-16T15:27:08.1Z</time>
      </trkpt>
      <trkpt lat="48.45733" lon="-2.91769">
        <ele>279</ele>
        <time>2014-02-16T15:27:10.1Z</time>
      </trkpt>
      <trkpt lat="48.45735" lon="-2.91768">
        <ele>279</ele>
        <time>2014-02-16T15:27:12.1Z</time>
      </trkpt>
      <trkpt lat="48.45739" lon="-2.91767">
        <ele>279</ele>
        <time>2014-02-16T15:27:15.1Z</time>
      </trkpt>
      <trkpt lat="48.45741" lon="-2.91767">
        <ele>279</ele>
        <time>2014-02-16T15:27:17.1Z</time>
      </trkpt>
      <trkpt lat="48.45744" lon="-2.91767">
        <ele>279</ele>
        <time>2014-02-16T15:27:20.1Z</time>
      </trkpt>
      <trkpt lat="48.45747" lon="-2.91766">
        <ele>279</ele>
        <time>2014-02-16T15:27:22.1Z</time>
      </trkpt>
      <trkpt lat="48.45749" lon="-2.91766">
        <ele>279</ele>
        <time>2014-02-16T15:27:24.1Z</time>
      </trkpt>
      <trkpt lat="48.45753" lon="-2.91765">
        <ele>279</ele>
        <time>2014-02-16T15:27:27.1Z</time>
      </trkpt>
      <trkpt lat="48.45756" lon="-2.91765">
        <ele>279</ele>
        <time>2014-02-16T15:27:30.1Z</time>
      </trkpt>
      <trkpt lat="48.45759" lon="-2.91766">
        <ele>279</ele>
        <time>2014-02-16T15:27:32.1Z</time>
      </trkpt>
      <trkpt lat="48.45762" lon="-2.91766">
        <ele>279</ele>
        <time>2014-02-16T15:27:35.1Z</time>
      </trkpt>
      <trkpt lat="48.45763" lon="-2.91766">
        <ele>279</ele>
        <time>2014-02-16T15:27:37.1Z</time>
      </trkpt>
      <trkpt lat="48.45766" lon="-2.91767">
        <ele>279</ele>
        <time>2014-02-16T15:27:40.1Z</time>
      </trkpt>
      <trkpt lat="48.45769" lon="-2.91768">
        <ele>279</ele>
        <time>2014-02-16T15:27:43.1Z</time>
      </trkpt>
      <trkpt lat="48.45773" lon="-2.91769">
        <ele>278</ele>
        <time>2014-02-16T15:27:46.1Z</time>
      </trkpt>
      <trkpt lat="48.45776" lon="-2.9177">
        <ele>278</ele>
        <time>2014-02-16T15:27:49.1Z</time>
      </trkpt>
      <trkpt lat="48.45778" lon="-2.91771">
        <ele>278</ele>
        <time>2014-02-16T15:27:51.1Z</time>
      </trkpt>
      <trkpt lat="48.45779" lon="-2.91772">
        <ele>278</ele>
        <time>2014-02-16T15:27:53.1Z</time>
      </trkpt>
      <trkpt lat="48.45782" lon="-2.91772">
        <ele>278</ele>
        <time>2014-02-16T15:27:55.1Z</time>
      </trkpt>
      <trkpt lat="48.45784" lon="-2.91773">
        <ele>278</ele>
        <time>2014-02-16T15:27:58.1Z</time>
      </trkpt>
      <trkpt lat="48.45787" lon="-2.91774">
        <ele>278</ele>
        <time>2014-02-16T15:28:00.1Z</time>
      </trkpt>
      <trkpt lat="48.45789" lon="-2.91774">
        <ele>278</ele>
        <time>2014-02-16T15:28:02.1Z</time>
      </trkpt>
      <trkpt lat="48.45792" lon="-2.91775">
        <ele>277</ele>
        <time>2014-02-16T15:28:05.1Z</time>
      </trkpt>
      <trkpt lat="48.45795" lon="-2.91775">
        <ele>277</ele>
        <time>2014-02-16T15:28:08.1Z</time>
      </trkpt>
      <trkpt lat="48.45797" lon="-2.91776">
        <ele>277</ele>
        <time>2014-02-16T15:28:10.1Z</time>
      </trkpt>
      <trkpt lat="48.458" lon="-2.91777">
        <ele>277</ele>
        <time>2014-02-16T15:28:13.1Z</time>
      </trkpt>
      <trkpt lat="48.45803" lon="-2.91778">
        <ele>277</ele>
        <time>2014-02-16T15:28:15.1Z</time>
      </trkpt>
      <trkpt lat="48.45805" lon="-2.91778">
        <ele>277</ele>
        <time>2014-02-16T15:28:18.1Z</time>
      </trkpt>
      <trkpt lat="48.45807" lon="-2.91778">
        <ele>276</ele>
        <time>2014-02-16T15:28:20.1Z</time>
      </trkpt>
      <trkpt lat="48.45809" lon="-2.91779">
        <ele>276</ele>
        <time>2014-02-16T15:28:22.1Z</time>
      </trkpt>
      <trkpt lat="48.45811" lon="-2.91779">
        <ele>276</ele>
        <time>2014-02-16T15:28:24.1Z</time>
      </trkpt>
      <trkpt lat="48.45815" lon="-2.9178">
        <ele>276</ele>
        <time>2014-02-16T15:28:27.1Z</time>
      </trkpt>
      <trkpt lat="48.45817" lon="-2.91781">
        <ele>276</ele>
        <time>2014-02-16T15:28:29.1Z</time>
      </trkpt>
      <trkpt lat="48.4582" lon="-2.91781">
        <ele>276</ele>
        <time>2014-02-16T15:28:31.1Z</time>
      </trkpt>
      <trkpt lat="48.45823" lon="-2.91782">
        <ele>276</ele>
        <time>2014-02-16T15:28:34.1Z</time>
      </trkpt>
      <trkpt lat="48.45826" lon="-2.91783">
        <ele>276</ele>
        <time>2014-02-16T15:28:37.1Z</time>
      </trkpt>
      <trkpt lat="48.4583" lon="-2.91784">
        <ele>276</ele>
        <time>2014-02-16T15:28:40.1Z</time>
      </trkpt>
      <trkpt lat="48.45833" lon="-2.91785">
        <ele>276</ele>
        <time>2014-02-16T15:28:43.1Z</time>
      </trkpt>
      <trkpt lat="48.45837" lon="-2.91786">
        <ele>276</ele>
        <time>2014-02-16T15:28:46.1Z</time>
      </trkpt>
      <trkpt lat="48.45839" lon="-2.91787">
        <ele>276</ele>
        <time>2014-02-16T15:28:48.1Z</time>
      </trkpt>
      <trkpt lat="48.45843" lon="-2.91787">
        <ele>276</ele>
        <time>2014-02-16T15:28:51.1Z</time>
      </trkpt>
      <trkpt lat="48.45847" lon="-2.91789">
        <ele>276</ele>
        <time>2014-02-16T15:28:54.1Z</time>
      </trkpt>
      <trkpt lat="48.4585" lon="-2.91789">
        <ele>276</ele>
        <time>2014-02-16T15:28:57.1Z</time>
      </trkpt>
      <trkpt lat="48.45852" lon="-2.9179">
        <ele>276</ele>
        <time>2014-02-16T15:28:59.1Z</time>
      </trkpt>
      <trkpt lat="48.45855" lon="-2.9179">
        <ele>276</ele>
        <time>2014-02-16T15:29:01.1Z</time>
      </trkpt>
      <trkpt lat="48.45858" lon="-2.91791">
        <ele>276</ele>
        <time>2014-02-16T15:29:04.1Z</time>
      </trkpt>
      <trkpt lat="48.45861" lon="-2.91792">
        <ele>276</ele>
        <time>2014-02-16T15:29:07.1Z</time>
      </trkpt>
      <trkpt lat="48.45863" lon="-2.91792">
        <ele>276</ele>
        <time>2014-02-16T15:29:09.1Z</time>
      </trkpt>
      <trkpt lat="48.45866" lon="-2.91792">
        <ele>276</ele>
        <time>2014-02-16T15:29:12.1Z</time>
      </trkpt>
      <trkpt lat="48.45869" lon="-2.91792">
        <ele>276</ele>
        <time>2014-02-16T15:29:14.1Z</time>
      </trkpt>
      <trkpt lat="48.45871" lon="-2.91793">
        <ele>276</ele>
        <time>2014-02-16T15:29:16.1Z</time>
      </trkpt>
      <trkpt lat="48.45873" lon="-2.91794">
        <ele>276</ele>
        <time>2014-02-16T15:29:18.1Z</time>
      </trkpt>
      <trkpt lat="48.45876" lon="-2.91795">
        <ele>275</ele>
        <time>2014-02-16T15:29:21.1Z</time>
      </trkpt>
      <trkpt lat="48.45879" lon="-2.91796">
        <ele>275</ele>
        <time>2014-02-16T15:29:24.1Z</time>
      </trkpt>
      <trkpt lat="48.45882" lon="-2.91797">
        <ele>275</ele>
        <time>2014-02-16T15:29:27.1Z</time>
      </trkpt>
      <trkpt lat="48.45884" lon="-2.91798">
        <ele>275</ele>
        <time>2014-02-16T15:29:29.1Z</time>
      </trkpt>
      <trkpt lat="48.45887" lon="-2.91799">
        <ele>275</ele>
        <time>2014-02-16T15:29:31.1Z</time>
      </trkpt>
      <trkpt lat="48.45888" lon="-2.918">
        <ele>275</ele>
        <time>2014-02-16T15:29:33.1Z</time>
      </trkpt>
      <trkpt lat="48.4589" lon="-2.91802">
        <ele>275</ele>
        <time>2014-02-16T15:29:36.1Z</time>
      </trkpt>
      <trkpt lat="48.45894" lon="-2.91803">
        <ele>275</ele>
        <time>2014-02-16T15:29:39.1Z</time>
      </trkpt>
      <trkpt lat="48.45895" lon="-2.91804">
        <ele>275</ele>
        <time>2014-02-16T15:29:41.1Z</time>
      </trkpt>
      <trkpt lat="48.45898" lon="-2.91806">
        <ele>276</ele>
        <time>2014-02-16T15:29:44.1Z</time>
      </trkpt>
      <trkpt lat="48.45902" lon="-2.91808">
        <ele>276</ele>
        <time>2014-02-16T15:29:47.1Z</time>
      </trkpt>
      <trkpt lat="48.45904" lon="-2.9181">
        <ele>276</ele>
        <time>2014-02-16T15:29:49.1Z</time>
      </trkpt>
      <trkpt lat="48.45906" lon="-2.91811">
        <ele>276</ele>
        <time>2014-02-16T15:29:51.1Z</time>
      </trkpt>
      <trkpt lat="48.45908" lon="-2.91812">
        <ele>276</ele>
        <time>2014-02-16T15:29:54.1Z</time>
      </trkpt>
      <trkpt lat="48.45911" lon="-2.91813">
        <ele>275</ele>
        <time>2014-02-16T15:29:57.1Z</time>
      </trkpt>
      <trkpt lat="48.45914" lon="-2.91815">
        <ele>276</ele>
        <time>2014-02-16T15:30:00.1Z</time>
      </trkpt>
      <trkpt lat="48.45916" lon="-2.91816">
        <ele>275</ele>
        <time>2014-02-16T15:30:02.1Z</time>
      </trkpt>
      <trkpt lat="48.45919" lon="-2.91818">
        <ele>276</ele>
        <time>2014-02-16T15:30:04.1Z</time>
      </trkpt>
      <trkpt lat="48.45921" lon="-2.91819">
        <ele>275</ele>
        <time>2014-02-16T15:30:06.1Z</time>
      </trkpt>
      <trkpt lat="48.45924" lon="-2.91819">
        <ele>275</ele>
        <time>2014-02-16T15:30:08.1Z</time>
      </trkpt>
      <trkpt lat="48.45928" lon="-2.91819">
        <ele>275</ele>
        <time>2014-02-16T15:30:11.1Z</time>
      </trkpt>
      <trkpt lat="48.45931" lon="-2.9182">
        <ele>276</ele>
        <time>2014-02-16T15:30:13.1Z</time>
      </trkpt>
      <trkpt lat="48.45935" lon="-2.9182">
        <ele>276</ele>
        <time>2014-02-16T15:30:16.1Z</time>
      </trkpt>
      <trkpt lat="48.45938" lon="-2.9182">
        <ele>275</ele>
        <time>2014-02-16T15:30:18.1Z</time>
      </trkpt>
      <trkpt lat="48.45943" lon="-2.9182">
        <ele>275</ele>
        <time>2014-02-16T15:30:21.1Z</time>
      </trkpt>
      <trkpt lat="48.45947" lon="-2.9182">
        <ele>275</ele>
        <time>2014-02-16T15:30:24.1Z</time>
      </trkpt>
      <trkpt lat="48.45951" lon="-2.91821">
        <ele>275</ele>
        <time>2014-02-16T15:30:27.1Z</time>
      </trkpt>
      <trkpt lat="48.45954" lon="-2.91821">
        <ele>275</ele>
        <time>2014-02-16T15:30:29.1Z</time>
      </trkpt>
      <trkpt lat="48.45958" lon="-2.91821">
        <ele>275</ele>
        <time>2014-02-16T15:30:32.1Z</time>
      </trkpt>
      <trkpt lat="48.45961" lon="-2.91822">
        <ele>275</ele>
        <time>2014-02-16T15:30:35.1Z</time>
      </trkpt>
      <trkpt lat="48.45964" lon="-2.91822">
        <ele>276</ele>
        <time>2014-02-16T15:30:38.1Z</time>
      </trkpt>
      <trkpt lat="48.45968" lon="-2.91822">
        <ele>276</ele>
        <time>2014-02-16T15:30:41.1Z</time>
      </trkpt>
      <trkpt lat="48.45972" lon="-2.91822">
        <ele>276</ele>
        <time>2014-02-16T15:30:44.1Z</time>
      </trkpt>
      <trkpt lat="48.45975" lon="-2.91822">
        <ele>276</ele>
        <time>2014-02-16T15:30:47.1Z</time>
      </trkpt>
      <trkpt lat="48.45977" lon="-2.91823">
        <ele>276</ele>
        <time>2014-02-16T15:30:49.1Z</time>
      </trkpt>
      <trkpt lat="48.4598" lon="-2.91823">
        <ele>276</ele>
        <time>2014-02-16T15:30:52.1Z</time>
      </trkpt>
      <trkpt lat="48.45982" lon="-2.91824">
        <ele>276</ele>
        <time>2014-02-16T15:30:55.1Z</time>
      </trkpt>
      <trkpt lat="48.45985" lon="-2.91824">
        <ele>276</ele>
        <time>2014-02-16T15:30:57.1Z</time>
      </trkpt>
      <trkpt lat="48.45986" lon="-2.91824">
        <ele>276</ele>
        <time>2014-02-16T15:30:59.1Z</time>
      </trkpt>
      <trkpt lat="48.4599" lon="-2.91825">
        <ele>276</ele>
        <time>2014-02-16T15:31:02.1Z</time>
      </trkpt>
      <trkpt lat="48.45992" lon="-2.91826">
        <ele>276</ele>
        <time>2014-02-16T15:31:04.1Z</time>
      </trkpt>
      <trkpt lat="48.45995" lon="-2.91826">
        <ele>276</ele>
        <time>2014-02-16T15:31:07.1Z</time>
      </trkpt>
      <trkpt lat="48.45998" lon="-2.91826">
        <ele>277</ele>
        <time>2014-02-16T15:31:09.1Z</time>
      </trkpt>
      <trkpt lat="48.46001" lon="-2.91827">
        <ele>277</ele>
        <time>2014-02-16T15:31:12.1Z</time>
      </trkpt>
      <trkpt lat="48.46003" lon="-2.91827">
        <ele>277</ele>
        <time>2014-02-16T15:31:14.1Z</time>
      </trkpt>
      <trkpt lat="48.46007" lon="-2.91828">
        <ele>276</ele>
        <time>2014-02-16T15:31:17.1Z</time>
      </trkpt>
      <trkpt lat="48.46011" lon="-2.91828">
        <ele>276</ele>
        <time>2014-02-16T15:31:20.1Z</time>
      </trkpt>
      <trkpt lat="48.46014" lon="-2.91829">
        <ele>276</ele>
        <time>2014-02-16T15:31:23.1Z</time>
      </trkpt>
      <trkpt lat="48.46017" lon="-2.9183">
        <ele>276</ele>
        <time>2014-02-16T15:31:25.1Z</time>
      </trkpt>
      <trkpt lat="48.4602" lon="-2.9183">
        <ele>276</ele>
        <time>2014-02-16T15:31:28.1Z</time>
      </trkpt>
      <trkpt lat="48.46023" lon="-2.91831">
        <ele>276</ele>
        <time>2014-02-16T15:31:30.1Z</time>
      </trkpt>
      <trkpt lat="48.46026" lon="-2.91832">
        <ele>276</ele>
        <time>2014-02-16T15:31:33.1Z</time>
      </trkpt>
      <trkpt lat="48.4603" lon="-2.91833">
        <ele>276</ele>
        <time>2014-02-16T15:31:36.1Z</time>
      </trkpt>
      <trkpt lat="48.46032" lon="-2.91834">
        <ele>276</ele>
        <time>2014-02-16T15:31:38.1Z</time>
      </trkpt>
      <trkpt lat="48.46035" lon="-2.91835">
        <ele>276</ele>
        <time>2014-02-16T15:31:40.1Z</time>
      </trkpt>
      <trkpt lat="48.46038" lon="-2.91836">
        <ele>277</ele>
        <time>2014-02-16T15:31:43.1Z</time>
      </trkpt>
      <trkpt lat="48.4604" lon="-2.91836">
        <ele>277</ele>
        <time>2014-02-16T15:31:45.1Z</time>
      </trkpt>
      <trkpt lat="48.46043" lon="-2.91837">
        <ele>277</ele>
        <time>2014-02-16T15:31:47.1Z</time>
      </trkpt>
      <trkpt lat="48.46046" lon="-2.91838">
        <ele>277</ele>
        <time>2014-02-16T15:31:50.1Z</time>
      </trkpt>
      <trkpt lat="48.46049" lon="-2.91839">
        <ele>277</ele>
        <time>2014-02-16T15:31:53.1Z</time>
      </trkpt>
      <trkpt lat="48.46053" lon="-2.9184">
        <ele>277</ele>
        <time>2014-02-16T15:31:56.1Z</time>
      </trkpt>
      <trkpt lat="48.46056" lon="-2.9184">
        <ele>277</ele>
        <time>2014-02-16T15:31:58.1Z</time>
      </trkpt>
      <trkpt lat="48.46058" lon="-2.91841">
        <ele>277</ele>
        <time>2014-02-16T15:32:00.1Z</time>
      </trkpt>
      <trkpt lat="48.4606" lon="-2.91842">
        <ele>278</ele>
        <time>2014-02-16T15:32:02.1Z</time>
      </trkpt>
      <trkpt lat="48.46062" lon="-2.91842">
        <ele>278</ele>
        <time>2014-02-16T15:32:04.1Z</time>
      </trkpt>
      <trkpt lat="48.46065" lon="-2.91843">
        <ele>278</ele>
        <time>2014-02-16T15:32:07.1Z</time>
      </trkpt>
      <trkpt lat="48.46069" lon="-2.91844">
        <ele>278</ele>
        <time>2014-02-16T15:32:10.1Z</time>
      </trkpt>
      <trkpt lat="48.46072" lon="-2.91844">
        <ele>278</ele>
        <time>2014-02-16T15:32:13.1Z</time>
      </trkpt>
      <trkpt lat="48.46075" lon="-2.91845">
        <ele>278</ele>
        <time>2014-02-16T15:32:15.1Z</time>
      </trkpt>
      <trkpt lat="48.46077" lon="-2.91845">
        <ele>278</ele>
        <time>2014-02-16T15:32:17.1Z</time>
      </trkpt>
      <trkpt lat="48.4608" lon="-2.91846">
        <ele>278</ele>
        <time>2014-02-16T15:32:20.1Z</time>
      </trkpt>
      <trkpt lat="48.46082" lon="-2.91846">
        <ele>278</ele>
        <time>2014-02-16T15:32:22.1Z</time>
      </trkpt>
      <trkpt lat="48.46085" lon="-2.91847">
        <ele>278</ele>
        <time>2014-02-16T15:32:25.1Z</time>
      </trkpt>
      <trkpt lat="48.46089" lon="-2.91848">
        <ele>279</ele>
        <time>2014-02-16T15:32:28.1Z</time>
      </trkpt>
      <trkpt lat="48.46092" lon="-2.9185">
        <ele>279</ele>
        <time>2014-02-16T15:32:31.1Z</time>
      </trkpt>
      <trkpt lat="48.46094" lon="-2.9185">
        <ele>279</ele>
        <time>2014-02-16T15:32:33.1Z</time>
      </trkpt>
      <trkpt lat="48.46097" lon="-2.91851">
        <ele>279</ele>
        <time>2014-02-16T15:32:36.1Z</time>
      </trkpt>
      <trkpt lat="48.46099" lon="-2.91852">
        <ele>279</ele>
        <time>2014-02-16T15:32:38.1Z</time>
      </trkpt>
      <trkpt lat="48.46101" lon="-2.91852">
        <ele>278</ele>
        <time>2014-02-16T15:32:40.1Z</time>
      </trkpt>
      <trkpt lat="48.46104" lon="-2.91853">
        <ele>278</ele>
        <time>2014-02-16T15:32:43.1Z</time>
      </trkpt>
      <trkpt lat="48.46108" lon="-2.91854">
        <ele>278</ele>
        <time>2014-02-16T15:32:46.1Z</time>
      </trkpt>
      <trkpt lat="48.46111" lon="-2.91855">
        <ele>278</ele>
        <time>2014-02-16T15:32:49.1Z</time>
      </trkpt>
      <trkpt lat="48.46114" lon="-2.91855">
        <ele>278</ele>
        <time>2014-02-16T15:32:52.1Z</time>
      </trkpt>
      <trkpt lat="48.46116" lon="-2.91856">
        <ele>278</ele>
        <time>2014-02-16T15:32:54.1Z</time>
      </trkpt>
      <trkpt lat="48.46119" lon="-2.91856">
        <ele>277</ele>
        <time>2014-02-16T15:32:57.1Z</time>
      </trkpt>
      <trkpt lat="48.46122" lon="-2.91857">
        <ele>278</ele>
        <time>2014-02-16T15:33:00.1Z</time>
      </trkpt>
      <trkpt lat="48.46125" lon="-2.91857">
        <ele>278</ele>
        <time>2014-02-16T15:33:03.1Z</time>
      </trkpt>
      <trkpt lat="48.46127" lon="-2.91858">
        <ele>277</ele>
        <time>2014-02-16T15:33:05.1Z</time>
      </trkpt>
      <trkpt lat="48.4613" lon="-2.91858">
        <ele>278</ele>
        <time>2014-02-16T15:33:08.1Z</time>
      </trkpt>
      <trkpt lat="48.46133" lon="-2.91859">
        <ele>278</ele>
        <time>2014-02-16T15:33:10.1Z</time>
      </trkpt>
      <trkpt lat="48.46135" lon="-2.91859">
        <ele>278</ele>
        <time>2014-02-16T15:33:12.1Z</time>
      </trkpt>
      <trkpt lat="48.46136" lon="-2.9186">
        <ele>278</ele>
        <time>2014-02-16T15:33:14.1Z</time>
      </trkpt>
      <trkpt lat="48.4614" lon="-2.91861">
        <ele>278</ele>
        <time>2014-02-16T15:33:17.1Z</time>
      </trkpt>
      <trkpt lat="48.46142" lon="-2.91861">
        <ele>278</ele>
        <time>2014-02-16T15:33:19.1Z</time>
      </trkpt>
      <trkpt lat="48.46145" lon="-2.91862">
        <ele>278</ele>
        <time>2014-02-16T15:33:21.1Z</time>
      </trkpt>
      <trkpt lat="48.46148" lon="-2.91863">
        <ele>277</ele>
        <time>2014-02-16T15:33:24.1Z</time>
      </trkpt>
      <trkpt lat="48.4615" lon="-2.91863">
        <ele>277</ele>
        <time>2014-02-16T15:33:26.1Z</time>
      </trkpt>
      <trkpt lat="48.46153" lon="-2.91863">
        <ele>277</ele>
        <time>2014-02-16T15:33:29.1Z</time>
      </trkpt>
      <trkpt lat="48.46156" lon="-2.91864">
        <ele>277</ele>
        <time>2014-02-16T15:33:32.1Z</time>
      </trkpt>
      <trkpt lat="48.46159" lon="-2.91865">
        <ele>278</ele>
        <time>2014-02-16T15:33:35.1Z</time>
      </trkpt>
      <trkpt lat="48.46162" lon="-2.91865">
        <ele>278</ele>
        <time>2014-02-16T15:33:37.1Z</time>
      </trkpt>
      <trkpt lat="48.46164" lon="-2.91865">
        <ele>278</ele>
        <time>2014-02-16T15:33:39.1Z</time>
      </trkpt>
      <trkpt lat="48.46167" lon="-2.91866">
        <ele>278</ele>
        <time>2014-02-16T15:33:42.1Z</time>
      </trkpt>
      <trkpt lat="48.46171" lon="-2.91867">
        <ele>277</ele>
        <time>2014-02-16T15:33:45.1Z</time>
      </trkpt>
      <trkpt lat="48.46173" lon="-2.91867">
        <ele>277</ele>
        <time>2014-02-16T15:33:47.1Z</time>
      </trkpt>
      <trkpt lat="48.46177" lon="-2.91868">
        <ele>278</ele>
        <time>2014-02-16T15:33:50.1Z</time>
      </trkpt>
      <trkpt lat="48.4618" lon="-2.91868">
        <ele>278</ele>
        <time>2014-02-16T15:33:52.1Z</time>
      </trkpt>
      <trkpt lat="48.46183" lon="-2.91868">
        <ele>278</ele>
        <time>2014-02-16T15:33:55.1Z</time>
      </trkpt>
      <trkpt lat="48.46185" lon="-2.91868">
        <ele>278</ele>
        <time>2014-02-16T15:33:57.1Z</time>
      </trkpt>
      <trkpt lat="48.46188" lon="-2.91869">
        <ele>278</ele>
        <time>2014-02-16T15:34:00.1Z</time>
      </trkpt>
      <trkpt lat="48.46191" lon="-2.91869">
        <ele>278</ele>
        <time>2014-02-16T15:34:03.1Z</time>
      </trkpt>
      <trkpt lat="48.46194" lon="-2.91869">
        <ele>278</ele>
        <time>2014-02-16T15:34:05.1Z</time>
      </trkpt>
      <trkpt lat="48.46198" lon="-2.91869">
        <ele>278</ele>
        <time>2014-02-16T15:34:08.1Z</time>
      </trkpt>
      <trkpt lat="48.46201" lon="-2.9187">
        <ele>278</ele>
        <time>2014-02-16T15:34:11.1Z</time>
      </trkpt>
      <trkpt lat="48.46204" lon="-2.9187">
        <ele>279</ele>
        <time>2014-02-16T15:34:13.1Z</time>
      </trkpt>
      <trkpt lat="48.46207" lon="-2.9187">
        <ele>279</ele>
        <time>2014-02-16T15:34:15.1Z</time>
      </trkpt>
      <trkpt lat="48.4621" lon="-2.9187">
        <ele>279</ele>
        <time>2014-02-16T15:34:18.1Z</time>
      </trkpt>
      <trkpt lat="48.46214" lon="-2.9187">
        <ele>279</ele>
        <time>2014-02-16T15:34:21.1Z</time>
      </trkpt>
      <trkpt lat="48.46217" lon="-2.91871">
        <ele>279</ele>
        <time>2014-02-16T15:34:24.1Z</time>
      </trkpt>
      <trkpt lat="48.4622" lon="-2.91871">
        <ele>278</ele>
        <time>2014-02-16T15:34:26.1Z</time>
      </trkpt>
      <trkpt lat="48.46222" lon="-2.91871">
        <ele>278</ele>
        <time>2014-02-16T15:34:28.1Z</time>
      </trkpt>
      <trkpt lat="48.46225" lon="-2.91872">
        <ele>279</ele>
        <time>2014-02-16T15:34:31.1Z</time>
      </trkpt>
      <trkpt lat="48.46227" lon="-2.91872">
        <ele>279</ele>
        <time>2014-02-16T15:34:33.1Z</time>
      </trkpt>
      <trkpt lat="48.4623" lon="-2.91872">
        <ele>279</ele>
        <time>2014-02-16T15:34:36.1Z</time>
      </trkpt>
      <trkpt lat="48.46234" lon="-2.91872">
        <ele>279</ele>
        <time>2014-02-16T15:34:39.1Z</time>
      </trkpt>
      <trkpt lat="48.46237" lon="-2.91872">
        <ele>279</ele>
        <time>2014-02-16T15:34:42.1Z</time>
      </trkpt>
      <trkpt lat="48.4624" lon="-2.91872">
        <ele>279</ele>
        <time>2014-02-16T15:34:45.1Z</time>
      </trkpt>
      <trkpt lat="48.46242" lon="-2.91872">
        <ele>279</ele>
        <time>2014-02-16T15:34:47.1Z</time>
      </trkpt>
      <trkpt lat="48.46245" lon="-2.91872">
        <ele>278</ele>
        <time>2014-02-16T15:34:49.1Z</time>
      </trkpt>
      <trkpt lat="48.46248" lon="-2.91872">
        <ele>279</ele>
        <time>2014-02-16T15:34:52.1Z</time>
      </trkpt>
      <trkpt lat="48.4625" lon="-2.91872">
        <ele>279</ele>
        <time>2014-02-16T15:34:54.1Z</time>
      </trkpt>
      <trkpt lat="48.46253" lon="-2.91871">
        <ele>279</ele>
        <time>2014-02-16T15:34:57.1Z</time>
      </trkpt>
      <trkpt lat="48.46257" lon="-2.91871">
        <ele>279</ele>
        <time>2014-02-16T15:35:00.1Z</time>
      </trkpt>
      <trkpt lat="48.46259" lon="-2.91871">
        <ele>279</ele>
        <time>2014-02-16T15:35:02.1Z</time>
      </trkpt>
      <trkpt lat="48.46262" lon="-2.91871">
        <ele>279</ele>
        <time>2014-02-16T15:35:04.1Z</time>
      </trkpt>
      <trkpt lat="48.46266" lon="-2.91871">
        <ele>280</ele>
        <time>2014-02-16T15:35:07.1Z</time>
      </trkpt>
      <trkpt lat="48.46269" lon="-2.9187">
        <ele>280</ele>
        <time>2014-02-16T15:35:10.1Z</time>
      </trkpt>
      <trkpt lat="48.46272" lon="-2.9187">
        <ele>279</ele>
        <time>2014-02-16T15:35:12.1Z</time>
      </trkpt>
      <trkpt lat="48.46276" lon="-2.9187">
        <ele>279</ele>
        <time>2014-02-16T15:35:15.1Z</time>
      </trkpt>
      <trkpt lat="48.46279" lon="-2.91869">
        <ele>279</ele>
        <time>2014-02-16T15:35:18.1Z</time>
      </trkpt>
      <trkpt lat="48.46282" lon="-2.91869">
        <ele>280</ele>
        <time>2014-02-16T15:35:20.1Z</time>
      </trkpt>
      <trkpt lat="48.46284" lon="-2.91869">
        <ele>280</ele>
        <time>2014-02-16T15:35:22.1Z</time>
      </trkpt>
      <trkpt lat="48.46288" lon="-2.91869">
        <ele>280</ele>
        <time>2014-02-16T15:35:25.1Z</time>
      </trkpt>
      <trkpt lat="48.46291" lon="-2.91869">
        <ele>280</ele>
        <time>2014-02-16T15:35:28.1Z</time>
      </trkpt>
      <trkpt lat="48.46294" lon="-2.9187">
        <ele>280</ele>
        <time>2014-02-16T15:35:31.1Z</time>
      </trkpt>
      <trkpt lat="48.46296" lon="-2.9187">
        <ele>280</ele>
        <time>2014-02-16T15:35:33.1Z</time>
      </trkpt>
      <trkpt lat="48.46299" lon="-2.9187">
        <ele>280</ele>
        <time>2014-02-16T15:35:35.1Z</time>
      </trkpt>
      <trkpt lat="48.46302" lon="-2.9187">
        <ele>280</ele>
        <time>2014-02-16T15:35:38.1Z</time>
      </trkpt>
      <trkpt lat="48.46305" lon="-2.9187">
        <ele>280</ele>
        <time>2014-02-16T15:35:41.1Z</time>
      </trkpt>
      <trkpt lat="48.46307" lon="-2.9187">
        <ele>280</ele>
        <time>2014-02-16T15:35:43.1Z</time>
      </trkpt>
      <trkpt lat="48.46311" lon="-2.9187">
        <ele>280</ele>
        <time>2014-02-16T15:35:46.1Z</time>
      </trkpt>
      <trkpt lat="48.46313" lon="-2.9187">
        <ele>280</ele>
        <time>2014-02-16T15:35:48.1Z</time>
      </trkpt>
      <trkpt lat="48.46317" lon="-2.9187">
        <ele>280</ele>
        <time>2014-02-16T15:35:51.1Z</time>
      </trkpt>
      <trkpt lat="48.4632" lon="-2.91869">
        <ele>280</ele>
        <time>2014-02-16T15:35:53.1Z</time>
      </trkpt>
      <trkpt lat="48.46324" lon="-2.91869">
        <ele>280</ele>
        <time>2014-02-16T15:35:56.1Z</time>
      </trkpt>
      <trkpt lat="48.46328" lon="-2.91869">
        <ele>280</ele>
        <time>2014-02-16T15:35:59.1Z</time>
      </trkpt>
      <trkpt lat="48.4633" lon="-2.91869">
        <ele>280</ele>
        <time>2014-02-16T15:36:01.1Z</time>
      </trkpt>
      <trkpt lat="48.46333" lon="-2.91868">
        <ele>280</ele>
        <time>2014-02-16T15:36:03.1Z</time>
      </trkpt>
      <trkpt lat="48.46335" lon="-2.91867">
        <ele>280</ele>
        <time>2014-02-16T15:36:05.1Z</time>
      </trkpt>
      <trkpt lat="48.46337" lon="-2.91866">
        <ele>280</ele>
        <time>2014-02-16T15:36:07.1Z</time>
      </trkpt>
      <trkpt lat="48.46341" lon="-2.91865">
        <ele>281</ele>
        <time>2014-02-16T15:36:10.1Z</time>
      </trkpt>
      <trkpt lat="48.46343" lon="-2.91865">
        <ele>281</ele>
        <time>2014-02-16T15:36:12.1Z</time>
      </trkpt>
      <trkpt lat="48.46345" lon="-2.91864">
        <ele>281</ele>
        <time>2014-02-16T15:36:14.1Z</time>
      </trkpt>
      <trkpt lat="48.46347" lon="-2.91863">
        <ele>281</ele>
        <time>2014-02-16T15:36:16.1Z</time>
      </trkpt>
      <trkpt lat="48.46349" lon="-2.91862">
        <ele>281</ele>
        <time>2014-02-16T15:36:18.1Z</time>
      </trkpt>
      <trkpt lat="48.46351" lon="-2.91861">
        <ele>281</ele>
        <time>2014-02-16T15:36:20.1Z</time>
      </trkpt>
      <trkpt lat="48.46353" lon="-2.9186">
        <ele>281</ele>
        <time>2014-02-16T15:36:22.1Z</time>
      </trkpt>
      <trkpt lat="48.46356" lon="-2.91858">
        <ele>281</ele>
        <time>2014-02-16T15:36:25.1Z</time>
      </trkpt>
      <trkpt lat="48.46358" lon="-2.91857">
        <ele>281</ele>
        <time>2014-02-16T15:36:27.1Z</time>
      </trkpt>
      <trkpt lat="48.46361" lon="-2.91856">
        <ele>281</ele>
        <time>2014-02-16T15:36:30.1Z</time>
      </trkpt>
      <trkpt lat="48.46362" lon="-2.91855">
        <ele>281</ele>
        <time>2014-02-16T15:36:32.1Z</time>
      </trkpt>
      <trkpt lat="48.46362" lon="-2.91855">
        <ele>281</ele>
        <time>2014-02-16T15:36:34.1Z</time>
      </trkpt>
      <trkpt lat="48.46362" lon="-2.91855">
        <ele>281</ele>
        <time>2014-02-16T15:36:38.1Z</time>
      </trkpt>
      <trkpt lat="48.46362" lon="-2.91855">
        <ele>281</ele>
        <time>2014-02-16T15:36:40.1Z</time>
      </trkpt>
      <trkpt lat="48.46362" lon="-2.91855">
        <ele>282</ele>
        <time>2014-02-16T15:36:43.1Z</time>
      </trkpt>
      <trkpt lat="48.46362" lon="-2.91856">
        <ele>282</ele>
        <time>2014-02-16T15:36:47.1Z</time>
      </trkpt>
      <trkpt lat="48.46362" lon="-2.91856">
        <ele>282</ele>
        <time>2014-02-16T15:36:49.1Z</time>
      </trkpt>
      <trkpt lat="48.46361" lon="-2.91856">
        <ele>281</ele>
        <time>2014-02-16T15:36:52.1Z</time>
      </trkpt>
      <trkpt lat="48.46362" lon="-2.91856">
        <ele>282</ele>
        <time>2014-02-16T15:36:55.1Z</time>
      </trkpt>
      <trkpt lat="48.46362" lon="-2.91856">
        <ele>282</ele>
        <time>2014-02-16T15:36:59.1Z</time>
      </trkpt>
      <trkpt lat="48.46362" lon="-2.91856">
        <ele>282</ele>
        <time>2014-02-16T15:37:04.1Z</time>
      </trkpt>
      <trkpt lat="48.46362" lon="-2.91856">
        <ele>282</ele>
        <time>2014-02-16T15:37:06.1Z</time>
      </trkpt>
      <trkpt lat="48.46362" lon="-2.91856">
        <ele>282</ele>
        <time>2014-02-16T15:37:09.1Z</time>
      </trkpt>
      <trkpt lat="48.46362" lon="-2.91856">
        <ele>282</ele>
        <time>2014-02-16T15:37:11.1Z</time>
      </trkpt>
      <trkpt lat="48.46362" lon="-2.91856">
        <ele>282</ele>
        <time>2014-02-16T15:37:13.1Z</time>
      </trkpt>
      <trkpt lat="48.46362" lon="-2.91856">
        <ele>282</ele>
        <time>2014-02-16T15:37:16.1Z</time>
      </trkpt>
      <trkpt lat="48.46362" lon="-2.91856">
        <ele>282</ele>
        <time>2014-02-16T15:37:18.1Z</time>
      </trkpt>
      <trkpt lat="48.46362" lon="-2.91856">
        <ele>282</ele>
        <time>2014-02-16T15:37:21.1Z</time>
      </trkpt>
      <trkpt lat="48.46362" lon="-2.91856">
        <ele>282</ele>
        <time>2014-02-16T15:37:23.1Z</time>
      </trkpt>
      <trkpt lat="48.46362" lon="-2.91856">
        <ele>282</ele>
        <time>2014-02-16T15:37:26.1Z</time>
      </trkpt>
      <trkpt lat="48.46362" lon="-2.91856">
        <ele>282</ele>
        <time>2014-02-16T15:37:29.1Z</time>
      </trkpt>
      <trkpt lat="48.46362" lon="-2.91856">
        <ele>281</ele>
        <time>2014-02-16T15:37:31.1Z</time>
      </trkpt>
      <trkpt lat="48.46362" lon="-2.91856">
        <ele>281</ele>
        <time>2014-02-16T15:37:38.1Z</time>
      </trkpt>
      <trkpt lat="48.46362" lon="-2.91855">
        <ele>281</ele>
        <time>2014-02-16T15:37:41.1Z</time>
      </trkpt>
      <trkpt lat="48.46363" lon="-2.91855">
        <ele>281</ele>
        <time>2014-02-16T15:37:45.1Z</time>
      </trkpt>
      <trkpt lat="48.46363" lon="-2.91855">
        <ele>281</ele>
        <time>2014-02-16T15:37:50.1Z</time>
      </trkpt>
      <trkpt lat="48.46363" lon="-2.91855">
        <ele>281</ele>
        <time>2014-02-16T15:37:53.1Z</time>
      </trkpt>
      <trkpt lat="48.46363" lon="-2.91855">
        <ele>281</ele>
        <time>2014-02-16T15:37:57.1Z</time>
      </trkpt>
      <trkpt lat="48.46363" lon="-2.91855">
        <ele>281</ele>
        <time>2014-02-16T15:38:02.1Z</time>
      </trkpt>
      <trkpt lat="48.46363" lon="-2.91855">
        <ele>281</ele>
        <time>2014-02-16T15:38:05.1Z</time>
      </trkpt>
      <trkpt lat="48.46364" lon="-2.91855">
        <ele>281</ele>
        <time>2014-02-16T15:38:08.1Z</time>
      </trkpt>
      <trkpt lat="48.46364" lon="-2.91856">
        <ele>282</ele>
        <time>2014-02-16T15:38:12.1Z</time>
      </trkpt>
      <trkpt lat="48.46364" lon="-2.91856">
        <ele>282</ele>
        <time>2014-02-16T15:38:14.1Z</time>
      </trkpt>
      <trkpt lat="48.46364" lon="-2.91856">
        <ele>282</ele>
        <time>2014-02-16T15:38:17.1Z</time>
      </trkpt>
      <trkpt lat="48.46364" lon="-2.91856">
        <ele>282</ele>
        <time>2014-02-16T15:38:19.1Z</time>
      </trkpt>
      <trkpt lat="48.46364" lon="-2.91856">
        <ele>282</ele>
        <time>2014-02-16T15:38:22.1Z</time>
      </trkpt>
      <trkpt lat="48.46364" lon="-2.91856">
        <ele>282</ele>
        <time>2014-02-16T15:38:28.1Z</time>
      </trkpt>
      <trkpt lat="48.46363" lon="-2.91856">
        <ele>282</ele>
        <time>2014-02-16T15:38:31.1Z</time>
      </trkpt>
      <trkpt lat="48.46363" lon="-2.91855">
        <ele>282</ele>
        <time>2014-02-16T15:38:34.1Z</time>
      </trkpt>
      <trkpt lat="48.46363" lon="-2.91855">
        <ele>282</ele>
        <time>2014-02-16T15:38:36.1Z</time>
      </trkpt>
      <trkpt lat="48.46363" lon="-2.91855">
        <ele>281</ele>
        <time>2014-02-16T15:38:39.1Z</time>
      </trkpt>
      <trkpt lat="48.46363" lon="-2.91856">
        <ele>281</ele>
        <time>2014-02-16T15:38:43.1Z</time>
      </trkpt>
      <trkpt lat="48.46363" lon="-2.91856">
        <ele>281</ele>
        <time>2014-02-16T15:38:45.1Z</time>
      </trkpt>
      <trkpt lat="48.46362" lon="-2.91856">
        <ele>281</ele>
        <time>2014-02-16T15:38:48.1Z</time>
      </trkpt>
      <trkpt lat="48.46363" lon="-2.91856">
        <ele>281</ele>
        <time>2014-02-16T15:38:56.1Z</time>
      </trkpt>
      <trkpt lat="48.46362" lon="-2.91856">
        <ele>282</ele>
        <time>2014-02-16T15:38:59.1Z</time>
      </trkpt>
      <trkpt lat="48.46362" lon="-2.91856">
        <ele>281</ele>
        <time>2014-02-16T15:39:01.1Z</time>
      </trkpt>
      <trkpt lat="48.46362" lon="-2.91856">
        <ele>281</ele>
        <time>2014-02-16T15:39:04.1Z</time>
      </trkpt>
      <trkpt lat="48.46362" lon="-2.91856">
        <ele>281</ele>
        <time>2014-02-16T15:39:07.1Z</time>
      </trkpt>
      <trkpt lat="48.46363" lon="-2.91856">
        <ele>281</ele>
        <time>2014-02-16T15:39:10.1Z</time>
      </trkpt>
      <trkpt lat="48.46362" lon="-2.91856">
        <ele>282</ele>
        <time>2014-02-16T15:39:14.1Z</time>
      </trkpt>
      <trkpt lat="48.46363" lon="-2.91856">
        <ele>282</ele>
        <time>2014-02-16T15:39:16.1Z</time>
      </trkpt>
      <trkpt lat="48.46362" lon="-2.91856">
        <ele>281</ele>
        <time>2014-02-16T15:39:19.1Z</time>
      </trkpt>
      <trkpt lat="48.46363" lon="-2.91856">
        <ele>281</ele>
        <time>2014-02-16T15:39:21.1Z</time>
      </trkpt>
      <trkpt lat="48.46363" lon="-2.91856">
        <ele>281</ele>
        <time>2014-02-16T15:39:24.1Z</time>
      </trkpt>
      <trkpt lat="48.46363" lon="-2.91856">
        <ele>281</ele>
        <time>2014-02-16T15:39:27.1Z</time>
      </trkpt>
      <trkpt lat="48.46363" lon="-2.91856">
        <ele>281</ele>
        <time>2014-02-16T15:39:32.1Z</time>
      </trkpt>
      <trkpt lat="48.46363" lon="-2.91857">
        <ele>281</ele>
        <time>2014-02-16T15:39:34.1Z</time>
      </trkpt>
      <trkpt lat="48.46363" lon="-2.91857">
        <ele>281</ele>
        <time>2014-02-16T15:39:37.1Z</time>
      </trkpt>
      <trkpt lat="48.46363" lon="-2.91857">
        <ele>281</ele>
        <time>2014-02-16T15:39:40.1Z</time>
      </trkpt>
      <trkpt lat="48.46363" lon="-2.91857">
        <ele>281</ele>
        <time>2014-02-16T15:39:43.1Z</time>
      </trkpt>
      <trkpt lat="48.46363" lon="-2.91857">
        <ele>281</ele>
        <time>2014-02-16T15:39:46.1Z</time>
      </trkpt>
      <trkpt lat="48.46363" lon="-2.91857">
        <ele>281</ele>
        <time>2014-02-16T15:39:48.1Z</time>
      </trkpt>
      <trkpt lat="48.46363" lon="-2.91856">
        <ele>281</ele>
        <time>2014-02-16T15:39:51.1Z</time>
      </trkpt>
      <trkpt lat="48.46363" lon="-2.91857">
        <ele>281</ele>
        <time>2014-02-16T15:39:54.1Z</time>
      </trkpt>
      <trkpt lat="48.46363" lon="-2.91856">
        <ele>281</ele>
        <time>2014-02-16T15:39:58.1Z</time>
      </trkpt>
      <trkpt lat="48.46363" lon="-2.91857">
        <ele>281</ele>
        <time>2014-02-16T15:40:01.1Z</time>
      </trkpt>
      <trkpt lat="48.46363" lon="-2.91857">
        <ele>281</ele>
        <time>2014-02-16T15:40:04.1Z</time>
      </trkpt>
      <trkpt lat="48.46364" lon="-2.91857">
        <ele>281</ele>
        <time>2014-02-16T15:40:08.1Z</time>
      </trkpt>
      <trkpt lat="48.46364" lon="-2.91857">
        <ele>281</ele>
        <time>2014-02-16T15:40:11.1Z</time>
      </trkpt>
      <trkpt lat="48.46364" lon="-2.91857">
        <ele>281</ele>
        <time>2014-02-16T15:40:14.1Z</time>
      </trkpt>
      <trkpt lat="48.46364" lon="-2.91857">
        <ele>281</ele>
        <time>2014-02-16T15:40:20.1Z</time>
      </trkpt>
      <trkpt lat="48.46364" lon="-2.91857">
        <ele>281</ele>
        <time>2014-02-16T15:40:22.1Z</time>
      </trkpt>
      <trkpt lat="48.46364" lon="-2.91857">
        <ele>281</ele>
        <time>2014-02-16T15:40:24.1Z</time>
      </trkpt>
      <trkpt lat="48.46364" lon="-2.91857">
        <ele>281</ele>
        <time>2014-02-16T15:40:27.1Z</time>
      </trkpt>
      <trkpt lat="48.46365" lon="-2.91857">
        <ele>281</ele>
        <time>2014-02-16T15:40:30.1Z</time>
      </trkpt>
      <trkpt lat="48.46365" lon="-2.91856">
        <ele>281</ele>
        <time>2014-02-16T15:40:33.1Z</time>
      </trkpt>
      <trkpt lat="48.46365" lon="-2.91857">
        <ele>281</ele>
        <time>2014-02-16T15:40:35.1Z</time>
      </trkpt>
      <trkpt lat="48.46365" lon="-2.91857">
        <ele>281</ele>
        <time>2014-02-16T15:40:38.1Z</time>
      </trkpt>
      <trkpt lat="48.46365" lon="-2.91856">
        <ele>281</ele>
        <time>2014-02-16T15:40:40.1Z</time>
      </trkpt>
      <trkpt lat="48.46365" lon="-2.91856">
        <ele>281</ele>
        <time>2014-02-16T15:40:43.1Z</time>
      </trkpt>
      <trkpt lat="48.46365" lon="-2.91856">
        <ele>281</ele>
        <time>2014-02-16T15:40:45.1Z</time>
      </trkpt>
      <trkpt lat="48.46365" lon="-2.91857">
        <ele>281</ele>
        <time>2014-02-16T15:40:48.1Z</time>
      </trkpt>
      <trkpt lat="48.46365" lon="-2.91857">
        <ele>281</ele>
        <time>2014-02-16T15:40:50.1Z</time>
      </trkpt>
      <trkpt lat="48.46365" lon="-2.91857">
        <ele>281</ele>
        <time>2014-02-16T15:40:53.1Z</time>
      </trkpt>
      <trkpt lat="48.46365" lon="-2.91858">
        <ele>281</ele>
        <time>2014-02-16T15:40:56.1Z</time>
      </trkpt>
      <trkpt lat="48.46365" lon="-2.91858">
        <ele>281</ele>
        <time>2014-02-16T15:40:58.1Z</time>
      </trkpt>
      <trkpt lat="48.46365" lon="-2.91858">
        <ele>281</ele>
        <time>2014-02-16T15:41:01.1Z</time>
      </trkpt>
      <trkpt lat="48.46365" lon="-2.91858">
        <ele>281</ele>
        <time>2014-02-16T15:41:05.1Z</time>
      </trkpt>
      <trkpt lat="48.46365" lon="-2.91859">
        <ele>281</ele>
        <time>2014-02-16T15:41:07.1Z</time>
      </trkpt>
      <trkpt lat="48.46365" lon="-2.91859">
        <ele>281</ele>
        <time>2014-02-16T15:41:11.1Z</time>
      </trkpt>
      <trkpt lat="48.46365" lon="-2.91859">
        <ele>281</ele>
        <time>2014-02-16T15:41:14.1Z</time>
      </trkpt>
      <trkpt lat="48.46365" lon="-2.91859">
        <ele>281</ele>
        <time>2014-02-16T15:41:16.1Z</time>
      </trkpt>
      <trkpt lat="48.46365" lon="-2.9186">
        <ele>281</ele>
        <time>2014-02-16T15:41:19.1Z</time>
      </trkpt>
      <trkpt lat="48.46365" lon="-2.9186">
        <ele>281</ele>
        <time>2014-02-16T15:41:22.1Z</time>
      </trkpt>
      <trkpt lat="48.46365" lon="-2.9186">
        <ele>281</ele>
        <time>2014-02-16T15:41:25.1Z</time>
      </trkpt>
      <trkpt lat="48.46365" lon="-2.91861">
        <ele>281</ele>
        <time>2014-02-16T15:41:29.1Z</time>
      </trkpt>
      <trkpt lat="48.46365" lon="-2.9186">
        <ele>281</ele>
        <time>2014-02-16T15:41:34.1Z</time>
      </trkpt>
      <trkpt lat="48.46365" lon="-2.9186">
        <ele>282</ele>
        <time>2014-02-16T15:41:37.1Z</time>
      </trkpt>
      <trkpt lat="48.46365" lon="-2.91859">
        <ele>281</ele>
        <time>2014-02-16T15:41:39.1Z</time>
      </trkpt>
      <trkpt lat="48.46365" lon="-2.91859">
        <ele>281</ele>
        <time>2014-02-16T15:41:41.1Z</time>
      </trkpt>
      <trkpt lat="48.46365" lon="-2.91859">
        <ele>281</ele>
        <time>2014-02-16T15:41:43.1Z</time>
      </trkpt>
      <trkpt lat="48.46365" lon="-2.91859">
        <ele>281</ele>
        <time>2014-02-16T15:41:46.1Z</time>
      </trkpt>
      <trkpt lat="48.46365" lon="-2.91858">
        <ele>281</ele>
        <time>2014-02-16T15:41:48.1Z</time>
      </trkpt>
      <trkpt lat="48.46365" lon="-2.91859">
        <ele>281</ele>
        <time>2014-02-16T15:41:51.1Z</time>
      </trkpt>
      <trkpt lat="48.46365" lon="-2.91859">
        <ele>281</ele>
        <time>2014-02-16T15:41:53.1Z</time>
      </trkpt>
      <trkpt lat="48.46365" lon="-2.91859">
        <ele>281</ele>
        <time>2014-02-16T15:41:57.1Z</time>
      </trkpt>
      <trkpt lat="48.46365" lon="-2.91859">
        <ele>281</ele>
        <time>2014-02-16T15:42:01.1Z</time>
      </trkpt>
      <trkpt lat="48.46365" lon="-2.91859">
        <ele>281</ele>
        <time>2014-02-16T15:42:04.1Z</time>
      </trkpt>
      <trkpt lat="48.46365" lon="-2.91859">
        <ele>281</ele>
        <time>2014-02-16T15:42:08.1Z</time>
      </trkpt>
      <trkpt lat="48.46365" lon="-2.91858">
        <ele>281</ele>
        <time>2014-02-16T15:42:11.1Z</time>
      </trkpt>
      <trkpt lat="48.46365" lon="-2.91858">
        <ele>281</ele>
        <time>2014-02-16T15:42:14.1Z</time>
      </trkpt>
      <trkpt lat="48.46365" lon="-2.91858">
        <ele>281</ele>
        <time>2014-02-16T15:42:16.1Z</time>
      </trkpt>
      <trkpt lat="48.46365" lon="-2.91859">
        <ele>281</ele>
        <time>2014-02-16T15:42:19.1Z</time>
      </trkpt>
      <trkpt lat="48.46365" lon="-2.91859">
        <ele>281</ele>
        <time>2014-02-16T15:42:21.1Z</time>
      </trkpt>
      <trkpt lat="48.46365" lon="-2.9186">
        <ele>281</ele>
        <time>2014-02-16T15:42:25.1Z</time>
      </trkpt>
      <trkpt lat="48.46366" lon="-2.9186">
        <ele>281</ele>
        <time>2014-02-16T15:42:28.1Z</time>
      </trkpt>
      <trkpt lat="48.46366" lon="-2.91859">
        <ele>281</ele>
        <time>2014-02-16T15:42:32.1Z</time>
      </trkpt>
      <trkpt lat="48.46365" lon="-2.91859">
        <ele>281</ele>
        <time>2014-02-16T15:42:36.1Z</time>
      </trkpt>
      <trkpt lat="48.46365" lon="-2.91859">
        <ele>281</ele>
        <time>2014-02-16T15:42:38.1Z</time>
      </trkpt>
      <trkpt lat="48.46365" lon="-2.91859">
        <ele>281</ele>
        <time>2014-02-16T15:42:41.1Z</time>
      </trkpt>
      <trkpt lat="48.46364" lon="-2.91858">
        <ele>281</ele>
        <time>2014-02-16T15:42:44.1Z</time>
      </trkpt>
      <trkpt lat="48.46364" lon="-2.91858">
        <ele>281</ele>
        <time>2014-02-16T15:42:46.1Z</time>
      </trkpt>
      <trkpt lat="48.46364" lon="-2.91858">
        <ele>281</ele>
        <time>2014-02-16T15:42:49.1Z</time>
      </trkpt>
      <trkpt lat="48.46364" lon="-2.91857">
        <ele>281</ele>
        <time>2014-02-16T15:42:51.1Z</time>
      </trkpt>
      <trkpt lat="48.46364" lon="-2.91857">
        <ele>281</ele>
        <time>2014-02-16T15:42:55.1Z</time>
      </trkpt>
      <trkpt lat="48.46364" lon="-2.91857">
        <ele>281</ele>
        <time>2014-02-16T15:42:58.1Z</time>
      </trkpt>
      <trkpt lat="48.46364" lon="-2.91856">
        <ele>281</ele>
        <time>2014-02-16T15:43:00.1Z</time>
      </trkpt>
      <trkpt lat="48.46364" lon="-2.91856">
        <ele>281</ele>
        <time>2014-02-16T15:43:03.1Z</time>
      </trkpt>
      <trkpt lat="48.46364" lon="-2.91856">
        <ele>281</ele>
        <time>2014-02-16T15:43:05.1Z</time>
      </trkpt>
      <trkpt lat="48.46364" lon="-2.91856">
        <ele>281</ele>
        <time>2014-02-16T15:43:09.1Z</time>
      </trkpt>
      <trkpt lat="48.46364" lon="-2.91856">
        <ele>281</ele>
        <time>2014-02-16T15:43:15.1Z</time>
      </trkpt>
      <trkpt lat="48.46364" lon="-2.91857">
        <ele>281</ele>
        <time>2014-02-16T15:43:19.1Z</time>
      </trkpt>
      <trkpt lat="48.46364" lon="-2.91857">
        <ele>281</ele>
        <time>2014-02-16T15:43:23.1Z</time>
      </trkpt>
      <trkpt lat="48.46365" lon="-2.91857">
        <ele>281</ele>
        <time>2014-02-16T15:43:25.1Z</time>
      </trkpt>
      <trkpt lat="48.46364" lon="-2.91857">
        <ele>281</ele>
        <time>2014-02-16T15:43:32.1Z</time>
      </trkpt>
      <trkpt lat="48.46365" lon="-2.91857">
        <ele>281</ele>
        <time>2014-02-16T15:43:35.1Z</time>
      </trkpt>
      <trkpt lat="48.46365" lon="-2.91856">
        <ele>281</ele>
        <time>2014-02-16T15:43:37.1Z</time>
      </trkpt>
      <trkpt lat="48.46365" lon="-2.91856">
        <ele>281</ele>
        <time>2014-02-16T15:43:40.1Z</time>
      </trkpt>
      <trkpt lat="48.46365" lon="-2.91856">
        <ele>281</ele>
        <time>2014-02-16T15:43:43.1Z</time>
      </trkpt>
      <trkpt lat="48.46365" lon="-2.91856">
        <ele>281</ele>
        <time>2014-02-16T15:43:47.1Z</time>
      </trkpt>
      <trkpt lat="48.46365" lon="-2.91856">
        <ele>281</ele>
        <time>2014-02-16T15:43:54.1Z</time>
      </trkpt>
      <trkpt lat="48.46365" lon="-2.91856">
        <ele>281</ele>
        <time>2014-02-16T15:43:59.1Z</time>
      </trkpt>
      <trkpt lat="48.46365" lon="-2.91856">
        <ele>281</ele>
        <time>2014-02-16T15:44:01.1Z</time>
      </trkpt>
      <trkpt lat="48.46365" lon="-2.91856">
        <ele>280</ele>
        <time>2014-02-16T15:44:05.1Z</time>
      </trkpt>
      <trkpt lat="48.46366" lon="-2.91856">
        <ele>281</ele>
        <time>2014-02-16T15:44:11.1Z</time>
      </trkpt>
      <trkpt lat="48.46366" lon="-2.91856">
        <ele>281</ele>
        <time>2014-02-16T15:44:17.1Z</time>
      </trkpt>
      <trkpt lat="48.46366" lon="-2.91856">
        <ele>281</ele>
        <time>2014-02-16T15:44:20.1Z</time>
      </trkpt>
      <trkpt lat="48.46366" lon="-2.91856">
        <ele>281</ele>
        <time>2014-02-16T15:44:26.1Z</time>
      </trkpt>
      <trkpt lat="48.46366" lon="-2.91857">
        <ele>281</ele>
        <time>2014-02-16T15:44:29.1Z</time>
      </trkpt>
      <trkpt lat="48.46367" lon="-2.91857">
        <ele>281</ele>
        <time>2014-02-16T15:44:31.1Z</time>
      </trkpt>
      <trkpt lat="48.46368" lon="-2.91857">
        <ele>281</ele>
        <time>2014-02-16T15:44:34.1Z</time>
      </trkpt>
      <trkpt lat="48.4637" lon="-2.91856">
        <ele>281</ele>
        <time>2014-02-16T15:44:37.1Z</time>
      </trkpt>
      <trkpt lat="48.46371" lon="-2.91855">
        <ele>281</ele>
        <time>2014-02-16T15:44:39.1Z</time>
      </trkpt>
      <trkpt lat="48.46373" lon="-2.91853">
        <ele>281</ele>
        <time>2014-02-16T15:44:42.1Z</time>
      </trkpt>
      <trkpt lat="48.46376" lon="-2.9185">
        <ele>281</ele>
        <time>2014-02-16T15:44:45.1Z</time>
      </trkpt>
      <trkpt lat="48.46377" lon="-2.91849">
        <ele>281</ele>
        <time>2014-02-16T15:44:47.1Z</time>
      </trkpt>
      <trkpt lat="48.46379" lon="-2.91846">
        <ele>281</ele>
        <time>2014-02-16T15:44:50.1Z</time>
      </trkpt>
      <trkpt lat="48.46379" lon="-2.91844">
        <ele>281</ele>
        <time>2014-02-16T15:44:52.1Z</time>
      </trkpt>
      <trkpt lat="48.4638" lon="-2.91841">
        <ele>281</ele>
        <time>2014-02-16T15:44:54.1Z</time>
      </trkpt>
      <trkpt lat="48.46381" lon="-2.91838">
        <ele>281</ele>
        <time>2014-02-16T15:44:57.1Z</time>
      </trkpt>
      <trkpt lat="48.46382" lon="-2.91835">
        <ele>281</ele>
        <time>2014-02-16T15:44:59.1Z</time>
      </trkpt>
      <trkpt lat="48.46384" lon="-2.91832">
        <ele>282</ele>
        <time>2014-02-16T15:45:02.1Z</time>
      </trkpt>
      <trkpt lat="48.46385" lon="-2.91831">
        <ele>282</ele>
        <time>2014-02-16T15:45:04.1Z</time>
      </trkpt>
      <trkpt lat="48.46386" lon="-2.91829">
        <ele>282</ele>
        <time>2014-02-16T15:45:06.1Z</time>
      </trkpt>
      <trkpt lat="48.46387" lon="-2.91827">
        <ele>282</ele>
        <time>2014-02-16T15:45:09.1Z</time>
      </trkpt>
      <trkpt lat="48.46389" lon="-2.91825">
        <ele>282</ele>
        <time>2014-02-16T15:45:11.1Z</time>
      </trkpt>
      <trkpt lat="48.46391" lon="-2.91823">
        <ele>282</ele>
        <time>2014-02-16T15:45:14.1Z</time>
      </trkpt>
      <trkpt lat="48.46392" lon="-2.91821">
        <ele>282</ele>
        <time>2014-02-16T15:45:16.1Z</time>
      </trkpt>
      <trkpt lat="48.46394" lon="-2.91817">
        <ele>281</ele>
        <time>2014-02-16T15:45:19.1Z</time>
      </trkpt>
      <trkpt lat="48.46395" lon="-2.91816">
        <ele>281</ele>
        <time>2014-02-16T15:45:21.1Z</time>
      </trkpt>
      <trkpt lat="48.46397" lon="-2.91813">
        <ele>282</ele>
        <time>2014-02-16T15:45:23.1Z</time>
      </trkpt>
      <trkpt lat="48.46399" lon="-2.9181">
        <ele>282</ele>
        <time>2014-02-16T15:45:26.1Z</time>
      </trkpt>
      <trkpt lat="48.464" lon="-2.91807">
        <ele>282</ele>
        <time>2014-02-16T15:45:28.1Z</time>
      </trkpt>
      <trkpt lat="48.46402" lon="-2.91804">
        <ele>282</ele>
        <time>2014-02-16T15:45:31.1Z</time>
      </trkpt>
      <trkpt lat="48.46403" lon="-2.91801">
        <ele>282</ele>
        <time>2014-02-16T15:45:33.1Z</time>
      </trkpt>
      <trkpt lat="48.46405" lon="-2.91797">
        <ele>282</ele>
        <time>2014-02-16T15:45:36.1Z</time>
      </trkpt>
      <trkpt lat="48.46407" lon="-2.91795">
        <ele>282</ele>
        <time>2014-02-16T15:45:38.1Z</time>
      </trkpt>
      <trkpt lat="48.46409" lon="-2.91792">
        <ele>282</ele>
        <time>2014-02-16T15:45:41.1Z</time>
      </trkpt>
      <trkpt lat="48.4641" lon="-2.91789">
        <ele>282</ele>
        <time>2014-02-16T15:45:43.1Z</time>
      </trkpt>
      <trkpt lat="48.46412" lon="-2.91785">
        <ele>282</ele>
        <time>2014-02-16T15:45:46.1Z</time>
      </trkpt>
      <trkpt lat="48.46415" lon="-2.91782">
        <ele>282</ele>
        <time>2014-02-16T15:45:49.1Z</time>
      </trkpt>
      <trkpt lat="48.46417" lon="-2.9178">
        <ele>282</ele>
        <time>2014-02-16T15:45:51.1Z</time>
      </trkpt>
      <trkpt lat="48.46419" lon="-2.91778">
        <ele>282</ele>
        <time>2014-02-16T15:45:53.1Z</time>
      </trkpt>
      <trkpt lat="48.46422" lon="-2.91774">
        <ele>282</ele>
        <time>2014-02-16T15:45:56.1Z</time>
      </trkpt>
      <trkpt lat="48.46424" lon="-2.91772">
        <ele>282</ele>
        <time>2014-02-16T15:45:58.1Z</time>
      </trkpt>
      <trkpt lat="48.46426" lon="-2.91771">
        <ele>283</ele>
        <time>2014-02-16T15:46:00.1Z</time>
      </trkpt>
      <trkpt lat="48.4643" lon="-2.91768">
        <ele>283</ele>
        <time>2014-02-16T15:46:03.1Z</time>
      </trkpt>
      <trkpt lat="48.46432" lon="-2.91766">
        <ele>283</ele>
        <time>2014-02-16T15:46:05.1Z</time>
      </trkpt>
      <trkpt lat="48.46434" lon="-2.91765">
        <ele>283</ele>
        <time>2014-02-16T15:46:07.1Z</time>
      </trkpt>
      <trkpt lat="48.46436" lon="-2.91763">
        <ele>283</ele>
        <time>2014-02-16T15:46:09.1Z</time>
      </trkpt>
      <trkpt lat="48.46438" lon="-2.91762">
        <ele>283</ele>
        <time>2014-02-16T15:46:11.1Z</time>
      </trkpt>
      <trkpt lat="48.4644" lon="-2.9176">
        <ele>283</ele>
        <time>2014-02-16T15:46:13.1Z</time>
      </trkpt>
      <trkpt lat="48.46442" lon="-2.91759">
        <ele>283</ele>
        <time>2014-02-16T15:46:15.1Z</time>
      </trkpt>
      <trkpt lat="48.46445" lon="-2.91757">
        <ele>283</ele>
        <time>2014-02-16T15:46:18.1Z</time>
      </trkpt>
      <trkpt lat="48.46447" lon="-2.91756">
        <ele>283</ele>
        <time>2014-02-16T15:46:20.1Z</time>
      </trkpt>
      <trkpt lat="48.4645" lon="-2.91754">
        <ele>283</ele>
        <time>2014-02-16T15:46:22.1Z</time>
      </trkpt>
      <trkpt lat="48.46451" lon="-2.91753">
        <ele>283</ele>
        <time>2014-02-16T15:46:24.1Z</time>
      </trkpt>
      <trkpt lat="48.46453" lon="-2.91751">
        <ele>284</ele>
        <time>2014-02-16T15:46:26.1Z</time>
      </trkpt>
      <trkpt lat="48.46455" lon="-2.9175">
        <ele>284</ele>
        <time>2014-02-16T15:46:28.1Z</time>
      </trkpt>
      <trkpt lat="48.46457" lon="-2.91747">
        <ele>284</ele>
        <time>2014-02-16T15:46:31.1Z</time>
      </trkpt>
      <trkpt lat="48.46459" lon="-2.91744">
        <ele>284</ele>
        <time>2014-02-16T15:46:34.1Z</time>
      </trkpt>
      <trkpt lat="48.4646" lon="-2.91742">
        <ele>284</ele>
        <time>2014-02-16T15:46:36.1Z</time>
      </trkpt>
      <trkpt lat="48.46462" lon="-2.9174">
        <ele>285</ele>
        <time>2014-02-16T15:46:39.1Z</time>
      </trkpt>
      <trkpt lat="48.46464" lon="-2.91738">
        <ele>285</ele>
        <time>2014-02-16T15:46:42.1Z</time>
      </trkpt>
      <trkpt lat="48.46466" lon="-2.91734">
        <ele>285</ele>
        <time>2014-02-16T15:46:45.1Z</time>
      </trkpt>
      <trkpt lat="48.46467" lon="-2.91732">
        <ele>285</ele>
        <time>2014-02-16T15:46:47.1Z</time>
      </trkpt>
      <trkpt lat="48.46469" lon="-2.91728">
        <ele>285</ele>
        <time>2014-02-16T15:46:50.1Z</time>
      </trkpt>
      <trkpt lat="48.4647" lon="-2.91726">
        <ele>285</ele>
        <time>2014-02-16T15:46:52.1Z</time>
      </trkpt>
      <trkpt lat="48.46471" lon="-2.91724">
        <ele>285</ele>
        <time>2014-02-16T15:46:54.1Z</time>
      </trkpt>
      <trkpt lat="48.46474" lon="-2.9172">
        <ele>285</ele>
        <time>2014-02-16T15:46:57.1Z</time>
      </trkpt>
      <trkpt lat="48.46476" lon="-2.91716">
        <ele>285</ele>
        <time>2014-02-16T15:47:00.1Z</time>
      </trkpt>
      <trkpt lat="48.46478" lon="-2.91712">
        <ele>285</ele>
        <time>2014-02-16T15:47:03.1Z</time>
      </trkpt>
      <trkpt lat="48.4648" lon="-2.91708">
        <ele>285</ele>
        <time>2014-02-16T15:47:06.1Z</time>
      </trkpt>
      <trkpt lat="48.46482" lon="-2.91705">
        <ele>285</ele>
        <time>2014-02-16T15:47:09.1Z</time>
      </trkpt>
      <trkpt lat="48.46484" lon="-2.91702">
        <ele>285</ele>
        <time>2014-02-16T15:47:12.1Z</time>
      </trkpt>
      <trkpt lat="48.46485" lon="-2.91699">
        <ele>285</ele>
        <time>2014-02-16T15:47:14.1Z</time>
      </trkpt>
      <trkpt lat="48.46487" lon="-2.91695">
        <ele>285</ele>
        <time>2014-02-16T15:47:17.1Z</time>
      </trkpt>
      <trkpt lat="48.46488" lon="-2.91692">
        <ele>285</ele>
        <time>2014-02-16T15:47:19.1Z</time>
      </trkpt>
      <trkpt lat="48.46489" lon="-2.9169">
        <ele>286</ele>
        <time>2014-02-16T15:47:21.1Z</time>
      </trkpt>
      <trkpt lat="48.46491" lon="-2.91686">
        <ele>286</ele>
        <time>2014-02-16T15:47:24.1Z</time>
      </trkpt>
      <trkpt lat="48.46492" lon="-2.91684">
        <ele>286</ele>
        <time>2014-02-16T15:47:26.1Z</time>
      </trkpt>
      <trkpt lat="48.46494" lon="-2.91682">
        <ele>286</ele>
        <time>2014-02-16T15:47:28.1Z</time>
      </trkpt>
      <trkpt lat="48.46495" lon="-2.91678">
        <ele>286</ele>
        <time>2014-02-16T15:47:31.1Z</time>
      </trkpt>
      <trkpt lat="48.46497" lon="-2.91674">
        <ele>286</ele>
        <time>2014-02-16T15:47:34.1Z</time>
      </trkpt>
      <trkpt lat="48.465" lon="-2.9167">
        <ele>286</ele>
        <time>2014-02-16T15:47:37.1Z</time>
      </trkpt>
      <trkpt lat="48.46501" lon="-2.91667">
        <ele>286</ele>
        <time>2014-02-16T15:47:39.1Z</time>
      </trkpt>
      <trkpt lat="48.46503" lon="-2.91664">
        <ele>286</ele>
        <time>2014-02-16T15:47:41.1Z</time>
      </trkpt>
      <trkpt lat="48.46504" lon="-2.91661">
        <ele>286</ele>
        <time>2014-02-16T15:47:43.1Z</time>
      </trkpt>
      <trkpt lat="48.46506" lon="-2.91657">
        <ele>286</ele>
        <time>2014-02-16T15:47:46.1Z</time>
      </trkpt>
      <trkpt lat="48.46508" lon="-2.91653">
        <ele>286</ele>
        <time>2014-02-16T15:47:49.1Z</time>
      </trkpt>
      <trkpt lat="48.4651" lon="-2.91649">
        <ele>286</ele>
        <time>2014-02-16T15:47:52.1Z</time>
      </trkpt>
      <trkpt lat="48.46513" lon="-2.91645">
        <ele>286</ele>
        <time>2014-02-16T15:47:55.1Z</time>
      </trkpt>
      <trkpt lat="48.46514" lon="-2.91642">
        <ele>286</ele>
        <time>2014-02-16T15:47:57.1Z</time>
      </trkpt>
      <trkpt lat="48.46516" lon="-2.91638">
        <ele>286</ele>
        <time>2014-02-16T15:48:00.1Z</time>
      </trkpt>
      <trkpt lat="48.46518" lon="-2.91635">
        <ele>286</ele>
        <time>2014-02-16T15:48:02.1Z</time>
      </trkpt>
      <trkpt lat="48.4652" lon="-2.91631">
        <ele>286</ele>
        <time>2014-02-16T15:48:05.1Z</time>
      </trkpt>
      <trkpt lat="48.46523" lon="-2.91628">
        <ele>286</ele>
        <time>2014-02-16T15:48:08.1Z</time>
      </trkpt>
      <trkpt lat="48.46524" lon="-2.91624">
        <ele>286</ele>
        <time>2014-02-16T15:48:11.1Z</time>
      </trkpt>
      <trkpt lat="48.46527" lon="-2.91621">
        <ele>287</ele>
        <time>2014-02-16T15:48:14.1Z</time>
      </trkpt>
      <trkpt lat="48.46529" lon="-2.91619">
        <ele>287</ele>
        <time>2014-02-16T15:48:16.1Z</time>
      </trkpt>
      <trkpt lat="48.46531" lon="-2.91616">
        <ele>287</ele>
        <time>2014-02-16T15:48:19.1Z</time>
      </trkpt>
      <trkpt lat="48.46533" lon="-2.91615">
        <ele>287</ele>
        <time>2014-02-16T15:48:21.1Z</time>
      </trkpt>
      <trkpt lat="48.46535" lon="-2.91613">
        <ele>288</ele>
        <time>2014-02-16T15:48:24.1Z</time>
      </trkpt>
      <trkpt lat="48.46537" lon="-2.91611">
        <ele>287</ele>
        <time>2014-02-16T15:48:26.1Z</time>
      </trkpt>
      <trkpt lat="48.4654" lon="-2.91609">
        <ele>288</ele>
        <time>2014-02-16T15:48:29.1Z</time>
      </trkpt>
      <trkpt lat="48.46542" lon="-2.91608">
        <ele>288</ele>
        <time>2014-02-16T15:48:31.1Z</time>
      </trkpt>
      <trkpt lat="48.46544" lon="-2.91607">
        <ele>287</ele>
        <time>2014-02-16T15:48:33.1Z</time>
      </trkpt>
      <trkpt lat="48.46547" lon="-2.91605">
        <ele>287</ele>
        <time>2014-02-16T15:48:36.1Z</time>
      </trkpt>
      <trkpt lat="48.46549" lon="-2.91604">
        <ele>287</ele>
        <time>2014-02-16T15:48:38.1Z</time>
      </trkpt>
      <trkpt lat="48.46551" lon="-2.91603">
        <ele>288</ele>
        <time>2014-02-16T15:48:40.1Z</time>
      </trkpt>
      <trkpt lat="48.46554" lon="-2.91601">
        <ele>288</ele>
        <time>2014-02-16T15:48:43.1Z</time>
      </trkpt>
      <trkpt lat="48.46557" lon="-2.91599">
        <ele>288</ele>
        <time>2014-02-16T15:48:46.1Z</time>
      </trkpt>
      <trkpt lat="48.4656" lon="-2.91598">
        <ele>288</ele>
        <time>2014-02-16T15:48:49.1Z</time>
      </trkpt>
      <trkpt lat="48.46563" lon="-2.91596">
        <ele>288</ele>
        <time>2014-02-16T15:48:52.1Z</time>
      </trkpt>
      <trkpt lat="48.46567" lon="-2.91594">
        <ele>288</ele>
        <time>2014-02-16T15:48:55.1Z</time>
      </trkpt>
      <trkpt lat="48.46569" lon="-2.91593">
        <ele>289</ele>
        <time>2014-02-16T15:48:57.1Z</time>
      </trkpt>
      <trkpt lat="48.46572" lon="-2.91592">
        <ele>289</ele>
        <time>2014-02-16T15:49:00.1Z</time>
      </trkpt>
      <trkpt lat="48.46575" lon="-2.91591">
        <ele>289</ele>
        <time>2014-02-16T15:49:03.1Z</time>
      </trkpt>
      <trkpt lat="48.46576" lon="-2.9159">
        <ele>289</ele>
        <time>2014-02-16T15:49:05.1Z</time>
      </trkpt>
      <trkpt lat="48.46579" lon="-2.91589">
        <ele>290</ele>
        <time>2014-02-16T15:49:08.1Z</time>
      </trkpt>
      <trkpt lat="48.46583" lon="-2.91588">
        <ele>290</ele>
        <time>2014-02-16T15:49:11.1Z</time>
      </trkpt>
      <trkpt lat="48.46585" lon="-2.91587">
        <ele>290</ele>
        <time>2014-02-16T15:49:13.1Z</time>
      </trkpt>
      <trkpt lat="48.46587" lon="-2.91586">
        <ele>290</ele>
        <time>2014-02-16T15:49:15.1Z</time>
      </trkpt>
      <trkpt lat="48.4659" lon="-2.91585">
        <ele>290</ele>
        <time>2014-02-16T15:49:17.1Z</time>
      </trkpt>
      <trkpt lat="48.46592" lon="-2.91585">
        <ele>290</ele>
        <time>2014-02-16T15:49:20.1Z</time>
      </trkpt>
      <trkpt lat="48.46596" lon="-2.91583">
        <ele>290</ele>
        <time>2014-02-16T15:49:22.1Z</time>
      </trkpt>
      <trkpt lat="48.46598" lon="-2.91583">
        <ele>290</ele>
        <time>2014-02-16T15:49:25.1Z</time>
      </trkpt>
      <trkpt lat="48.46601" lon="-2.91582">
        <ele>290</ele>
        <time>2014-02-16T15:49:27.1Z</time>
      </trkpt>
      <trkpt lat="48.46603" lon="-2.91582">
        <ele>290</ele>
        <time>2014-02-16T15:49:30.1Z</time>
      </trkpt>
      <trkpt lat="48.46606" lon="-2.91581">
        <ele>290</ele>
        <time>2014-02-16T15:49:33.1Z</time>
      </trkpt>
      <trkpt lat="48.46609" lon="-2.9158">
        <ele>291</ele>
        <time>2014-02-16T15:49:36.1Z</time>
      </trkpt>
      <trkpt lat="48.46613" lon="-2.9158">
        <ele>291</ele>
        <time>2014-02-16T15:49:38.1Z</time>
      </trkpt>
      <trkpt lat="48.46615" lon="-2.91579">
        <ele>292</ele>
        <time>2014-02-16T15:49:41.1Z</time>
      </trkpt>
      <trkpt lat="48.46617" lon="-2.91579">
        <ele>292</ele>
        <time>2014-02-16T15:49:43.1Z</time>
      </trkpt>
      <trkpt lat="48.4662" lon="-2.91578">
        <ele>292</ele>
        <time>2014-02-16T15:49:46.1Z</time>
      </trkpt>
      <trkpt lat="48.46623" lon="-2.91578">
        <ele>292</ele>
        <time>2014-02-16T15:49:49.1Z</time>
      </trkpt>
      <trkpt lat="48.46625" lon="-2.91578">
        <ele>292</ele>
        <time>2014-02-16T15:49:51.1Z</time>
      </trkpt>
      <trkpt lat="48.46628" lon="-2.91577">
        <ele>292</ele>
        <time>2014-02-16T15:49:53.1Z</time>
      </trkpt>
      <trkpt lat="48.4663" lon="-2.91577">
        <ele>292</ele>
        <time>2014-02-16T15:49:56.1Z</time>
      </trkpt>
      <trkpt lat="48.46634" lon="-2.91576">
        <ele>292</ele>
        <time>2014-02-16T15:49:59.1Z</time>
      </trkpt>
      <trkpt lat="48.46637" lon="-2.91576">
        <ele>292</ele>
        <time>2014-02-16T15:50:02.1Z</time>
      </trkpt>
      <trkpt lat="48.4664" lon="-2.91576">
        <ele>292</ele>
        <time>2014-02-16T15:50:05.1Z</time>
      </trkpt>
      <trkpt lat="48.46643" lon="-2.91575">
        <ele>292</ele>
        <time>2014-02-16T15:50:08.1Z</time>
      </trkpt>
      <trkpt lat="48.46646" lon="-2.91575">
        <ele>292</ele>
        <time>2014-02-16T15:50:11.1Z</time>
      </trkpt>
      <trkpt lat="48.46648" lon="-2.91575">
        <ele>292</ele>
        <time>2014-02-16T15:50:13.1Z</time>
      </trkpt>
      <trkpt lat="48.46651" lon="-2.91574">
        <ele>293</ele>
        <time>2014-02-16T15:50:15.1Z</time>
      </trkpt>
      <trkpt lat="48.46653" lon="-2.91574">
        <ele>293</ele>
        <time>2014-02-16T15:50:18.1Z</time>
      </trkpt>
      <trkpt lat="48.46655" lon="-2.91574">
        <ele>293</ele>
        <time>2014-02-16T15:50:20.1Z</time>
      </trkpt>
      <trkpt lat="48.46658" lon="-2.91574">
        <ele>293</ele>
        <time>2014-02-16T15:50:23.1Z</time>
      </trkpt>
      <trkpt lat="48.46661" lon="-2.91574">
        <ele>293</ele>
        <time>2014-02-16T15:50:26.1Z</time>
      </trkpt>
      <trkpt lat="48.46664" lon="-2.91574">
        <ele>293</ele>
        <time>2014-02-16T15:50:29.1Z</time>
      </trkpt>
      <trkpt lat="48.46668" lon="-2.91574">
        <ele>294</ele>
        <time>2014-02-16T15:50:32.1Z</time>
      </trkpt>
      <trkpt lat="48.46671" lon="-2.91574">
        <ele>293</ele>
        <time>2014-02-16T15:50:34.1Z</time>
      </trkpt>
      <trkpt lat="48.46672" lon="-2.91574">
        <ele>293</ele>
        <time>2014-02-16T15:50:37.1Z</time>
      </trkpt>
      <trkpt lat="48.46676" lon="-2.91574">
        <ele>293</ele>
        <time>2014-02-16T15:50:40.1Z</time>
      </trkpt>
      <trkpt lat="48.46678" lon="-2.91574">
        <ele>293</ele>
        <time>2014-02-16T15:50:42.1Z</time>
      </trkpt>
      <trkpt lat="48.46681" lon="-2.91574">
        <ele>293</ele>
        <time>2014-02-16T15:50:45.1Z</time>
      </trkpt>
      <trkpt lat="48.46683" lon="-2.91573">
        <ele>293</ele>
        <time>2014-02-16T15:50:47.1Z</time>
      </trkpt>
      <trkpt lat="48.46685" lon="-2.91573">
        <ele>294</ele>
        <time>2014-02-16T15:50:49.1Z</time>
      </trkpt>
      <trkpt lat="48.46688" lon="-2.91571">
        <ele>294</ele>
        <time>2014-02-16T15:50:52.1Z</time>
      </trkpt>
      <trkpt lat="48.46692" lon="-2.9157">
        <ele>294</ele>
        <time>2014-02-16T15:50:55.1Z</time>
      </trkpt>
      <trkpt lat="48.46694" lon="-2.9157">
        <ele>294</ele>
        <time>2014-02-16T15:50:57.1Z</time>
      </trkpt>
      <trkpt lat="48.46697" lon="-2.91568">
        <ele>293</ele>
        <time>2014-02-16T15:51:00.1Z</time>
      </trkpt>
      <trkpt lat="48.46699" lon="-2.91568">
        <ele>293</ele>
        <time>2014-02-16T15:51:02.1Z</time>
      </trkpt>
      <trkpt lat="48.46701" lon="-2.91566">
        <ele>293</ele>
        <time>2014-02-16T15:51:04.1Z</time>
      </trkpt>
      <trkpt lat="48.46703" lon="-2.91565">
        <ele>293</ele>
        <time>2014-02-16T15:51:06.1Z</time>
      </trkpt>
      <trkpt lat="48.46705" lon="-2.91564">
        <ele>293</ele>
        <time>2014-02-16T15:51:08.1Z</time>
      </trkpt>
      <trkpt lat="48.46706" lon="-2.91562">
        <ele>292</ele>
        <time>2014-02-16T15:51:10.1Z</time>
      </trkpt>
      <trkpt lat="48.46708" lon="-2.91561">
        <ele>292</ele>
        <time>2014-02-16T15:51:12.1Z</time>
      </trkpt>
      <trkpt lat="48.4671" lon="-2.91559">
        <ele>292</ele>
        <time>2014-02-16T15:51:14.1Z</time>
      </trkpt>
      <trkpt lat="48.46711" lon="-2.91558">
        <ele>292</ele>
        <time>2014-02-16T15:51:17.1Z</time>
      </trkpt>
      <trkpt lat="48.46713" lon="-2.91555">
        <ele>292</ele>
        <time>2014-02-16T15:51:19.1Z</time>
      </trkpt>
      <trkpt lat="48.46716" lon="-2.91552">
        <ele>292</ele>
        <time>2014-02-16T15:51:22.1Z</time>
      </trkpt>
      <trkpt lat="48.46717" lon="-2.9155">
        <ele>292</ele>
        <time>2014-02-16T15:51:24.1Z</time>
      </trkpt>
      <trkpt lat="48.46719" lon="-2.91546">
        <ele>292</ele>
        <time>2014-02-16T15:51:27.1Z</time>
      </trkpt>
      <trkpt lat="48.46721" lon="-2.91544">
        <ele>291</ele>
        <time>2014-02-16T15:51:29.1Z</time>
      </trkpt>
      <trkpt lat="48.46723" lon="-2.91541">
        <ele>291</ele>
        <time>2014-02-16T15:51:32.1Z</time>
      </trkpt>
      <trkpt lat="48.46724" lon="-2.91538">
        <ele>291</ele>
        <time>2014-02-16T15:51:34.1Z</time>
      </trkpt>
      <trkpt lat="48.46727" lon="-2.91534">
        <ele>291</ele>
        <time>2014-02-16T15:51:37.1Z</time>
      </trkpt>
      <trkpt lat="48.46728" lon="-2.91532">
        <ele>291</ele>
        <time>2014-02-16T15:51:39.1Z</time>
      </trkpt>
      <trkpt lat="48.4673" lon="-2.91528">
        <ele>292</ele>
        <time>2014-02-16T15:51:41.1Z</time>
      </trkpt>
      <trkpt lat="48.46731" lon="-2.91526">
        <ele>292</ele>
        <time>2014-02-16T15:51:44.1Z</time>
      </trkpt>
      <trkpt lat="48.46733" lon="-2.91522">
        <ele>291</ele>
        <time>2014-02-16T15:51:46.1Z</time>
      </trkpt>
      <trkpt lat="48.46734" lon="-2.9152">
        <ele>291</ele>
        <time>2014-02-16T15:51:49.1Z</time>
      </trkpt>
      <trkpt lat="48.46735" lon="-2.91516">
        <ele>291</ele>
        <time>2014-02-16T15:51:52.1Z</time>
      </trkpt>
      <trkpt lat="48.46737" lon="-2.91512">
        <ele>291</ele>
        <time>2014-02-16T15:51:54.1Z</time>
      </trkpt>
      <trkpt lat="48.46738" lon="-2.91509">
        <ele>291</ele>
        <time>2014-02-16T15:51:57.1Z</time>
      </trkpt>
      <trkpt lat="48.4674" lon="-2.91504">
        <ele>291</ele>
        <time>2014-02-16T15:52:00.1Z</time>
      </trkpt>
      <trkpt lat="48.46742" lon="-2.915">
        <ele>291</ele>
        <time>2014-02-16T15:52:03.1Z</time>
      </trkpt>
      <trkpt lat="48.46744" lon="-2.91496">
        <ele>290</ele>
        <time>2014-02-16T15:52:06.1Z</time>
      </trkpt>
      <trkpt lat="48.46745" lon="-2.91492">
        <ele>290</ele>
        <time>2014-02-16T15:52:09.1Z</time>
      </trkpt>
      <trkpt lat="48.46746" lon="-2.91489">
        <ele>290</ele>
        <time>2014-02-16T15:52:11.1Z</time>
      </trkpt>
      <trkpt lat="48.46748" lon="-2.91484">
        <ele>290</ele>
        <time>2014-02-16T15:52:14.1Z</time>
      </trkpt>
      <trkpt lat="48.46749" lon="-2.91482">
        <ele>290</ele>
        <time>2014-02-16T15:52:16.1Z</time>
      </trkpt>
      <trkpt lat="48.46751" lon="-2.91478">
        <ele>291</ele>
        <time>2014-02-16T15:52:18.1Z</time>
      </trkpt>
      <trkpt lat="48.46752" lon="-2.91475">
        <ele>290</ele>
        <time>2014-02-16T15:52:20.1Z</time>
      </trkpt>
      <trkpt lat="48.46753" lon="-2.91472">
        <ele>291</ele>
        <time>2014-02-16T15:52:23.1Z</time>
      </trkpt>
      <trkpt lat="48.46754" lon="-2.9147">
        <ele>291</ele>
        <time>2014-02-16T15:52:25.1Z</time>
      </trkpt>
      <trkpt lat="48.46756" lon="-2.91465">
        <ele>290</ele>
        <time>2014-02-16T15:52:27.1Z</time>
      </trkpt>
      <trkpt lat="48.46756" lon="-2.91463">
        <ele>291</ele>
        <time>2014-02-16T15:52:30.1Z</time>
      </trkpt>
      <trkpt lat="48.46758" lon="-2.91459">
        <ele>290</ele>
        <time>2014-02-16T15:52:32.1Z</time>
      </trkpt>
      <trkpt lat="48.46759" lon="-2.91456">
        <ele>290</ele>
        <time>2014-02-16T15:52:35.1Z</time>
      </trkpt>
      <trkpt lat="48.46761" lon="-2.91452">
        <ele>290</ele>
        <time>2014-02-16T15:52:38.1Z</time>
      </trkpt>
      <trkpt lat="48.46761" lon="-2.91448">
        <ele>291</ele>
        <time>2014-02-16T15:52:40.1Z</time>
      </trkpt>
      <trkpt lat="48.46762" lon="-2.91444">
        <ele>291</ele>
        <time>2014-02-16T15:52:43.1Z</time>
      </trkpt>
      <trkpt lat="48.46763" lon="-2.91441">
        <ele>291</ele>
        <time>2014-02-16T15:52:46.1Z</time>
      </trkpt>
      <trkpt lat="48.46764" lon="-2.91438">
        <ele>291</ele>
        <time>2014-02-16T15:52:48.1Z</time>
      </trkpt>
      <trkpt lat="48.46764" lon="-2.91437">
        <ele>291</ele>
        <time>2014-02-16T15:52:53.1Z</time>
      </trkpt>
      <trkpt lat="48.46764" lon="-2.91437">
        <ele>291</ele>
        <time>2014-02-16T15:52:55.1Z</time>
      </trkpt>
      <trkpt lat="48.46765" lon="-2.91437">
        <ele>291</ele>
        <time>2014-02-16T15:52:57.1Z</time>
      </trkpt>
      <trkpt lat="48.46765" lon="-2.91437">
        <ele>291</ele>
        <time>2014-02-16T15:53:00.1Z</time>
      </trkpt>
      <trkpt lat="48.46765" lon="-2.91437">
        <ele>291</ele>
        <time>2014-02-16T15:53:02.1Z</time>
      </trkpt>
      <trkpt lat="48.46766" lon="-2.91437">
        <ele>291</ele>
        <time>2014-02-16T15:53:05.1Z</time>
      </trkpt>
      <trkpt lat="48.46766" lon="-2.91437">
        <ele>291</ele>
        <time>2014-02-16T15:53:07.1Z</time>
      </trkpt>
      <trkpt lat="48.46766" lon="-2.91437">
        <ele>291</ele>
        <time>2014-02-16T15:53:09.1Z</time>
      </trkpt>
      <trkpt lat="48.46766" lon="-2.91437">
        <ele>291</ele>
        <time>2014-02-16T15:53:12.1Z</time>
      </trkpt>
      <trkpt lat="48.46767" lon="-2.91435">
        <ele>291</ele>
        <time>2014-02-16T15:53:15.1Z</time>
      </trkpt>
      <trkpt lat="48.46768" lon="-2.91434">
        <ele>292</ele>
        <time>2014-02-16T15:53:17.1Z</time>
      </trkpt>
      <trkpt lat="48.46769" lon="-2.91434">
        <ele>291</ele>
        <time>2014-02-16T15:53:19.1Z</time>
      </trkpt>
      <trkpt lat="48.46768" lon="-2.91434">
        <ele>292</ele>
        <time>2014-02-16T15:53:28.1Z</time>
      </trkpt>
      <trkpt lat="48.46769" lon="-2.91433">
        <ele>292</ele>
        <time>2014-02-16T15:53:31.1Z</time>
      </trkpt>
      <trkpt lat="48.46768" lon="-2.91432">
        <ele>291</ele>
        <time>2014-02-16T15:53:33.1Z</time>
      </trkpt>
      <trkpt lat="48.46769" lon="-2.9143">
        <ele>291</ele>
        <time>2014-02-16T15:53:35.1Z</time>
      </trkpt>
      <trkpt lat="48.46771" lon="-2.91429">
        <ele>291</ele>
        <time>2014-02-16T15:53:37.1Z</time>
      </trkpt>
      <trkpt lat="48.46773" lon="-2.91426">
        <ele>292</ele>
        <time>2014-02-16T15:53:40.1Z</time>
      </trkpt>
      <trkpt lat="48.46774" lon="-2.91424">
        <ele>291</ele>
        <time>2014-02-16T15:53:42.1Z</time>
      </trkpt>
      <trkpt lat="48.46775" lon="-2.91421">
        <ele>291</ele>
        <time>2014-02-16T15:53:45.1Z</time>
      </trkpt>
      <trkpt lat="48.46777" lon="-2.91419">
        <ele>291</ele>
        <time>2014-02-16T15:53:47.1Z</time>
      </trkpt>
      <trkpt lat="48.4678" lon="-2.91415">
        <ele>291</ele>
        <time>2014-02-16T15:53:50.1Z</time>
      </trkpt>
      <trkpt lat="48.46781" lon="-2.91411">
        <ele>290</ele>
        <time>2014-02-16T15:53:53.1Z</time>
      </trkpt>
      <trkpt lat="48.46783" lon="-2.91407">
        <ele>291</ele>
        <time>2014-02-16T15:53:55.1Z</time>
      </trkpt>
      <trkpt lat="48.46785" lon="-2.91405">
        <ele>290</ele>
        <time>2014-02-16T15:53:57.1Z</time>
      </trkpt>
      <trkpt lat="48.46786" lon="-2.91402">
        <ele>290</ele>
        <time>2014-02-16T15:54:00.1Z</time>
      </trkpt>
      <trkpt lat="48.46788" lon="-2.91399">
        <ele>290</ele>
        <time>2014-02-16T15:54:03.1Z</time>
      </trkpt>
      <trkpt lat="48.46789" lon="-2.91394">
        <ele>291</ele>
        <time>2014-02-16T15:54:06.1Z</time>
      </trkpt>
      <trkpt lat="48.46791" lon="-2.9139">
        <ele>291</ele>
        <time>2014-02-16T15:54:08.1Z</time>
      </trkpt>
      <trkpt lat="48.46793" lon="-2.91388">
        <ele>291</ele>
        <time>2014-02-16T15:54:11.1Z</time>
      </trkpt>
      <trkpt lat="48.46795" lon="-2.91384">
        <ele>291</ele>
        <time>2014-02-16T15:54:14.1Z</time>
      </trkpt>
      <trkpt lat="48.46796" lon="-2.91381">
        <ele>291</ele>
        <time>2014-02-16T15:54:16.1Z</time>
      </trkpt>
      <trkpt lat="48.46798" lon="-2.91377">
        <ele>291</ele>
        <time>2014-02-16T15:54:19.1Z</time>
      </trkpt>
      <trkpt lat="48.468" lon="-2.91373">
        <ele>291</ele>
        <time>2014-02-16T15:54:21.1Z</time>
      </trkpt>
      <trkpt lat="48.46802" lon="-2.91371">
        <ele>291</ele>
        <time>2014-02-16T15:54:23.1Z</time>
      </trkpt>
      <trkpt lat="48.46804" lon="-2.91367">
        <ele>291</ele>
        <time>2014-02-16T15:54:27.1Z</time>
      </trkpt>
      <trkpt lat="48.46805" lon="-2.91365">
        <ele>292</ele>
        <time>2014-02-16T15:54:29.1Z</time>
      </trkpt>
      <trkpt lat="48.46807" lon="-2.91361">
        <ele>292</ele>
        <time>2014-02-16T15:54:32.1Z</time>
      </trkpt>
      <trkpt lat="48.46809" lon="-2.91357">
        <ele>292</ele>
        <time>2014-02-16T15:54:35.1Z</time>
      </trkpt>
      <trkpt lat="48.46812" lon="-2.91354">
        <ele>291</ele>
        <time>2014-02-16T15:54:38.1Z</time>
      </trkpt>
      <trkpt lat="48.46813" lon="-2.91352">
        <ele>291</ele>
        <time>2014-02-16T15:54:40.1Z</time>
      </trkpt>
      <trkpt lat="48.46815" lon="-2.91349">
        <ele>291</ele>
        <time>2014-02-16T15:54:42.1Z</time>
      </trkpt>
      <trkpt lat="48.46817" lon="-2.91346">
        <ele>291</ele>
        <time>2014-02-16T15:54:44.1Z</time>
      </trkpt>
      <trkpt lat="48.46818" lon="-2.91344">
        <ele>292</ele>
        <time>2014-02-16T15:54:47.1Z</time>
      </trkpt>
      <trkpt lat="48.4682" lon="-2.9134">
        <ele>292</ele>
        <time>2014-02-16T15:54:50.1Z</time>
      </trkpt>
      <trkpt lat="48.46823" lon="-2.91337">
        <ele>292</ele>
        <time>2014-02-16T15:54:53.1Z</time>
      </trkpt>
      <trkpt lat="48.46825" lon="-2.91334">
        <ele>292</ele>
        <time>2014-02-16T15:54:55.1Z</time>
      </trkpt>
      <trkpt lat="48.46827" lon="-2.91331">
        <ele>292</ele>
        <time>2014-02-16T15:54:58.1Z</time>
      </trkpt>
      <trkpt lat="48.46828" lon="-2.91328">
        <ele>292</ele>
        <time>2014-02-16T15:55:01.1Z</time>
      </trkpt>
      <trkpt lat="48.4683" lon="-2.91326">
        <ele>292</ele>
        <time>2014-02-16T15:55:03.1Z</time>
      </trkpt>
      <trkpt lat="48.46832" lon="-2.91324">
        <ele>292</ele>
        <time>2014-02-16T15:55:05.1Z</time>
      </trkpt>
      <trkpt lat="48.46834" lon="-2.91322">
        <ele>292</ele>
        <time>2014-02-16T15:55:07.1Z</time>
      </trkpt>
      <trkpt lat="48.46835" lon="-2.9132">
        <ele>292</ele>
        <time>2014-02-16T15:55:09.1Z</time>
      </trkpt>
      <trkpt lat="48.46837" lon="-2.91318">
        <ele>292</ele>
        <time>2014-02-16T15:55:11.1Z</time>
      </trkpt>
      <trkpt lat="48.4684" lon="-2.91315">
        <ele>293</ele>
        <time>2014-02-16T15:55:14.1Z</time>
      </trkpt>
      <trkpt lat="48.46843" lon="-2.91312">
        <ele>293</ele>
        <time>2014-02-16T15:55:17.1Z</time>
      </trkpt>
      <trkpt lat="48.46845" lon="-2.91309">
        <ele>292</ele>
        <time>2014-02-16T15:55:19.1Z</time>
      </trkpt>
      <trkpt lat="48.46846" lon="-2.91307">
        <ele>293</ele>
        <time>2014-02-16T15:55:21.1Z</time>
      </trkpt>
      <trkpt lat="48.46849" lon="-2.91304">
        <ele>293</ele>
        <time>2014-02-16T15:55:24.1Z</time>
      </trkpt>
      <trkpt lat="48.46851" lon="-2.913">
        <ele>293</ele>
        <time>2014-02-16T15:55:26.1Z</time>
      </trkpt>
      <trkpt lat="48.46854" lon="-2.91297">
        <ele>293</ele>
        <time>2014-02-16T15:55:29.1Z</time>
      </trkpt>
      <trkpt lat="48.46856" lon="-2.91293">
        <ele>293</ele>
        <time>2014-02-16T15:55:33.1Z</time>
      </trkpt>
      <trkpt lat="48.46859" lon="-2.9129">
        <ele>293</ele>
        <time>2014-02-16T15:55:36.1Z</time>
      </trkpt>
      <trkpt lat="48.46861" lon="-2.91286">
        <ele>293</ele>
        <time>2014-02-16T15:55:39.1Z</time>
      </trkpt>
      <trkpt lat="48.46863" lon="-2.91282">
        <ele>294</ele>
        <time>2014-02-16T15:55:41.1Z</time>
      </trkpt>
      <trkpt lat="48.46864" lon="-2.91279">
        <ele>294</ele>
        <time>2014-02-16T15:55:44.1Z</time>
      </trkpt>
      <trkpt lat="48.46865" lon="-2.91277">
        <ele>294</ele>
        <time>2014-02-16T15:55:46.1Z</time>
      </trkpt>
      <trkpt lat="48.46867" lon="-2.91272">
        <ele>294</ele>
        <time>2014-02-16T15:55:48.1Z</time>
      </trkpt>
      <trkpt lat="48.46868" lon="-2.91269">
        <ele>294</ele>
        <time>2014-02-16T15:55:51.1Z</time>
      </trkpt>
      <trkpt lat="48.46871" lon="-2.91265">
        <ele>294</ele>
        <time>2014-02-16T15:55:53.1Z</time>
      </trkpt>
      <trkpt lat="48.46873" lon="-2.91261">
        <ele>295</ele>
        <time>2014-02-16T15:55:57.1Z</time>
      </trkpt>
      <trkpt lat="48.46875" lon="-2.91257">
        <ele>295</ele>
        <time>2014-02-16T15:56:00.1Z</time>
      </trkpt>
      <trkpt lat="48.46876" lon="-2.91253">
        <ele>295</ele>
        <time>2014-02-16T15:56:03.1Z</time>
      </trkpt>
      <trkpt lat="48.46877" lon="-2.9125">
        <ele>295</ele>
        <time>2014-02-16T15:56:05.1Z</time>
      </trkpt>
      <trkpt lat="48.46879" lon="-2.91246">
        <ele>295</ele>
        <time>2014-02-16T15:56:07.1Z</time>
      </trkpt>
      <trkpt lat="48.4688" lon="-2.91243">
        <ele>295</ele>
        <time>2014-02-16T15:56:09.1Z</time>
      </trkpt>
      <trkpt lat="48.46881" lon="-2.9124">
        <ele>295</ele>
        <time>2014-02-16T15:56:12.1Z</time>
      </trkpt>
      <trkpt lat="48.46882" lon="-2.91237">
        <ele>295</ele>
        <time>2014-02-16T15:56:14.1Z</time>
      </trkpt>
      <trkpt lat="48.46883" lon="-2.91234">
        <ele>295</ele>
        <time>2014-02-16T15:56:16.1Z</time>
      </trkpt>
      <trkpt lat="48.46885" lon="-2.9123">
        <ele>295</ele>
        <time>2014-02-16T15:56:18.1Z</time>
      </trkpt>
      <trkpt lat="48.46887" lon="-2.91227">
        <ele>295</ele>
        <time>2014-02-16T15:56:21.1Z</time>
      </trkpt>
      <trkpt lat="48.46888" lon="-2.91222">
        <ele>295</ele>
        <time>2014-02-16T15:56:24.1Z</time>
      </trkpt>
      <trkpt lat="48.46889" lon="-2.91219">
        <ele>295</ele>
        <time>2014-02-16T15:56:26.1Z</time>
      </trkpt>
      <trkpt lat="48.46891" lon="-2.91214">
        <ele>295</ele>
        <time>2014-02-16T15:56:28.1Z</time>
      </trkpt>
      <trkpt lat="48.46891" lon="-2.91212">
        <ele>295</ele>
        <time>2014-02-16T15:56:30.1Z</time>
      </trkpt>
      <trkpt lat="48.46891" lon="-2.91208">
        <ele>295</ele>
        <time>2014-02-16T15:56:33.1Z</time>
      </trkpt>
      <trkpt lat="48.46892" lon="-2.91205">
        <ele>295</ele>
        <time>2014-02-16T15:56:35.1Z</time>
      </trkpt>
      <trkpt lat="48.46892" lon="-2.912">
        <ele>295</ele>
        <time>2014-02-16T15:56:38.1Z</time>
      </trkpt>
      <trkpt lat="48.46893" lon="-2.91196">
        <ele>295</ele>
        <time>2014-02-16T15:56:40.1Z</time>
      </trkpt>
      <trkpt lat="48.46894" lon="-2.91192">
        <ele>295</ele>
        <time>2014-02-16T15:56:42.1Z</time>
      </trkpt>
      <trkpt lat="48.46894" lon="-2.91188">
        <ele>295</ele>
        <time>2014-02-16T15:56:45.1Z</time>
      </trkpt>
      <trkpt lat="48.46895" lon="-2.91185">
        <ele>295</ele>
        <time>2014-02-16T15:56:47.1Z</time>
      </trkpt>
      <trkpt lat="48.46895" lon="-2.91181">
        <ele>295</ele>
        <time>2014-02-16T15:56:49.1Z</time>
      </trkpt>
      <trkpt lat="48.46896" lon="-2.91178">
        <ele>295</ele>
        <time>2014-02-16T15:56:51.1Z</time>
      </trkpt>
      <trkpt lat="48.46897" lon="-2.91175">
        <ele>295</ele>
        <time>2014-02-16T15:56:53.1Z</time>
      </trkpt>
      <trkpt lat="48.46898" lon="-2.91172">
        <ele>295</ele>
        <time>2014-02-16T15:56:55.1Z</time>
      </trkpt>
      <trkpt lat="48.46899" lon="-2.91167">
        <ele>295</ele>
        <time>2014-02-16T15:56:58.1Z</time>
      </trkpt>
      <trkpt lat="48.46901" lon="-2.91164">
        <ele>295</ele>
        <time>2014-02-16T15:57:01.1Z</time>
      </trkpt>
      <trkpt lat="48.46902" lon="-2.9116">
        <ele>295</ele>
        <time>2014-02-16T15:57:03.1Z</time>
      </trkpt>
      <trkpt lat="48.46903" lon="-2.91158">
        <ele>295</ele>
        <time>2014-02-16T15:57:05.1Z</time>
      </trkpt>
      <trkpt lat="48.46905" lon="-2.91156">
        <ele>295</ele>
        <time>2014-02-16T15:57:08.1Z</time>
      </trkpt>
      <trkpt lat="48.46907" lon="-2.91154">
        <ele>294</ele>
        <time>2014-02-16T15:57:10.1Z</time>
      </trkpt>
      <trkpt lat="48.4691" lon="-2.9115">
        <ele>294</ele>
        <time>2014-02-16T15:57:12.1Z</time>
      </trkpt>
      <trkpt lat="48.46912" lon="-2.91148">
        <ele>294</ele>
        <time>2014-02-16T15:57:14.1Z</time>
      </trkpt>
      <trkpt lat="48.46914" lon="-2.91145">
        <ele>294</ele>
        <time>2014-02-16T15:57:16.1Z</time>
      </trkpt>
      <trkpt lat="48.46916" lon="-2.91143">
        <ele>295</ele>
        <time>2014-02-16T15:57:18.1Z</time>
      </trkpt>
      <trkpt lat="48.46918" lon="-2.91141">
        <ele>295</ele>
        <time>2014-02-16T15:57:20.1Z</time>
      </trkpt>
      <trkpt lat="48.46919" lon="-2.91138">
        <ele>295</ele>
        <time>2014-02-16T15:57:22.1Z</time>
      </trkpt>
      <trkpt lat="48.46921" lon="-2.91136">
        <ele>295</ele>
        <time>2014-02-16T15:57:25.1Z</time>
      </trkpt>
      <trkpt lat="48.46923" lon="-2.91132">
        <ele>295</ele>
        <time>2014-02-16T15:57:27.1Z</time>
      </trkpt>
      <trkpt lat="48.46925" lon="-2.9113">
        <ele>295</ele>
        <time>2014-02-16T15:57:29.1Z</time>
      </trkpt>
      <trkpt lat="48.46926" lon="-2.91128">
        <ele>295</ele>
        <time>2014-02-16T15:57:32.1Z</time>
      </trkpt>
      <trkpt lat="48.46929" lon="-2.91125">
        <ele>295</ele>
        <time>2014-02-16T15:57:34.1Z</time>
      </trkpt>
      <trkpt lat="48.4693" lon="-2.91122">
        <ele>295</ele>
        <time>2014-02-16T15:57:37.1Z</time>
      </trkpt>
      <trkpt lat="48.46931" lon="-2.91119">
        <ele>295</ele>
        <time>2014-02-16T15:57:39.1Z</time>
      </trkpt>
      <trkpt lat="48.46933" lon="-2.91114">
        <ele>296</ele>
        <time>2014-02-16T15:57:41.1Z</time>
      </trkpt>
      <trkpt lat="48.46935" lon="-2.91109">
        <ele>296</ele>
        <time>2014-02-16T15:57:45.1Z</time>
      </trkpt>
      <trkpt lat="48.46936" lon="-2.91106">
        <ele>295</ele>
        <time>2014-02-16T15:57:47.1Z</time>
      </trkpt>
      <trkpt lat="48.46938" lon="-2.91101">
        <ele>295</ele>
        <time>2014-02-16T15:57:50.1Z</time>
      </trkpt>
      <trkpt lat="48.4694" lon="-2.91097">
        <ele>296</ele>
        <time>2014-02-16T15:57:52.1Z</time>
      </trkpt>
      <trkpt lat="48.46941" lon="-2.91093">
        <ele>295</ele>
        <time>2014-02-16T15:57:55.1Z</time>
      </trkpt>
      <trkpt lat="48.46942" lon="-2.9109">
        <ele>296</ele>
        <time>2014-02-16T15:57:57.1Z</time>
      </trkpt>
      <trkpt lat="48.46944" lon="-2.91085">
        <ele>296</ele>
        <time>2014-02-16T15:57:59.1Z</time>
      </trkpt>
      <trkpt lat="48.46945" lon="-2.91082">
        <ele>296</ele>
        <time>2014-02-16T15:58:02.1Z</time>
      </trkpt>
      <trkpt lat="48.46947" lon="-2.91077">
        <ele>296</ele>
        <time>2014-02-16T15:58:05.1Z</time>
      </trkpt>
      <trkpt lat="48.46949" lon="-2.91073">
        <ele>296</ele>
        <time>2014-02-16T15:58:08.1Z</time>
      </trkpt>
      <trkpt lat="48.4695" lon="-2.91068">
        <ele>296</ele>
        <time>2014-02-16T15:58:10.1Z</time>
      </trkpt>
      <trkpt lat="48.46951" lon="-2.91064">
        <ele>296</ele>
        <time>2014-02-16T15:58:12.1Z</time>
      </trkpt>
      <trkpt lat="48.46954" lon="-2.91059">
        <ele>296</ele>
        <time>2014-02-16T15:58:15.1Z</time>
      </trkpt>
      <trkpt lat="48.46955" lon="-2.91056">
        <ele>296</ele>
        <time>2014-02-16T15:58:17.1Z</time>
      </trkpt>
      <trkpt lat="48.46956" lon="-2.91053">
        <ele>296</ele>
        <time>2014-02-16T15:58:20.1Z</time>
      </trkpt>
      <trkpt lat="48.46957" lon="-2.91048">
        <ele>297</ele>
        <time>2014-02-16T15:58:23.1Z</time>
      </trkpt>
      <trkpt lat="48.46959" lon="-2.91042">
        <ele>297</ele>
        <time>2014-02-16T15:58:25.1Z</time>
      </trkpt>
      <trkpt lat="48.4696" lon="-2.91039">
        <ele>296</ele>
        <time>2014-02-16T15:58:28.1Z</time>
      </trkpt>
      <trkpt lat="48.46961" lon="-2.91036">
        <ele>296</ele>
        <time>2014-02-16T15:58:30.1Z</time>
      </trkpt>
      <trkpt lat="48.46963" lon="-2.91031">
        <ele>297</ele>
        <time>2014-02-16T15:58:32.1Z</time>
      </trkpt>
      <trkpt lat="48.46965" lon="-2.91026">
        <ele>296</ele>
        <time>2014-02-16T15:58:35.1Z</time>
      </trkpt>
      <trkpt lat="48.46966" lon="-2.91023">
        <ele>296</ele>
        <time>2014-02-16T15:58:37.1Z</time>
      </trkpt>
      <trkpt lat="48.46968" lon="-2.91019">
        <ele>296</ele>
        <time>2014-02-16T15:58:40.1Z</time>
      </trkpt>
      <trkpt lat="48.4697" lon="-2.91016">
        <ele>296</ele>
        <time>2014-02-16T15:58:42.1Z</time>
      </trkpt>
      <trkpt lat="48.46971" lon="-2.91012">
        <ele>296</ele>
        <time>2014-02-16T15:58:45.1Z</time>
      </trkpt>
      <trkpt lat="48.46973" lon="-2.9101">
        <ele>296</ele>
        <time>2014-02-16T15:58:47.1Z</time>
      </trkpt>
      <trkpt lat="48.46975" lon="-2.91005">
        <ele>297</ele>
        <time>2014-02-16T15:58:50.1Z</time>
      </trkpt>
      <trkpt lat="48.46977" lon="-2.91">
        <ele>297</ele>
        <time>2014-02-16T15:58:52.1Z</time>
      </trkpt>
      <trkpt lat="48.46978" lon="-2.90997">
        <ele>297</ele>
        <time>2014-02-16T15:58:55.1Z</time>
      </trkpt>
      <trkpt lat="48.4698" lon="-2.90992">
        <ele>297</ele>
        <time>2014-02-16T15:58:57.1Z</time>
      </trkpt>
      <trkpt lat="48.46982" lon="-2.90988">
        <ele>297</ele>
        <time>2014-02-16T15:59:00.1Z</time>
      </trkpt>
      <trkpt lat="48.46984" lon="-2.90984">
        <ele>297</ele>
        <time>2014-02-16T15:59:04.1Z</time>
      </trkpt>
      <trkpt lat="48.46986" lon="-2.90979">
        <ele>297</ele>
        <time>2014-02-16T15:59:06.1Z</time>
      </trkpt>
      <trkpt lat="48.46988" lon="-2.90976">
        <ele>297</ele>
        <time>2014-02-16T15:59:09.1Z</time>
      </trkpt>
      <trkpt lat="48.4699" lon="-2.90972">
        <ele>297</ele>
        <time>2014-02-16T15:59:12.1Z</time>
      </trkpt>
      <trkpt lat="48.46992" lon="-2.90968">
        <ele>297</ele>
        <time>2014-02-16T15:59:14.1Z</time>
      </trkpt>
      <trkpt lat="48.46993" lon="-2.90965">
        <ele>297</ele>
        <time>2014-02-16T15:59:17.1Z</time>
      </trkpt>
      <trkpt lat="48.46995" lon="-2.90961">
        <ele>297</ele>
        <time>2014-02-16T15:59:20.1Z</time>
      </trkpt>
      <trkpt lat="48.46997" lon="-2.90956">
        <ele>297</ele>
        <time>2014-02-16T15:59:23.1Z</time>
      </trkpt>
      <trkpt lat="48.46999" lon="-2.90952">
        <ele>297</ele>
        <time>2014-02-16T15:59:25.1Z</time>
      </trkpt>
      <trkpt lat="48.47001" lon="-2.90947">
        <ele>297</ele>
        <time>2014-02-16T15:59:28.1Z</time>
      </trkpt>
      <trkpt lat="48.47002" lon="-2.90944">
        <ele>297</ele>
        <time>2014-02-16T15:59:30.1Z</time>
      </trkpt>
      <trkpt lat="48.47003" lon="-2.90941">
        <ele>297</ele>
        <time>2014-02-16T15:59:33.1Z</time>
      </trkpt>
      <trkpt lat="48.47005" lon="-2.90936">
        <ele>297</ele>
        <time>2014-02-16T15:59:36.1Z</time>
      </trkpt>
      <trkpt lat="48.47007" lon="-2.90931">
        <ele>297</ele>
        <time>2014-02-16T15:59:38.1Z</time>
      </trkpt>
      <trkpt lat="48.47008" lon="-2.90928">
        <ele>297</ele>
        <time>2014-02-16T15:59:40.1Z</time>
      </trkpt>
      <trkpt lat="48.47009" lon="-2.90925">
        <ele>297</ele>
        <time>2014-02-16T15:59:42.1Z</time>
      </trkpt>
      <trkpt lat="48.47011" lon="-2.9092">
        <ele>297</ele>
        <time>2014-02-16T15:59:45.1Z</time>
      </trkpt>
      <trkpt lat="48.47011" lon="-2.90917">
        <ele>297</ele>
        <time>2014-02-16T15:59:47.1Z</time>
      </trkpt>
      <trkpt lat="48.47011" lon="-2.90914">
        <ele>297</ele>
        <time>2014-02-16T15:59:49.1Z</time>
      </trkpt>
      <trkpt lat="48.47009" lon="-2.90912">
        <ele>297</ele>
        <time>2014-02-16T15:59:52.1Z</time>
      </trkpt>
      <trkpt lat="48.47007" lon="-2.9091">
        <ele>297</ele>
        <time>2014-02-16T15:59:54.1Z</time>
      </trkpt>
      <trkpt lat="48.47005" lon="-2.90909">
        <ele>297</ele>
        <time>2014-02-16T15:59:56.1Z</time>
      </trkpt>
      <trkpt lat="48.47003" lon="-2.90908">
        <ele>297</ele>
        <time>2014-02-16T15:59:58.1Z</time>
      </trkpt>
      <trkpt lat="48.47" lon="-2.90907">
        <ele>297</ele>
        <time>2014-02-16T16:00:01.1Z</time>
      </trkpt>
      <trkpt lat="48.46998" lon="-2.90905">
        <ele>297</ele>
        <time>2014-02-16T16:00:03.1Z</time>
      </trkpt>
      <trkpt lat="48.46996" lon="-2.90905">
        <ele>297</ele>
        <time>2014-02-16T16:00:06.1Z</time>
      </trkpt>
      <trkpt lat="48.46993" lon="-2.90903">
        <ele>297</ele>
        <time>2014-02-16T16:00:08.1Z</time>
      </trkpt>
      <trkpt lat="48.4699" lon="-2.90901">
        <ele>297</ele>
        <time>2014-02-16T16:00:11.1Z</time>
      </trkpt>
      <trkpt lat="48.46988" lon="-2.909">
        <ele>297</ele>
        <time>2014-02-16T16:00:13.1Z</time>
      </trkpt>
      <trkpt lat="48.46985" lon="-2.90899">
        <ele>297</ele>
        <time>2014-02-16T16:00:16.1Z</time>
      </trkpt>
      <trkpt lat="48.46983" lon="-2.90898">
        <ele>297</ele>
        <time>2014-02-16T16:00:19.1Z</time>
      </trkpt>
      <trkpt lat="48.46979" lon="-2.90896">
        <ele>297</ele>
        <time>2014-02-16T16:00:21.1Z</time>
      </trkpt>
      <trkpt lat="48.46976" lon="-2.90895">
        <ele>297</ele>
        <time>2014-02-16T16:00:24.1Z</time>
      </trkpt>
      <trkpt lat="48.46972" lon="-2.90893">
        <ele>297</ele>
        <time>2014-02-16T16:00:28.1Z</time>
      </trkpt>
      <trkpt lat="48.46969" lon="-2.90891">
        <ele>297</ele>
        <time>2014-02-16T16:00:31.1Z</time>
      </trkpt>
      <trkpt lat="48.46966" lon="-2.9089">
        <ele>297</ele>
        <time>2014-02-16T16:00:33.1Z</time>
      </trkpt>
      <trkpt lat="48.46963" lon="-2.90888">
        <ele>298</ele>
        <time>2014-02-16T16:00:36.1Z</time>
      </trkpt>
      <trkpt lat="48.46961" lon="-2.90887">
        <ele>298</ele>
        <time>2014-02-16T16:00:38.1Z</time>
      </trkpt>
      <trkpt lat="48.46958" lon="-2.90886">
        <ele>298</ele>
        <time>2014-02-16T16:00:41.1Z</time>
      </trkpt>
      <trkpt lat="48.46955" lon="-2.90884">
        <ele>298</ele>
        <time>2014-02-16T16:00:44.1Z</time>
      </trkpt>
      <trkpt lat="48.46952" lon="-2.90883">
        <ele>298</ele>
        <time>2014-02-16T16:00:46.1Z</time>
      </trkpt>
      <trkpt lat="48.46949" lon="-2.90881">
        <ele>298</ele>
        <time>2014-02-16T16:00:50.1Z</time>
      </trkpt>
      <trkpt lat="48.46946" lon="-2.90879">
        <ele>298</ele>
        <time>2014-02-16T16:00:52.1Z</time>
      </trkpt>
      <trkpt lat="48.46944" lon="-2.90878">
        <ele>298</ele>
        <time>2014-02-16T16:00:55.1Z</time>
      </trkpt>
      <trkpt lat="48.4694" lon="-2.90876">
        <ele>298</ele>
        <time>2014-02-16T16:00:58.1Z</time>
      </trkpt>
      <trkpt lat="48.46937" lon="-2.90875">
        <ele>298</ele>
        <time>2014-02-16T16:01:00.1Z</time>
      </trkpt>
      <trkpt lat="48.46934" lon="-2.90873">
        <ele>298</ele>
        <time>2014-02-16T16:01:03.1Z</time>
      </trkpt>
      <trkpt lat="48.46932" lon="-2.90872">
        <ele>299</ele>
        <time>2014-02-16T16:01:05.1Z</time>
      </trkpt>
      <trkpt lat="48.46928" lon="-2.9087">
        <ele>298</ele>
        <time>2014-02-16T16:01:08.1Z</time>
      </trkpt>
      <trkpt lat="48.46925" lon="-2.90868">
        <ele>298</ele>
        <time>2014-02-16T16:01:11.1Z</time>
      </trkpt>
      <trkpt lat="48.46923" lon="-2.90868">
        <ele>298</ele>
        <time>2014-02-16T16:01:13.1Z</time>
      </trkpt>
      <trkpt lat="48.46921" lon="-2.90866">
        <ele>298</ele>
        <time>2014-02-16T16:01:16.1Z</time>
      </trkpt>
      <trkpt lat="48.46918" lon="-2.90866">
        <ele>298</ele>
        <time>2014-02-16T16:01:18.1Z</time>
      </trkpt>
      <trkpt lat="48.46915" lon="-2.90864">
        <ele>298</ele>
        <time>2014-02-16T16:01:21.1Z</time>
      </trkpt>
      <trkpt lat="48.46912" lon="-2.90863">
        <ele>298</ele>
        <time>2014-02-16T16:01:23.1Z</time>
      </trkpt>
      <trkpt lat="48.46909" lon="-2.90862">
        <ele>298</ele>
        <time>2014-02-16T16:01:25.1Z</time>
      </trkpt>
      <trkpt lat="48.46907" lon="-2.90862">
        <ele>298</ele>
        <time>2014-02-16T16:01:28.1Z</time>
      </trkpt>
      <trkpt lat="48.46904" lon="-2.90861">
        <ele>299</ele>
        <time>2014-02-16T16:01:30.1Z</time>
      </trkpt>
      <trkpt lat="48.469" lon="-2.9086">
        <ele>299</ele>
        <time>2014-02-16T16:01:33.1Z</time>
      </trkpt>
      <trkpt lat="48.46898" lon="-2.9086">
        <ele>299</ele>
        <time>2014-02-16T16:01:35.1Z</time>
      </trkpt>
      <trkpt lat="48.46895" lon="-2.9086">
        <ele>298</ele>
        <time>2014-02-16T16:01:37.1Z</time>
      </trkpt>
      <trkpt lat="48.46893" lon="-2.9086">
        <ele>298</ele>
        <time>2014-02-16T16:01:40.1Z</time>
      </trkpt>
      <trkpt lat="48.46889" lon="-2.90859">
        <ele>298</ele>
        <time>2014-02-16T16:01:42.1Z</time>
      </trkpt>
      <trkpt lat="48.46886" lon="-2.90859">
        <ele>298</ele>
        <time>2014-02-16T16:01:45.1Z</time>
      </trkpt>
      <trkpt lat="48.46883" lon="-2.90858">
        <ele>298</ele>
        <time>2014-02-16T16:01:47.1Z</time>
      </trkpt>
      <trkpt lat="48.46881" lon="-2.90858">
        <ele>298</ele>
        <time>2014-02-16T16:01:49.1Z</time>
      </trkpt>
      <trkpt lat="48.46878" lon="-2.90858">
        <ele>298</ele>
        <time>2014-02-16T16:01:51.1Z</time>
      </trkpt>
      <trkpt lat="48.46875" lon="-2.90856">
        <ele>298</ele>
        <time>2014-02-16T16:01:54.1Z</time>
      </trkpt>
      <trkpt lat="48.46872" lon="-2.90855">
        <ele>298</ele>
        <time>2014-02-16T16:01:57.1Z</time>
      </trkpt>
      <trkpt lat="48.46869" lon="-2.90855">
        <ele>298</ele>
        <time>2014-02-16T16:02:00.1Z</time>
      </trkpt>
      <trkpt lat="48.46866" lon="-2.90854">
        <ele>298</ele>
        <time>2014-02-16T16:02:02.1Z</time>
      </trkpt>
      <trkpt lat="48.46863" lon="-2.90854">
        <ele>298</ele>
        <time>2014-02-16T16:02:05.1Z</time>
      </trkpt>
      <trkpt lat="48.4686" lon="-2.90853">
        <ele>298</ele>
        <time>2014-02-16T16:02:08.1Z</time>
      </trkpt>
      <trkpt lat="48.46858" lon="-2.90852">
        <ele>298</ele>
        <time>2014-02-16T16:02:10.1Z</time>
      </trkpt>
      <trkpt lat="48.46856" lon="-2.90852">
        <ele>298</ele>
        <time>2014-02-16T16:02:13.1Z</time>
      </trkpt>
      <trkpt lat="48.46853" lon="-2.90852">
        <ele>299</ele>
        <time>2014-02-16T16:02:15.1Z</time>
      </trkpt>
      <trkpt lat="48.46851" lon="-2.90852">
        <ele>299</ele>
        <time>2014-02-16T16:02:17.1Z</time>
      </trkpt>
      <trkpt lat="48.46849" lon="-2.9085">
        <ele>299</ele>
        <time>2014-02-16T16:02:19.1Z</time>
      </trkpt>
      <trkpt lat="48.46848" lon="-2.90849">
        <ele>298</ele>
        <time>2014-02-16T16:02:21.1Z</time>
      </trkpt>
      <trkpt lat="48.46844" lon="-2.90848">
        <ele>298</ele>
        <time>2014-02-16T16:02:24.1Z</time>
      </trkpt>
      <trkpt lat="48.46843" lon="-2.90848">
        <ele>298</ele>
        <time>2014-02-16T16:02:26.1Z</time>
      </trkpt>
      <trkpt lat="48.46839" lon="-2.90847">
        <ele>299</ele>
        <time>2014-02-16T16:02:29.1Z</time>
      </trkpt>
      <trkpt lat="48.46837" lon="-2.90846">
        <ele>299</ele>
        <time>2014-02-16T16:02:31.1Z</time>
      </trkpt>
      <trkpt lat="48.46834" lon="-2.90845">
        <ele>299</ele>
        <time>2014-02-16T16:02:34.1Z</time>
      </trkpt>
      <trkpt lat="48.46831" lon="-2.90844">
        <ele>298</ele>
        <time>2014-02-16T16:02:36.1Z</time>
      </trkpt>
      <trkpt lat="48.46828" lon="-2.90842">
        <ele>298</ele>
        <time>2014-02-16T16:02:39.1Z</time>
      </trkpt>
      <trkpt lat="48.46824" lon="-2.90841">
        <ele>298</ele>
        <time>2014-02-16T16:02:42.1Z</time>
      </trkpt>
      <trkpt lat="48.46822" lon="-2.9084">
        <ele>298</ele>
        <time>2014-02-16T16:02:44.1Z</time>
      </trkpt>
      <trkpt lat="48.46817" lon="-2.90838">
        <ele>298</ele>
        <time>2014-02-16T16:02:47.1Z</time>
      </trkpt>
      <trkpt lat="48.46815" lon="-2.90837">
        <ele>298</ele>
        <time>2014-02-16T16:02:49.1Z</time>
      </trkpt>
      <trkpt lat="48.46811" lon="-2.90836">
        <ele>299</ele>
        <time>2014-02-16T16:02:53.1Z</time>
      </trkpt>
      <trkpt lat="48.46808" lon="-2.90835">
        <ele>299</ele>
        <time>2014-02-16T16:02:55.1Z</time>
      </trkpt>
      <trkpt lat="48.46806" lon="-2.90835">
        <ele>299</ele>
        <time>2014-02-16T16:02:57.1Z</time>
      </trkpt>
      <trkpt lat="48.46802" lon="-2.90834">
        <ele>299</ele>
        <time>2014-02-16T16:03:00.1Z</time>
      </trkpt>
      <trkpt lat="48.46799" lon="-2.90832">
        <ele>298</ele>
        <time>2014-02-16T16:03:04.1Z</time>
      </trkpt>
      <trkpt lat="48.46796" lon="-2.90831">
        <ele>298</ele>
        <time>2014-02-16T16:03:06.1Z</time>
      </trkpt>
      <trkpt lat="48.46792" lon="-2.9083">
        <ele>299</ele>
        <time>2014-02-16T16:03:09.1Z</time>
      </trkpt>
      <trkpt lat="48.46788" lon="-2.90829">
        <ele>299</ele>
        <time>2014-02-16T16:03:12.1Z</time>
      </trkpt>
      <trkpt lat="48.46786" lon="-2.90828">
        <ele>299</ele>
        <time>2014-02-16T16:03:14.1Z</time>
      </trkpt>
      <trkpt lat="48.46783" lon="-2.90827">
        <ele>298</ele>
        <time>2014-02-16T16:03:17.1Z</time>
      </trkpt>
      <trkpt lat="48.4678" lon="-2.90826">
        <ele>298</ele>
        <time>2014-02-16T16:03:19.1Z</time>
      </trkpt>
      <trkpt lat="48.46777" lon="-2.90825">
        <ele>298</ele>
        <time>2014-02-16T16:03:22.1Z</time>
      </trkpt>
      <trkpt lat="48.46775" lon="-2.90824">
        <ele>298</ele>
        <time>2014-02-16T16:03:24.1Z</time>
      </trkpt>
      <trkpt lat="48.46771" lon="-2.90822">
        <ele>298</ele>
        <time>2014-02-16T16:03:28.1Z</time>
      </trkpt>
      <trkpt lat="48.46767" lon="-2.90821">
        <ele>298</ele>
        <time>2014-02-16T16:03:30.1Z</time>
      </trkpt>
      <trkpt lat="48.46764" lon="-2.9082">
        <ele>298</ele>
        <time>2014-02-16T16:03:33.1Z</time>
      </trkpt>
      <trkpt lat="48.46762" lon="-2.9082">
        <ele>298</ele>
        <time>2014-02-16T16:03:35.1Z</time>
      </trkpt>
      <trkpt lat="48.46759" lon="-2.90819">
        <ele>298</ele>
        <time>2014-02-16T16:03:38.1Z</time>
      </trkpt>
      <trkpt lat="48.46757" lon="-2.90818">
        <ele>298</ele>
        <time>2014-02-16T16:03:41.1Z</time>
      </trkpt>
      <trkpt lat="48.46753" lon="-2.90817">
        <ele>297</ele>
        <time>2014-02-16T16:03:43.1Z</time>
      </trkpt>
      <trkpt lat="48.4675" lon="-2.90816">
        <ele>297</ele>
        <time>2014-02-16T16:03:46.1Z</time>
      </trkpt>
      <trkpt lat="48.46748" lon="-2.90815">
        <ele>297</ele>
        <time>2014-02-16T16:03:48.1Z</time>
      </trkpt>
      <trkpt lat="48.46745" lon="-2.90814">
        <ele>297</ele>
        <time>2014-02-16T16:03:51.1Z</time>
      </trkpt>
      <trkpt lat="48.46741" lon="-2.90813">
        <ele>296</ele>
        <time>2014-02-16T16:03:54.1Z</time>
      </trkpt>
      <trkpt lat="48.46738" lon="-2.90811">
        <ele>296</ele>
        <time>2014-02-16T16:03:57.1Z</time>
      </trkpt>
      <trkpt lat="48.46734" lon="-2.9081">
        <ele>296</ele>
        <time>2014-02-16T16:04:00.1Z</time>
      </trkpt>
      <trkpt lat="48.46732" lon="-2.90809">
        <ele>297</ele>
        <time>2014-02-16T16:04:02.1Z</time>
      </trkpt>
      <trkpt lat="48.4673" lon="-2.90808">
        <ele>297</ele>
        <time>2014-02-16T16:04:05.1Z</time>
      </trkpt>
      <trkpt lat="48.46726" lon="-2.90807">
        <ele>297</ele>
        <time>2014-02-16T16:04:07.1Z</time>
      </trkpt>
      <trkpt lat="48.46724" lon="-2.90807">
        <ele>296</ele>
        <time>2014-02-16T16:04:09.1Z</time>
      </trkpt>
      <trkpt lat="48.46721" lon="-2.90806">
        <ele>296</ele>
        <time>2014-02-16T16:04:12.1Z</time>
      </trkpt>
      <trkpt lat="48.46717" lon="-2.90804">
        <ele>296</ele>
        <time>2014-02-16T16:04:15.1Z</time>
      </trkpt>
      <trkpt lat="48.46715" lon="-2.90803">
        <ele>296</ele>
        <time>2014-02-16T16:04:18.1Z</time>
      </trkpt>
      <trkpt lat="48.46711" lon="-2.90802">
        <ele>296</ele>
        <time>2014-02-16T16:04:20.1Z</time>
      </trkpt>
      <trkpt lat="48.46709" lon="-2.90801">
        <ele>295</ele>
        <time>2014-02-16T16:04:22.1Z</time>
      </trkpt>
      <trkpt lat="48.46707" lon="-2.90801">
        <ele>295</ele>
        <time>2014-02-16T16:04:24.1Z</time>
      </trkpt>
      <trkpt lat="48.46703" lon="-2.908">
        <ele>295</ele>
        <time>2014-02-16T16:04:27.1Z</time>
      </trkpt>
      <trkpt lat="48.46701" lon="-2.90799">
        <ele>295</ele>
        <time>2014-02-16T16:04:29.1Z</time>
      </trkpt>
      <trkpt lat="48.46698" lon="-2.90799">
        <ele>295</ele>
        <time>2014-02-16T16:04:32.1Z</time>
      </trkpt>
      <trkpt lat="48.46695" lon="-2.90797">
        <ele>294</ele>
        <time>2014-02-16T16:04:34.1Z</time>
      </trkpt>
      <trkpt lat="48.46692" lon="-2.90796">
        <ele>294</ele>
        <time>2014-02-16T16:04:37.1Z</time>
      </trkpt>
      <trkpt lat="48.46689" lon="-2.90796">
        <ele>294</ele>
        <time>2014-02-16T16:04:39.1Z</time>
      </trkpt>
      <trkpt lat="48.46686" lon="-2.90794">
        <ele>294</ele>
        <time>2014-02-16T16:04:42.1Z</time>
      </trkpt>
      <trkpt lat="48.46684" lon="-2.90793">
        <ele>294</ele>
        <time>2014-02-16T16:04:45.1Z</time>
      </trkpt>
      <trkpt lat="48.4668" lon="-2.90792">
        <ele>294</ele>
        <time>2014-02-16T16:04:47.1Z</time>
      </trkpt>
      <trkpt lat="48.46677" lon="-2.90792">
        <ele>295</ele>
        <time>2014-02-16T16:04:50.1Z</time>
      </trkpt>
      <trkpt lat="48.46673" lon="-2.90789">
        <ele>294</ele>
        <time>2014-02-16T16:04:53.1Z</time>
      </trkpt>
      <trkpt lat="48.4667" lon="-2.90788">
        <ele>294</ele>
        <time>2014-02-16T16:04:55.1Z</time>
      </trkpt>
      <trkpt lat="48.46668" lon="-2.90786">
        <ele>294</ele>
        <time>2014-02-16T16:04:57.1Z</time>
      </trkpt>
      <trkpt lat="48.46665" lon="-2.90785">
        <ele>294</ele>
        <time>2014-02-16T16:05:00.1Z</time>
      </trkpt>
      <trkpt lat="48.46662" lon="-2.90782">
        <ele>294</ele>
        <time>2014-02-16T16:05:02.1Z</time>
      </trkpt>
      <trkpt lat="48.4666" lon="-2.90781">
        <ele>294</ele>
        <time>2014-02-16T16:05:04.1Z</time>
      </trkpt>
      <trkpt lat="48.46656" lon="-2.90778">
        <ele>294</ele>
        <time>2014-02-16T16:05:07.1Z</time>
      </trkpt>
      <trkpt lat="48.46655" lon="-2.90777">
        <ele>294</ele>
        <time>2014-02-16T16:05:09.1Z</time>
      </trkpt>
      <trkpt lat="48.46653" lon="-2.90776">
        <ele>294</ele>
        <time>2014-02-16T16:05:11.1Z</time>
      </trkpt>
      <trkpt lat="48.46649" lon="-2.90773">
        <ele>294</ele>
        <time>2014-02-16T16:05:14.1Z</time>
      </trkpt>
      <trkpt lat="48.46646" lon="-2.90771">
        <ele>295</ele>
        <time>2014-02-16T16:05:17.1Z</time>
      </trkpt>
      <trkpt lat="48.46644" lon="-2.9077">
        <ele>295</ele>
        <time>2014-02-16T16:05:19.1Z</time>
      </trkpt>
      <trkpt lat="48.46642" lon="-2.90768">
        <ele>294</ele>
        <time>2014-02-16T16:05:21.1Z</time>
      </trkpt>
      <trkpt lat="48.46638" lon="-2.90766">
        <ele>294</ele>
        <time>2014-02-16T16:05:24.1Z</time>
      </trkpt>
      <trkpt lat="48.46636" lon="-2.90763">
        <ele>294</ele>
        <time>2014-02-16T16:05:27.1Z</time>
      </trkpt>
      <trkpt lat="48.46634" lon="-2.9076">
        <ele>293</ele>
        <time>2014-02-16T16:05:29.1Z</time>
      </trkpt>
      <trkpt lat="48.46631" lon="-2.90757">
        <ele>294</ele>
        <time>2014-02-16T16:05:32.1Z</time>
      </trkpt>
      <trkpt lat="48.4663" lon="-2.90755">
        <ele>294</ele>
        <time>2014-02-16T16:05:34.1Z</time>
      </trkpt>
      <trkpt lat="48.46627" lon="-2.90752">
        <ele>293</ele>
        <time>2014-02-16T16:05:37.1Z</time>
      </trkpt>
      <trkpt lat="48.46626" lon="-2.9075">
        <ele>293</ele>
        <time>2014-02-16T16:05:39.1Z</time>
      </trkpt>
      <trkpt lat="48.46624" lon="-2.90747">
        <ele>293</ele>
        <time>2014-02-16T16:05:42.1Z</time>
      </trkpt>
      <trkpt lat="48.46622" lon="-2.90744">
        <ele>293</ele>
        <time>2014-02-16T16:05:45.1Z</time>
      </trkpt>
      <trkpt lat="48.4662" lon="-2.90741">
        <ele>293</ele>
        <time>2014-02-16T16:05:47.1Z</time>
      </trkpt>
      <trkpt lat="48.46618" lon="-2.90738">
        <ele>293</ele>
        <time>2014-02-16T16:05:50.1Z</time>
      </trkpt>
      <trkpt lat="48.46616" lon="-2.90736">
        <ele>293</ele>
        <time>2014-02-16T16:05:52.1Z</time>
      </trkpt>
      <trkpt lat="48.46614" lon="-2.90734">
        <ele>293</ele>
        <time>2014-02-16T16:05:55.1Z</time>
      </trkpt>
      <trkpt lat="48.46613" lon="-2.90732">
        <ele>293</ele>
        <time>2014-02-16T16:05:57.1Z</time>
      </trkpt>
      <trkpt lat="48.46612" lon="-2.90731">
        <ele>293</ele>
        <time>2014-02-16T16:05:59.1Z</time>
      </trkpt>
      <trkpt lat="48.46612" lon="-2.90732">
        <ele>293</ele>
        <time>2014-02-16T16:06:02.1Z</time>
      </trkpt>
      <trkpt lat="48.46611" lon="-2.90729">
        <ele>293</ele>
        <time>2014-02-16T16:06:04.1Z</time>
      </trkpt>
      <trkpt lat="48.46609" lon="-2.90726">
        <ele>293</ele>
        <time>2014-02-16T16:06:07.1Z</time>
      </trkpt>
      <trkpt lat="48.46608" lon="-2.90724">
        <ele>293</ele>
        <time>2014-02-16T16:06:09.1Z</time>
      </trkpt>
      <trkpt lat="48.46607" lon="-2.90722">
        <ele>293</ele>
        <time>2014-02-16T16:06:11.1Z</time>
      </trkpt>
      <trkpt lat="48.46605" lon="-2.90718">
        <ele>293</ele>
        <time>2014-02-16T16:06:14.1Z</time>
      </trkpt>
      <trkpt lat="48.46604" lon="-2.90716">
        <ele>293</ele>
        <time>2014-02-16T16:06:16.1Z</time>
      </trkpt>
      <trkpt lat="48.46601" lon="-2.90712">
        <ele>292</ele>
        <time>2014-02-16T16:06:19.1Z</time>
      </trkpt>
      <trkpt lat="48.466" lon="-2.90709">
        <ele>292</ele>
        <time>2014-02-16T16:06:21.1Z</time>
      </trkpt>
      <trkpt lat="48.46598" lon="-2.90706">
        <ele>292</ele>
        <time>2014-02-16T16:06:24.1Z</time>
      </trkpt>
      <trkpt lat="48.46597" lon="-2.90702">
        <ele>292</ele>
        <time>2014-02-16T16:06:27.1Z</time>
      </trkpt>
      <trkpt lat="48.46595" lon="-2.90699">
        <ele>292</ele>
        <time>2014-02-16T16:06:29.1Z</time>
      </trkpt>
      <trkpt lat="48.46593" lon="-2.90694">
        <ele>293</ele>
        <time>2014-02-16T16:06:32.1Z</time>
      </trkpt>
      <trkpt lat="48.46591" lon="-2.9069">
        <ele>292</ele>
        <time>2014-02-16T16:06:35.1Z</time>
      </trkpt>
      <trkpt lat="48.46589" lon="-2.90686">
        <ele>292</ele>
        <time>2014-02-16T16:06:38.1Z</time>
      </trkpt>
      <trkpt lat="48.46588" lon="-2.90683">
        <ele>292</ele>
        <time>2014-02-16T16:06:40.1Z</time>
      </trkpt>
      <trkpt lat="48.46586" lon="-2.90678">
        <ele>292</ele>
        <time>2014-02-16T16:06:43.1Z</time>
      </trkpt>
      <trkpt lat="48.46585" lon="-2.90675">
        <ele>292</ele>
        <time>2014-02-16T16:06:45.1Z</time>
      </trkpt>
      <trkpt lat="48.46583" lon="-2.90672">
        <ele>292</ele>
        <time>2014-02-16T16:06:48.1Z</time>
      </trkpt>
      <trkpt lat="48.46582" lon="-2.90667">
        <ele>292</ele>
        <time>2014-02-16T16:06:51.1Z</time>
      </trkpt>
      <trkpt lat="48.4658" lon="-2.90663">
        <ele>291</ele>
        <time>2014-02-16T16:06:54.1Z</time>
      </trkpt>
      <trkpt lat="48.46578" lon="-2.90658">
        <ele>291</ele>
        <time>2014-02-16T16:06:57.1Z</time>
      </trkpt>
      <trkpt lat="48.46576" lon="-2.90654">
        <ele>291</ele>
        <time>2014-02-16T16:07:00.1Z</time>
      </trkpt>
      <trkpt lat="48.46576" lon="-2.90651">
        <ele>291</ele>
        <time>2014-02-16T16:07:02.1Z</time>
      </trkpt>
      <trkpt lat="48.46574" lon="-2.90648">
        <ele>291</ele>
        <time>2014-02-16T16:07:05.1Z</time>
      </trkpt>
      <trkpt lat="48.46573" lon="-2.90644">
        <ele>291</ele>
        <time>2014-02-16T16:07:07.1Z</time>
      </trkpt>
      <trkpt lat="48.46572" lon="-2.90641">
        <ele>291</ele>
        <time>2014-02-16T16:07:09.1Z</time>
      </trkpt>
      <trkpt lat="48.46571" lon="-2.90638">
        <ele>291</ele>
        <time>2014-02-16T16:07:11.1Z</time>
      </trkpt>
      <trkpt lat="48.46569" lon="-2.90634">
        <ele>291</ele>
        <time>2014-02-16T16:07:14.1Z</time>
      </trkpt>
      <trkpt lat="48.46568" lon="-2.90631">
        <ele>291</ele>
        <time>2014-02-16T16:07:16.1Z</time>
      </trkpt>
      <trkpt lat="48.46566" lon="-2.90627">
        <ele>291</ele>
        <time>2014-02-16T16:07:19.1Z</time>
      </trkpt>
      <trkpt lat="48.46565" lon="-2.90624">
        <ele>291</ele>
        <time>2014-02-16T16:07:21.1Z</time>
      </trkpt>
      <trkpt lat="48.46564" lon="-2.90621">
        <ele>291</ele>
        <time>2014-02-16T16:07:23.1Z</time>
      </trkpt>
      <trkpt lat="48.46563" lon="-2.90616">
        <ele>291</ele>
        <time>2014-02-16T16:07:26.1Z</time>
      </trkpt>
      <trkpt lat="48.46562" lon="-2.90614">
        <ele>291</ele>
        <time>2014-02-16T16:07:28.1Z</time>
      </trkpt>
      <trkpt lat="48.46561" lon="-2.90611">
        <ele>291</ele>
        <time>2014-02-16T16:07:30.1Z</time>
      </trkpt>
      <trkpt lat="48.46559" lon="-2.90606">
        <ele>291</ele>
        <time>2014-02-16T16:07:33.1Z</time>
      </trkpt>
      <trkpt lat="48.46558" lon="-2.90603">
        <ele>291</ele>
        <time>2014-02-16T16:07:35.1Z</time>
      </trkpt>
      <trkpt lat="48.46557" lon="-2.906">
        <ele>290</ele>
        <time>2014-02-16T16:07:38.1Z</time>
      </trkpt>
      <trkpt lat="48.46556" lon="-2.90597">
        <ele>290</ele>
        <time>2014-02-16T16:07:40.1Z</time>
      </trkpt>
      <trkpt lat="48.46555" lon="-2.90594">
        <ele>290</ele>
        <time>2014-02-16T16:07:42.1Z</time>
      </trkpt>
      <trkpt lat="48.46554" lon="-2.90591">
        <ele>290</ele>
        <time>2014-02-16T16:07:44.1Z</time>
      </trkpt>
      <trkpt lat="48.46552" lon="-2.90586">
        <ele>290</ele>
        <time>2014-02-16T16:07:47.1Z</time>
      </trkpt>
      <trkpt lat="48.46551" lon="-2.90583">
        <ele>289</ele>
        <time>2014-02-16T16:07:49.1Z</time>
      </trkpt>
      <trkpt lat="48.46549" lon="-2.90578">
        <ele>290</ele>
        <time>2014-02-16T16:07:52.1Z</time>
      </trkpt>
      <trkpt lat="48.46547" lon="-2.90573">
        <ele>289</ele>
        <time>2014-02-16T16:07:55.1Z</time>
      </trkpt>
      <trkpt lat="48.46546" lon="-2.9057">
        <ele>289</ele>
        <time>2014-02-16T16:07:57.1Z</time>
      </trkpt>
      <trkpt lat="48.46544" lon="-2.90565">
        <ele>289</ele>
        <time>2014-02-16T16:08:00.1Z</time>
      </trkpt>
      <trkpt lat="48.46543" lon="-2.90562">
        <ele>289</ele>
        <time>2014-02-16T16:08:02.1Z</time>
      </trkpt>
      <trkpt lat="48.46542" lon="-2.90558">
        <ele>289</ele>
        <time>2014-02-16T16:08:05.1Z</time>
      </trkpt>
      <trkpt lat="48.4654" lon="-2.90553">
        <ele>289</ele>
        <time>2014-02-16T16:08:08.1Z</time>
      </trkpt>
      <trkpt lat="48.46539" lon="-2.90548">
        <ele>289</ele>
        <time>2014-02-16T16:08:11.1Z</time>
      </trkpt>
      <trkpt lat="48.46537" lon="-2.90543">
        <ele>289</ele>
        <time>2014-02-16T16:08:14.1Z</time>
      </trkpt>
      <trkpt lat="48.46536" lon="-2.9054">
        <ele>289</ele>
        <time>2014-02-16T16:08:16.1Z</time>
      </trkpt>
      <trkpt lat="48.46534" lon="-2.90535">
        <ele>289</ele>
        <time>2014-02-16T16:08:19.1Z</time>
      </trkpt>
      <trkpt lat="48.46533" lon="-2.90532">
        <ele>289</ele>
        <time>2014-02-16T16:08:21.1Z</time>
      </trkpt>
      <trkpt lat="48.46532" lon="-2.90527">
        <ele>289</ele>
        <time>2014-02-16T16:08:24.1Z</time>
      </trkpt>
      <trkpt lat="48.4653" lon="-2.90523">
        <ele>289</ele>
        <time>2014-02-16T16:08:27.1Z</time>
      </trkpt>
      <trkpt lat="48.46529" lon="-2.90519">
        <ele>289</ele>
        <time>2014-02-16T16:08:29.1Z</time>
      </trkpt>
      <trkpt lat="48.46527" lon="-2.90516">
        <ele>289</ele>
        <time>2014-02-16T16:08:31.1Z</time>
      </trkpt>
      <trkpt lat="48.46526" lon="-2.90512">
        <ele>289</ele>
        <time>2014-02-16T16:08:34.1Z</time>
      </trkpt>
      <trkpt lat="48.46524" lon="-2.90509">
        <ele>289</ele>
        <time>2014-02-16T16:08:36.1Z</time>
      </trkpt>
      <trkpt lat="48.46522" lon="-2.90506">
        <ele>289</ele>
        <time>2014-02-16T16:08:38.1Z</time>
      </trkpt>
      <trkpt lat="48.46521" lon="-2.90504">
        <ele>289</ele>
        <time>2014-02-16T16:08:41.1Z</time>
      </trkpt>
      <trkpt lat="48.46519" lon="-2.90499">
        <ele>289</ele>
        <time>2014-02-16T16:08:43.1Z</time>
      </trkpt>
      <trkpt lat="48.46517" lon="-2.90496">
        <ele>288</ele>
        <time>2014-02-16T16:08:45.1Z</time>
      </trkpt>
      <trkpt lat="48.46516" lon="-2.90491">
        <ele>288</ele>
        <time>2014-02-16T16:08:48.1Z</time>
      </trkpt>
      <trkpt lat="48.46515" lon="-2.90488">
        <ele>288</ele>
        <time>2014-02-16T16:08:50.1Z</time>
      </trkpt>
      <trkpt lat="48.46514" lon="-2.90484">
        <ele>288</ele>
        <time>2014-02-16T16:08:53.1Z</time>
      </trkpt>
      <trkpt lat="48.46513" lon="-2.90479">
        <ele>288</ele>
        <time>2014-02-16T16:08:55.1Z</time>
      </trkpt>
      <trkpt lat="48.46512" lon="-2.90475">
        <ele>288</ele>
        <time>2014-02-16T16:08:58.1Z</time>
      </trkpt>
      <trkpt lat="48.46512" lon="-2.90472">
        <ele>288</ele>
        <time>2014-02-16T16:09:00.1Z</time>
      </trkpt>
      <trkpt lat="48.46511" lon="-2.90469">
        <ele>288</ele>
        <time>2014-02-16T16:09:02.1Z</time>
      </trkpt>
      <trkpt lat="48.4651" lon="-2.90465">
        <ele>288</ele>
        <time>2014-02-16T16:09:04.1Z</time>
      </trkpt>
      <trkpt lat="48.4651" lon="-2.9046">
        <ele>289</ele>
        <time>2014-02-16T16:09:07.1Z</time>
      </trkpt>
      <trkpt lat="48.46509" lon="-2.90455">
        <ele>288</ele>
        <time>2014-02-16T16:09:10.1Z</time>
      </trkpt>
      <trkpt lat="48.46508" lon="-2.90449">
        <ele>288</ele>
        <time>2014-02-16T16:09:13.1Z</time>
      </trkpt>
      <trkpt lat="48.46508" lon="-2.90446">
        <ele>288</ele>
        <time>2014-02-16T16:09:15.1Z</time>
      </trkpt>
      <trkpt lat="48.46508" lon="-2.90442">
        <ele>288</ele>
        <time>2014-02-16T16:09:17.1Z</time>
      </trkpt>
      <trkpt lat="48.46507" lon="-2.90439">
        <ele>288</ele>
        <time>2014-02-16T16:09:19.1Z</time>
      </trkpt>
      <trkpt lat="48.46507" lon="-2.90436">
        <ele>288</ele>
        <time>2014-02-16T16:09:21.1Z</time>
      </trkpt>
      <trkpt lat="48.46506" lon="-2.90431">
        <ele>288</ele>
        <time>2014-02-16T16:09:24.1Z</time>
      </trkpt>
      <trkpt lat="48.46506" lon="-2.90427">
        <ele>288</ele>
        <time>2014-02-16T16:09:26.1Z</time>
      </trkpt>
      <trkpt lat="48.46506" lon="-2.90424">
        <ele>288</ele>
        <time>2014-02-16T16:09:28.1Z</time>
      </trkpt>
      <trkpt lat="48.46505" lon="-2.90419">
        <ele>288</ele>
        <time>2014-02-16T16:09:31.1Z</time>
      </trkpt>
      <trkpt lat="48.46505" lon="-2.90416">
        <ele>287</ele>
        <time>2014-02-16T16:09:33.1Z</time>
      </trkpt>
      <trkpt lat="48.46505" lon="-2.90411">
        <ele>287</ele>
        <time>2014-02-16T16:09:36.1Z</time>
      </trkpt>
      <trkpt lat="48.46505" lon="-2.90406">
        <ele>286</ele>
        <time>2014-02-16T16:09:39.1Z</time>
      </trkpt>
      <trkpt lat="48.46504" lon="-2.90401">
        <ele>286</ele>
        <time>2014-02-16T16:09:42.1Z</time>
      </trkpt>
      <trkpt lat="48.46503" lon="-2.90396">
        <ele>286</ele>
        <time>2014-02-16T16:09:45.1Z</time>
      </trkpt>
      <trkpt lat="48.46502" lon="-2.90391">
        <ele>286</ele>
        <time>2014-02-16T16:09:48.1Z</time>
      </trkpt>
      <trkpt lat="48.465" lon="-2.90387">
        <ele>286</ele>
        <time>2014-02-16T16:09:51.1Z</time>
      </trkpt>
      <trkpt lat="48.46498" lon="-2.90385">
        <ele>286</ele>
        <time>2014-02-16T16:09:54.1Z</time>
      </trkpt>
      <trkpt lat="48.46494" lon="-2.90385">
        <ele>285</ele>
        <time>2014-02-16T16:09:56.1Z</time>
      </trkpt>
      <trkpt lat="48.4649" lon="-2.90385">
        <ele>285</ele>
        <time>2014-02-16T16:09:59.1Z</time>
      </trkpt>
      <trkpt lat="48.46488" lon="-2.90384">
        <ele>285</ele>
        <time>2014-02-16T16:10:01.1Z</time>
      </trkpt>
      <trkpt lat="48.46484" lon="-2.90385">
        <ele>285</ele>
        <time>2014-02-16T16:10:04.1Z</time>
      </trkpt>
      <trkpt lat="48.46482" lon="-2.90386">
        <ele>285</ele>
        <time>2014-02-16T16:10:06.1Z</time>
      </trkpt>
      <trkpt lat="48.46479" lon="-2.90387">
        <ele>284</ele>
        <time>2014-02-16T16:10:09.1Z</time>
      </trkpt>
      <trkpt lat="48.46477" lon="-2.90388">
        <ele>284</ele>
        <time>2014-02-16T16:10:11.1Z</time>
      </trkpt>
      <trkpt lat="48.46475" lon="-2.9039">
        <ele>284</ele>
        <time>2014-02-16T16:10:13.1Z</time>
      </trkpt>
      <trkpt lat="48.46473" lon="-2.90391">
        <ele>284</ele>
        <time>2014-02-16T16:10:15.1Z</time>
      </trkpt>
      <trkpt lat="48.46471" lon="-2.90393">
        <ele>284</ele>
        <time>2014-02-16T16:10:17.1Z</time>
      </trkpt>
      <trkpt lat="48.46468" lon="-2.90394">
        <ele>284</ele>
        <time>2014-02-16T16:10:19.1Z</time>
      </trkpt>
      <trkpt lat="48.46466" lon="-2.90396">
        <ele>284</ele>
        <time>2014-02-16T16:10:21.1Z</time>
      </trkpt>
      <trkpt lat="48.46462" lon="-2.90398">
        <ele>284</ele>
        <time>2014-02-16T16:10:24.1Z</time>
      </trkpt>
      <trkpt lat="48.46459" lon="-2.904">
        <ele>284</ele>
        <time>2014-02-16T16:10:27.1Z</time>
      </trkpt>
      <trkpt lat="48.46456" lon="-2.90402">
        <ele>283</ele>
        <time>2014-02-16T16:10:29.1Z</time>
      </trkpt>
      <trkpt lat="48.46453" lon="-2.90404">
        <ele>283</ele>
        <time>2014-02-16T16:10:32.1Z</time>
      </trkpt>
      <trkpt lat="48.46451" lon="-2.90406">
        <ele>282</ele>
        <time>2014-02-16T16:10:34.1Z</time>
      </trkpt>
      <trkpt lat="48.46449" lon="-2.90408">
        <ele>282</ele>
        <time>2014-02-16T16:10:36.1Z</time>
      </trkpt>
      <trkpt lat="48.46445" lon="-2.9041">
        <ele>282</ele>
        <time>2014-02-16T16:10:39.1Z</time>
      </trkpt>
      <trkpt lat="48.46442" lon="-2.90412">
        <ele>282</ele>
        <time>2014-02-16T16:10:42.1Z</time>
      </trkpt>
      <trkpt lat="48.46439" lon="-2.90414">
        <ele>282</ele>
        <time>2014-02-16T16:10:45.1Z</time>
      </trkpt>
      <trkpt lat="48.46435" lon="-2.90416">
        <ele>281</ele>
        <time>2014-02-16T16:10:48.1Z</time>
      </trkpt>
      <trkpt lat="48.46432" lon="-2.90417">
        <ele>281</ele>
        <time>2014-02-16T16:10:51.1Z</time>
      </trkpt>
      <trkpt lat="48.46428" lon="-2.90419">
        <ele>281</ele>
        <time>2014-02-16T16:10:53.1Z</time>
      </trkpt>
      <trkpt lat="48.46426" lon="-2.9042">
        <ele>280</ele>
        <time>2014-02-16T16:10:55.1Z</time>
      </trkpt>
      <trkpt lat="48.46423" lon="-2.90421">
        <ele>280</ele>
        <time>2014-02-16T16:10:57.1Z</time>
      </trkpt>
      <trkpt lat="48.4642" lon="-2.90423">
        <ele>280</ele>
        <time>2014-02-16T16:11:00.1Z</time>
      </trkpt>
      <trkpt lat="48.46416" lon="-2.90425">
        <ele>280</ele>
        <time>2014-02-16T16:11:03.1Z</time>
      </trkpt>
      <trkpt lat="48.46412" lon="-2.90427">
        <ele>279</ele>
        <time>2014-02-16T16:11:06.1Z</time>
      </trkpt>
      <trkpt lat="48.46409" lon="-2.90429">
        <ele>279</ele>
        <time>2014-02-16T16:11:09.1Z</time>
      </trkpt>
      <trkpt lat="48.46407" lon="-2.90431">
        <ele>278</ele>
        <time>2014-02-16T16:11:11.1Z</time>
      </trkpt>
      <trkpt lat="48.46404" lon="-2.90433">
        <ele>278</ele>
        <time>2014-02-16T16:11:14.1Z</time>
      </trkpt>
      <trkpt lat="48.46401" lon="-2.90436">
        <ele>278</ele>
        <time>2014-02-16T16:11:17.1Z</time>
      </trkpt>
      <trkpt lat="48.46399" lon="-2.90438">
        <ele>277</ele>
        <time>2014-02-16T16:11:19.1Z</time>
      </trkpt>
      <trkpt lat="48.46395" lon="-2.9044">
        <ele>277</ele>
        <time>2014-02-16T16:11:22.1Z</time>
      </trkpt>
      <trkpt lat="48.46392" lon="-2.90442">
        <ele>277</ele>
        <time>2014-02-16T16:11:25.1Z</time>
      </trkpt>
      <trkpt lat="48.4639" lon="-2.90444">
        <ele>277</ele>
        <time>2014-02-16T16:11:27.1Z</time>
      </trkpt>
      <trkpt lat="48.46387" lon="-2.90445">
        <ele>277</ele>
        <time>2014-02-16T16:11:29.1Z</time>
      </trkpt>
      <trkpt lat="48.46384" lon="-2.90448">
        <ele>276</ele>
        <time>2014-02-16T16:11:32.1Z</time>
      </trkpt>
      <trkpt lat="48.46381" lon="-2.90449">
        <ele>276</ele>
        <time>2014-02-16T16:11:34.1Z</time>
      </trkpt>
      <trkpt lat="48.46378" lon="-2.90452">
        <ele>276</ele>
        <time>2014-02-16T16:11:37.1Z</time>
      </trkpt>
      <trkpt lat="48.46375" lon="-2.90454">
        <ele>276</ele>
        <time>2014-02-16T16:11:40.1Z</time>
      </trkpt>
      <trkpt lat="48.46373" lon="-2.90455">
        <ele>275</ele>
        <time>2014-02-16T16:11:43.1Z</time>
      </trkpt>
      <trkpt lat="48.46373" lon="-2.90455">
        <ele>275</ele>
        <time>2014-02-16T16:11:45.1Z</time>
      </trkpt>
      <trkpt lat="48.46372" lon="-2.90456">
        <ele>275</ele>
        <time>2014-02-16T16:11:47.1Z</time>
      </trkpt>
      <trkpt lat="48.46371" lon="-2.90457">
        <ele>275</ele>
        <time>2014-02-16T16:11:50.1Z</time>
      </trkpt>
      <trkpt lat="48.46369" lon="-2.90459">
        <ele>275</ele>
        <time>2014-02-16T16:11:52.1Z</time>
      </trkpt>
      <trkpt lat="48.46367" lon="-2.90462">
        <ele>275</ele>
        <time>2014-02-16T16:11:55.1Z</time>
      </trkpt>
      <trkpt lat="48.46365" lon="-2.90464">
        <ele>275</ele>
        <time>2014-02-16T16:11:57.1Z</time>
      </trkpt>
      <trkpt lat="48.46363" lon="-2.90466">
        <ele>275</ele>
        <time>2014-02-16T16:11:59.1Z</time>
      </trkpt>
      <trkpt lat="48.4636" lon="-2.90469">
        <ele>274</ele>
        <time>2014-02-16T16:12:02.1Z</time>
      </trkpt>
      <trkpt lat="48.46357" lon="-2.90472">
        <ele>274</ele>
        <time>2014-02-16T16:12:05.1Z</time>
      </trkpt>
      <trkpt lat="48.46355" lon="-2.90475">
        <ele>274</ele>
        <time>2014-02-16T16:12:08.1Z</time>
      </trkpt>
      <trkpt lat="48.46351" lon="-2.90478">
        <ele>274</ele>
        <time>2014-02-16T16:12:11.1Z</time>
      </trkpt>
      <trkpt lat="48.46349" lon="-2.9048">
        <ele>274</ele>
        <time>2014-02-16T16:12:13.1Z</time>
      </trkpt>
      <trkpt lat="48.46346" lon="-2.90483">
        <ele>274</ele>
        <time>2014-02-16T16:12:16.1Z</time>
      </trkpt>
      <trkpt lat="48.46343" lon="-2.90486">
        <ele>274</ele>
        <time>2014-02-16T16:12:19.1Z</time>
      </trkpt>
      <trkpt lat="48.46341" lon="-2.90488">
        <ele>274</ele>
        <time>2014-02-16T16:12:21.1Z</time>
      </trkpt>
      <trkpt lat="48.46339" lon="-2.9049">
        <ele>274</ele>
        <time>2014-02-16T16:12:24.1Z</time>
      </trkpt>
      <trkpt lat="48.46335" lon="-2.90493">
        <ele>274</ele>
        <time>2014-02-16T16:12:26.1Z</time>
      </trkpt>
      <trkpt lat="48.46333" lon="-2.90495">
        <ele>274</ele>
        <time>2014-02-16T16:12:28.1Z</time>
      </trkpt>
      <trkpt lat="48.46329" lon="-2.90497">
        <ele>274</ele>
        <time>2014-02-16T16:12:31.1Z</time>
      </trkpt>
      <trkpt lat="48.46326" lon="-2.905">
        <ele>274</ele>
        <time>2014-02-16T16:12:34.1Z</time>
      </trkpt>
      <trkpt lat="48.46324" lon="-2.90502">
        <ele>273</ele>
        <time>2014-02-16T16:12:37.1Z</time>
      </trkpt>
      <trkpt lat="48.46321" lon="-2.90505">
        <ele>273</ele>
        <time>2014-02-16T16:12:39.1Z</time>
      </trkpt>
      <trkpt lat="48.46318" lon="-2.90508">
        <ele>273</ele>
        <time>2014-02-16T16:12:42.1Z</time>
      </trkpt>
      <trkpt lat="48.46315" lon="-2.9051">
        <ele>273</ele>
        <time>2014-02-16T16:12:44.1Z</time>
      </trkpt>
      <trkpt lat="48.46311" lon="-2.90511">
        <ele>273</ele>
        <time>2014-02-16T16:12:47.1Z</time>
      </trkpt>
      <trkpt lat="48.46309" lon="-2.90513">
        <ele>272</ele>
        <time>2014-02-16T16:12:49.1Z</time>
      </trkpt>
      <trkpt lat="48.46305" lon="-2.90516">
        <ele>273</ele>
        <time>2014-02-16T16:12:52.1Z</time>
      </trkpt>
      <trkpt lat="48.46303" lon="-2.90517">
        <ele>273</ele>
        <time>2014-02-16T16:12:54.1Z</time>
      </trkpt>
      <trkpt lat="48.46299" lon="-2.90519">
        <ele>273</ele>
        <time>2014-02-16T16:12:57.1Z</time>
      </trkpt>
      <trkpt lat="48.46297" lon="-2.90521">
        <ele>273</ele>
        <time>2014-02-16T16:12:59.1Z</time>
      </trkpt>
      <trkpt lat="48.46294" lon="-2.90522">
        <ele>273</ele>
        <time>2014-02-16T16:13:02.1Z</time>
      </trkpt>
      <trkpt lat="48.46291" lon="-2.90524">
        <ele>273</ele>
        <time>2014-02-16T16:13:04.1Z</time>
      </trkpt>
      <trkpt lat="48.46288" lon="-2.90526">
        <ele>273</ele>
        <time>2014-02-16T16:13:07.1Z</time>
      </trkpt>
      <trkpt lat="48.46286" lon="-2.90527">
        <ele>273</ele>
        <time>2014-02-16T16:13:09.1Z</time>
      </trkpt>
      <trkpt lat="48.46283" lon="-2.90529">
        <ele>272</ele>
        <time>2014-02-16T16:13:12.1Z</time>
      </trkpt>
      <trkpt lat="48.4628" lon="-2.9053">
        <ele>272</ele>
        <time>2014-02-16T16:13:15.1Z</time>
      </trkpt>
      <trkpt lat="48.46278" lon="-2.90531">
        <ele>273</ele>
        <time>2014-02-16T16:13:17.1Z</time>
      </trkpt>
      <trkpt lat="48.46275" lon="-2.90532">
        <ele>272</ele>
        <time>2014-02-16T16:13:20.1Z</time>
      </trkpt>
      <trkpt lat="48.46272" lon="-2.90534">
        <ele>272</ele>
        <time>2014-02-16T16:13:23.1Z</time>
      </trkpt>
      <trkpt lat="48.4627" lon="-2.90534">
        <ele>272</ele>
        <time>2014-02-16T16:13:25.1Z</time>
      </trkpt>
      <trkpt lat="48.46267" lon="-2.90536">
        <ele>272</ele>
        <time>2014-02-16T16:13:28.1Z</time>
      </trkpt>
      <trkpt lat="48.46264" lon="-2.90538">
        <ele>272</ele>
        <time>2014-02-16T16:13:31.1Z</time>
      </trkpt>
      <trkpt lat="48.46261" lon="-2.90539">
        <ele>272</ele>
        <time>2014-02-16T16:13:34.1Z</time>
      </trkpt>
      <trkpt lat="48.46258" lon="-2.90541">
        <ele>272</ele>
        <time>2014-02-16T16:13:37.1Z</time>
      </trkpt>
      <trkpt lat="48.46256" lon="-2.90542">
        <ele>272</ele>
        <time>2014-02-16T16:13:39.1Z</time>
      </trkpt>
      <trkpt lat="48.46253" lon="-2.90542">
        <ele>272</ele>
        <time>2014-02-16T16:13:42.1Z</time>
      </trkpt>
      <trkpt lat="48.4625" lon="-2.90544">
        <ele>272</ele>
        <time>2014-02-16T16:13:45.1Z</time>
      </trkpt>
      <trkpt lat="48.46249" lon="-2.90544">
        <ele>272</ele>
        <time>2014-02-16T16:13:48.1Z</time>
      </trkpt>
      <trkpt lat="48.46249" lon="-2.90544">
        <ele>272</ele>
        <time>2014-02-16T16:13:51.1Z</time>
      </trkpt>
    </trkseg>
  </trk>
</gpx>